<?xml version="1.0" encoding="UTF-8" standalone="no" ?>
<gpx xmlns="http://www.topografix.com/GPX/1/1" xmlns:xsi="http://www.w3.org/2001/XMLSchema-instance" xsi:schemaLocation="http://www.topografix.com/GPX/1/1 http://www.topografix.com/GPX/1/1/gpx.xsd" version="1.1" creator="VisuGPX - https://www.visugpx.com">
  <metadata>
    <name>le trail du colorado 2013</name>
    <desc><![CDATA[belle course très technique]]></desc>
  </metadata>
  <trk>
    <name><![CDATA[Ttrail du colorado]]></name>
    <trkseg>
      <trkpt lat="-20.90867" lon="55.42349">
        <ele>704</ele>
        <time>2013-06-16T02:56:50Z</time>
      </trkpt>
      <trkpt lat="-20.90874" lon="55.42346">
        <ele>703.9</ele>
        <time>2013-06-16T03:02:29Z</time>
      </trkpt>
      <trkpt lat="-20.90876" lon="55.42345">
        <ele>703.7</ele>
        <time>2013-06-16T03:02:30Z</time>
      </trkpt>
      <trkpt lat="-20.90887" lon="55.42338">
        <ele>704.9</ele>
        <time>2013-06-16T03:02:37Z</time>
      </trkpt>
      <trkpt lat="-20.90894" lon="55.42334">
        <ele>705.2</ele>
        <time>2013-06-16T03:02:41Z</time>
      </trkpt>
      <trkpt lat="-20.90901" lon="55.42331">
        <ele>706</ele>
        <time>2013-06-16T03:02:45Z</time>
      </trkpt>
      <trkpt lat="-20.90907" lon="55.42327">
        <ele>707</ele>
        <time>2013-06-16T03:02:49Z</time>
      </trkpt>
      <trkpt lat="-20.90913" lon="55.42324">
        <ele>708</ele>
        <time>2013-06-16T03:02:53Z</time>
      </trkpt>
      <trkpt lat="-20.90921" lon="55.4232">
        <ele>709.6</ele>
        <time>2013-06-16T03:02:58Z</time>
      </trkpt>
      <trkpt lat="-20.90928" lon="55.42316">
        <ele>710.7</ele>
        <time>2013-06-16T03:03:03Z</time>
      </trkpt>
      <trkpt lat="-20.90936" lon="55.42312">
        <ele>712.1</ele>
        <time>2013-06-16T03:03:08Z</time>
      </trkpt>
      <trkpt lat="-20.90943" lon="55.42308">
        <ele>713.2</ele>
        <time>2013-06-16T03:03:13Z</time>
      </trkpt>
      <trkpt lat="-20.90951" lon="55.42304">
        <ele>714.8</ele>
        <time>2013-06-16T03:03:19Z</time>
      </trkpt>
      <trkpt lat="-20.90959" lon="55.42302">
        <ele>716</ele>
        <time>2013-06-16T03:03:24Z</time>
      </trkpt>
      <trkpt lat="-20.90968" lon="55.42299">
        <ele>717.9</ele>
        <time>2013-06-16T03:03:30Z</time>
      </trkpt>
      <trkpt lat="-20.90969" lon="55.42299">
        <ele>718</ele>
        <time>2013-06-16T03:03:31Z</time>
      </trkpt>
      <trkpt lat="-20.90984" lon="55.42298">
        <ele>720.5</ele>
        <time>2013-06-16T03:03:40Z</time>
      </trkpt>
      <trkpt lat="-20.90992" lon="55.42295">
        <ele>721.4</ele>
        <time>2013-06-16T03:03:45Z</time>
      </trkpt>
      <trkpt lat="-20.90999" lon="55.42292">
        <ele>721.3</ele>
        <time>2013-06-16T03:03:49Z</time>
      </trkpt>
      <trkpt lat="-20.91006" lon="55.42289">
        <ele>721.2</ele>
        <time>2013-06-16T03:03:53Z</time>
      </trkpt>
      <trkpt lat="-20.91013" lon="55.42288">
        <ele>721.1</ele>
        <time>2013-06-16T03:03:57Z</time>
      </trkpt>
      <trkpt lat="-20.91022" lon="55.42286">
        <ele>722.2</ele>
        <time>2013-06-16T03:04:02Z</time>
      </trkpt>
      <trkpt lat="-20.9103" lon="55.42285">
        <ele>722.9</ele>
        <time>2013-06-16T03:04:07Z</time>
      </trkpt>
      <trkpt lat="-20.91038" lon="55.42283">
        <ele>723.1</ele>
        <time>2013-06-16T03:04:12Z</time>
      </trkpt>
      <trkpt lat="-20.91046" lon="55.42282">
        <ele>723.3</ele>
        <time>2013-06-16T03:04:18Z</time>
      </trkpt>
      <trkpt lat="-20.91055" lon="55.42282">
        <ele>724.6</ele>
        <time>2013-06-16T03:04:25Z</time>
      </trkpt>
      <trkpt lat="-20.91064" lon="55.42282">
        <ele>726.5</ele>
        <time>2013-06-16T03:04:32Z</time>
      </trkpt>
      <trkpt lat="-20.91065" lon="55.42281">
        <ele>726.6</ele>
        <time>2013-06-16T03:04:33Z</time>
      </trkpt>
      <trkpt lat="-20.91081" lon="55.42281">
        <ele>731.2</ele>
        <time>2013-06-16T03:04:50Z</time>
      </trkpt>
      <trkpt lat="-20.91089" lon="55.42282">
        <ele>734.4</ele>
        <time>2013-06-16T03:04:59Z</time>
      </trkpt>
      <trkpt lat="-20.91098" lon="55.42282">
        <ele>737.5</ele>
        <time>2013-06-16T03:05:10Z</time>
      </trkpt>
      <trkpt lat="-20.91107" lon="55.42282">
        <ele>739.4</ele>
        <time>2013-06-16T03:05:20Z</time>
      </trkpt>
      <trkpt lat="-20.91111" lon="55.42275">
        <ele>740.6</ele>
        <time>2013-06-16T03:05:26Z</time>
      </trkpt>
      <trkpt lat="-20.91112" lon="55.42265">
        <ele>740.9</ele>
        <time>2013-06-16T03:05:31Z</time>
      </trkpt>
      <trkpt lat="-20.91113" lon="55.42257">
        <ele>740.9</ele>
        <time>2013-06-16T03:05:35Z</time>
      </trkpt>
      <trkpt lat="-20.91113" lon="55.42254">
        <ele>740.8</ele>
        <time>2013-06-16T03:05:36Z</time>
      </trkpt>
      <trkpt lat="-20.91115" lon="55.4224">
        <ele>740.7</ele>
        <time>2013-06-16T03:05:43Z</time>
      </trkpt>
      <trkpt lat="-20.91116" lon="55.42232">
        <ele>740.6</ele>
        <time>2013-06-16T03:05:47Z</time>
      </trkpt>
      <trkpt lat="-20.91118" lon="55.42223">
        <ele>740.1</ele>
        <time>2013-06-16T03:05:51Z</time>
      </trkpt>
      <trkpt lat="-20.91119" lon="55.42215">
        <ele>739.6</ele>
        <time>2013-06-16T03:05:54Z</time>
      </trkpt>
      <trkpt lat="-20.91121" lon="55.42206">
        <ele>739.5</ele>
        <time>2013-06-16T03:05:58Z</time>
      </trkpt>
      <trkpt lat="-20.91123" lon="55.42198">
        <ele>738.9</ele>
        <time>2013-06-16T03:06:02Z</time>
      </trkpt>
      <trkpt lat="-20.91126" lon="55.4219">
        <ele>739</ele>
        <time>2013-06-16T03:06:06Z</time>
      </trkpt>
      <trkpt lat="-20.91128" lon="55.42182">
        <ele>739.5</ele>
        <time>2013-06-16T03:06:10Z</time>
      </trkpt>
      <trkpt lat="-20.91128" lon="55.42173">
        <ele>739</ele>
        <time>2013-06-16T03:06:14Z</time>
      </trkpt>
      <trkpt lat="-20.91127" lon="55.42165">
        <ele>738.8</ele>
        <time>2013-06-16T03:06:17Z</time>
      </trkpt>
      <trkpt lat="-20.91127" lon="55.42157">
        <ele>738.5</ele>
        <time>2013-06-16T03:06:20Z</time>
      </trkpt>
      <trkpt lat="-20.91125" lon="55.42149">
        <ele>738</ele>
        <time>2013-06-16T03:06:24Z</time>
      </trkpt>
      <trkpt lat="-20.91118" lon="55.42145">
        <ele>737.4</ele>
        <time>2013-06-16T03:06:28Z</time>
      </trkpt>
      <trkpt lat="-20.91111" lon="55.42146">
        <ele>736.5</ele>
        <time>2013-06-16T03:06:31Z</time>
      </trkpt>
      <trkpt lat="-20.91103" lon="55.42146">
        <ele>734.8</ele>
        <time>2013-06-16T03:06:35Z</time>
      </trkpt>
      <trkpt lat="-20.91095" lon="55.42143">
        <ele>733.2</ele>
        <time>2013-06-16T03:06:39Z</time>
      </trkpt>
      <trkpt lat="-20.91094" lon="55.42141">
        <ele>732.4</ele>
        <time>2013-06-16T03:06:40Z</time>
      </trkpt>
      <trkpt lat="-20.91085" lon="55.4213">
        <ele>729.3</ele>
        <time>2013-06-16T03:06:46Z</time>
      </trkpt>
      <trkpt lat="-20.9108" lon="55.42123">
        <ele>727.3</ele>
        <time>2013-06-16T03:06:50Z</time>
      </trkpt>
      <trkpt lat="-20.91074" lon="55.42116">
        <ele>725.5</ele>
        <time>2013-06-16T03:06:54Z</time>
      </trkpt>
      <trkpt lat="-20.91067" lon="55.42111">
        <ele>723.9</ele>
        <time>2013-06-16T03:06:57Z</time>
      </trkpt>
      <trkpt lat="-20.9106" lon="55.42108">
        <ele>722.7</ele>
        <time>2013-06-16T03:07:00Z</time>
      </trkpt>
      <trkpt lat="-20.91053" lon="55.42108">
        <ele>721.7</ele>
        <time>2013-06-16T03:07:03Z</time>
      </trkpt>
      <trkpt lat="-20.91046" lon="55.4211">
        <ele>720.5</ele>
        <time>2013-06-16T03:07:06Z</time>
      </trkpt>
      <trkpt lat="-20.91041" lon="55.42116">
        <ele>719.2</ele>
        <time>2013-06-16T03:07:09Z</time>
      </trkpt>
      <trkpt lat="-20.9104" lon="55.42125">
        <ele>718.3</ele>
        <time>2013-06-16T03:07:12Z</time>
      </trkpt>
      <trkpt lat="-20.91041" lon="55.42134">
        <ele>717.7</ele>
        <time>2013-06-16T03:07:15Z</time>
      </trkpt>
      <trkpt lat="-20.91042" lon="55.42142">
        <ele>717.8</ele>
        <time>2013-06-16T03:07:18Z</time>
      </trkpt>
      <trkpt lat="-20.91045" lon="55.42149">
        <ele>717.8</ele>
        <time>2013-06-16T03:07:21Z</time>
      </trkpt>
      <trkpt lat="-20.91048" lon="55.42156">
        <ele>717.3</ele>
        <time>2013-06-16T03:07:24Z</time>
      </trkpt>
      <trkpt lat="-20.91052" lon="55.42164">
        <ele>717.9</ele>
        <time>2013-06-16T03:07:28Z</time>
      </trkpt>
      <trkpt lat="-20.91056" lon="55.42173">
        <ele>718.1</ele>
        <time>2013-06-16T03:07:32Z</time>
      </trkpt>
      <trkpt lat="-20.91057" lon="55.42181">
        <ele>718.4</ele>
        <time>2013-06-16T03:07:36Z</time>
      </trkpt>
      <trkpt lat="-20.91056" lon="55.42188">
        <ele>718.1</ele>
        <time>2013-06-16T03:07:39Z</time>
      </trkpt>
      <trkpt lat="-20.91052" lon="55.42195">
        <ele>717.9</ele>
        <time>2013-06-16T03:07:42Z</time>
      </trkpt>
      <trkpt lat="-20.9105" lon="55.42198">
        <ele>717.9</ele>
        <time>2013-06-16T03:07:43Z</time>
      </trkpt>
      <trkpt lat="-20.91042" lon="55.42207">
        <ele>717.7</ele>
        <time>2013-06-16T03:07:48Z</time>
      </trkpt>
      <trkpt lat="-20.91036" lon="55.42213">
        <ele>717.5</ele>
        <time>2013-06-16T03:07:51Z</time>
      </trkpt>
      <trkpt lat="-20.9103" lon="55.42217">
        <ele>716.6</ele>
        <time>2013-06-16T03:07:54Z</time>
      </trkpt>
      <trkpt lat="-20.91022" lon="55.42218">
        <ele>716.5</ele>
        <time>2013-06-16T03:07:57Z</time>
      </trkpt>
      <trkpt lat="-20.91015" lon="55.42219">
        <ele>716</ele>
        <time>2013-06-16T03:08:00Z</time>
      </trkpt>
      <trkpt lat="-20.91006" lon="55.42219">
        <ele>715.2</ele>
        <time>2013-06-16T03:08:04Z</time>
      </trkpt>
      <trkpt lat="-20.90999" lon="55.42219">
        <ele>715.7</ele>
        <time>2013-06-16T03:08:07Z</time>
      </trkpt>
      <trkpt lat="-20.90991" lon="55.42218">
        <ele>716</ele>
        <time>2013-06-16T03:08:11Z</time>
      </trkpt>
      <trkpt lat="-20.90984" lon="55.42215">
        <ele>716.1</ele>
        <time>2013-06-16T03:08:14Z</time>
      </trkpt>
      <trkpt lat="-20.90978" lon="55.42211">
        <ele>715.3</ele>
        <time>2013-06-16T03:08:17Z</time>
      </trkpt>
      <trkpt lat="-20.9097" lon="55.42206">
        <ele>715.2</ele>
        <time>2013-06-16T03:08:21Z</time>
      </trkpt>
      <trkpt lat="-20.90964" lon="55.42203">
        <ele>714.4</ele>
        <time>2013-06-16T03:08:24Z</time>
      </trkpt>
      <trkpt lat="-20.90956" lon="55.422">
        <ele>713.9</ele>
        <time>2013-06-16T03:08:27Z</time>
      </trkpt>
      <trkpt lat="-20.90948" lon="55.42198">
        <ele>713.1</ele>
        <time>2013-06-16T03:08:30Z</time>
      </trkpt>
      <trkpt lat="-20.90941" lon="55.42197">
        <ele>713.4</ele>
        <time>2013-06-16T03:08:33Z</time>
      </trkpt>
      <trkpt lat="-20.90934" lon="55.42195">
        <ele>711</ele>
        <time>2013-06-16T03:08:36Z</time>
      </trkpt>
      <trkpt lat="-20.90928" lon="55.4219">
        <ele>709.7</ele>
        <time>2013-06-16T03:08:39Z</time>
      </trkpt>
      <trkpt lat="-20.90924" lon="55.42182">
        <ele>707.4</ele>
        <time>2013-06-16T03:08:43Z</time>
      </trkpt>
      <trkpt lat="-20.90922" lon="55.4218">
        <ele>706.8</ele>
        <time>2013-06-16T03:08:44Z</time>
      </trkpt>
      <trkpt lat="-20.90914" lon="55.4217">
        <ele>705.7</ele>
        <time>2013-06-16T03:08:49Z</time>
      </trkpt>
      <trkpt lat="-20.90906" lon="55.42168">
        <ele>704.3</ele>
        <time>2013-06-16T03:08:52Z</time>
      </trkpt>
      <trkpt lat="-20.90901" lon="55.42172">
        <ele>703.2</ele>
        <time>2013-06-16T03:08:54Z</time>
      </trkpt>
      <trkpt lat="-20.90896" lon="55.4218">
        <ele>701.2</ele>
        <time>2013-06-16T03:08:57Z</time>
      </trkpt>
      <trkpt lat="-20.90893" lon="55.42189">
        <ele>700</ele>
        <time>2013-06-16T03:09:00Z</time>
      </trkpt>
      <trkpt lat="-20.90889" lon="55.42196">
        <ele>700</ele>
        <time>2013-06-16T03:09:03Z</time>
      </trkpt>
      <trkpt lat="-20.90883" lon="55.42201">
        <ele>700</ele>
        <time>2013-06-16T03:09:06Z</time>
      </trkpt>
      <trkpt lat="-20.90875" lon="55.42204">
        <ele>699.8</ele>
        <time>2013-06-16T03:09:09Z</time>
      </trkpt>
      <trkpt lat="-20.90867" lon="55.42206">
        <ele>699.1</ele>
        <time>2013-06-16T03:09:12Z</time>
      </trkpt>
      <trkpt lat="-20.90858" lon="55.42208">
        <ele>697.5</ele>
        <time>2013-06-16T03:09:15Z</time>
      </trkpt>
      <trkpt lat="-20.90851" lon="55.42213">
        <ele>696.1</ele>
        <time>2013-06-16T03:09:18Z</time>
      </trkpt>
      <trkpt lat="-20.90846" lon="55.4222">
        <ele>695.5</ele>
        <time>2013-06-16T03:09:21Z</time>
      </trkpt>
      <trkpt lat="-20.90844" lon="55.42228">
        <ele>695</ele>
        <time>2013-06-16T03:09:24Z</time>
      </trkpt>
      <trkpt lat="-20.90842" lon="55.42236">
        <ele>694.9</ele>
        <time>2013-06-16T03:09:27Z</time>
      </trkpt>
      <trkpt lat="-20.90841" lon="55.42245">
        <ele>694.7</ele>
        <time>2013-06-16T03:09:30Z</time>
      </trkpt>
      <trkpt lat="-20.9084" lon="55.42253">
        <ele>694.9</ele>
        <time>2013-06-16T03:09:33Z</time>
      </trkpt>
      <trkpt lat="-20.90837" lon="55.4226">
        <ele>695.1</ele>
        <time>2013-06-16T03:09:36Z</time>
      </trkpt>
      <trkpt lat="-20.90834" lon="55.42267">
        <ele>694.6</ele>
        <time>2013-06-16T03:09:39Z</time>
      </trkpt>
      <trkpt lat="-20.9083" lon="55.42275">
        <ele>695.6</ele>
        <time>2013-06-16T03:09:43Z</time>
      </trkpt>
      <trkpt lat="-20.90828" lon="55.42283">
        <ele>696.5</ele>
        <time>2013-06-16T03:09:47Z</time>
      </trkpt>
      <trkpt lat="-20.90827" lon="55.42285">
        <ele>696.7</ele>
        <time>2013-06-16T03:09:48Z</time>
      </trkpt>
      <trkpt lat="-20.90825" lon="55.42299">
        <ele>697.3</ele>
        <time>2013-06-16T03:09:53Z</time>
      </trkpt>
      <trkpt lat="-20.90825" lon="55.42307">
        <ele>697.8</ele>
        <time>2013-06-16T03:09:56Z</time>
      </trkpt>
      <trkpt lat="-20.90825" lon="55.42315">
        <ele>697.8</ele>
        <time>2013-06-16T03:09:59Z</time>
      </trkpt>
      <trkpt lat="-20.90824" lon="55.42323">
        <ele>698.7</ele>
        <time>2013-06-16T03:10:02Z</time>
      </trkpt>
      <trkpt lat="-20.90824" lon="55.42331">
        <ele>699.1</ele>
        <time>2013-06-16T03:10:05Z</time>
      </trkpt>
      <trkpt lat="-20.90822" lon="55.42338">
        <ele>698.8</ele>
        <time>2013-06-16T03:10:08Z</time>
      </trkpt>
      <trkpt lat="-20.90817" lon="55.42346">
        <ele>699.2</ele>
        <time>2013-06-16T03:10:12Z</time>
      </trkpt>
      <trkpt lat="-20.9081" lon="55.42349">
        <ele>699.9</ele>
        <time>2013-06-16T03:10:16Z</time>
      </trkpt>
      <trkpt lat="-20.90802" lon="55.42346">
        <ele>700.7</ele>
        <time>2013-06-16T03:10:23Z</time>
      </trkpt>
      <trkpt lat="-20.90796" lon="55.42341">
        <ele>701.5</ele>
        <time>2013-06-16T03:10:27Z</time>
      </trkpt>
      <trkpt lat="-20.90791" lon="55.42336">
        <ele>702.1</ele>
        <time>2013-06-16T03:10:30Z</time>
      </trkpt>
      <trkpt lat="-20.90785" lon="55.42332">
        <ele>702.7</ele>
        <time>2013-06-16T03:10:33Z</time>
      </trkpt>
      <trkpt lat="-20.9078" lon="55.42326">
        <ele>702.4</ele>
        <time>2013-06-16T03:10:36Z</time>
      </trkpt>
      <trkpt lat="-20.90773" lon="55.42321">
        <ele>703</ele>
        <time>2013-06-16T03:10:40Z</time>
      </trkpt>
      <trkpt lat="-20.90767" lon="55.42316">
        <ele>703.5</ele>
        <time>2013-06-16T03:10:44Z</time>
      </trkpt>
      <trkpt lat="-20.9076" lon="55.42311">
        <ele>704</ele>
        <time>2013-06-16T03:10:48Z</time>
      </trkpt>
      <trkpt lat="-20.90759" lon="55.4231">
        <ele>704</ele>
        <time>2013-06-16T03:10:49Z</time>
      </trkpt>
      <trkpt lat="-20.90747" lon="55.42302">
        <ele>705</ele>
        <time>2013-06-16T03:10:55Z</time>
      </trkpt>
      <trkpt lat="-20.9074" lon="55.42298">
        <ele>704.7</ele>
        <time>2013-06-16T03:10:58Z</time>
      </trkpt>
      <trkpt lat="-20.90734" lon="55.42295">
        <ele>704.4</ele>
        <time>2013-06-16T03:11:01Z</time>
      </trkpt>
      <trkpt lat="-20.90726" lon="55.42293">
        <ele>704.3</ele>
        <time>2013-06-16T03:11:05Z</time>
      </trkpt>
      <trkpt lat="-20.90718" lon="55.42293">
        <ele>704.9</ele>
        <time>2013-06-16T03:11:09Z</time>
      </trkpt>
      <trkpt lat="-20.90711" lon="55.423">
        <ele>705.3</ele>
        <time>2013-06-16T03:11:13Z</time>
      </trkpt>
      <trkpt lat="-20.90709" lon="55.42309">
        <ele>705</ele>
        <time>2013-06-16T03:11:17Z</time>
      </trkpt>
      <trkpt lat="-20.90708" lon="55.42316">
        <ele>704.5</ele>
        <time>2013-06-16T03:11:20Z</time>
      </trkpt>
      <trkpt lat="-20.90705" lon="55.42324">
        <ele>703.5</ele>
        <time>2013-06-16T03:11:24Z</time>
      </trkpt>
      <trkpt lat="-20.90703" lon="55.42331">
        <ele>702.5</ele>
        <time>2013-06-16T03:11:27Z</time>
      </trkpt>
      <trkpt lat="-20.90699" lon="55.42339">
        <ele>702</ele>
        <time>2013-06-16T03:11:31Z</time>
      </trkpt>
      <trkpt lat="-20.90695" lon="55.42345">
        <ele>700.9</ele>
        <time>2013-06-16T03:11:34Z</time>
      </trkpt>
      <trkpt lat="-20.90692" lon="55.42351">
        <ele>699.1</ele>
        <time>2013-06-16T03:11:37Z</time>
      </trkpt>
      <trkpt lat="-20.90688" lon="55.42358">
        <ele>698.4</ele>
        <time>2013-06-16T03:11:40Z</time>
      </trkpt>
      <trkpt lat="-20.90686" lon="55.42366">
        <ele>697.5</ele>
        <time>2013-06-16T03:11:43Z</time>
      </trkpt>
      <trkpt lat="-20.90684" lon="55.42374">
        <ele>696</ele>
        <time>2013-06-16T03:11:46Z</time>
      </trkpt>
      <trkpt lat="-20.90682" lon="55.42382">
        <ele>695</ele>
        <time>2013-06-16T03:11:49Z</time>
      </trkpt>
      <trkpt lat="-20.90682" lon="55.42385">
        <ele>694.8</ele>
        <time>2013-06-16T03:11:50Z</time>
      </trkpt>
      <trkpt lat="-20.90684" lon="55.42398">
        <ele>692.3</ele>
        <time>2013-06-16T03:11:55Z</time>
      </trkpt>
      <trkpt lat="-20.90687" lon="55.42406">
        <ele>691.4</ele>
        <time>2013-06-16T03:11:58Z</time>
      </trkpt>
      <trkpt lat="-20.90692" lon="55.42414">
        <ele>690.7</ele>
        <time>2013-06-16T03:12:01Z</time>
      </trkpt>
      <trkpt lat="-20.90697" lon="55.42422">
        <ele>689.4</ele>
        <time>2013-06-16T03:12:05Z</time>
      </trkpt>
      <trkpt lat="-20.90702" lon="55.42428">
        <ele>690.1</ele>
        <time>2013-06-16T03:12:10Z</time>
      </trkpt>
      <trkpt lat="-20.90707" lon="55.42436">
        <ele>692.7</ele>
        <time>2013-06-16T03:12:17Z</time>
      </trkpt>
      <trkpt lat="-20.90712" lon="55.42442">
        <ele>694.5</ele>
        <time>2013-06-16T03:12:22Z</time>
      </trkpt>
      <trkpt lat="-20.90718" lon="55.42446">
        <ele>695.1</ele>
        <time>2013-06-16T03:12:27Z</time>
      </trkpt>
      <trkpt lat="-20.90724" lon="55.4245">
        <ele>695.5</ele>
        <time>2013-06-16T03:12:31Z</time>
      </trkpt>
      <trkpt lat="-20.90732" lon="55.42454">
        <ele>696.5</ele>
        <time>2013-06-16T03:12:35Z</time>
      </trkpt>
      <trkpt lat="-20.90739" lon="55.42458">
        <ele>697.1</ele>
        <time>2013-06-16T03:12:40Z</time>
      </trkpt>
      <trkpt lat="-20.90747" lon="55.4246">
        <ele>698.1</ele>
        <time>2013-06-16T03:12:45Z</time>
      </trkpt>
      <trkpt lat="-20.90754" lon="55.42459">
        <ele>699.7</ele>
        <time>2013-06-16T03:12:50Z</time>
      </trkpt>
      <trkpt lat="-20.90756" lon="55.42458">
        <ele>699.8</ele>
        <time>2013-06-16T03:12:51Z</time>
      </trkpt>
      <trkpt lat="-20.90767" lon="55.42447">
        <ele>702</ele>
        <time>2013-06-16T03:13:02Z</time>
      </trkpt>
      <trkpt lat="-20.90771" lon="55.42439">
        <ele>702.2</ele>
        <time>2013-06-16T03:13:06Z</time>
      </trkpt>
      <trkpt lat="-20.90775" lon="55.42433">
        <ele>702.1</ele>
        <time>2013-06-16T03:13:09Z</time>
      </trkpt>
      <trkpt lat="-20.9078" lon="55.42427">
        <ele>702.2</ele>
        <time>2013-06-16T03:13:12Z</time>
      </trkpt>
      <trkpt lat="-20.90785" lon="55.42421">
        <ele>701.3</ele>
        <time>2013-06-16T03:13:15Z</time>
      </trkpt>
      <trkpt lat="-20.9079" lon="55.42416">
        <ele>701.6</ele>
        <time>2013-06-16T03:13:18Z</time>
      </trkpt>
      <trkpt lat="-20.90795" lon="55.42411">
        <ele>701.8</ele>
        <time>2013-06-16T03:13:21Z</time>
      </trkpt>
      <trkpt lat="-20.90801" lon="55.42405">
        <ele>701.1</ele>
        <time>2013-06-16T03:13:25Z</time>
      </trkpt>
      <trkpt lat="-20.90807" lon="55.424">
        <ele>702</ele>
        <time>2013-06-16T03:13:29Z</time>
      </trkpt>
      <trkpt lat="-20.90815" lon="55.42395">
        <ele>702.9</ele>
        <time>2013-06-16T03:13:33Z</time>
      </trkpt>
      <trkpt lat="-20.90822" lon="55.42391">
        <ele>702.3</ele>
        <time>2013-06-16T03:13:37Z</time>
      </trkpt>
      <trkpt lat="-20.9083" lon="55.42386">
        <ele>700.8</ele>
        <time>2013-06-16T03:13:41Z</time>
      </trkpt>
      <trkpt lat="-20.90836" lon="55.42381">
        <ele>700.8</ele>
        <time>2013-06-16T03:13:45Z</time>
      </trkpt>
      <trkpt lat="-20.90841" lon="55.42375">
        <ele>700.4</ele>
        <time>2013-06-16T03:13:48Z</time>
      </trkpt>
      <trkpt lat="-20.90847" lon="55.42369">
        <ele>700.3</ele>
        <time>2013-06-16T03:13:52Z</time>
      </trkpt>
      <trkpt lat="-20.90848" lon="55.42368">
        <ele>700.4</ele>
        <time>2013-06-16T03:13:53Z</time>
      </trkpt>
      <trkpt lat="-20.90861" lon="55.42359">
        <ele>701.6</ele>
        <time>2013-06-16T03:14:01Z</time>
      </trkpt>
      <trkpt lat="-20.90868" lon="55.42354">
        <ele>702.4</ele>
        <time>2013-06-16T03:14:05Z</time>
      </trkpt>
      <trkpt lat="-20.90875" lon="55.4235">
        <ele>702.2</ele>
        <time>2013-06-16T03:14:09Z</time>
      </trkpt>
      <trkpt lat="-20.90882" lon="55.42346">
        <ele>702.8</ele>
        <time>2013-06-16T03:14:14Z</time>
      </trkpt>
      <trkpt lat="-20.9089" lon="55.42342">
        <ele>704</ele>
        <time>2013-06-16T03:14:20Z</time>
      </trkpt>
      <trkpt lat="-20.90897" lon="55.42338">
        <ele>704.9</ele>
        <time>2013-06-16T03:14:25Z</time>
      </trkpt>
      <trkpt lat="-20.90903" lon="55.42334">
        <ele>705.5</ele>
        <time>2013-06-16T03:14:30Z</time>
      </trkpt>
      <trkpt lat="-20.9091" lon="55.4233">
        <ele>706.6</ele>
        <time>2013-06-16T03:14:35Z</time>
      </trkpt>
      <trkpt lat="-20.90917" lon="55.42327">
        <ele>707.6</ele>
        <time>2013-06-16T03:14:40Z</time>
      </trkpt>
      <trkpt lat="-20.90924" lon="55.42322">
        <ele>708.7</ele>
        <time>2013-06-16T03:14:45Z</time>
      </trkpt>
      <trkpt lat="-20.90932" lon="55.42318">
        <ele>709.8</ele>
        <time>2013-06-16T03:14:51Z</time>
      </trkpt>
      <trkpt lat="-20.9094" lon="55.42315">
        <ele>711.4</ele>
        <time>2013-06-16T03:14:57Z</time>
      </trkpt>
      <trkpt lat="-20.90941" lon="55.42314">
        <ele>711.7</ele>
        <time>2013-06-16T03:14:58Z</time>
      </trkpt>
      <trkpt lat="-20.90955" lon="55.42308">
        <ele>714.3</ele>
        <time>2013-06-16T03:15:10Z</time>
      </trkpt>
      <trkpt lat="-20.90963" lon="55.42305">
        <ele>715.7</ele>
        <time>2013-06-16T03:15:16Z</time>
      </trkpt>
      <trkpt lat="-20.90971" lon="55.42302">
        <ele>716.9</ele>
        <time>2013-06-16T03:15:22Z</time>
      </trkpt>
      <trkpt lat="-20.90979" lon="55.42302">
        <ele>718</ele>
        <time>2013-06-16T03:15:28Z</time>
      </trkpt>
      <trkpt lat="-20.90987" lon="55.42299">
        <ele>719.3</ele>
        <time>2013-06-16T03:15:34Z</time>
      </trkpt>
      <trkpt lat="-20.90994" lon="55.42296">
        <ele>720.1</ele>
        <time>2013-06-16T03:15:39Z</time>
      </trkpt>
      <trkpt lat="-20.91001" lon="55.42293">
        <ele>721.3</ele>
        <time>2013-06-16T03:15:44Z</time>
      </trkpt>
      <trkpt lat="-20.91008" lon="55.4229">
        <ele>720.7</ele>
        <time>2013-06-16T03:15:49Z</time>
      </trkpt>
      <trkpt lat="-20.91016" lon="55.42289">
        <ele>720.8</ele>
        <time>2013-06-16T03:15:54Z</time>
      </trkpt>
      <trkpt lat="-20.91024" lon="55.42288">
        <ele>720.6</ele>
        <time>2013-06-16T03:15:59Z</time>
      </trkpt>
      <trkpt lat="-20.91025" lon="55.42288">
        <ele>720.7</ele>
        <time>2013-06-16T03:16:00Z</time>
      </trkpt>
      <trkpt lat="-20.91041" lon="55.42286">
        <ele>722</ele>
        <time>2013-06-16T03:16:10Z</time>
      </trkpt>
      <trkpt lat="-20.91049" lon="55.42285">
        <ele>723</ele>
        <time>2013-06-16T03:16:16Z</time>
      </trkpt>
      <trkpt lat="-20.91057" lon="55.42284">
        <ele>724.2</ele>
        <time>2013-06-16T03:16:22Z</time>
      </trkpt>
      <trkpt lat="-20.91066" lon="55.42284">
        <ele>725.7</ele>
        <time>2013-06-16T03:16:29Z</time>
      </trkpt>
      <trkpt lat="-20.91074" lon="55.42285">
        <ele>728.5</ele>
        <time>2013-06-16T03:16:38Z</time>
      </trkpt>
      <trkpt lat="-20.91083" lon="55.42286">
        <ele>730.8</ele>
        <time>2013-06-16T03:16:48Z</time>
      </trkpt>
      <trkpt lat="-20.91091" lon="55.42285">
        <ele>733.2</ele>
        <time>2013-06-16T03:16:56Z</time>
      </trkpt>
      <trkpt lat="-20.911" lon="55.42285">
        <ele>736.4</ele>
        <time>2013-06-16T03:17:05Z</time>
      </trkpt>
      <trkpt lat="-20.91101" lon="55.42285">
        <ele>736.9</ele>
        <time>2013-06-16T03:17:06Z</time>
      </trkpt>
      <trkpt lat="-20.91113" lon="55.42276">
        <ele>739.2</ele>
        <time>2013-06-16T03:17:18Z</time>
      </trkpt>
      <trkpt lat="-20.91114" lon="55.42268">
        <ele>739.4</ele>
        <time>2013-06-16T03:17:23Z</time>
      </trkpt>
      <trkpt lat="-20.91115" lon="55.4226">
        <ele>739.5</ele>
        <time>2013-06-16T03:17:26Z</time>
      </trkpt>
      <trkpt lat="-20.91115" lon="55.42251">
        <ele>739.9</ele>
        <time>2013-06-16T03:17:30Z</time>
      </trkpt>
      <trkpt lat="-20.91115" lon="55.42242">
        <ele>739.6</ele>
        <time>2013-06-16T03:17:34Z</time>
      </trkpt>
      <trkpt lat="-20.91116" lon="55.42234">
        <ele>740.3</ele>
        <time>2013-06-16T03:17:37Z</time>
      </trkpt>
      <trkpt lat="-20.91117" lon="55.42226">
        <ele>740.2</ele>
        <time>2013-06-16T03:17:40Z</time>
      </trkpt>
      <trkpt lat="-20.91118" lon="55.42218">
        <ele>739.3</ele>
        <time>2013-06-16T03:17:43Z</time>
      </trkpt>
      <trkpt lat="-20.91119" lon="55.4221">
        <ele>738.8</ele>
        <time>2013-06-16T03:17:46Z</time>
      </trkpt>
      <trkpt lat="-20.91121" lon="55.42202">
        <ele>739.2</ele>
        <time>2013-06-16T03:17:49Z</time>
      </trkpt>
      <trkpt lat="-20.91124" lon="55.42194">
        <ele>739.2</ele>
        <time>2013-06-16T03:17:53Z</time>
      </trkpt>
      <trkpt lat="-20.91126" lon="55.42186">
        <ele>738.9</ele>
        <time>2013-06-16T03:17:57Z</time>
      </trkpt>
      <trkpt lat="-20.91127" lon="55.42177">
        <ele>739.1</ele>
        <time>2013-06-16T03:18:01Z</time>
      </trkpt>
      <trkpt lat="-20.91126" lon="55.42168">
        <ele>739.2</ele>
        <time>2013-06-16T03:18:05Z</time>
      </trkpt>
      <trkpt lat="-20.91127" lon="55.4216">
        <ele>738.6</ele>
        <time>2013-06-16T03:18:08Z</time>
      </trkpt>
      <trkpt lat="-20.91127" lon="55.42158">
        <ele>738.4</ele>
        <time>2013-06-16T03:18:09Z</time>
      </trkpt>
      <trkpt lat="-20.91131" lon="55.42145">
        <ele>736.7</ele>
        <time>2013-06-16T03:18:15Z</time>
      </trkpt>
      <trkpt lat="-20.91138" lon="55.4214">
        <ele>736.3</ele>
        <time>2013-06-16T03:18:19Z</time>
      </trkpt>
      <trkpt lat="-20.91147" lon="55.4214">
        <ele>737</ele>
        <time>2013-06-16T03:18:26Z</time>
      </trkpt>
      <trkpt lat="-20.91156" lon="55.4214">
        <ele>737.2</ele>
        <time>2013-06-16T03:18:31Z</time>
      </trkpt>
      <trkpt lat="-20.91163" lon="55.42141">
        <ele>737.5</ele>
        <time>2013-06-16T03:18:34Z</time>
      </trkpt>
      <trkpt lat="-20.9117" lon="55.42137">
        <ele>737.2</ele>
        <time>2013-06-16T03:18:38Z</time>
      </trkpt>
      <trkpt lat="-20.91178" lon="55.42135">
        <ele>737.6</ele>
        <time>2013-06-16T03:18:41Z</time>
      </trkpt>
      <trkpt lat="-20.91186" lon="55.42133">
        <ele>737.4</ele>
        <time>2013-06-16T03:18:45Z</time>
      </trkpt>
      <trkpt lat="-20.91194" lon="55.42132">
        <ele>738.5</ele>
        <time>2013-06-16T03:18:48Z</time>
      </trkpt>
      <trkpt lat="-20.91201" lon="55.42128">
        <ele>738.5</ele>
        <time>2013-06-16T03:18:51Z</time>
      </trkpt>
      <trkpt lat="-20.91208" lon="55.42124">
        <ele>738</ele>
        <time>2013-06-16T03:18:54Z</time>
      </trkpt>
      <trkpt lat="-20.91213" lon="55.42119">
        <ele>737.6</ele>
        <time>2013-06-16T03:18:57Z</time>
      </trkpt>
      <trkpt lat="-20.91219" lon="55.42114">
        <ele>737.8</ele>
        <time>2013-06-16T03:19:00Z</time>
      </trkpt>
      <trkpt lat="-20.91224" lon="55.42109">
        <ele>737.2</ele>
        <time>2013-06-16T03:19:03Z</time>
      </trkpt>
      <trkpt lat="-20.91229" lon="55.42105">
        <ele>736.7</ele>
        <time>2013-06-16T03:19:06Z</time>
      </trkpt>
      <trkpt lat="-20.91235" lon="55.42098">
        <ele>736</ele>
        <time>2013-06-16T03:19:10Z</time>
      </trkpt>
      <trkpt lat="-20.91237" lon="55.42097">
        <ele>736</ele>
        <time>2013-06-16T03:19:11Z</time>
      </trkpt>
      <trkpt lat="-20.91246" lon="55.42086">
        <ele>733.6</ele>
        <time>2013-06-16T03:19:20Z</time>
      </trkpt>
      <trkpt lat="-20.91249" lon="55.42078">
        <ele>732.9</ele>
        <time>2013-06-16T03:19:25Z</time>
      </trkpt>
      <trkpt lat="-20.91251" lon="55.4207">
        <ele>732.9</ele>
        <time>2013-06-16T03:19:29Z</time>
      </trkpt>
      <trkpt lat="-20.91254" lon="55.42062">
        <ele>732.7</ele>
        <time>2013-06-16T03:19:32Z</time>
      </trkpt>
      <trkpt lat="-20.91256" lon="55.42054">
        <ele>732.9</ele>
        <time>2013-06-16T03:19:35Z</time>
      </trkpt>
      <trkpt lat="-20.91258" lon="55.42047">
        <ele>732.8</ele>
        <time>2013-06-16T03:19:38Z</time>
      </trkpt>
      <trkpt lat="-20.9126" lon="55.42039">
        <ele>732.3</ele>
        <time>2013-06-16T03:19:41Z</time>
      </trkpt>
      <trkpt lat="-20.91264" lon="55.42033">
        <ele>732.9</ele>
        <time>2013-06-16T03:19:44Z</time>
      </trkpt>
      <trkpt lat="-20.9127" lon="55.42028">
        <ele>734</ele>
        <time>2013-06-16T03:19:48Z</time>
      </trkpt>
      <trkpt lat="-20.91276" lon="55.42025">
        <ele>734.9</ele>
        <time>2013-06-16T03:19:52Z</time>
      </trkpt>
      <trkpt lat="-20.91284" lon="55.42024">
        <ele>734.7</ele>
        <time>2013-06-16T03:19:57Z</time>
      </trkpt>
      <trkpt lat="-20.91292" lon="55.42023">
        <ele>733.7</ele>
        <time>2013-06-16T03:20:03Z</time>
      </trkpt>
      <trkpt lat="-20.913" lon="55.42019">
        <ele>733.4</ele>
        <time>2013-06-16T03:20:08Z</time>
      </trkpt>
      <trkpt lat="-20.91304" lon="55.42013">
        <ele>732.8</ele>
        <time>2013-06-16T03:20:11Z</time>
      </trkpt>
      <trkpt lat="-20.91306" lon="55.42011">
        <ele>732.6</ele>
        <time>2013-06-16T03:20:12Z</time>
      </trkpt>
      <trkpt lat="-20.91313" lon="55.42">
        <ele>732.2</ele>
        <time>2013-06-16T03:20:18Z</time>
      </trkpt>
      <trkpt lat="-20.91317" lon="55.41994">
        <ele>732.3</ele>
        <time>2013-06-16T03:20:21Z</time>
      </trkpt>
      <trkpt lat="-20.91323" lon="55.41986">
        <ele>732.6</ele>
        <time>2013-06-16T03:20:25Z</time>
      </trkpt>
      <trkpt lat="-20.91326" lon="55.4198">
        <ele>732.8</ele>
        <time>2013-06-16T03:20:28Z</time>
      </trkpt>
      <trkpt lat="-20.91331" lon="55.41973">
        <ele>733.7</ele>
        <time>2013-06-16T03:20:32Z</time>
      </trkpt>
      <trkpt lat="-20.91339" lon="55.41969">
        <ele>732.3</ele>
        <time>2013-06-16T03:20:36Z</time>
      </trkpt>
      <trkpt lat="-20.91346" lon="55.41966">
        <ele>731.3</ele>
        <time>2013-06-16T03:20:40Z</time>
      </trkpt>
      <trkpt lat="-20.91353" lon="55.41962">
        <ele>730.4</ele>
        <time>2013-06-16T03:20:44Z</time>
      </trkpt>
      <trkpt lat="-20.9136" lon="55.41957">
        <ele>728</ele>
        <time>2013-06-16T03:20:48Z</time>
      </trkpt>
      <trkpt lat="-20.91366" lon="55.41952">
        <ele>726.8</ele>
        <time>2013-06-16T03:20:52Z</time>
      </trkpt>
      <trkpt lat="-20.9137" lon="55.41945">
        <ele>723.7</ele>
        <time>2013-06-16T03:20:56Z</time>
      </trkpt>
      <trkpt lat="-20.91373" lon="55.41938">
        <ele>722.7</ele>
        <time>2013-06-16T03:20:59Z</time>
      </trkpt>
      <trkpt lat="-20.91377" lon="55.41932">
        <ele>722.8</ele>
        <time>2013-06-16T03:21:02Z</time>
      </trkpt>
      <trkpt lat="-20.91379" lon="55.41924">
        <ele>722.1</ele>
        <time>2013-06-16T03:21:05Z</time>
      </trkpt>
      <trkpt lat="-20.91378" lon="55.41916">
        <ele>722.1</ele>
        <time>2013-06-16T03:21:08Z</time>
      </trkpt>
      <trkpt lat="-20.91379" lon="55.41908">
        <ele>722</ele>
        <time>2013-06-16T03:21:11Z</time>
      </trkpt>
      <trkpt lat="-20.9138" lon="55.41899">
        <ele>722</ele>
        <time>2013-06-16T03:21:14Z</time>
      </trkpt>
      <trkpt lat="-20.9138" lon="55.41896">
        <ele>722.3</ele>
        <time>2013-06-16T03:21:15Z</time>
      </trkpt>
      <trkpt lat="-20.91383" lon="55.41883">
        <ele>722.6</ele>
        <time>2013-06-16T03:21:20Z</time>
      </trkpt>
      <trkpt lat="-20.91388" lon="55.41875">
        <ele>722.2</ele>
        <time>2013-06-16T03:21:24Z</time>
      </trkpt>
      <trkpt lat="-20.91393" lon="55.41868">
        <ele>722.9</ele>
        <time>2013-06-16T03:21:28Z</time>
      </trkpt>
      <trkpt lat="-20.91398" lon="55.41862">
        <ele>723.6</ele>
        <time>2013-06-16T03:21:32Z</time>
      </trkpt>
      <trkpt lat="-20.91404" lon="55.41855">
        <ele>724</ele>
        <time>2013-06-16T03:21:37Z</time>
      </trkpt>
      <trkpt lat="-20.91407" lon="55.41848">
        <ele>724.7</ele>
        <time>2013-06-16T03:21:41Z</time>
      </trkpt>
      <trkpt lat="-20.91411" lon="55.41841">
        <ele>725.5</ele>
        <time>2013-06-16T03:21:45Z</time>
      </trkpt>
      <trkpt lat="-20.91415" lon="55.41834">
        <ele>725.8</ele>
        <time>2013-06-16T03:21:49Z</time>
      </trkpt>
      <trkpt lat="-20.91416" lon="55.41825">
        <ele>727.6</ele>
        <time>2013-06-16T03:21:54Z</time>
      </trkpt>
      <trkpt lat="-20.91417" lon="55.41816">
        <ele>728.6</ele>
        <time>2013-06-16T03:21:59Z</time>
      </trkpt>
      <trkpt lat="-20.91416" lon="55.41807">
        <ele>728.7</ele>
        <time>2013-06-16T03:22:03Z</time>
      </trkpt>
      <trkpt lat="-20.91421" lon="55.418">
        <ele>728.5</ele>
        <time>2013-06-16T03:22:09Z</time>
      </trkpt>
      <trkpt lat="-20.91429" lon="55.418">
        <ele>729.2</ele>
        <time>2013-06-16T03:22:13Z</time>
      </trkpt>
      <trkpt lat="-20.91438" lon="55.41798">
        <ele>728.6</ele>
        <time>2013-06-16T03:22:22Z</time>
      </trkpt>
      <trkpt lat="-20.91439" lon="55.41798">
        <ele>728.4</ele>
        <time>2013-06-16T03:22:23Z</time>
      </trkpt>
      <trkpt lat="-20.91452" lon="55.41788">
        <ele>722.8</ele>
        <time>2013-06-16T03:22:39Z</time>
      </trkpt>
      <trkpt lat="-20.91457" lon="55.41781">
        <ele>721.5</ele>
        <time>2013-06-16T03:22:44Z</time>
      </trkpt>
      <trkpt lat="-20.91461" lon="55.41774">
        <ele>720.1</ele>
        <time>2013-06-16T03:22:49Z</time>
      </trkpt>
      <trkpt lat="-20.91467" lon="55.41769">
        <ele>719.8</ele>
        <time>2013-06-16T03:22:55Z</time>
      </trkpt>
      <trkpt lat="-20.91473" lon="55.41762">
        <ele>720.5</ele>
        <time>2013-06-16T03:23:02Z</time>
      </trkpt>
      <trkpt lat="-20.91478" lon="55.41754">
        <ele>722.3</ele>
        <time>2013-06-16T03:23:10Z</time>
      </trkpt>
      <trkpt lat="-20.91481" lon="55.41746">
        <ele>724.6</ele>
        <time>2013-06-16T03:23:18Z</time>
      </trkpt>
      <trkpt lat="-20.91486" lon="55.41738">
        <ele>727.9</ele>
        <time>2013-06-16T03:23:28Z</time>
      </trkpt>
      <trkpt lat="-20.91486" lon="55.41737">
        <ele>728</ele>
        <time>2013-06-16T03:23:29Z</time>
      </trkpt>
      <trkpt lat="-20.91497" lon="55.41725">
        <ele>734.1</ele>
        <time>2013-06-16T03:23:48Z</time>
      </trkpt>
      <trkpt lat="-20.91506" lon="55.41722">
        <ele>736.4</ele>
        <time>2013-06-16T03:23:58Z</time>
      </trkpt>
      <trkpt lat="-20.91513" lon="55.41718">
        <ele>739.9</ele>
        <time>2013-06-16T03:24:12Z</time>
      </trkpt>
      <trkpt lat="-20.91521" lon="55.41715">
        <ele>740.8</ele>
        <time>2013-06-16T03:24:18Z</time>
      </trkpt>
      <trkpt lat="-20.91529" lon="55.41713">
        <ele>742</ele>
        <time>2013-06-16T03:24:26Z</time>
      </trkpt>
      <trkpt lat="-20.91537" lon="55.41709">
        <ele>742.3</ele>
        <time>2013-06-16T03:24:32Z</time>
      </trkpt>
      <trkpt lat="-20.91538" lon="55.41708">
        <ele>742.1</ele>
        <time>2013-06-16T03:24:33Z</time>
      </trkpt>
      <trkpt lat="-20.9155" lon="55.41698">
        <ele>745.7</ele>
        <time>2013-06-16T03:24:47Z</time>
      </trkpt>
      <trkpt lat="-20.91557" lon="55.41694">
        <ele>746.3</ele>
        <time>2013-06-16T03:24:54Z</time>
      </trkpt>
      <trkpt lat="-20.91565" lon="55.41691">
        <ele>745.6</ele>
        <time>2013-06-16T03:25:00Z</time>
      </trkpt>
      <trkpt lat="-20.91574" lon="55.41688">
        <ele>744.4</ele>
        <time>2013-06-16T03:25:06Z</time>
      </trkpt>
      <trkpt lat="-20.91581" lon="55.41683">
        <ele>743.3</ele>
        <time>2013-06-16T03:25:12Z</time>
      </trkpt>
      <trkpt lat="-20.91588" lon="55.41679">
        <ele>741.2</ele>
        <time>2013-06-16T03:25:16Z</time>
      </trkpt>
      <trkpt lat="-20.91594" lon="55.41674">
        <ele>740.9</ele>
        <time>2013-06-16T03:25:20Z</time>
      </trkpt>
      <trkpt lat="-20.91601" lon="55.41671">
        <ele>742.2</ele>
        <time>2013-06-16T03:25:24Z</time>
      </trkpt>
      <trkpt lat="-20.91607" lon="55.41666">
        <ele>742.2</ele>
        <time>2013-06-16T03:25:28Z</time>
      </trkpt>
      <trkpt lat="-20.91613" lon="55.41662">
        <ele>742.9</ele>
        <time>2013-06-16T03:25:32Z</time>
      </trkpt>
      <trkpt lat="-20.9162" lon="55.41657">
        <ele>743.2</ele>
        <time>2013-06-16T03:25:37Z</time>
      </trkpt>
      <trkpt lat="-20.91622" lon="55.41657">
        <ele>743.2</ele>
        <time>2013-06-16T03:25:38Z</time>
      </trkpt>
      <trkpt lat="-20.91636" lon="55.41651">
        <ele>745.7</ele>
        <time>2013-06-16T03:25:49Z</time>
      </trkpt>
      <trkpt lat="-20.91642" lon="55.41644">
        <ele>747.1</ele>
        <time>2013-06-16T03:25:56Z</time>
      </trkpt>
      <trkpt lat="-20.91649" lon="55.41639">
        <ele>749</ele>
        <time>2013-06-16T03:26:04Z</time>
      </trkpt>
      <trkpt lat="-20.91657" lon="55.41633">
        <ele>749.7</ele>
        <time>2013-06-16T03:26:10Z</time>
      </trkpt>
      <trkpt lat="-20.91665" lon="55.41629">
        <ele>749.1</ele>
        <time>2013-06-16T03:26:15Z</time>
      </trkpt>
      <trkpt lat="-20.91671" lon="55.41624">
        <ele>748.6</ele>
        <time>2013-06-16T03:26:20Z</time>
      </trkpt>
      <trkpt lat="-20.91678" lon="55.41619">
        <ele>747</ele>
        <time>2013-06-16T03:26:25Z</time>
      </trkpt>
      <trkpt lat="-20.91685" lon="55.41616">
        <ele>745.2</ele>
        <time>2013-06-16T03:26:31Z</time>
      </trkpt>
      <trkpt lat="-20.91692" lon="55.41612">
        <ele>744.9</ele>
        <time>2013-06-16T03:26:38Z</time>
      </trkpt>
      <trkpt lat="-20.91693" lon="55.41612">
        <ele>745.1</ele>
        <time>2013-06-16T03:26:39Z</time>
      </trkpt>
      <trkpt lat="-20.91709" lon="55.41608">
        <ele>749.2</ele>
        <time>2013-06-16T03:26:54Z</time>
      </trkpt>
      <trkpt lat="-20.91717" lon="55.41607">
        <ele>751.3</ele>
        <time>2013-06-16T03:27:00Z</time>
      </trkpt>
      <trkpt lat="-20.91725" lon="55.41602">
        <ele>752.1</ele>
        <time>2013-06-16T03:27:06Z</time>
      </trkpt>
      <trkpt lat="-20.91731" lon="55.41596">
        <ele>754.7</ele>
        <time>2013-06-16T03:27:12Z</time>
      </trkpt>
      <trkpt lat="-20.91736" lon="55.41589">
        <ele>756.5</ele>
        <time>2013-06-16T03:27:19Z</time>
      </trkpt>
      <trkpt lat="-20.91744" lon="55.41585">
        <ele>759.2</ele>
        <time>2013-06-16T03:27:32Z</time>
      </trkpt>
      <trkpt lat="-20.91749" lon="55.41578">
        <ele>761.1</ele>
        <time>2013-06-16T03:27:42Z</time>
      </trkpt>
      <trkpt lat="-20.91749" lon="55.41577">
        <ele>761.1</ele>
        <time>2013-06-16T03:27:43Z</time>
      </trkpt>
      <trkpt lat="-20.91754" lon="55.4156">
        <ele>765.7</ele>
        <time>2013-06-16T03:28:02Z</time>
      </trkpt>
      <trkpt lat="-20.91758" lon="55.41552">
        <ele>767.8</ele>
        <time>2013-06-16T03:28:14Z</time>
      </trkpt>
      <trkpt lat="-20.9176" lon="55.41543">
        <ele>771.3</ele>
        <time>2013-06-16T03:28:32Z</time>
      </trkpt>
      <trkpt lat="-20.91757" lon="55.41535">
        <ele>773.9</ele>
        <time>2013-06-16T03:28:44Z</time>
      </trkpt>
      <trkpt lat="-20.91757" lon="55.41534">
        <ele>774</ele>
        <time>2013-06-16T03:28:45Z</time>
      </trkpt>
      <trkpt lat="-20.91761" lon="55.41517">
        <ele>777.5</ele>
        <time>2013-06-16T03:29:01Z</time>
      </trkpt>
      <trkpt lat="-20.91769" lon="55.41514">
        <ele>778.7</ele>
        <time>2013-06-16T03:29:10Z</time>
      </trkpt>
      <trkpt lat="-20.91777" lon="55.41511">
        <ele>780.5</ele>
        <time>2013-06-16T03:29:21Z</time>
      </trkpt>
      <trkpt lat="-20.91783" lon="55.41506">
        <ele>785.6</ele>
        <time>2013-06-16T03:29:33Z</time>
      </trkpt>
      <trkpt lat="-20.9179" lon="55.41501">
        <ele>786.3</ele>
        <time>2013-06-16T03:29:40Z</time>
      </trkpt>
      <trkpt lat="-20.91797" lon="55.41496">
        <ele>788.3</ele>
        <time>2013-06-16T03:29:48Z</time>
      </trkpt>
      <trkpt lat="-20.91798" lon="55.41495">
        <ele>788.7</ele>
        <time>2013-06-16T03:29:49Z</time>
      </trkpt>
      <trkpt lat="-20.91812" lon="55.41487">
        <ele>790.9</ele>
        <time>2013-06-16T03:30:02Z</time>
      </trkpt>
      <trkpt lat="-20.91817" lon="55.41479">
        <ele>794.1</ele>
        <time>2013-06-16T03:30:14Z</time>
      </trkpt>
      <trkpt lat="-20.91825" lon="55.41477">
        <ele>797.6</ele>
        <time>2013-06-16T03:30:27Z</time>
      </trkpt>
      <trkpt lat="-20.9183" lon="55.4147">
        <ele>800.3</ele>
        <time>2013-06-16T03:30:37Z</time>
      </trkpt>
      <trkpt lat="-20.91837" lon="55.41465">
        <ele>803.3</ele>
        <time>2013-06-16T03:30:50Z</time>
      </trkpt>
      <trkpt lat="-20.91838" lon="55.41464">
        <ele>803.5</ele>
        <time>2013-06-16T03:30:51Z</time>
      </trkpt>
      <trkpt lat="-20.91845" lon="55.4145">
        <ele>805.9</ele>
        <time>2013-06-16T03:31:00Z</time>
      </trkpt>
      <trkpt lat="-20.91849" lon="55.41442">
        <ele>807.8</ele>
        <time>2013-06-16T03:31:08Z</time>
      </trkpt>
      <trkpt lat="-20.91856" lon="55.41438">
        <ele>808.6</ele>
        <time>2013-06-16T03:31:19Z</time>
      </trkpt>
      <trkpt lat="-20.91864" lon="55.41435">
        <ele>806.6</ele>
        <time>2013-06-16T03:31:26Z</time>
      </trkpt>
      <trkpt lat="-20.91872" lon="55.41431">
        <ele>804.5</ele>
        <time>2013-06-16T03:31:32Z</time>
      </trkpt>
      <trkpt lat="-20.91879" lon="55.41428">
        <ele>802.5</ele>
        <time>2013-06-16T03:31:39Z</time>
      </trkpt>
      <trkpt lat="-20.91888" lon="55.41426">
        <ele>800.9</ele>
        <time>2013-06-16T03:31:46Z</time>
      </trkpt>
      <trkpt lat="-20.91896" lon="55.41427">
        <ele>799.7</ele>
        <time>2013-06-16T03:31:57Z</time>
      </trkpt>
      <trkpt lat="-20.91897" lon="55.41428">
        <ele>799.2</ele>
        <time>2013-06-16T03:31:58Z</time>
      </trkpt>
      <trkpt lat="-20.91912" lon="55.41432">
        <ele>793.7</ele>
        <time>2013-06-16T03:32:18Z</time>
      </trkpt>
      <trkpt lat="-20.9192" lon="55.41435">
        <ele>791.5</ele>
        <time>2013-06-16T03:32:26Z</time>
      </trkpt>
      <trkpt lat="-20.91929" lon="55.41438">
        <ele>791.4</ele>
        <time>2013-06-16T03:32:36Z</time>
      </trkpt>
      <trkpt lat="-20.91937" lon="55.4144">
        <ele>791.1</ele>
        <time>2013-06-16T03:32:43Z</time>
      </trkpt>
      <trkpt lat="-20.91946" lon="55.41442">
        <ele>791</ele>
        <time>2013-06-16T03:32:53Z</time>
      </trkpt>
      <trkpt lat="-20.91954" lon="55.41443">
        <ele>792.7</ele>
        <time>2013-06-16T03:33:01Z</time>
      </trkpt>
      <trkpt lat="-20.91955" lon="55.41443">
        <ele>793</ele>
        <time>2013-06-16T03:33:02Z</time>
      </trkpt>
      <trkpt lat="-20.91969" lon="55.41446">
        <ele>798.5</ele>
        <time>2013-06-16T03:33:20Z</time>
      </trkpt>
      <trkpt lat="-20.91978" lon="55.41446">
        <ele>800.7</ele>
        <time>2013-06-16T03:33:28Z</time>
      </trkpt>
      <trkpt lat="-20.91987" lon="55.41446">
        <ele>801.7</ele>
        <time>2013-06-16T03:33:37Z</time>
      </trkpt>
      <trkpt lat="-20.91994" lon="55.41448">
        <ele>802.7</ele>
        <time>2013-06-16T03:33:44Z</time>
      </trkpt>
      <trkpt lat="-20.92002" lon="55.4145">
        <ele>805.3</ele>
        <time>2013-06-16T03:33:52Z</time>
      </trkpt>
      <trkpt lat="-20.92011" lon="55.41449">
        <ele>806.6</ele>
        <time>2013-06-16T03:33:59Z</time>
      </trkpt>
      <trkpt lat="-20.9202" lon="55.41449">
        <ele>808.2</ele>
        <time>2013-06-16T03:34:06Z</time>
      </trkpt>
      <trkpt lat="-20.9202" lon="55.41449">
        <ele>808.1</ele>
        <time>2013-06-16T03:34:07Z</time>
      </trkpt>
      <trkpt lat="-20.92034" lon="55.41439">
        <ele>808.9</ele>
        <time>2013-06-16T03:34:23Z</time>
      </trkpt>
      <trkpt lat="-20.9204" lon="55.41432">
        <ele>810.9</ele>
        <time>2013-06-16T03:34:32Z</time>
      </trkpt>
      <trkpt lat="-20.92045" lon="55.41425">
        <ele>812.2</ele>
        <time>2013-06-16T03:34:39Z</time>
      </trkpt>
      <trkpt lat="-20.92053" lon="55.41422">
        <ele>813.3</ele>
        <time>2013-06-16T03:34:46Z</time>
      </trkpt>
      <trkpt lat="-20.92061" lon="55.41422">
        <ele>813.7</ele>
        <time>2013-06-16T03:34:52Z</time>
      </trkpt>
      <trkpt lat="-20.9207" lon="55.41421">
        <ele>813.3</ele>
        <time>2013-06-16T03:34:57Z</time>
      </trkpt>
      <trkpt lat="-20.92078" lon="55.41418">
        <ele>813.1</ele>
        <time>2013-06-16T03:35:02Z</time>
      </trkpt>
      <trkpt lat="-20.92085" lon="55.41414">
        <ele>812.5</ele>
        <time>2013-06-16T03:35:06Z</time>
      </trkpt>
      <trkpt lat="-20.92089" lon="55.41408">
        <ele>811.4</ele>
        <time>2013-06-16T03:35:10Z</time>
      </trkpt>
      <trkpt lat="-20.92091" lon="55.41406">
        <ele>811</ele>
        <time>2013-06-16T03:35:11Z</time>
      </trkpt>
      <trkpt lat="-20.92102" lon="55.41396">
        <ele>808.4</ele>
        <time>2013-06-16T03:35:20Z</time>
      </trkpt>
      <trkpt lat="-20.92109" lon="55.4139">
        <ele>807.3</ele>
        <time>2013-06-16T03:35:26Z</time>
      </trkpt>
      <trkpt lat="-20.92115" lon="55.41384">
        <ele>807.2</ele>
        <time>2013-06-16T03:35:34Z</time>
      </trkpt>
      <trkpt lat="-20.92122" lon="55.41379">
        <ele>809.7</ele>
        <time>2013-06-16T03:35:45Z</time>
      </trkpt>
      <trkpt lat="-20.9213" lon="55.41375">
        <ele>813.6</ele>
        <time>2013-06-16T03:35:57Z</time>
      </trkpt>
      <trkpt lat="-20.92138" lon="55.41373">
        <ele>816.5</ele>
        <time>2013-06-16T03:36:14Z</time>
      </trkpt>
      <trkpt lat="-20.92139" lon="55.41372">
        <ele>816.9</ele>
        <time>2013-06-16T03:36:15Z</time>
      </trkpt>
      <trkpt lat="-20.92147" lon="55.4136">
        <ele>820.4</ele>
        <time>2013-06-16T03:36:32Z</time>
      </trkpt>
      <trkpt lat="-20.92155" lon="55.41362">
        <ele>818.2</ele>
        <time>2013-06-16T03:36:42Z</time>
      </trkpt>
      <trkpt lat="-20.92163" lon="55.41359">
        <ele>815.9</ele>
        <time>2013-06-16T03:36:51Z</time>
      </trkpt>
      <trkpt lat="-20.92172" lon="55.41356">
        <ele>813.6</ele>
        <time>2013-06-16T03:36:57Z</time>
      </trkpt>
      <trkpt lat="-20.9218" lon="55.41353">
        <ele>812.3</ele>
        <time>2013-06-16T03:37:03Z</time>
      </trkpt>
      <trkpt lat="-20.92187" lon="55.41353">
        <ele>812.5</ele>
        <time>2013-06-16T03:37:08Z</time>
      </trkpt>
      <trkpt lat="-20.92196" lon="55.41351">
        <ele>813.7</ele>
        <time>2013-06-16T03:37:14Z</time>
      </trkpt>
      <trkpt lat="-20.92204" lon="55.41348">
        <ele>815.4</ele>
        <time>2013-06-16T03:37:20Z</time>
      </trkpt>
      <trkpt lat="-20.92205" lon="55.41347">
        <ele>815.8</ele>
        <time>2013-06-16T03:37:21Z</time>
      </trkpt>
      <trkpt lat="-20.92219" lon="55.41342">
        <ele>815.4</ele>
        <time>2013-06-16T03:37:30Z</time>
      </trkpt>
      <trkpt lat="-20.92227" lon="55.41337">
        <ele>814.5</ele>
        <time>2013-06-16T03:37:35Z</time>
      </trkpt>
      <trkpt lat="-20.92233" lon="55.41331">
        <ele>813.7</ele>
        <time>2013-06-16T03:37:39Z</time>
      </trkpt>
      <trkpt lat="-20.92239" lon="55.41324">
        <ele>812</ele>
        <time>2013-06-16T03:37:51Z</time>
      </trkpt>
      <trkpt lat="-20.92245" lon="55.41317">
        <ele>808.7</ele>
        <time>2013-06-16T03:38:01Z</time>
      </trkpt>
      <trkpt lat="-20.92249" lon="55.4131">
        <ele>805</ele>
        <time>2013-06-16T03:38:08Z</time>
      </trkpt>
      <trkpt lat="-20.92255" lon="55.41303">
        <ele>801.6</ele>
        <time>2013-06-16T03:38:15Z</time>
      </trkpt>
      <trkpt lat="-20.92263" lon="55.41303">
        <ele>798.7</ele>
        <time>2013-06-16T03:38:27Z</time>
      </trkpt>
      <trkpt lat="-20.92265" lon="55.41303">
        <ele>798.2</ele>
        <time>2013-06-16T03:38:28Z</time>
      </trkpt>
      <trkpt lat="-20.92281" lon="55.413">
        <ele>790.3</ele>
        <time>2013-06-16T03:38:47Z</time>
      </trkpt>
      <trkpt lat="-20.92288" lon="55.41294">
        <ele>787.4</ele>
        <time>2013-06-16T03:38:53Z</time>
      </trkpt>
      <trkpt lat="-20.92293" lon="55.41288">
        <ele>786.6</ele>
        <time>2013-06-16T03:38:57Z</time>
      </trkpt>
      <trkpt lat="-20.923" lon="55.41283">
        <ele>785.4</ele>
        <time>2013-06-16T03:39:04Z</time>
      </trkpt>
      <trkpt lat="-20.92304" lon="55.41274">
        <ele>783.7</ele>
        <time>2013-06-16T03:39:12Z</time>
      </trkpt>
      <trkpt lat="-20.92309" lon="55.41267">
        <ele>782.4</ele>
        <time>2013-06-16T03:39:22Z</time>
      </trkpt>
      <trkpt lat="-20.92314" lon="55.4126">
        <ele>782</ele>
        <time>2013-06-16T03:39:28Z</time>
      </trkpt>
      <trkpt lat="-20.92315" lon="55.41259">
        <ele>782</ele>
        <time>2013-06-16T03:39:29Z</time>
      </trkpt>
      <trkpt lat="-20.92329" lon="55.41253">
        <ele>778.2</ele>
        <time>2013-06-16T03:39:44Z</time>
      </trkpt>
      <trkpt lat="-20.92338" lon="55.41252">
        <ele>779.4</ele>
        <time>2013-06-16T03:39:53Z</time>
      </trkpt>
      <trkpt lat="-20.92346" lon="55.4125">
        <ele>781.7</ele>
        <time>2013-06-16T03:40:04Z</time>
      </trkpt>
      <trkpt lat="-20.92355" lon="55.41252">
        <ele>784.2</ele>
        <time>2013-06-16T03:40:13Z</time>
      </trkpt>
      <trkpt lat="-20.92363" lon="55.41249">
        <ele>787.2</ele>
        <time>2013-06-16T03:40:25Z</time>
      </trkpt>
      <trkpt lat="-20.92369" lon="55.41242">
        <ele>790.1</ele>
        <time>2013-06-16T03:40:36Z</time>
      </trkpt>
      <trkpt lat="-20.9237" lon="55.41241">
        <ele>790.4</ele>
        <time>2013-06-16T03:40:37Z</time>
      </trkpt>
      <trkpt lat="-20.92385" lon="55.41237">
        <ele>795.1</ele>
        <time>2013-06-16T03:40:57Z</time>
      </trkpt>
      <trkpt lat="-20.92392" lon="55.41231">
        <ele>797.1</ele>
        <time>2013-06-16T03:41:05Z</time>
      </trkpt>
      <trkpt lat="-20.92398" lon="55.41225">
        <ele>798.5</ele>
        <time>2013-06-16T03:41:16Z</time>
      </trkpt>
      <trkpt lat="-20.92401" lon="55.41217">
        <ele>800.3</ele>
        <time>2013-06-16T03:41:27Z</time>
      </trkpt>
      <trkpt lat="-20.92408" lon="55.41211">
        <ele>802.3</ele>
        <time>2013-06-16T03:41:37Z</time>
      </trkpt>
      <trkpt lat="-20.92409" lon="55.4121">
        <ele>802.6</ele>
        <time>2013-06-16T03:41:38Z</time>
      </trkpt>
      <trkpt lat="-20.92424" lon="55.41204">
        <ele>806.2</ele>
        <time>2013-06-16T03:41:55Z</time>
      </trkpt>
      <trkpt lat="-20.92431" lon="55.412">
        <ele>807.2</ele>
        <time>2013-06-16T03:42:03Z</time>
      </trkpt>
      <trkpt lat="-20.92437" lon="55.41194">
        <ele>809.1</ele>
        <time>2013-06-16T03:42:10Z</time>
      </trkpt>
      <trkpt lat="-20.92442" lon="55.41187">
        <ele>811</ele>
        <time>2013-06-16T03:42:20Z</time>
      </trkpt>
      <trkpt lat="-20.92448" lon="55.4118">
        <ele>812.9</ele>
        <time>2013-06-16T03:42:29Z</time>
      </trkpt>
      <trkpt lat="-20.92452" lon="55.41172">
        <ele>814.5</ele>
        <time>2013-06-16T03:42:39Z</time>
      </trkpt>
      <trkpt lat="-20.92453" lon="55.41171">
        <ele>814.6</ele>
        <time>2013-06-16T03:42:40Z</time>
      </trkpt>
      <trkpt lat="-20.92462" lon="55.41158">
        <ele>819.5</ele>
        <time>2013-06-16T03:43:01Z</time>
      </trkpt>
      <trkpt lat="-20.92467" lon="55.4115">
        <ele>822.6</ele>
        <time>2013-06-16T03:43:12Z</time>
      </trkpt>
      <trkpt lat="-20.92474" lon="55.41146">
        <ele>824.1</ele>
        <time>2013-06-16T03:43:20Z</time>
      </trkpt>
      <trkpt lat="-20.92483" lon="55.41147">
        <ele>825.3</ele>
        <time>2013-06-16T03:43:27Z</time>
      </trkpt>
      <trkpt lat="-20.92491" lon="55.41147">
        <ele>827.2</ele>
        <time>2013-06-16T03:43:35Z</time>
      </trkpt>
      <trkpt lat="-20.925" lon="55.41146">
        <ele>828.3</ele>
        <time>2013-06-16T03:43:45Z</time>
      </trkpt>
      <trkpt lat="-20.925" lon="55.41145">
        <ele>829.1</ele>
        <time>2013-06-16T03:43:46Z</time>
      </trkpt>
      <trkpt lat="-20.92517" lon="55.41147">
        <ele>834.8</ele>
        <time>2013-06-16T03:44:10Z</time>
      </trkpt>
      <trkpt lat="-20.92526" lon="55.41144">
        <ele>838.1</ele>
        <time>2013-06-16T03:44:24Z</time>
      </trkpt>
      <trkpt lat="-20.92533" lon="55.41139">
        <ele>843.7</ele>
        <time>2013-06-16T03:44:47Z</time>
      </trkpt>
      <trkpt lat="-20.92533" lon="55.41138">
        <ele>844.1</ele>
        <time>2013-06-16T03:44:48Z</time>
      </trkpt>
      <trkpt lat="-20.92544" lon="55.41125">
        <ele>851.4</ele>
        <time>2013-06-16T03:45:20Z</time>
      </trkpt>
      <trkpt lat="-20.92549" lon="55.41117">
        <ele>854.8</ele>
        <time>2013-06-16T03:45:37Z</time>
      </trkpt>
      <trkpt lat="-20.92557" lon="55.41112">
        <ele>859</ele>
        <time>2013-06-16T03:45:52Z</time>
      </trkpt>
      <trkpt lat="-20.92558" lon="55.41112">
        <ele>859.1</ele>
        <time>2013-06-16T03:45:53Z</time>
      </trkpt>
      <trkpt lat="-20.92572" lon="55.41113">
        <ele>860</ele>
        <time>2013-06-16T03:46:06Z</time>
      </trkpt>
      <trkpt lat="-20.9258" lon="55.41113">
        <ele>859.4</ele>
        <time>2013-06-16T03:46:09Z</time>
      </trkpt>
      <trkpt lat="-20.92589" lon="55.41113">
        <ele>858</ele>
        <time>2013-06-16T03:46:14Z</time>
      </trkpt>
      <trkpt lat="-20.92597" lon="55.41113">
        <ele>859.5</ele>
        <time>2013-06-16T03:46:22Z</time>
      </trkpt>
      <trkpt lat="-20.92606" lon="55.41115">
        <ele>861.6</ele>
        <time>2013-06-16T03:46:31Z</time>
      </trkpt>
      <trkpt lat="-20.92614" lon="55.41113">
        <ele>863</ele>
        <time>2013-06-16T03:46:39Z</time>
      </trkpt>
      <trkpt lat="-20.92622" lon="55.41111">
        <ele>865.7</ele>
        <time>2013-06-16T03:46:49Z</time>
      </trkpt>
      <trkpt lat="-20.9263" lon="55.41107">
        <ele>867.7</ele>
        <time>2013-06-16T03:46:58Z</time>
      </trkpt>
      <trkpt lat="-20.92631" lon="55.41107">
        <ele>867.9</ele>
        <time>2013-06-16T03:46:59Z</time>
      </trkpt>
      <trkpt lat="-20.92646" lon="55.41109">
        <ele>864.9</ele>
        <time>2013-06-16T03:47:17Z</time>
      </trkpt>
      <trkpt lat="-20.92654" lon="55.41108">
        <ele>862.8</ele>
        <time>2013-06-16T03:47:25Z</time>
      </trkpt>
      <trkpt lat="-20.92662" lon="55.41109">
        <ele>858.4</ele>
        <time>2013-06-16T03:47:33Z</time>
      </trkpt>
      <trkpt lat="-20.9267" lon="55.41106">
        <ele>857.4</ele>
        <time>2013-06-16T03:47:39Z</time>
      </trkpt>
      <trkpt lat="-20.92678" lon="55.41104">
        <ele>858.9</ele>
        <time>2013-06-16T03:47:48Z</time>
      </trkpt>
      <trkpt lat="-20.92686" lon="55.41099">
        <ele>860.4</ele>
        <time>2013-06-16T03:47:58Z</time>
      </trkpt>
      <trkpt lat="-20.92694" lon="55.411">
        <ele>862.1</ele>
        <time>2013-06-16T03:48:06Z</time>
      </trkpt>
      <trkpt lat="-20.92695" lon="55.411">
        <ele>862.7</ele>
        <time>2013-06-16T03:48:07Z</time>
      </trkpt>
      <trkpt lat="-20.92711" lon="55.41096">
        <ele>871.3</ele>
        <time>2013-06-16T03:48:35Z</time>
      </trkpt>
      <trkpt lat="-20.92719" lon="55.41094">
        <ele>872.4</ele>
        <time>2013-06-16T03:48:44Z</time>
      </trkpt>
      <trkpt lat="-20.92727" lon="55.41096">
        <ele>872.1</ele>
        <time>2013-06-16T03:48:52Z</time>
      </trkpt>
      <trkpt lat="-20.92735" lon="55.41095">
        <ele>872.5</ele>
        <time>2013-06-16T03:49:00Z</time>
      </trkpt>
      <trkpt lat="-20.92743" lon="55.41093">
        <ele>874.7</ele>
        <time>2013-06-16T03:49:09Z</time>
      </trkpt>
      <trkpt lat="-20.92744" lon="55.41093">
        <ele>874.9</ele>
        <time>2013-06-16T03:49:10Z</time>
      </trkpt>
      <trkpt lat="-20.92759" lon="55.41089">
        <ele>879.3</ele>
        <time>2013-06-16T03:49:28Z</time>
      </trkpt>
      <trkpt lat="-20.92768" lon="55.41089">
        <ele>879.7</ele>
        <time>2013-06-16T03:49:34Z</time>
      </trkpt>
      <trkpt lat="-20.92775" lon="55.41087">
        <ele>879.9</ele>
        <time>2013-06-16T03:49:39Z</time>
      </trkpt>
      <trkpt lat="-20.92784" lon="55.41086">
        <ele>879.2</ele>
        <time>2013-06-16T03:49:46Z</time>
      </trkpt>
      <trkpt lat="-20.92792" lon="55.41085">
        <ele>878.5</ele>
        <time>2013-06-16T03:49:50Z</time>
      </trkpt>
      <trkpt lat="-20.928" lon="55.41083">
        <ele>878.6</ele>
        <time>2013-06-16T03:49:54Z</time>
      </trkpt>
      <trkpt lat="-20.92807" lon="55.41084">
        <ele>879.5</ele>
        <time>2013-06-16T03:50:00Z</time>
      </trkpt>
      <trkpt lat="-20.92815" lon="55.41085">
        <ele>880.1</ele>
        <time>2013-06-16T03:50:06Z</time>
      </trkpt>
      <trkpt lat="-20.92823" lon="55.41086">
        <ele>882.6</ele>
        <time>2013-06-16T03:50:16Z</time>
      </trkpt>
      <trkpt lat="-20.92824" lon="55.41086">
        <ele>882.9</ele>
        <time>2013-06-16T03:50:17Z</time>
      </trkpt>
      <trkpt lat="-20.92839" lon="55.41079">
        <ele>888.4</ele>
        <time>2013-06-16T03:50:38Z</time>
      </trkpt>
      <trkpt lat="-20.92847" lon="55.41075">
        <ele>891.9</ele>
        <time>2013-06-16T03:50:55Z</time>
      </trkpt>
      <trkpt lat="-20.92856" lon="55.41076">
        <ele>895.5</ele>
        <time>2013-06-16T03:51:09Z</time>
      </trkpt>
      <trkpt lat="-20.92864" lon="55.41073">
        <ele>898.7</ele>
        <time>2013-06-16T03:51:24Z</time>
      </trkpt>
      <trkpt lat="-20.92865" lon="55.41073">
        <ele>899</ele>
        <time>2013-06-16T03:51:25Z</time>
      </trkpt>
      <trkpt lat="-20.9288" lon="55.41071">
        <ele>905</ele>
        <time>2013-06-16T03:51:47Z</time>
      </trkpt>
      <trkpt lat="-20.92889" lon="55.4107">
        <ele>907.7</ele>
        <time>2013-06-16T03:52:00Z</time>
      </trkpt>
      <trkpt lat="-20.92896" lon="55.41065">
        <ele>908.9</ele>
        <time>2013-06-16T03:52:10Z</time>
      </trkpt>
      <trkpt lat="-20.92903" lon="55.41064">
        <ele>907.8</ele>
        <time>2013-06-16T03:52:18Z</time>
      </trkpt>
      <trkpt lat="-20.92912" lon="55.41065">
        <ele>905.5</ele>
        <time>2013-06-16T03:52:24Z</time>
      </trkpt>
      <trkpt lat="-20.92921" lon="55.41063">
        <ele>900.3</ele>
        <time>2013-06-16T03:52:36Z</time>
      </trkpt>
      <trkpt lat="-20.92921" lon="55.41063">
        <ele>899.9</ele>
        <time>2013-06-16T03:52:37Z</time>
      </trkpt>
      <trkpt lat="-20.92937" lon="55.41059">
        <ele>894</ele>
        <time>2013-06-16T03:52:52Z</time>
      </trkpt>
      <trkpt lat="-20.92946" lon="55.41057">
        <ele>893.8</ele>
        <time>2013-06-16T03:52:57Z</time>
      </trkpt>
      <trkpt lat="-20.92954" lon="55.41055">
        <ele>895.3</ele>
        <time>2013-06-16T03:53:02Z</time>
      </trkpt>
      <trkpt lat="-20.92962" lon="55.41053">
        <ele>896.7</ele>
        <time>2013-06-16T03:53:09Z</time>
      </trkpt>
      <trkpt lat="-20.9297" lon="55.4105">
        <ele>898.1</ele>
        <time>2013-06-16T03:53:19Z</time>
      </trkpt>
      <trkpt lat="-20.92978" lon="55.41046">
        <ele>901.2</ele>
        <time>2013-06-16T03:53:32Z</time>
      </trkpt>
      <trkpt lat="-20.92982" lon="55.41038">
        <ele>904.3</ele>
        <time>2013-06-16T03:53:41Z</time>
      </trkpt>
      <trkpt lat="-20.92983" lon="55.41038">
        <ele>904.7</ele>
        <time>2013-06-16T03:53:42Z</time>
      </trkpt>
      <trkpt lat="-20.92991" lon="55.41024">
        <ele>906.9</ele>
        <time>2013-06-16T03:54:01Z</time>
      </trkpt>
      <trkpt lat="-20.92999" lon="55.41019">
        <ele>909.7</ele>
        <time>2013-06-16T03:54:17Z</time>
      </trkpt>
      <trkpt lat="-20.93008" lon="55.41021">
        <ele>912</ele>
        <time>2013-06-16T03:54:27Z</time>
      </trkpt>
      <trkpt lat="-20.93016" lon="55.41024">
        <ele>913</ele>
        <time>2013-06-16T03:54:38Z</time>
      </trkpt>
      <trkpt lat="-20.93025" lon="55.41024">
        <ele>915.3</ele>
        <time>2013-06-16T03:54:48Z</time>
      </trkpt>
      <trkpt lat="-20.93026" lon="55.41024">
        <ele>915.8</ele>
        <time>2013-06-16T03:54:49Z</time>
      </trkpt>
      <trkpt lat="-20.93041" lon="55.4102">
        <ele>917.7</ele>
        <time>2013-06-16T03:55:06Z</time>
      </trkpt>
      <trkpt lat="-20.93049" lon="55.4102">
        <ele>917.6</ele>
        <time>2013-06-16T03:55:12Z</time>
      </trkpt>
      <trkpt lat="-20.93057" lon="55.41021">
        <ele>918.5</ele>
        <time>2013-06-16T03:55:18Z</time>
      </trkpt>
      <trkpt lat="-20.93066" lon="55.41021">
        <ele>916.5</ele>
        <time>2013-06-16T03:55:26Z</time>
      </trkpt>
      <trkpt lat="-20.93074" lon="55.41021">
        <ele>914.6</ele>
        <time>2013-06-16T03:55:33Z</time>
      </trkpt>
      <trkpt lat="-20.93082" lon="55.4102">
        <ele>912.2</ele>
        <time>2013-06-16T03:55:38Z</time>
      </trkpt>
      <trkpt lat="-20.9309" lon="55.41017">
        <ele>911.7</ele>
        <time>2013-06-16T03:55:44Z</time>
      </trkpt>
      <trkpt lat="-20.93096" lon="55.4101">
        <ele>912.2</ele>
        <time>2013-06-16T03:55:51Z</time>
      </trkpt>
      <trkpt lat="-20.93096" lon="55.4101">
        <ele>912.4</ele>
        <time>2013-06-16T03:55:52Z</time>
      </trkpt>
      <trkpt lat="-20.93113" lon="55.41009">
        <ele>918.2</ele>
        <time>2013-06-16T03:56:14Z</time>
      </trkpt>
      <trkpt lat="-20.93122" lon="55.41008">
        <ele>920.9</ele>
        <time>2013-06-16T03:56:29Z</time>
      </trkpt>
      <trkpt lat="-20.93129" lon="55.41003">
        <ele>926.3</ele>
        <time>2013-06-16T03:56:55Z</time>
      </trkpt>
      <trkpt lat="-20.9313" lon="55.41003">
        <ele>926.7</ele>
        <time>2013-06-16T03:56:56Z</time>
      </trkpt>
      <trkpt lat="-20.93146" lon="55.41005">
        <ele>931.5</ele>
        <time>2013-06-16T03:57:15Z</time>
      </trkpt>
      <trkpt lat="-20.93155" lon="55.41006">
        <ele>931.6</ele>
        <time>2013-06-16T03:57:22Z</time>
      </trkpt>
      <trkpt lat="-20.93163" lon="55.41004">
        <ele>931.3</ele>
        <time>2013-06-16T03:57:29Z</time>
      </trkpt>
      <trkpt lat="-20.9317" lon="55.41003">
        <ele>931.3</ele>
        <time>2013-06-16T03:57:37Z</time>
      </trkpt>
      <trkpt lat="-20.93177" lon="55.41009">
        <ele>930.1</ele>
        <time>2013-06-16T03:57:45Z</time>
      </trkpt>
      <trkpt lat="-20.93185" lon="55.41011">
        <ele>927.1</ele>
        <time>2013-06-16T03:57:52Z</time>
      </trkpt>
      <trkpt lat="-20.93193" lon="55.41012">
        <ele>926.2</ele>
        <time>2013-06-16T03:57:57Z</time>
      </trkpt>
      <trkpt lat="-20.93194" lon="55.41011">
        <ele>925.8</ele>
        <time>2013-06-16T03:57:58Z</time>
      </trkpt>
      <trkpt lat="-20.93209" lon="55.41009">
        <ele>924.6</ele>
        <time>2013-06-16T03:58:06Z</time>
      </trkpt>
      <trkpt lat="-20.93217" lon="55.41007">
        <ele>923.5</ele>
        <time>2013-06-16T03:58:10Z</time>
      </trkpt>
      <trkpt lat="-20.93225" lon="55.41003">
        <ele>923.7</ele>
        <time>2013-06-16T03:58:14Z</time>
      </trkpt>
      <trkpt lat="-20.93229" lon="55.40995">
        <ele>923.7</ele>
        <time>2013-06-16T03:58:20Z</time>
      </trkpt>
      <trkpt lat="-20.93232" lon="55.40987">
        <ele>923.2</ele>
        <time>2013-06-16T03:58:25Z</time>
      </trkpt>
      <trkpt lat="-20.93235" lon="55.40979">
        <ele>923.6</ele>
        <time>2013-06-16T03:58:29Z</time>
      </trkpt>
      <trkpt lat="-20.93238" lon="55.40971">
        <ele>924</ele>
        <time>2013-06-16T03:58:33Z</time>
      </trkpt>
      <trkpt lat="-20.93241" lon="55.40963">
        <ele>923.7</ele>
        <time>2013-06-16T03:58:37Z</time>
      </trkpt>
      <trkpt lat="-20.93243" lon="55.40954">
        <ele>923.3</ele>
        <time>2013-06-16T03:58:42Z</time>
      </trkpt>
      <trkpt lat="-20.93245" lon="55.40945">
        <ele>923.4</ele>
        <time>2013-06-16T03:58:47Z</time>
      </trkpt>
      <trkpt lat="-20.93248" lon="55.40937">
        <ele>923.2</ele>
        <time>2013-06-16T03:58:51Z</time>
      </trkpt>
      <trkpt lat="-20.9325" lon="55.40929">
        <ele>925</ele>
        <time>2013-06-16T03:58:56Z</time>
      </trkpt>
      <trkpt lat="-20.93253" lon="55.40921">
        <ele>925.3</ele>
        <time>2013-06-16T03:59:01Z</time>
      </trkpt>
      <trkpt lat="-20.93254" lon="55.40919">
        <ele>925.5</ele>
        <time>2013-06-16T03:59:02Z</time>
      </trkpt>
      <trkpt lat="-20.93256" lon="55.40904">
        <ele>927.7</ele>
        <time>2013-06-16T03:59:15Z</time>
      </trkpt>
      <trkpt lat="-20.93261" lon="55.40897">
        <ele>931.6</ele>
        <time>2013-06-16T03:59:29Z</time>
      </trkpt>
      <trkpt lat="-20.9327" lon="55.40898">
        <ele>934.8</ele>
        <time>2013-06-16T03:59:43Z</time>
      </trkpt>
      <trkpt lat="-20.93278" lon="55.40902">
        <ele>936.7</ele>
        <time>2013-06-16T03:59:56Z</time>
      </trkpt>
      <trkpt lat="-20.93285" lon="55.40906">
        <ele>940.9</ele>
        <time>2013-06-16T04:00:14Z</time>
      </trkpt>
      <trkpt lat="-20.93286" lon="55.40906">
        <ele>941</ele>
        <time>2013-06-16T04:00:15Z</time>
      </trkpt>
      <trkpt lat="-20.933" lon="55.40915">
        <ele>944</ele>
        <time>2013-06-16T04:00:35Z</time>
      </trkpt>
      <trkpt lat="-20.93308" lon="55.40917">
        <ele>945.5</ele>
        <time>2013-06-16T04:00:47Z</time>
      </trkpt>
      <trkpt lat="-20.93317" lon="55.40917">
        <ele>949.6</ele>
        <time>2013-06-16T04:01:08Z</time>
      </trkpt>
      <trkpt lat="-20.93326" lon="55.40915">
        <ele>951.8</ele>
        <time>2013-06-16T04:01:21Z</time>
      </trkpt>
      <trkpt lat="-20.93327" lon="55.40915">
        <ele>952.1</ele>
        <time>2013-06-16T04:01:22Z</time>
      </trkpt>
      <trkpt lat="-20.93343" lon="55.40917">
        <ele>956.3</ele>
        <time>2013-06-16T04:01:42Z</time>
      </trkpt>
      <trkpt lat="-20.93351" lon="55.40922">
        <ele>959.9</ele>
        <time>2013-06-16T04:01:56Z</time>
      </trkpt>
      <trkpt lat="-20.93359" lon="55.40923">
        <ele>961.8</ele>
        <time>2013-06-16T04:02:05Z</time>
      </trkpt>
      <trkpt lat="-20.93366" lon="55.40918">
        <ele>963.2</ele>
        <time>2013-06-16T04:02:15Z</time>
      </trkpt>
      <trkpt lat="-20.9337" lon="55.40909">
        <ele>965.2</ele>
        <time>2013-06-16T04:02:25Z</time>
      </trkpt>
      <trkpt lat="-20.9337" lon="55.40909">
        <ele>965.6</ele>
        <time>2013-06-16T04:02:26Z</time>
      </trkpt>
      <trkpt lat="-20.93372" lon="55.40891">
        <ele>967.8</ele>
        <time>2013-06-16T04:02:43Z</time>
      </trkpt>
      <trkpt lat="-20.93381" lon="55.40893">
        <ele>971.8</ele>
        <time>2013-06-16T04:02:56Z</time>
      </trkpt>
      <trkpt lat="-20.93389" lon="55.40897">
        <ele>974</ele>
        <time>2013-06-16T04:03:07Z</time>
      </trkpt>
      <trkpt lat="-20.93393" lon="55.40888">
        <ele>977.3</ele>
        <time>2013-06-16T04:03:24Z</time>
      </trkpt>
      <trkpt lat="-20.93399" lon="55.40881">
        <ele>978.4</ele>
        <time>2013-06-16T04:03:37Z</time>
      </trkpt>
      <trkpt lat="-20.93399" lon="55.40881">
        <ele>978.3</ele>
        <time>2013-06-16T04:03:38Z</time>
      </trkpt>
      <trkpt lat="-20.93414" lon="55.40881">
        <ele>987.4</ele>
        <time>2013-06-16T04:04:12Z</time>
      </trkpt>
      <trkpt lat="-20.93423" lon="55.4088">
        <ele>989.5</ele>
        <time>2013-06-16T04:04:26Z</time>
      </trkpt>
      <trkpt lat="-20.93431" lon="55.40881">
        <ele>991.7</ele>
        <time>2013-06-16T04:04:37Z</time>
      </trkpt>
      <trkpt lat="-20.93439" lon="55.40878">
        <ele>995.2</ele>
        <time>2013-06-16T04:04:52Z</time>
      </trkpt>
      <trkpt lat="-20.9344" lon="55.40878">
        <ele>995.3</ele>
        <time>2013-06-16T04:04:53Z</time>
      </trkpt>
      <trkpt lat="-20.93455" lon="55.4087">
        <ele>1000.7</ele>
        <time>2013-06-16T04:05:17Z</time>
      </trkpt>
      <trkpt lat="-20.93462" lon="55.40867">
        <ele>1002.7</ele>
        <time>2013-06-16T04:05:31Z</time>
      </trkpt>
      <trkpt lat="-20.93468" lon="55.4086">
        <ele>1005.6</ele>
        <time>2013-06-16T04:05:44Z</time>
      </trkpt>
      <trkpt lat="-20.93477" lon="55.40859">
        <ele>1008</ele>
        <time>2013-06-16T04:05:54Z</time>
      </trkpt>
      <trkpt lat="-20.93478" lon="55.40858">
        <ele>1008</ele>
        <time>2013-06-16T04:05:55Z</time>
      </trkpt>
      <trkpt lat="-20.93492" lon="55.40851">
        <ele>1009.1</ele>
        <time>2013-06-16T04:06:09Z</time>
      </trkpt>
      <trkpt lat="-20.93499" lon="55.40846">
        <ele>1010.5</ele>
        <time>2013-06-16T04:06:17Z</time>
      </trkpt>
      <trkpt lat="-20.93506" lon="55.40841">
        <ele>1012.1</ele>
        <time>2013-06-16T04:06:27Z</time>
      </trkpt>
      <trkpt lat="-20.93512" lon="55.40834">
        <ele>1014.1</ele>
        <time>2013-06-16T04:06:37Z</time>
      </trkpt>
      <trkpt lat="-20.93518" lon="55.40829">
        <ele>1016</ele>
        <time>2013-06-16T04:06:44Z</time>
      </trkpt>
      <trkpt lat="-20.93526" lon="55.40825">
        <ele>1017.4</ele>
        <time>2013-06-16T04:06:49Z</time>
      </trkpt>
      <trkpt lat="-20.93533" lon="55.40821">
        <ele>1018</ele>
        <time>2013-06-16T04:06:54Z</time>
      </trkpt>
      <trkpt lat="-20.93541" lon="55.40817">
        <ele>1018.3</ele>
        <time>2013-06-16T04:07:00Z</time>
      </trkpt>
      <trkpt lat="-20.93542" lon="55.40815">
        <ele>1018.1</ele>
        <time>2013-06-16T04:07:01Z</time>
      </trkpt>
      <trkpt lat="-20.9355" lon="55.40803">
        <ele>1021</ele>
        <time>2013-06-16T04:07:13Z</time>
      </trkpt>
      <trkpt lat="-20.93556" lon="55.40796">
        <ele>1023.2</ele>
        <time>2013-06-16T04:07:21Z</time>
      </trkpt>
      <trkpt lat="-20.93564" lon="55.40792">
        <ele>1025</ele>
        <time>2013-06-16T04:07:31Z</time>
      </trkpt>
      <trkpt lat="-20.93572" lon="55.40791">
        <ele>1025.7</ele>
        <time>2013-06-16T04:07:38Z</time>
      </trkpt>
      <trkpt lat="-20.9358" lon="55.40788">
        <ele>1024.2</ele>
        <time>2013-06-16T04:07:46Z</time>
      </trkpt>
      <trkpt lat="-20.93587" lon="55.40784">
        <ele>1023</ele>
        <time>2013-06-16T04:07:51Z</time>
      </trkpt>
      <trkpt lat="-20.93594" lon="55.4078">
        <ele>1021.1</ele>
        <time>2013-06-16T04:07:55Z</time>
      </trkpt>
      <trkpt lat="-20.93602" lon="55.40774">
        <ele>1021.2</ele>
        <time>2013-06-16T04:08:00Z</time>
      </trkpt>
      <trkpt lat="-20.93608" lon="55.40768">
        <ele>1019.7</ele>
        <time>2013-06-16T04:08:10Z</time>
      </trkpt>
      <trkpt lat="-20.93608" lon="55.40768">
        <ele>1019.8</ele>
        <time>2013-06-16T04:08:11Z</time>
      </trkpt>
      <trkpt lat="-20.93622" lon="55.40758">
        <ele>1013.5</ele>
        <time>2013-06-16T04:08:25Z</time>
      </trkpt>
      <trkpt lat="-20.93631" lon="55.40757">
        <ele>1010.4</ele>
        <time>2013-06-16T04:08:35Z</time>
      </trkpt>
      <trkpt lat="-20.93639" lon="55.40761">
        <ele>1008</ele>
        <time>2013-06-16T04:08:45Z</time>
      </trkpt>
      <trkpt lat="-20.93647" lon="55.4076">
        <ele>1007.1</ele>
        <time>2013-06-16T04:08:52Z</time>
      </trkpt>
      <trkpt lat="-20.93655" lon="55.40764">
        <ele>1005.6</ele>
        <time>2013-06-16T04:08:59Z</time>
      </trkpt>
      <trkpt lat="-20.93662" lon="55.40767">
        <ele>1004.1</ele>
        <time>2013-06-16T04:09:05Z</time>
      </trkpt>
      <trkpt lat="-20.9367" lon="55.40768">
        <ele>1000.7</ele>
        <time>2013-06-16T04:09:12Z</time>
      </trkpt>
      <trkpt lat="-20.93672" lon="55.40769">
        <ele>1000.5</ele>
        <time>2013-06-16T04:09:13Z</time>
      </trkpt>
      <trkpt lat="-20.93688" lon="55.4077">
        <ele>994.3</ele>
        <time>2013-06-16T04:09:28Z</time>
      </trkpt>
      <trkpt lat="-20.93695" lon="55.40771">
        <ele>992.5</ele>
        <time>2013-06-16T04:09:32Z</time>
      </trkpt>
      <trkpt lat="-20.93703" lon="55.40772">
        <ele>991.8</ele>
        <time>2013-06-16T04:09:36Z</time>
      </trkpt>
      <trkpt lat="-20.93711" lon="55.4077">
        <ele>991.3</ele>
        <time>2013-06-16T04:09:40Z</time>
      </trkpt>
      <trkpt lat="-20.93718" lon="55.40769">
        <ele>990.9</ele>
        <time>2013-06-16T04:09:44Z</time>
      </trkpt>
      <trkpt lat="-20.93726" lon="55.4077">
        <ele>991.2</ele>
        <time>2013-06-16T04:09:48Z</time>
      </trkpt>
      <trkpt lat="-20.93734" lon="55.40771">
        <ele>992.2</ele>
        <time>2013-06-16T04:09:53Z</time>
      </trkpt>
      <trkpt lat="-20.93742" lon="55.40769">
        <ele>992.8</ele>
        <time>2013-06-16T04:09:57Z</time>
      </trkpt>
      <trkpt lat="-20.93748" lon="55.40765">
        <ele>993.8</ele>
        <time>2013-06-16T04:10:02Z</time>
      </trkpt>
      <trkpt lat="-20.93755" lon="55.4076">
        <ele>994.9</ele>
        <time>2013-06-16T04:10:08Z</time>
      </trkpt>
      <trkpt lat="-20.9376" lon="55.40753">
        <ele>996.5</ele>
        <time>2013-06-16T04:10:15Z</time>
      </trkpt>
      <trkpt lat="-20.9376" lon="55.40752">
        <ele>996.7</ele>
        <time>2013-06-16T04:10:16Z</time>
      </trkpt>
      <trkpt lat="-20.93757" lon="55.40736">
        <ele>998.5</ele>
        <time>2013-06-16T04:10:27Z</time>
      </trkpt>
      <trkpt lat="-20.93759" lon="55.40727">
        <ele>999</ele>
        <time>2013-06-16T04:10:32Z</time>
      </trkpt>
      <trkpt lat="-20.93762" lon="55.4072">
        <ele>998.3</ele>
        <time>2013-06-16T04:10:38Z</time>
      </trkpt>
      <trkpt lat="-20.93765" lon="55.40711">
        <ele>997.9</ele>
        <time>2013-06-16T04:10:42Z</time>
      </trkpt>
      <trkpt lat="-20.93765" lon="55.40703">
        <ele>998</ele>
        <time>2013-06-16T04:10:46Z</time>
      </trkpt>
      <trkpt lat="-20.93764" lon="55.40695">
        <ele>998.9</ele>
        <time>2013-06-16T04:10:50Z</time>
      </trkpt>
      <trkpt lat="-20.93764" lon="55.40687">
        <ele>998.8</ele>
        <time>2013-06-16T04:10:53Z</time>
      </trkpt>
      <trkpt lat="-20.93765" lon="55.40679">
        <ele>1000.2</ele>
        <time>2013-06-16T04:10:57Z</time>
      </trkpt>
      <trkpt lat="-20.93774" lon="55.4068">
        <ele>1001.8</ele>
        <time>2013-06-16T04:11:07Z</time>
      </trkpt>
      <trkpt lat="-20.9378" lon="55.40687">
        <ele>1003.6</ele>
        <time>2013-06-16T04:11:15Z</time>
      </trkpt>
      <trkpt lat="-20.93785" lon="55.40693">
        <ele>1005.5</ele>
        <time>2013-06-16T04:11:23Z</time>
      </trkpt>
      <trkpt lat="-20.93786" lon="55.40694">
        <ele>1005.7</ele>
        <time>2013-06-16T04:11:24Z</time>
      </trkpt>
      <trkpt lat="-20.93801" lon="55.40694">
        <ele>1009</ele>
        <time>2013-06-16T04:11:44Z</time>
      </trkpt>
      <trkpt lat="-20.9381" lon="55.40694">
        <ele>1011.3</ele>
        <time>2013-06-16T04:11:53Z</time>
      </trkpt>
      <trkpt lat="-20.93818" lon="55.40696">
        <ele>1013.3</ele>
        <time>2013-06-16T04:12:00Z</time>
      </trkpt>
      <trkpt lat="-20.93825" lon="55.40698">
        <ele>1014</ele>
        <time>2013-06-16T04:12:06Z</time>
      </trkpt>
      <trkpt lat="-20.93833" lon="55.40696">
        <ele>1015.2</ele>
        <time>2013-06-16T04:12:11Z</time>
      </trkpt>
      <trkpt lat="-20.93841" lon="55.40693">
        <ele>1015.9</ele>
        <time>2013-06-16T04:12:15Z</time>
      </trkpt>
      <trkpt lat="-20.93847" lon="55.40687">
        <ele>1016.2</ele>
        <time>2013-06-16T04:12:19Z</time>
      </trkpt>
      <trkpt lat="-20.93852" lon="55.4068">
        <ele>1015.6</ele>
        <time>2013-06-16T04:12:23Z</time>
      </trkpt>
      <trkpt lat="-20.93853" lon="55.40671">
        <ele>1016.2</ele>
        <time>2013-06-16T04:12:28Z</time>
      </trkpt>
      <trkpt lat="-20.93852" lon="55.4067">
        <ele>1016.4</ele>
        <time>2013-06-16T04:12:29Z</time>
      </trkpt>
      <trkpt lat="-20.93849" lon="55.40656">
        <ele>1017.2</ele>
        <time>2013-06-16T04:12:36Z</time>
      </trkpt>
      <trkpt lat="-20.93848" lon="55.40649">
        <ele>1017.4</ele>
        <time>2013-06-16T04:12:40Z</time>
      </trkpt>
      <trkpt lat="-20.93849" lon="55.4064">
        <ele>1018.3</ele>
        <time>2013-06-16T04:12:44Z</time>
      </trkpt>
      <trkpt lat="-20.93856" lon="55.40635">
        <ele>1017.6</ele>
        <time>2013-06-16T04:12:48Z</time>
      </trkpt>
      <trkpt lat="-20.93864" lon="55.40634">
        <ele>1018.8</ele>
        <time>2013-06-16T04:12:52Z</time>
      </trkpt>
      <trkpt lat="-20.93871" lon="55.40638">
        <ele>1019.5</ele>
        <time>2013-06-16T04:12:56Z</time>
      </trkpt>
      <trkpt lat="-20.93877" lon="55.40643">
        <ele>1020</ele>
        <time>2013-06-16T04:12:59Z</time>
      </trkpt>
      <trkpt lat="-20.93882" lon="55.40648">
        <ele>1020.1</ele>
        <time>2013-06-16T04:13:02Z</time>
      </trkpt>
      <trkpt lat="-20.93888" lon="55.40653">
        <ele>1020.3</ele>
        <time>2013-06-16T04:13:05Z</time>
      </trkpt>
      <trkpt lat="-20.93894" lon="55.40659">
        <ele>1020.7</ele>
        <time>2013-06-16T04:13:09Z</time>
      </trkpt>
      <trkpt lat="-20.939" lon="55.40664">
        <ele>1020.7</ele>
        <time>2013-06-16T04:13:12Z</time>
      </trkpt>
      <trkpt lat="-20.93907" lon="55.40669">
        <ele>1020.8</ele>
        <time>2013-06-16T04:13:15Z</time>
      </trkpt>
      <trkpt lat="-20.93913" lon="55.40674">
        <ele>1021.7</ele>
        <time>2013-06-16T04:13:19Z</time>
      </trkpt>
      <trkpt lat="-20.93919" lon="55.40681">
        <ele>1022.3</ele>
        <time>2013-06-16T04:13:23Z</time>
      </trkpt>
      <trkpt lat="-20.93925" lon="55.40687">
        <ele>1022.6</ele>
        <time>2013-06-16T04:13:28Z</time>
      </trkpt>
      <trkpt lat="-20.93933" lon="55.40691">
        <ele>1023.1</ele>
        <time>2013-06-16T04:13:34Z</time>
      </trkpt>
      <trkpt lat="-20.93936" lon="55.40691">
        <ele>1022.9</ele>
        <time>2013-06-16T04:13:35Z</time>
      </trkpt>
      <trkpt lat="-20.93947" lon="55.40684">
        <ele>1024.4</ele>
        <time>2013-06-16T04:13:42Z</time>
      </trkpt>
      <trkpt lat="-20.93951" lon="55.40677">
        <ele>1024.5</ele>
        <time>2013-06-16T04:13:46Z</time>
      </trkpt>
      <trkpt lat="-20.93954" lon="55.40668">
        <ele>1025.3</ele>
        <time>2013-06-16T04:13:50Z</time>
      </trkpt>
      <trkpt lat="-20.93956" lon="55.4066">
        <ele>1025.7</ele>
        <time>2013-06-16T04:13:54Z</time>
      </trkpt>
      <trkpt lat="-20.9396" lon="55.40652">
        <ele>1025.8</ele>
        <time>2013-06-16T04:13:58Z</time>
      </trkpt>
      <trkpt lat="-20.93964" lon="55.40645">
        <ele>1026.2</ele>
        <time>2013-06-16T04:14:02Z</time>
      </trkpt>
      <trkpt lat="-20.93967" lon="55.40636">
        <ele>1026.5</ele>
        <time>2013-06-16T04:14:08Z</time>
      </trkpt>
      <trkpt lat="-20.93968" lon="55.40628">
        <ele>1027.9</ele>
        <time>2013-06-16T04:14:14Z</time>
      </trkpt>
      <trkpt lat="-20.9397" lon="55.40619">
        <ele>1027.6</ele>
        <time>2013-06-16T04:14:20Z</time>
      </trkpt>
      <trkpt lat="-20.93972" lon="55.4061">
        <ele>1028.4</ele>
        <time>2013-06-16T04:14:26Z</time>
      </trkpt>
      <trkpt lat="-20.93976" lon="55.40602">
        <ele>1028.5</ele>
        <time>2013-06-16T04:14:31Z</time>
      </trkpt>
      <trkpt lat="-20.93981" lon="55.40597">
        <ele>1029.4</ele>
        <time>2013-06-16T04:14:35Z</time>
      </trkpt>
      <trkpt lat="-20.93983" lon="55.40595">
        <ele>1029.5</ele>
        <time>2013-06-16T04:14:36Z</time>
      </trkpt>
      <trkpt lat="-20.93993" lon="55.40584">
        <ele>1030</ele>
        <time>2013-06-16T04:14:43Z</time>
      </trkpt>
      <trkpt lat="-20.93999" lon="55.40578">
        <ele>1030.7</ele>
        <time>2013-06-16T04:14:48Z</time>
      </trkpt>
      <trkpt lat="-20.94005" lon="55.40572">
        <ele>1030.8</ele>
        <time>2013-06-16T04:14:52Z</time>
      </trkpt>
      <trkpt lat="-20.94009" lon="55.40565">
        <ele>1031.1</ele>
        <time>2013-06-16T04:14:56Z</time>
      </trkpt>
      <trkpt lat="-20.94011" lon="55.40557">
        <ele>1030.9</ele>
        <time>2013-06-16T04:15:00Z</time>
      </trkpt>
      <trkpt lat="-20.94013" lon="55.40549">
        <ele>1031.6</ele>
        <time>2013-06-16T04:15:04Z</time>
      </trkpt>
      <trkpt lat="-20.94013" lon="55.40541">
        <ele>1032.3</ele>
        <time>2013-06-16T04:15:08Z</time>
      </trkpt>
      <trkpt lat="-20.94012" lon="55.40533">
        <ele>1033.3</ele>
        <time>2013-06-16T04:15:12Z</time>
      </trkpt>
      <trkpt lat="-20.94009" lon="55.40524">
        <ele>1032.9</ele>
        <time>2013-06-16T04:15:16Z</time>
      </trkpt>
      <trkpt lat="-20.94006" lon="55.40515">
        <ele>1034.4</ele>
        <time>2013-06-16T04:15:20Z</time>
      </trkpt>
      <trkpt lat="-20.94005" lon="55.40507">
        <ele>1034.6</ele>
        <time>2013-06-16T04:15:24Z</time>
      </trkpt>
      <trkpt lat="-20.94004" lon="55.40497">
        <ele>1035.8</ele>
        <time>2013-06-16T04:15:29Z</time>
      </trkpt>
      <trkpt lat="-20.94002" lon="55.40489">
        <ele>1036</ele>
        <time>2013-06-16T04:15:33Z</time>
      </trkpt>
      <trkpt lat="-20.93999" lon="55.4048">
        <ele>1036.5</ele>
        <time>2013-06-16T04:15:38Z</time>
      </trkpt>
      <trkpt lat="-20.93998" lon="55.40478">
        <ele>1036</ele>
        <time>2013-06-16T04:15:39Z</time>
      </trkpt>
      <trkpt lat="-20.93995" lon="55.40463">
        <ele>1037.1</ele>
        <time>2013-06-16T04:15:47Z</time>
      </trkpt>
      <trkpt lat="-20.94002" lon="55.40457">
        <ele>1037.8</ele>
        <time>2013-06-16T04:15:52Z</time>
      </trkpt>
      <trkpt lat="-20.9401" lon="55.40459">
        <ele>1038.8</ele>
        <time>2013-06-16T04:15:57Z</time>
      </trkpt>
      <trkpt lat="-20.94016" lon="55.40465">
        <ele>1039.5</ele>
        <time>2013-06-16T04:16:01Z</time>
      </trkpt>
      <trkpt lat="-20.94021" lon="55.40472">
        <ele>1039.3</ele>
        <time>2013-06-16T04:16:05Z</time>
      </trkpt>
      <trkpt lat="-20.94021" lon="55.4048">
        <ele>1038.4</ele>
        <time>2013-06-16T04:16:09Z</time>
      </trkpt>
      <trkpt lat="-20.94022" lon="55.40489">
        <ele>1038.3</ele>
        <time>2013-06-16T04:16:13Z</time>
      </trkpt>
      <trkpt lat="-20.94023" lon="55.40497">
        <ele>1040.2</ele>
        <time>2013-06-16T04:16:17Z</time>
      </trkpt>
      <trkpt lat="-20.94024" lon="55.40505">
        <ele>1040.7</ele>
        <time>2013-06-16T04:16:21Z</time>
      </trkpt>
      <trkpt lat="-20.94025" lon="55.40514">
        <ele>1040.8</ele>
        <time>2013-06-16T04:16:25Z</time>
      </trkpt>
      <trkpt lat="-20.94027" lon="55.40522">
        <ele>1042</ele>
        <time>2013-06-16T04:16:29Z</time>
      </trkpt>
      <trkpt lat="-20.94031" lon="55.4053">
        <ele>1041.9</ele>
        <time>2013-06-16T04:16:33Z</time>
      </trkpt>
      <trkpt lat="-20.94034" lon="55.40538">
        <ele>1042.9</ele>
        <time>2013-06-16T04:16:37Z</time>
      </trkpt>
      <trkpt lat="-20.94037" lon="55.40545">
        <ele>1043.1</ele>
        <time>2013-06-16T04:16:41Z</time>
      </trkpt>
      <trkpt lat="-20.94038" lon="55.40547">
        <ele>1043.3</ele>
        <time>2013-06-16T04:16:42Z</time>
      </trkpt>
      <trkpt lat="-20.94043" lon="55.40561">
        <ele>1043.8</ele>
        <time>2013-06-16T04:16:50Z</time>
      </trkpt>
      <trkpt lat="-20.94042" lon="55.40569">
        <ele>1043.3</ele>
        <time>2013-06-16T04:16:54Z</time>
      </trkpt>
      <trkpt lat="-20.94041" lon="55.40576">
        <ele>1044.2</ele>
        <time>2013-06-16T04:16:58Z</time>
      </trkpt>
      <trkpt lat="-20.94039" lon="55.40585">
        <ele>1044.8</ele>
        <time>2013-06-16T04:17:02Z</time>
      </trkpt>
      <trkpt lat="-20.94035" lon="55.40592">
        <ele>1045.3</ele>
        <time>2013-06-16T04:17:06Z</time>
      </trkpt>
      <trkpt lat="-20.94032" lon="55.40599">
        <ele>1045.6</ele>
        <time>2013-06-16T04:17:10Z</time>
      </trkpt>
      <trkpt lat="-20.9403" lon="55.40607">
        <ele>1045.4</ele>
        <time>2013-06-16T04:17:14Z</time>
      </trkpt>
      <trkpt lat="-20.94029" lon="55.40615">
        <ele>1045.8</ele>
        <time>2013-06-16T04:17:18Z</time>
      </trkpt>
      <trkpt lat="-20.94031" lon="55.40624">
        <ele>1046.2</ele>
        <time>2013-06-16T04:17:22Z</time>
      </trkpt>
      <trkpt lat="-20.94035" lon="55.40631">
        <ele>1046.8</ele>
        <time>2013-06-16T04:17:26Z</time>
      </trkpt>
      <trkpt lat="-20.94038" lon="55.40639">
        <ele>1047.1</ele>
        <time>2013-06-16T04:17:30Z</time>
      </trkpt>
      <trkpt lat="-20.94042" lon="55.40646">
        <ele>1047.8</ele>
        <time>2013-06-16T04:17:34Z</time>
      </trkpt>
      <trkpt lat="-20.94047" lon="55.40653">
        <ele>1047.8</ele>
        <time>2013-06-16T04:17:39Z</time>
      </trkpt>
      <trkpt lat="-20.94053" lon="55.40659">
        <ele>1049.3</ele>
        <time>2013-06-16T04:17:43Z</time>
      </trkpt>
      <trkpt lat="-20.94054" lon="55.40661">
        <ele>1049.3</ele>
        <time>2013-06-16T04:17:44Z</time>
      </trkpt>
      <trkpt lat="-20.94054" lon="55.40677">
        <ele>1050.2</ele>
        <time>2013-06-16T04:17:53Z</time>
      </trkpt>
      <trkpt lat="-20.94047" lon="55.40681">
        <ele>1050.6</ele>
        <time>2013-06-16T04:17:58Z</time>
      </trkpt>
      <trkpt lat="-20.94039" lon="55.40683">
        <ele>1051.5</ele>
        <time>2013-06-16T04:18:03Z</time>
      </trkpt>
      <trkpt lat="-20.94032" lon="55.40685">
        <ele>1052.3</ele>
        <time>2013-06-16T04:18:07Z</time>
      </trkpt>
      <trkpt lat="-20.94025" lon="55.40691">
        <ele>1052.3</ele>
        <time>2013-06-16T04:18:12Z</time>
      </trkpt>
      <trkpt lat="-20.94028" lon="55.407">
        <ele>1054.7</ele>
        <time>2013-06-16T04:18:19Z</time>
      </trkpt>
      <trkpt lat="-20.94034" lon="55.40703">
        <ele>1054.5</ele>
        <time>2013-06-16T04:18:24Z</time>
      </trkpt>
      <trkpt lat="-20.94042" lon="55.40703">
        <ele>1055.5</ele>
        <time>2013-06-16T04:18:29Z</time>
      </trkpt>
      <trkpt lat="-20.9405" lon="55.40701">
        <ele>1055.9</ele>
        <time>2013-06-16T04:18:35Z</time>
      </trkpt>
      <trkpt lat="-20.94057" lon="55.40699">
        <ele>1056.3</ele>
        <time>2013-06-16T04:18:40Z</time>
      </trkpt>
      <trkpt lat="-20.94066" lon="55.40698">
        <ele>1057.8</ele>
        <time>2013-06-16T04:18:46Z</time>
      </trkpt>
      <trkpt lat="-20.94067" lon="55.40698">
        <ele>1057.6</ele>
        <time>2013-06-16T04:18:47Z</time>
      </trkpt>
      <trkpt lat="-20.94082" lon="55.40696">
        <ele>1058.7</ele>
        <time>2013-06-16T04:18:58Z</time>
      </trkpt>
      <trkpt lat="-20.9409" lon="55.40695">
        <ele>1059.8</ele>
        <time>2013-06-16T04:19:03Z</time>
      </trkpt>
      <trkpt lat="-20.94097" lon="55.40691">
        <ele>1060.5</ele>
        <time>2013-06-16T04:19:08Z</time>
      </trkpt>
      <trkpt lat="-20.94103" lon="55.40684">
        <ele>1061.3</ele>
        <time>2013-06-16T04:19:13Z</time>
      </trkpt>
      <trkpt lat="-20.94104" lon="55.40675">
        <ele>1060.9</ele>
        <time>2013-06-16T04:19:18Z</time>
      </trkpt>
      <trkpt lat="-20.94103" lon="55.40666">
        <ele>1062</ele>
        <time>2013-06-16T04:19:23Z</time>
      </trkpt>
      <trkpt lat="-20.94102" lon="55.40658">
        <ele>1061.4</ele>
        <time>2013-06-16T04:19:28Z</time>
      </trkpt>
      <trkpt lat="-20.941" lon="55.40649">
        <ele>1062.2</ele>
        <time>2013-06-16T04:19:32Z</time>
      </trkpt>
      <trkpt lat="-20.94098" lon="55.4064">
        <ele>1062.7</ele>
        <time>2013-06-16T04:19:36Z</time>
      </trkpt>
      <trkpt lat="-20.94095" lon="55.40632">
        <ele>1062.6</ele>
        <time>2013-06-16T04:19:40Z</time>
      </trkpt>
      <trkpt lat="-20.94092" lon="55.40624">
        <ele>1063.8</ele>
        <time>2013-06-16T04:19:45Z</time>
      </trkpt>
      <trkpt lat="-20.94088" lon="55.40616">
        <ele>1064.3</ele>
        <time>2013-06-16T04:19:50Z</time>
      </trkpt>
      <trkpt lat="-20.94088" lon="55.40614">
        <ele>1064.2</ele>
        <time>2013-06-16T04:19:51Z</time>
      </trkpt>
      <trkpt lat="-20.94085" lon="55.40599">
        <ele>1064.8</ele>
        <time>2013-06-16T04:20:00Z</time>
      </trkpt>
      <trkpt lat="-20.94084" lon="55.40591">
        <ele>1064.2</ele>
        <time>2013-06-16T04:20:05Z</time>
      </trkpt>
      <trkpt lat="-20.94085" lon="55.40582">
        <ele>1065.8</ele>
        <time>2013-06-16T04:20:10Z</time>
      </trkpt>
      <trkpt lat="-20.94088" lon="55.40574">
        <ele>1066.9</ele>
        <time>2013-06-16T04:20:16Z</time>
      </trkpt>
      <trkpt lat="-20.94092" lon="55.40567">
        <ele>1067.2</ele>
        <time>2013-06-16T04:20:22Z</time>
      </trkpt>
      <trkpt lat="-20.941" lon="55.40562">
        <ele>1067.4</ele>
        <time>2013-06-16T04:20:28Z</time>
      </trkpt>
      <trkpt lat="-20.94108" lon="55.40561">
        <ele>1068.8</ele>
        <time>2013-06-16T04:20:34Z</time>
      </trkpt>
      <trkpt lat="-20.94117" lon="55.40558">
        <ele>1069.2</ele>
        <time>2013-06-16T04:20:40Z</time>
      </trkpt>
      <trkpt lat="-20.94125" lon="55.40557">
        <ele>1069.4</ele>
        <time>2013-06-16T04:20:45Z</time>
      </trkpt>
      <trkpt lat="-20.94133" lon="55.4056">
        <ele>1069.6</ele>
        <time>2013-06-16T04:20:50Z</time>
      </trkpt>
      <trkpt lat="-20.94139" lon="55.40564">
        <ele>1070.7</ele>
        <time>2013-06-16T04:20:54Z</time>
      </trkpt>
      <trkpt lat="-20.94141" lon="55.40565">
        <ele>1070.8</ele>
        <time>2013-06-16T04:20:55Z</time>
      </trkpt>
      <trkpt lat="-20.94151" lon="55.40575">
        <ele>1071.6</ele>
        <time>2013-06-16T04:21:02Z</time>
      </trkpt>
      <trkpt lat="-20.94156" lon="55.40583">
        <ele>1071.9</ele>
        <time>2013-06-16T04:21:07Z</time>
      </trkpt>
      <trkpt lat="-20.94163" lon="55.40589">
        <ele>1071.5</ele>
        <time>2013-06-16T04:21:12Z</time>
      </trkpt>
      <trkpt lat="-20.94171" lon="55.40591">
        <ele>1072.7</ele>
        <time>2013-06-16T04:21:17Z</time>
      </trkpt>
      <trkpt lat="-20.94178" lon="55.40592">
        <ele>1073.6</ele>
        <time>2013-06-16T04:21:21Z</time>
      </trkpt>
      <trkpt lat="-20.94187" lon="55.40592">
        <ele>1073.2</ele>
        <time>2013-06-16T04:21:27Z</time>
      </trkpt>
      <trkpt lat="-20.94195" lon="55.40591">
        <ele>1074.1</ele>
        <time>2013-06-16T04:21:32Z</time>
      </trkpt>
      <trkpt lat="-20.94202" lon="55.40591">
        <ele>1074.3</ele>
        <time>2013-06-16T04:21:35Z</time>
      </trkpt>
      <trkpt lat="-20.9421" lon="55.40589">
        <ele>1074.6</ele>
        <time>2013-06-16T04:21:39Z</time>
      </trkpt>
      <trkpt lat="-20.94217" lon="55.40587">
        <ele>1075.2</ele>
        <time>2013-06-16T04:21:43Z</time>
      </trkpt>
      <trkpt lat="-20.94225" lon="55.40587">
        <ele>1075.8</ele>
        <time>2013-06-16T04:21:47Z</time>
      </trkpt>
      <trkpt lat="-20.94234" lon="55.40585">
        <ele>1076.1</ele>
        <time>2013-06-16T04:21:51Z</time>
      </trkpt>
      <trkpt lat="-20.94242" lon="55.40583">
        <ele>1075.9</ele>
        <time>2013-06-16T04:21:55Z</time>
      </trkpt>
      <trkpt lat="-20.94244" lon="55.40581">
        <ele>1075.9</ele>
        <time>2013-06-16T04:21:56Z</time>
      </trkpt>
      <trkpt lat="-20.94255" lon="55.4057">
        <ele>1077.1</ele>
        <time>2013-06-16T04:22:03Z</time>
      </trkpt>
      <trkpt lat="-20.94258" lon="55.40562">
        <ele>1077.9</ele>
        <time>2013-06-16T04:22:07Z</time>
      </trkpt>
      <trkpt lat="-20.94261" lon="55.40555">
        <ele>1078</ele>
        <time>2013-06-16T04:22:11Z</time>
      </trkpt>
      <trkpt lat="-20.94263" lon="55.40548">
        <ele>1078.2</ele>
        <time>2013-06-16T04:22:14Z</time>
      </trkpt>
      <trkpt lat="-20.94268" lon="55.40541">
        <ele>1078.8</ele>
        <time>2013-06-16T04:22:18Z</time>
      </trkpt>
      <trkpt lat="-20.94276" lon="55.40537">
        <ele>1078.8</ele>
        <time>2013-06-16T04:22:22Z</time>
      </trkpt>
      <trkpt lat="-20.94283" lon="55.40532">
        <ele>1078.1</ele>
        <time>2013-06-16T04:22:26Z</time>
      </trkpt>
      <trkpt lat="-20.94287" lon="55.40524">
        <ele>1079</ele>
        <time>2013-06-16T04:22:30Z</time>
      </trkpt>
      <trkpt lat="-20.94289" lon="55.40515">
        <ele>1079.7</ele>
        <time>2013-06-16T04:22:34Z</time>
      </trkpt>
      <trkpt lat="-20.9429" lon="55.40507">
        <ele>1080</ele>
        <time>2013-06-16T04:22:39Z</time>
      </trkpt>
      <trkpt lat="-20.94291" lon="55.40499">
        <ele>1079.7</ele>
        <time>2013-06-16T04:22:44Z</time>
      </trkpt>
      <trkpt lat="-20.94291" lon="55.4049">
        <ele>1080</ele>
        <time>2013-06-16T04:22:49Z</time>
      </trkpt>
      <trkpt lat="-20.9429" lon="55.40482">
        <ele>1079.7</ele>
        <time>2013-06-16T04:22:54Z</time>
      </trkpt>
      <trkpt lat="-20.94288" lon="55.40472">
        <ele>1080.5</ele>
        <time>2013-06-16T04:22:58Z</time>
      </trkpt>
      <trkpt lat="-20.94287" lon="55.4047">
        <ele>1080.6</ele>
        <time>2013-06-16T04:22:59Z</time>
      </trkpt>
      <trkpt lat="-20.94281" lon="55.40457">
        <ele>1081</ele>
        <time>2013-06-16T04:23:05Z</time>
      </trkpt>
      <trkpt lat="-20.94276" lon="55.4045">
        <ele>1081</ele>
        <time>2013-06-16T04:23:09Z</time>
      </trkpt>
      <trkpt lat="-20.9427" lon="55.40446">
        <ele>1081.1</ele>
        <time>2013-06-16T04:23:12Z</time>
      </trkpt>
      <trkpt lat="-20.94262" lon="55.40442">
        <ele>1081.3</ele>
        <time>2013-06-16T04:23:16Z</time>
      </trkpt>
      <trkpt lat="-20.94254" lon="55.40438">
        <ele>1081.7</ele>
        <time>2013-06-16T04:23:20Z</time>
      </trkpt>
      <trkpt lat="-20.94248" lon="55.40434">
        <ele>1081.7</ele>
        <time>2013-06-16T04:23:24Z</time>
      </trkpt>
      <trkpt lat="-20.94243" lon="55.40426">
        <ele>1081.3</ele>
        <time>2013-06-16T04:23:28Z</time>
      </trkpt>
      <trkpt lat="-20.94245" lon="55.40418">
        <ele>1081.5</ele>
        <time>2013-06-16T04:23:32Z</time>
      </trkpt>
      <trkpt lat="-20.94251" lon="55.40413">
        <ele>1081.2</ele>
        <time>2013-06-16T04:23:36Z</time>
      </trkpt>
      <trkpt lat="-20.94258" lon="55.40408">
        <ele>1081.4</ele>
        <time>2013-06-16T04:23:40Z</time>
      </trkpt>
      <trkpt lat="-20.94267" lon="55.40408">
        <ele>1081.9</ele>
        <time>2013-06-16T04:23:44Z</time>
      </trkpt>
      <trkpt lat="-20.94274" lon="55.40409">
        <ele>1082.5</ele>
        <time>2013-06-16T04:23:48Z</time>
      </trkpt>
      <trkpt lat="-20.9428" lon="55.40413">
        <ele>1082.4</ele>
        <time>2013-06-16T04:23:51Z</time>
      </trkpt>
      <trkpt lat="-20.94286" lon="55.40417">
        <ele>1082.8</ele>
        <time>2013-06-16T04:23:54Z</time>
      </trkpt>
      <trkpt lat="-20.94292" lon="55.40421">
        <ele>1082.9</ele>
        <time>2013-06-16T04:23:57Z</time>
      </trkpt>
      <trkpt lat="-20.94299" lon="55.40427">
        <ele>1083.3</ele>
        <time>2013-06-16T04:24:01Z</time>
      </trkpt>
      <trkpt lat="-20.943" lon="55.40429">
        <ele>1083.1</ele>
        <time>2013-06-16T04:24:02Z</time>
      </trkpt>
      <trkpt lat="-20.94312" lon="55.40436">
        <ele>1083.8</ele>
        <time>2013-06-16T04:24:09Z</time>
      </trkpt>
      <trkpt lat="-20.9432" lon="55.40438">
        <ele>1084</ele>
        <time>2013-06-16T04:24:13Z</time>
      </trkpt>
      <trkpt lat="-20.94327" lon="55.40438">
        <ele>1084</ele>
        <time>2013-06-16T04:24:16Z</time>
      </trkpt>
      <trkpt lat="-20.94336" lon="55.40438">
        <ele>1084.6</ele>
        <time>2013-06-16T04:24:20Z</time>
      </trkpt>
      <trkpt lat="-20.94344" lon="55.40439">
        <ele>1083.5</ele>
        <time>2013-06-16T04:24:24Z</time>
      </trkpt>
      <trkpt lat="-20.94351" lon="55.40445">
        <ele>1084.2</ele>
        <time>2013-06-16T04:24:28Z</time>
      </trkpt>
      <trkpt lat="-20.94356" lon="55.40451">
        <ele>1084.6</ele>
        <time>2013-06-16T04:24:32Z</time>
      </trkpt>
      <trkpt lat="-20.94362" lon="55.40459">
        <ele>1085.3</ele>
        <time>2013-06-16T04:24:36Z</time>
      </trkpt>
      <trkpt lat="-20.94367" lon="55.40465">
        <ele>1085</ele>
        <time>2013-06-16T04:24:40Z</time>
      </trkpt>
      <trkpt lat="-20.94373" lon="55.4047">
        <ele>1085.1</ele>
        <time>2013-06-16T04:24:43Z</time>
      </trkpt>
      <trkpt lat="-20.94379" lon="55.40474">
        <ele>1085.8</ele>
        <time>2013-06-16T04:24:46Z</time>
      </trkpt>
      <trkpt lat="-20.94385" lon="55.40478">
        <ele>1086</ele>
        <time>2013-06-16T04:24:49Z</time>
      </trkpt>
      <trkpt lat="-20.94392" lon="55.40481">
        <ele>1085.6</ele>
        <time>2013-06-16T04:24:52Z</time>
      </trkpt>
      <trkpt lat="-20.944" lon="55.40482">
        <ele>1085.4</ele>
        <time>2013-06-16T04:24:56Z</time>
      </trkpt>
      <trkpt lat="-20.94408" lon="55.40482">
        <ele>1085.3</ele>
        <time>2013-06-16T04:25:00Z</time>
      </trkpt>
      <trkpt lat="-20.94416" lon="55.4048">
        <ele>1085.4</ele>
        <time>2013-06-16T04:25:04Z</time>
      </trkpt>
      <trkpt lat="-20.94418" lon="55.40479">
        <ele>1085.4</ele>
        <time>2013-06-16T04:25:05Z</time>
      </trkpt>
      <trkpt lat="-20.94429" lon="55.40471">
        <ele>1085.4</ele>
        <time>2013-06-16T04:25:11Z</time>
      </trkpt>
      <trkpt lat="-20.94432" lon="55.40464">
        <ele>1084.7</ele>
        <time>2013-06-16T04:25:14Z</time>
      </trkpt>
      <trkpt lat="-20.94434" lon="55.40456">
        <ele>1085.9</ele>
        <time>2013-06-16T04:25:17Z</time>
      </trkpt>
      <trkpt lat="-20.94433" lon="55.40448">
        <ele>1085.5</ele>
        <time>2013-06-16T04:25:21Z</time>
      </trkpt>
      <trkpt lat="-20.9443" lon="55.4044">
        <ele>1085.5</ele>
        <time>2013-06-16T04:25:25Z</time>
      </trkpt>
      <trkpt lat="-20.94427" lon="55.40434">
        <ele>1085.3</ele>
        <time>2013-06-16T04:25:28Z</time>
      </trkpt>
      <trkpt lat="-20.94425" lon="55.40425">
        <ele>1085.7</ele>
        <time>2013-06-16T04:25:32Z</time>
      </trkpt>
      <trkpt lat="-20.94428" lon="55.40415">
        <ele>1086.2</ele>
        <time>2013-06-16T04:25:36Z</time>
      </trkpt>
      <trkpt lat="-20.94431" lon="55.40408">
        <ele>1087.4</ele>
        <time>2013-06-16T04:25:40Z</time>
      </trkpt>
      <trkpt lat="-20.94435" lon="55.40399">
        <ele>1087.8</ele>
        <time>2013-06-16T04:25:46Z</time>
      </trkpt>
      <trkpt lat="-20.9444" lon="55.40393">
        <ele>1087.5</ele>
        <time>2013-06-16T04:25:52Z</time>
      </trkpt>
      <trkpt lat="-20.94446" lon="55.40386">
        <ele>1087.7</ele>
        <time>2013-06-16T04:25:59Z</time>
      </trkpt>
      <trkpt lat="-20.94454" lon="55.40386">
        <ele>1088.3</ele>
        <time>2013-06-16T04:26:43Z</time>
      </trkpt>
      <trkpt lat="-20.94455" lon="55.40386">
        <ele>1088.4</ele>
        <time>2013-06-16T04:26:44Z</time>
      </trkpt>
      <trkpt lat="-20.94468" lon="55.40396">
        <ele>1088.4</ele>
        <time>2013-06-16T04:27:04Z</time>
      </trkpt>
      <trkpt lat="-20.94473" lon="55.40403">
        <ele>1088</ele>
        <time>2013-06-16T04:27:10Z</time>
      </trkpt>
      <trkpt lat="-20.94478" lon="55.4041">
        <ele>1089.2</ele>
        <time>2013-06-16T04:27:15Z</time>
      </trkpt>
      <trkpt lat="-20.94482" lon="55.40417">
        <ele>1090.3</ele>
        <time>2013-06-16T04:27:20Z</time>
      </trkpt>
      <trkpt lat="-20.94488" lon="55.40424">
        <ele>1090.7</ele>
        <time>2013-06-16T04:27:25Z</time>
      </trkpt>
      <trkpt lat="-20.94493" lon="55.40431">
        <ele>1090.5</ele>
        <time>2013-06-16T04:27:30Z</time>
      </trkpt>
      <trkpt lat="-20.94499" lon="55.40436">
        <ele>1091.1</ele>
        <time>2013-06-16T04:27:35Z</time>
      </trkpt>
      <trkpt lat="-20.94506" lon="55.40441">
        <ele>1092</ele>
        <time>2013-06-16T04:27:40Z</time>
      </trkpt>
      <trkpt lat="-20.94512" lon="55.40445">
        <ele>1092.2</ele>
        <time>2013-06-16T04:27:45Z</time>
      </trkpt>
      <trkpt lat="-20.94514" lon="55.40445">
        <ele>1092.1</ele>
        <time>2013-06-16T04:27:46Z</time>
      </trkpt>
      <trkpt lat="-20.94527" lon="55.40449">
        <ele>1093.6</ele>
        <time>2013-06-16T04:27:55Z</time>
      </trkpt>
      <trkpt lat="-20.94535" lon="55.40446">
        <ele>1094.1</ele>
        <time>2013-06-16T04:28:00Z</time>
      </trkpt>
      <trkpt lat="-20.94542" lon="55.40442">
        <ele>1094.1</ele>
        <time>2013-06-16T04:28:05Z</time>
      </trkpt>
      <trkpt lat="-20.94548" lon="55.40435">
        <ele>1095.1</ele>
        <time>2013-06-16T04:28:11Z</time>
      </trkpt>
      <trkpt lat="-20.94557" lon="55.40434">
        <ele>1096.3</ele>
        <time>2013-06-16T04:28:17Z</time>
      </trkpt>
      <trkpt lat="-20.9456" lon="55.40442">
        <ele>1097.5</ele>
        <time>2013-06-16T04:28:24Z</time>
      </trkpt>
      <trkpt lat="-20.94559" lon="55.40452">
        <ele>1098.2</ele>
        <time>2013-06-16T04:28:30Z</time>
      </trkpt>
      <trkpt lat="-20.94558" lon="55.40461">
        <ele>1099.6</ele>
        <time>2013-06-16T04:28:36Z</time>
      </trkpt>
      <trkpt lat="-20.94558" lon="55.4047">
        <ele>1099.9</ele>
        <time>2013-06-16T04:28:41Z</time>
      </trkpt>
      <trkpt lat="-20.94561" lon="55.40477">
        <ele>1099.9</ele>
        <time>2013-06-16T04:28:46Z</time>
      </trkpt>
      <trkpt lat="-20.94563" lon="55.40479">
        <ele>1099.7</ele>
        <time>2013-06-16T04:28:47Z</time>
      </trkpt>
      <trkpt lat="-20.94576" lon="55.40485">
        <ele>1100.6</ele>
        <time>2013-06-16T04:28:57Z</time>
      </trkpt>
      <trkpt lat="-20.94584" lon="55.40485">
        <ele>1101.1</ele>
        <time>2013-06-16T04:29:02Z</time>
      </trkpt>
      <trkpt lat="-20.94591" lon="55.40484">
        <ele>1102.1</ele>
        <time>2013-06-16T04:29:07Z</time>
      </trkpt>
      <trkpt lat="-20.946" lon="55.40482">
        <ele>1102.7</ele>
        <time>2013-06-16T04:29:13Z</time>
      </trkpt>
      <trkpt lat="-20.94608" lon="55.40479">
        <ele>1104.9</ele>
        <time>2013-06-16T04:29:19Z</time>
      </trkpt>
      <trkpt lat="-20.94616" lon="55.40476">
        <ele>1104.8</ele>
        <time>2013-06-16T04:29:25Z</time>
      </trkpt>
      <trkpt lat="-20.94622" lon="55.40471">
        <ele>1106</ele>
        <time>2013-06-16T04:29:30Z</time>
      </trkpt>
      <trkpt lat="-20.94629" lon="55.40465">
        <ele>1106.1</ele>
        <time>2013-06-16T04:29:35Z</time>
      </trkpt>
      <trkpt lat="-20.94634" lon="55.40459">
        <ele>1106.4</ele>
        <time>2013-06-16T04:29:40Z</time>
      </trkpt>
      <trkpt lat="-20.9464" lon="55.40452">
        <ele>1106.5</ele>
        <time>2013-06-16T04:29:45Z</time>
      </trkpt>
      <trkpt lat="-20.94644" lon="55.40445">
        <ele>1108.8</ele>
        <time>2013-06-16T04:29:50Z</time>
      </trkpt>
      <trkpt lat="-20.94645" lon="55.40444">
        <ele>1108.5</ele>
        <time>2013-06-16T04:29:51Z</time>
      </trkpt>
      <trkpt lat="-20.94653" lon="55.40431">
        <ele>1109.3</ele>
        <time>2013-06-16T04:30:00Z</time>
      </trkpt>
      <trkpt lat="-20.94654" lon="55.40422">
        <ele>1110.2</ele>
        <time>2013-06-16T04:30:05Z</time>
      </trkpt>
      <trkpt lat="-20.94656" lon="55.40413">
        <ele>1110.6</ele>
        <time>2013-06-16T04:30:11Z</time>
      </trkpt>
      <trkpt lat="-20.94657" lon="55.40405">
        <ele>1111.9</ele>
        <time>2013-06-16T04:30:17Z</time>
      </trkpt>
      <trkpt lat="-20.94657" lon="55.40396">
        <ele>1112.9</ele>
        <time>2013-06-16T04:30:23Z</time>
      </trkpt>
      <trkpt lat="-20.94662" lon="55.40389">
        <ele>1113.7</ele>
        <time>2013-06-16T04:30:29Z</time>
      </trkpt>
      <trkpt lat="-20.94669" lon="55.40387">
        <ele>1114.4</ele>
        <time>2013-06-16T04:30:34Z</time>
      </trkpt>
      <trkpt lat="-20.94678" lon="55.40386">
        <ele>1114.8</ele>
        <time>2013-06-16T04:30:39Z</time>
      </trkpt>
      <trkpt lat="-20.94685" lon="55.40387">
        <ele>1115.6</ele>
        <time>2013-06-16T04:30:44Z</time>
      </trkpt>
      <trkpt lat="-20.94693" lon="55.4039">
        <ele>1114.7</ele>
        <time>2013-06-16T04:30:49Z</time>
      </trkpt>
      <trkpt lat="-20.94701" lon="55.40391">
        <ele>1116.1</ele>
        <time>2013-06-16T04:30:54Z</time>
      </trkpt>
      <trkpt lat="-20.94703" lon="55.40391">
        <ele>1116.2</ele>
        <time>2013-06-16T04:30:55Z</time>
      </trkpt>
      <trkpt lat="-20.94717" lon="55.4039">
        <ele>1117</ele>
        <time>2013-06-16T04:31:04Z</time>
      </trkpt>
      <trkpt lat="-20.94725" lon="55.40386">
        <ele>1118.3</ele>
        <time>2013-06-16T04:31:10Z</time>
      </trkpt>
      <trkpt lat="-20.94732" lon="55.40381">
        <ele>1118.5</ele>
        <time>2013-06-16T04:31:16Z</time>
      </trkpt>
      <trkpt lat="-20.94738" lon="55.40376">
        <ele>1118.6</ele>
        <time>2013-06-16T04:31:21Z</time>
      </trkpt>
      <trkpt lat="-20.94745" lon="55.40371">
        <ele>1118.3</ele>
        <time>2013-06-16T04:31:26Z</time>
      </trkpt>
      <trkpt lat="-20.94752" lon="55.40365">
        <ele>1119.4</ele>
        <time>2013-06-16T04:31:32Z</time>
      </trkpt>
      <trkpt lat="-20.94752" lon="55.40356">
        <ele>1119.7</ele>
        <time>2013-06-16T04:31:41Z</time>
      </trkpt>
      <trkpt lat="-20.94744" lon="55.40353">
        <ele>1121</ele>
        <time>2013-06-16T04:31:48Z</time>
      </trkpt>
      <trkpt lat="-20.94737" lon="55.40353">
        <ele>1121.8</ele>
        <time>2013-06-16T04:31:53Z</time>
      </trkpt>
      <trkpt lat="-20.94729" lon="55.40352">
        <ele>1121.8</ele>
        <time>2013-06-16T04:31:58Z</time>
      </trkpt>
      <trkpt lat="-20.94727" lon="55.40352">
        <ele>1122</ele>
        <time>2013-06-16T04:31:59Z</time>
      </trkpt>
      <trkpt lat="-20.94714" lon="55.40344">
        <ele>1122</ele>
        <time>2013-06-16T04:32:09Z</time>
      </trkpt>
      <trkpt lat="-20.94711" lon="55.40336">
        <ele>1123</ele>
        <time>2013-06-16T04:32:14Z</time>
      </trkpt>
      <trkpt lat="-20.94709" lon="55.40328">
        <ele>1123.9</ele>
        <time>2013-06-16T04:32:18Z</time>
      </trkpt>
      <trkpt lat="-20.94705" lon="55.40319">
        <ele>1123.9</ele>
        <time>2013-06-16T04:32:23Z</time>
      </trkpt>
      <trkpt lat="-20.94701" lon="55.40312">
        <ele>1124.3</ele>
        <time>2013-06-16T04:32:28Z</time>
      </trkpt>
      <trkpt lat="-20.94698" lon="55.40303">
        <ele>1125</ele>
        <time>2013-06-16T04:32:34Z</time>
      </trkpt>
      <trkpt lat="-20.94707" lon="55.40301">
        <ele>1126.4</ele>
        <time>2013-06-16T04:32:45Z</time>
      </trkpt>
      <trkpt lat="-20.94712" lon="55.40308">
        <ele>1127.3</ele>
        <time>2013-06-16T04:32:51Z</time>
      </trkpt>
      <trkpt lat="-20.94716" lon="55.40316">
        <ele>1128.5</ele>
        <time>2013-06-16T04:32:57Z</time>
      </trkpt>
      <trkpt lat="-20.94722" lon="55.40323">
        <ele>1129.3</ele>
        <time>2013-06-16T04:33:03Z</time>
      </trkpt>
      <trkpt lat="-20.94723" lon="55.40324">
        <ele>1129.7</ele>
        <time>2013-06-16T04:33:04Z</time>
      </trkpt>
      <trkpt lat="-20.94737" lon="55.40333">
        <ele>1130.4</ele>
        <time>2013-06-16T04:33:15Z</time>
      </trkpt>
      <trkpt lat="-20.94745" lon="55.40335">
        <ele>1130.4</ele>
        <time>2013-06-16T04:33:20Z</time>
      </trkpt>
      <trkpt lat="-20.94753" lon="55.40336">
        <ele>1130.8</ele>
        <time>2013-06-16T04:33:25Z</time>
      </trkpt>
      <trkpt lat="-20.94761" lon="55.40338">
        <ele>1131.4</ele>
        <time>2013-06-16T04:33:30Z</time>
      </trkpt>
      <trkpt lat="-20.9477" lon="55.4034">
        <ele>1131.2</ele>
        <time>2013-06-16T04:33:36Z</time>
      </trkpt>
      <trkpt lat="-20.94779" lon="55.40342">
        <ele>1132.4</ele>
        <time>2013-06-16T04:33:42Z</time>
      </trkpt>
      <trkpt lat="-20.94786" lon="55.40344">
        <ele>1133.5</ele>
        <time>2013-06-16T04:33:47Z</time>
      </trkpt>
      <trkpt lat="-20.94793" lon="55.40348">
        <ele>1132.8</ele>
        <time>2013-06-16T04:33:52Z</time>
      </trkpt>
      <trkpt lat="-20.94801" lon="55.40352">
        <ele>1134</ele>
        <time>2013-06-16T04:33:58Z</time>
      </trkpt>
      <trkpt lat="-20.94807" lon="55.40358">
        <ele>1135</ele>
        <time>2013-06-16T04:34:04Z</time>
      </trkpt>
      <trkpt lat="-20.94808" lon="55.4036">
        <ele>1135.3</ele>
        <time>2013-06-16T04:34:05Z</time>
      </trkpt>
      <trkpt lat="-20.94815" lon="55.40375">
        <ele>1136.4</ele>
        <time>2013-06-16T04:34:16Z</time>
      </trkpt>
      <trkpt lat="-20.94816" lon="55.40382">
        <ele>1136.9</ele>
        <time>2013-06-16T04:34:21Z</time>
      </trkpt>
      <trkpt lat="-20.94818" lon="55.40391">
        <ele>1137.8</ele>
        <time>2013-06-16T04:34:26Z</time>
      </trkpt>
      <trkpt lat="-20.94819" lon="55.40399">
        <ele>1137.6</ele>
        <time>2013-06-16T04:34:32Z</time>
      </trkpt>
      <trkpt lat="-20.9482" lon="55.40408">
        <ele>1138.2</ele>
        <time>2013-06-16T04:34:38Z</time>
      </trkpt>
      <trkpt lat="-20.94821" lon="55.40416">
        <ele>1139.3</ele>
        <time>2013-06-16T04:34:43Z</time>
      </trkpt>
      <trkpt lat="-20.94823" lon="55.40425">
        <ele>1139.9</ele>
        <time>2013-06-16T04:34:48Z</time>
      </trkpt>
      <trkpt lat="-20.94825" lon="55.40433">
        <ele>1140.3</ele>
        <time>2013-06-16T04:34:53Z</time>
      </trkpt>
      <trkpt lat="-20.94829" lon="55.40441">
        <ele>1139.9</ele>
        <time>2013-06-16T04:34:58Z</time>
      </trkpt>
      <trkpt lat="-20.94835" lon="55.40445">
        <ele>1140.9</ele>
        <time>2013-06-16T04:35:03Z</time>
      </trkpt>
      <trkpt lat="-20.94843" lon="55.40448">
        <ele>1142.3</ele>
        <time>2013-06-16T04:35:08Z</time>
      </trkpt>
      <trkpt lat="-20.94845" lon="55.40447">
        <ele>1142.1</ele>
        <time>2013-06-16T04:35:09Z</time>
      </trkpt>
      <trkpt lat="-20.94856" lon="55.40441">
        <ele>1142.6</ele>
        <time>2013-06-16T04:35:17Z</time>
      </trkpt>
      <trkpt lat="-20.94859" lon="55.40432">
        <ele>1142.6</ele>
        <time>2013-06-16T04:35:23Z</time>
      </trkpt>
      <trkpt lat="-20.94858" lon="55.40422">
        <ele>1144.3</ele>
        <time>2013-06-16T04:35:29Z</time>
      </trkpt>
      <trkpt lat="-20.94855" lon="55.40414">
        <ele>1144.1</ele>
        <time>2013-06-16T04:35:34Z</time>
      </trkpt>
      <trkpt lat="-20.94852" lon="55.40406">
        <ele>1145.2</ele>
        <time>2013-06-16T04:35:39Z</time>
      </trkpt>
      <trkpt lat="-20.94849" lon="55.40397">
        <ele>1145.8</ele>
        <time>2013-06-16T04:35:44Z</time>
      </trkpt>
      <trkpt lat="-20.94846" lon="55.40389">
        <ele>1145.8</ele>
        <time>2013-06-16T04:35:49Z</time>
      </trkpt>
      <trkpt lat="-20.94845" lon="55.40381">
        <ele>1146.7</ele>
        <time>2013-06-16T04:35:55Z</time>
      </trkpt>
      <trkpt lat="-20.94844" lon="55.40371">
        <ele>1148.3</ele>
        <time>2013-06-16T04:36:01Z</time>
      </trkpt>
      <trkpt lat="-20.94844" lon="55.40363">
        <ele>1147.8</ele>
        <time>2013-06-16T04:36:06Z</time>
      </trkpt>
      <trkpt lat="-20.94843" lon="55.40354">
        <ele>1147.9</ele>
        <time>2013-06-16T04:36:12Z</time>
      </trkpt>
      <trkpt lat="-20.94843" lon="55.40352">
        <ele>1148</ele>
        <time>2013-06-16T04:36:13Z</time>
      </trkpt>
      <trkpt lat="-20.94842" lon="55.40337">
        <ele>1148.6</ele>
        <time>2013-06-16T04:36:22Z</time>
      </trkpt>
      <trkpt lat="-20.9484" lon="55.40329">
        <ele>1149</ele>
        <time>2013-06-16T04:36:27Z</time>
      </trkpt>
      <trkpt lat="-20.94836" lon="55.40322">
        <ele>1150</ele>
        <time>2013-06-16T04:36:31Z</time>
      </trkpt>
      <trkpt lat="-20.94829" lon="55.40317">
        <ele>1150</ele>
        <time>2013-06-16T04:36:35Z</time>
      </trkpt>
      <trkpt lat="-20.94823" lon="55.40314">
        <ele>1151.2</ele>
        <time>2013-06-16T04:36:39Z</time>
      </trkpt>
      <trkpt lat="-20.94815" lon="55.40311">
        <ele>1152.2</ele>
        <time>2013-06-16T04:36:43Z</time>
      </trkpt>
      <trkpt lat="-20.94808" lon="55.40307">
        <ele>1152.2</ele>
        <time>2013-06-16T04:36:47Z</time>
      </trkpt>
      <trkpt lat="-20.94801" lon="55.40302">
        <ele>1152.3</ele>
        <time>2013-06-16T04:36:51Z</time>
      </trkpt>
      <trkpt lat="-20.94796" lon="55.40295">
        <ele>1153.3</ele>
        <time>2013-06-16T04:36:55Z</time>
      </trkpt>
      <trkpt lat="-20.94802" lon="55.40289">
        <ele>1153</ele>
        <time>2013-06-16T04:37:01Z</time>
      </trkpt>
      <trkpt lat="-20.94809" lon="55.4029">
        <ele>1153.9</ele>
        <time>2013-06-16T04:37:06Z</time>
      </trkpt>
      <trkpt lat="-20.94818" lon="55.40291">
        <ele>1154.8</ele>
        <time>2013-06-16T04:37:11Z</time>
      </trkpt>
      <trkpt lat="-20.94826" lon="55.40291">
        <ele>1154.8</ele>
        <time>2013-06-16T04:37:16Z</time>
      </trkpt>
      <trkpt lat="-20.94828" lon="55.40291">
        <ele>1154.9</ele>
        <time>2013-06-16T04:37:17Z</time>
      </trkpt>
      <trkpt lat="-20.94843" lon="55.40288">
        <ele>1156</ele>
        <time>2013-06-16T04:37:26Z</time>
      </trkpt>
      <trkpt lat="-20.94851" lon="55.40284">
        <ele>1156.6</ele>
        <time>2013-06-16T04:37:32Z</time>
      </trkpt>
      <trkpt lat="-20.94859" lon="55.40284">
        <ele>1157.9</ele>
        <time>2013-06-16T04:37:37Z</time>
      </trkpt>
      <trkpt lat="-20.94866" lon="55.40288">
        <ele>1157.9</ele>
        <time>2013-06-16T04:37:42Z</time>
      </trkpt>
      <trkpt lat="-20.94871" lon="55.40295">
        <ele>1158</ele>
        <time>2013-06-16T04:37:47Z</time>
      </trkpt>
      <trkpt lat="-20.94874" lon="55.40302">
        <ele>1158.8</ele>
        <time>2013-06-16T04:37:52Z</time>
      </trkpt>
      <trkpt lat="-20.94879" lon="55.4031">
        <ele>1159.9</ele>
        <time>2013-06-16T04:37:57Z</time>
      </trkpt>
      <trkpt lat="-20.94884" lon="55.40317">
        <ele>1160.7</ele>
        <time>2013-06-16T04:38:02Z</time>
      </trkpt>
      <trkpt lat="-20.9489" lon="55.40322">
        <ele>1161</ele>
        <time>2013-06-16T04:38:07Z</time>
      </trkpt>
      <trkpt lat="-20.94896" lon="55.40327">
        <ele>1161.8</ele>
        <time>2013-06-16T04:38:12Z</time>
      </trkpt>
      <trkpt lat="-20.94902" lon="55.40333">
        <ele>1161.8</ele>
        <time>2013-06-16T04:38:17Z</time>
      </trkpt>
      <trkpt lat="-20.94903" lon="55.40334">
        <ele>1162</ele>
        <time>2013-06-16T04:38:18Z</time>
      </trkpt>
      <trkpt lat="-20.94911" lon="55.40346">
        <ele>1162.6</ele>
        <time>2013-06-16T04:38:27Z</time>
      </trkpt>
      <trkpt lat="-20.94914" lon="55.40355">
        <ele>1162.7</ele>
        <time>2013-06-16T04:38:33Z</time>
      </trkpt>
      <trkpt lat="-20.94917" lon="55.40364">
        <ele>1163.4</ele>
        <time>2013-06-16T04:38:39Z</time>
      </trkpt>
      <trkpt lat="-20.9492" lon="55.40372">
        <ele>1163.3</ele>
        <time>2013-06-16T04:38:44Z</time>
      </trkpt>
      <trkpt lat="-20.94923" lon="55.4038">
        <ele>1163.6</ele>
        <time>2013-06-16T04:38:49Z</time>
      </trkpt>
      <trkpt lat="-20.94926" lon="55.40388">
        <ele>1164.5</ele>
        <time>2013-06-16T04:38:54Z</time>
      </trkpt>
      <trkpt lat="-20.94931" lon="55.40394">
        <ele>1166.4</ele>
        <time>2013-06-16T04:38:58Z</time>
      </trkpt>
      <trkpt lat="-20.94936" lon="55.40399">
        <ele>1165.6</ele>
        <time>2013-06-16T04:39:02Z</time>
      </trkpt>
      <trkpt lat="-20.94943" lon="55.40403">
        <ele>1165.9</ele>
        <time>2013-06-16T04:39:06Z</time>
      </trkpt>
      <trkpt lat="-20.94951" lon="55.40405">
        <ele>1166.6</ele>
        <time>2013-06-16T04:39:11Z</time>
      </trkpt>
      <trkpt lat="-20.94959" lon="55.40404">
        <ele>1167.7</ele>
        <time>2013-06-16T04:39:16Z</time>
      </trkpt>
      <trkpt lat="-20.94968" lon="55.40405">
        <ele>1166.8</ele>
        <time>2013-06-16T04:39:21Z</time>
      </trkpt>
      <trkpt lat="-20.9497" lon="55.40406">
        <ele>1166.5</ele>
        <time>2013-06-16T04:39:22Z</time>
      </trkpt>
      <trkpt lat="-20.94983" lon="55.40414">
        <ele>1168.1</ele>
        <time>2013-06-16T04:39:31Z</time>
      </trkpt>
      <trkpt lat="-20.94991" lon="55.40418">
        <ele>1169.2</ele>
        <time>2013-06-16T04:39:36Z</time>
      </trkpt>
      <trkpt lat="-20.94999" lon="55.40418">
        <ele>1169.2</ele>
        <time>2013-06-16T04:39:41Z</time>
      </trkpt>
      <trkpt lat="-20.95008" lon="55.40417">
        <ele>1168.3</ele>
        <time>2013-06-16T04:39:47Z</time>
      </trkpt>
      <trkpt lat="-20.95016" lon="55.40415">
        <ele>1169.9</ele>
        <time>2013-06-16T04:39:52Z</time>
      </trkpt>
      <trkpt lat="-20.95024" lon="55.40413">
        <ele>1170.9</ele>
        <time>2013-06-16T04:39:57Z</time>
      </trkpt>
      <trkpt lat="-20.95032" lon="55.40412">
        <ele>1170.9</ele>
        <time>2013-06-16T04:40:02Z</time>
      </trkpt>
      <trkpt lat="-20.9504" lon="55.40411">
        <ele>1171.6</ele>
        <time>2013-06-16T04:40:07Z</time>
      </trkpt>
      <trkpt lat="-20.95048" lon="55.40411">
        <ele>1172.2</ele>
        <time>2013-06-16T04:40:12Z</time>
      </trkpt>
      <trkpt lat="-20.95057" lon="55.40409">
        <ele>1172.5</ele>
        <time>2013-06-16T04:40:17Z</time>
      </trkpt>
      <trkpt lat="-20.95064" lon="55.40407">
        <ele>1173.7</ele>
        <time>2013-06-16T04:40:22Z</time>
      </trkpt>
      <trkpt lat="-20.95065" lon="55.40406">
        <ele>1173.8</ele>
        <time>2013-06-16T04:40:23Z</time>
      </trkpt>
      <trkpt lat="-20.95079" lon="55.40403">
        <ele>1174.6</ele>
        <time>2013-06-16T04:40:32Z</time>
      </trkpt>
      <trkpt lat="-20.95087" lon="55.40404">
        <ele>1174.6</ele>
        <time>2013-06-16T04:40:37Z</time>
      </trkpt>
      <trkpt lat="-20.95094" lon="55.40407">
        <ele>1175.8</ele>
        <time>2013-06-16T04:40:42Z</time>
      </trkpt>
      <trkpt lat="-20.95099" lon="55.40415">
        <ele>1175.9</ele>
        <time>2013-06-16T04:40:47Z</time>
      </trkpt>
      <trkpt lat="-20.95104" lon="55.40421">
        <ele>1175.9</ele>
        <time>2013-06-16T04:40:52Z</time>
      </trkpt>
      <trkpt lat="-20.9511" lon="55.40428">
        <ele>1176.5</ele>
        <time>2013-06-16T04:40:57Z</time>
      </trkpt>
      <trkpt lat="-20.95115" lon="55.40435">
        <ele>1176.3</ele>
        <time>2013-06-16T04:41:02Z</time>
      </trkpt>
      <trkpt lat="-20.95122" lon="55.40439">
        <ele>1176.1</ele>
        <time>2013-06-16T04:41:07Z</time>
      </trkpt>
      <trkpt lat="-20.95131" lon="55.40443">
        <ele>1178.1</ele>
        <time>2013-06-16T04:41:13Z</time>
      </trkpt>
      <trkpt lat="-20.95139" lon="55.40446">
        <ele>1178.6</ele>
        <time>2013-06-16T04:41:20Z</time>
      </trkpt>
      <trkpt lat="-20.95146" lon="55.40448">
        <ele>1179.5</ele>
        <time>2013-06-16T04:41:25Z</time>
      </trkpt>
      <trkpt lat="-20.95148" lon="55.40449">
        <ele>1179.5</ele>
        <time>2013-06-16T04:41:26Z</time>
      </trkpt>
      <trkpt lat="-20.95162" lon="55.40455">
        <ele>1180.3</ele>
        <time>2013-06-16T04:41:36Z</time>
      </trkpt>
      <trkpt lat="-20.95171" lon="55.40454">
        <ele>1181.4</ele>
        <time>2013-06-16T04:41:42Z</time>
      </trkpt>
      <trkpt lat="-20.95175" lon="55.40445">
        <ele>1181.3</ele>
        <time>2013-06-16T04:41:47Z</time>
      </trkpt>
      <trkpt lat="-20.95178" lon="55.40437">
        <ele>1182.7</ele>
        <time>2013-06-16T04:41:51Z</time>
      </trkpt>
      <trkpt lat="-20.95178" lon="55.40427">
        <ele>1182.1</ele>
        <time>2013-06-16T04:42:01Z</time>
      </trkpt>
      <trkpt lat="-20.95172" lon="55.40424">
        <ele>1183.4</ele>
        <time>2013-06-16T04:42:07Z</time>
      </trkpt>
      <trkpt lat="-20.95164" lon="55.4042">
        <ele>1184</ele>
        <time>2013-06-16T04:42:11Z</time>
      </trkpt>
      <trkpt lat="-20.95161" lon="55.40412">
        <ele>1184</ele>
        <time>2013-06-16T04:42:15Z</time>
      </trkpt>
      <trkpt lat="-20.95159" lon="55.40405">
        <ele>1183.5</ele>
        <time>2013-06-16T04:42:18Z</time>
      </trkpt>
      <trkpt lat="-20.95155" lon="55.40397">
        <ele>1183</ele>
        <time>2013-06-16T04:42:23Z</time>
      </trkpt>
      <trkpt lat="-20.95159" lon="55.40389">
        <ele>1183.6</ele>
        <time>2013-06-16T04:42:33Z</time>
      </trkpt>
      <trkpt lat="-20.95159" lon="55.40388">
        <ele>1183.6</ele>
        <time>2013-06-16T04:42:34Z</time>
      </trkpt>
      <trkpt lat="-20.95168" lon="55.40375">
        <ele>1185.5</ele>
        <time>2013-06-16T04:42:45Z</time>
      </trkpt>
      <trkpt lat="-20.95174" lon="55.40369">
        <ele>1184.4</ele>
        <time>2013-06-16T04:42:50Z</time>
      </trkpt>
      <trkpt lat="-20.95176" lon="55.4036">
        <ele>1184.7</ele>
        <time>2013-06-16T04:42:57Z</time>
      </trkpt>
      <trkpt lat="-20.95171" lon="55.40355">
        <ele>1185.4</ele>
        <time>2013-06-16T04:43:01Z</time>
      </trkpt>
      <trkpt lat="-20.95165" lon="55.40349">
        <ele>1186.4</ele>
        <time>2013-06-16T04:43:05Z</time>
      </trkpt>
      <trkpt lat="-20.95163" lon="55.40341">
        <ele>1186.3</ele>
        <time>2013-06-16T04:43:09Z</time>
      </trkpt>
      <trkpt lat="-20.9516" lon="55.40333">
        <ele>1185.5</ele>
        <time>2013-06-16T04:43:14Z</time>
      </trkpt>
      <trkpt lat="-20.95163" lon="55.40324">
        <ele>1185.9</ele>
        <time>2013-06-16T04:43:22Z</time>
      </trkpt>
      <trkpt lat="-20.95165" lon="55.40315">
        <ele>1187.5</ele>
        <time>2013-06-16T04:43:34Z</time>
      </trkpt>
      <trkpt lat="-20.95164" lon="55.40313">
        <ele>1187.6</ele>
        <time>2013-06-16T04:43:35Z</time>
      </trkpt>
      <trkpt lat="-20.95165" lon="55.40298">
        <ele>1187.8</ele>
        <time>2013-06-16T04:43:44Z</time>
      </trkpt>
      <trkpt lat="-20.95159" lon="55.40291">
        <ele>1188.4</ele>
        <time>2013-06-16T04:43:52Z</time>
      </trkpt>
      <trkpt lat="-20.95152" lon="55.40289">
        <ele>1188.5</ele>
        <time>2013-06-16T04:43:57Z</time>
      </trkpt>
      <trkpt lat="-20.95144" lon="55.40287">
        <ele>1188.8</ele>
        <time>2013-06-16T04:44:01Z</time>
      </trkpt>
      <trkpt lat="-20.95137" lon="55.40281">
        <ele>1188.3</ele>
        <time>2013-06-16T04:44:05Z</time>
      </trkpt>
      <trkpt lat="-20.95132" lon="55.40276">
        <ele>1188.6</ele>
        <time>2013-06-16T04:44:08Z</time>
      </trkpt>
      <trkpt lat="-20.95124" lon="55.40274">
        <ele>1188.5</ele>
        <time>2013-06-16T04:44:12Z</time>
      </trkpt>
      <trkpt lat="-20.95124" lon="55.40265">
        <ele>1189.1</ele>
        <time>2013-06-16T04:44:18Z</time>
      </trkpt>
      <trkpt lat="-20.9513" lon="55.40259">
        <ele>1188.9</ele>
        <time>2013-06-16T04:44:22Z</time>
      </trkpt>
      <trkpt lat="-20.95136" lon="55.40251">
        <ele>1188.6</ele>
        <time>2013-06-16T04:44:26Z</time>
      </trkpt>
      <trkpt lat="-20.9514" lon="55.40244">
        <ele>1189.2</ele>
        <time>2013-06-16T04:44:31Z</time>
      </trkpt>
      <trkpt lat="-20.95141" lon="55.40235">
        <ele>1190.8</ele>
        <time>2013-06-16T04:44:36Z</time>
      </trkpt>
      <trkpt lat="-20.9514" lon="55.40233">
        <ele>1190.9</ele>
        <time>2013-06-16T04:44:37Z</time>
      </trkpt>
      <trkpt lat="-20.95145" lon="55.40217">
        <ele>1191.1</ele>
        <time>2013-06-16T04:44:45Z</time>
      </trkpt>
      <trkpt lat="-20.95145" lon="55.40209">
        <ele>1190.3</ele>
        <time>2013-06-16T04:44:49Z</time>
      </trkpt>
      <trkpt lat="-20.95153" lon="55.40208">
        <ele>1192.1</ele>
        <time>2013-06-16T04:45:00Z</time>
      </trkpt>
      <trkpt lat="-20.95161" lon="55.40213">
        <ele>1191.6</ele>
        <time>2013-06-16T04:45:06Z</time>
      </trkpt>
      <trkpt lat="-20.95168" lon="55.40217">
        <ele>1192.3</ele>
        <time>2013-06-16T04:45:14Z</time>
      </trkpt>
      <trkpt lat="-20.95175" lon="55.40221">
        <ele>1193.2</ele>
        <time>2013-06-16T04:45:19Z</time>
      </trkpt>
      <trkpt lat="-20.95179" lon="55.40229">
        <ele>1193.6</ele>
        <time>2013-06-16T04:45:24Z</time>
      </trkpt>
      <trkpt lat="-20.9518" lon="55.40237">
        <ele>1194</ele>
        <time>2013-06-16T04:45:29Z</time>
      </trkpt>
      <trkpt lat="-20.95181" lon="55.40247">
        <ele>1194.1</ele>
        <time>2013-06-16T04:45:34Z</time>
      </trkpt>
      <trkpt lat="-20.95181" lon="55.40255">
        <ele>1195.4</ele>
        <time>2013-06-16T04:45:41Z</time>
      </trkpt>
      <trkpt lat="-20.95182" lon="55.40256">
        <ele>1195.2</ele>
        <time>2013-06-16T04:45:42Z</time>
      </trkpt>
      <trkpt lat="-20.95197" lon="55.40257">
        <ele>1196.4</ele>
        <time>2013-06-16T04:45:54Z</time>
      </trkpt>
      <trkpt lat="-20.95204" lon="55.40261">
        <ele>1196.5</ele>
        <time>2013-06-16T04:45:59Z</time>
      </trkpt>
      <trkpt lat="-20.95212" lon="55.40266">
        <ele>1196.6</ele>
        <time>2013-06-16T04:46:05Z</time>
      </trkpt>
      <trkpt lat="-20.9522" lon="55.40269">
        <ele>1197.1</ele>
        <time>2013-06-16T04:46:12Z</time>
      </trkpt>
      <trkpt lat="-20.95227" lon="55.40263">
        <ele>1197.9</ele>
        <time>2013-06-16T04:46:21Z</time>
      </trkpt>
      <trkpt lat="-20.95228" lon="55.40254">
        <ele>1197.9</ele>
        <time>2013-06-16T04:46:28Z</time>
      </trkpt>
      <trkpt lat="-20.95232" lon="55.40247">
        <ele>1198.5</ele>
        <time>2013-06-16T04:46:38Z</time>
      </trkpt>
      <trkpt lat="-20.95241" lon="55.40248">
        <ele>1198.9</ele>
        <time>2013-06-16T04:46:45Z</time>
      </trkpt>
      <trkpt lat="-20.95243" lon="55.40249">
        <ele>1198.9</ele>
        <time>2013-06-16T04:46:46Z</time>
      </trkpt>
      <trkpt lat="-20.95255" lon="55.40252">
        <ele>1200</ele>
        <time>2013-06-16T04:46:57Z</time>
      </trkpt>
      <trkpt lat="-20.95261" lon="55.40244">
        <ele>1200</ele>
        <time>2013-06-16T04:47:05Z</time>
      </trkpt>
      <trkpt lat="-20.95257" lon="55.40237">
        <ele>1200</ele>
        <time>2013-06-16T04:47:12Z</time>
      </trkpt>
      <trkpt lat="-20.95252" lon="55.40229">
        <ele>1200.8</ele>
        <time>2013-06-16T04:47:19Z</time>
      </trkpt>
      <trkpt lat="-20.95251" lon="55.40219">
        <ele>1202.1</ele>
        <time>2013-06-16T04:47:25Z</time>
      </trkpt>
      <trkpt lat="-20.95259" lon="55.40214">
        <ele>1201.6</ele>
        <time>2013-06-16T04:47:30Z</time>
      </trkpt>
      <trkpt lat="-20.95263" lon="55.40206">
        <ele>1201.9</ele>
        <time>2013-06-16T04:47:35Z</time>
      </trkpt>
      <trkpt lat="-20.9526" lon="55.40199">
        <ele>1202.8</ele>
        <time>2013-06-16T04:47:39Z</time>
      </trkpt>
      <trkpt lat="-20.95256" lon="55.40192">
        <ele>1203.4</ele>
        <time>2013-06-16T04:47:43Z</time>
      </trkpt>
      <trkpt lat="-20.95249" lon="55.40186">
        <ele>1203.9</ele>
        <time>2013-06-16T04:47:48Z</time>
      </trkpt>
      <trkpt lat="-20.95249" lon="55.40184">
        <ele>1203.8</ele>
        <time>2013-06-16T04:47:49Z</time>
      </trkpt>
      <trkpt lat="-20.95264" lon="55.4018">
        <ele>1204.2</ele>
        <time>2013-06-16T04:48:01Z</time>
      </trkpt>
      <trkpt lat="-20.95271" lon="55.40175">
        <ele>1204.9</ele>
        <time>2013-06-16T04:48:07Z</time>
      </trkpt>
      <trkpt lat="-20.95279" lon="55.40169">
        <ele>1204.4</ele>
        <time>2013-06-16T04:48:14Z</time>
      </trkpt>
      <trkpt lat="-20.95286" lon="55.40175">
        <ele>1204.9</ele>
        <time>2013-06-16T04:48:21Z</time>
      </trkpt>
      <trkpt lat="-20.95291" lon="55.40182">
        <ele>1205.8</ele>
        <time>2013-06-16T04:48:27Z</time>
      </trkpt>
      <trkpt lat="-20.95296" lon="55.4019">
        <ele>1206.5</ele>
        <time>2013-06-16T04:48:34Z</time>
      </trkpt>
      <trkpt lat="-20.95295" lon="55.40199">
        <ele>1206.5</ele>
        <time>2013-06-16T04:48:41Z</time>
      </trkpt>
      <trkpt lat="-20.95298" lon="55.40207">
        <ele>1206.6</ele>
        <time>2013-06-16T04:48:45Z</time>
      </trkpt>
      <trkpt lat="-20.95306" lon="55.40212">
        <ele>1207.2</ele>
        <time>2013-06-16T04:48:51Z</time>
      </trkpt>
      <trkpt lat="-20.95307" lon="55.40213">
        <ele>1207.1</ele>
        <time>2013-06-16T04:48:52Z</time>
      </trkpt>
      <trkpt lat="-20.9532" lon="55.40221">
        <ele>1207.4</ele>
        <time>2013-06-16T04:49:03Z</time>
      </trkpt>
      <trkpt lat="-20.95328" lon="55.40217">
        <ele>1208.2</ele>
        <time>2013-06-16T04:49:11Z</time>
      </trkpt>
      <trkpt lat="-20.95335" lon="55.40221">
        <ele>1208.5</ele>
        <time>2013-06-16T04:49:17Z</time>
      </trkpt>
      <trkpt lat="-20.95338" lon="55.4023">
        <ele>1208.1</ele>
        <time>2013-06-16T04:49:23Z</time>
      </trkpt>
      <trkpt lat="-20.9534" lon="55.40238">
        <ele>1208.3</ele>
        <time>2013-06-16T04:49:30Z</time>
      </trkpt>
      <trkpt lat="-20.95336" lon="55.40246">
        <ele>1209.4</ele>
        <time>2013-06-16T04:49:38Z</time>
      </trkpt>
      <trkpt lat="-20.95332" lon="55.40255">
        <ele>1210.7</ele>
        <time>2013-06-16T04:49:47Z</time>
      </trkpt>
      <trkpt lat="-20.95334" lon="55.40262">
        <ele>1211</ele>
        <time>2013-06-16T04:49:53Z</time>
      </trkpt>
      <trkpt lat="-20.95335" lon="55.40264">
        <ele>1210.8</ele>
        <time>2013-06-16T04:49:54Z</time>
      </trkpt>
      <trkpt lat="-20.95351" lon="55.40261">
        <ele>1211.1</ele>
        <time>2013-06-16T04:50:06Z</time>
      </trkpt>
      <trkpt lat="-20.95356" lon="55.40268">
        <ele>1211.9</ele>
        <time>2013-06-16T04:50:12Z</time>
      </trkpt>
      <trkpt lat="-20.95353" lon="55.40277">
        <ele>1211.3</ele>
        <time>2013-06-16T04:50:17Z</time>
      </trkpt>
      <trkpt lat="-20.95354" lon="55.40287">
        <ele>1212.7</ele>
        <time>2013-06-16T04:50:25Z</time>
      </trkpt>
      <trkpt lat="-20.95359" lon="55.40293">
        <ele>1213.4</ele>
        <time>2013-06-16T04:50:33Z</time>
      </trkpt>
      <trkpt lat="-20.95367" lon="55.40295">
        <ele>1213.6</ele>
        <time>2013-06-16T04:50:38Z</time>
      </trkpt>
      <trkpt lat="-20.95373" lon="55.40301">
        <ele>1213.9</ele>
        <time>2013-06-16T04:50:44Z</time>
      </trkpt>
      <trkpt lat="-20.95375" lon="55.40309">
        <ele>1213.4</ele>
        <time>2013-06-16T04:50:48Z</time>
      </trkpt>
      <trkpt lat="-20.95376" lon="55.40318">
        <ele>1214.1</ele>
        <time>2013-06-16T04:50:54Z</time>
      </trkpt>
      <trkpt lat="-20.95375" lon="55.40319">
        <ele>1214.1</ele>
        <time>2013-06-16T04:50:55Z</time>
      </trkpt>
      <trkpt lat="-20.95391" lon="55.40326">
        <ele>1215</ele>
        <time>2013-06-16T04:51:12Z</time>
      </trkpt>
      <trkpt lat="-20.95398" lon="55.40331">
        <ele>1215.8</ele>
        <time>2013-06-16T04:51:20Z</time>
      </trkpt>
      <trkpt lat="-20.95405" lon="55.40327">
        <ele>1217.3</ele>
        <time>2013-06-16T04:51:29Z</time>
      </trkpt>
      <trkpt lat="-20.95408" lon="55.40318">
        <ele>1217.4</ele>
        <time>2013-06-16T04:51:41Z</time>
      </trkpt>
      <trkpt lat="-20.95413" lon="55.40311">
        <ele>1217.9</ele>
        <time>2013-06-16T04:51:48Z</time>
      </trkpt>
      <trkpt lat="-20.95417" lon="55.40303">
        <ele>1218.4</ele>
        <time>2013-06-16T04:51:55Z</time>
      </trkpt>
      <trkpt lat="-20.95418" lon="55.40302">
        <ele>1218.7</ele>
        <time>2013-06-16T04:51:56Z</time>
      </trkpt>
      <trkpt lat="-20.95423" lon="55.40286">
        <ele>1219.1</ele>
        <time>2013-06-16T04:52:05Z</time>
      </trkpt>
      <trkpt lat="-20.95425" lon="55.40278">
        <ele>1219.3</ele>
        <time>2013-06-16T04:52:11Z</time>
      </trkpt>
      <trkpt lat="-20.95431" lon="55.40284">
        <ele>1220.1</ele>
        <time>2013-06-16T04:52:20Z</time>
      </trkpt>
      <trkpt lat="-20.95439" lon="55.40287">
        <ele>1220.4</ele>
        <time>2013-06-16T04:52:31Z</time>
      </trkpt>
      <trkpt lat="-20.95446" lon="55.40283">
        <ele>1221.3</ele>
        <time>2013-06-16T04:52:38Z</time>
      </trkpt>
      <trkpt lat="-20.95455" lon="55.40285">
        <ele>1221.3</ele>
        <time>2013-06-16T04:52:46Z</time>
      </trkpt>
      <trkpt lat="-20.95458" lon="55.40294">
        <ele>1221</ele>
        <time>2013-06-16T04:52:56Z</time>
      </trkpt>
      <trkpt lat="-20.95458" lon="55.40295">
        <ele>1221.2</ele>
        <time>2013-06-16T04:52:57Z</time>
      </trkpt>
      <trkpt lat="-20.95461" lon="55.40311">
        <ele>1223.5</ele>
        <time>2013-06-16T04:53:15Z</time>
      </trkpt>
      <trkpt lat="-20.95461" lon="55.4032">
        <ele>1224.7</ele>
        <time>2013-06-16T04:53:23Z</time>
      </trkpt>
      <trkpt lat="-20.95468" lon="55.40324">
        <ele>1224.5</ele>
        <time>2013-06-16T04:53:29Z</time>
      </trkpt>
      <trkpt lat="-20.95476" lon="55.40325">
        <ele>1224.7</ele>
        <time>2013-06-16T04:53:34Z</time>
      </trkpt>
      <trkpt lat="-20.95485" lon="55.40327">
        <ele>1225.3</ele>
        <time>2013-06-16T04:53:40Z</time>
      </trkpt>
      <trkpt lat="-20.95493" lon="55.40325">
        <ele>1225.6</ele>
        <time>2013-06-16T04:53:45Z</time>
      </trkpt>
      <trkpt lat="-20.955" lon="55.40319">
        <ele>1226.2</ele>
        <time>2013-06-16T04:53:54Z</time>
      </trkpt>
      <trkpt lat="-20.95505" lon="55.40312">
        <ele>1226</ele>
        <time>2013-06-16T04:54:04Z</time>
      </trkpt>
      <trkpt lat="-20.95506" lon="55.4031">
        <ele>1226.1</ele>
        <time>2013-06-16T04:54:05Z</time>
      </trkpt>
      <trkpt lat="-20.9552" lon="55.40307">
        <ele>1228.2</ele>
        <time>2013-06-16T04:54:19Z</time>
      </trkpt>
      <trkpt lat="-20.95528" lon="55.40309">
        <ele>1228.6</ele>
        <time>2013-06-16T04:54:27Z</time>
      </trkpt>
      <trkpt lat="-20.95536" lon="55.40307">
        <ele>1228.8</ele>
        <time>2013-06-16T04:54:33Z</time>
      </trkpt>
      <trkpt lat="-20.95544" lon="55.40311">
        <ele>1229.3</ele>
        <time>2013-06-16T04:54:39Z</time>
      </trkpt>
      <trkpt lat="-20.9555" lon="55.40307">
        <ele>1228.5</ele>
        <time>2013-06-16T04:54:44Z</time>
      </trkpt>
      <trkpt lat="-20.95558" lon="55.4031">
        <ele>1229.2</ele>
        <time>2013-06-16T04:54:51Z</time>
      </trkpt>
      <trkpt lat="-20.95561" lon="55.40319">
        <ele>1230</ele>
        <time>2013-06-16T04:54:56Z</time>
      </trkpt>
      <trkpt lat="-20.95563" lon="55.40327">
        <ele>1230.6</ele>
        <time>2013-06-16T04:55:01Z</time>
      </trkpt>
      <trkpt lat="-20.95569" lon="55.40334">
        <ele>1230.9</ele>
        <time>2013-06-16T04:55:07Z</time>
      </trkpt>
      <trkpt lat="-20.95569" lon="55.40335">
        <ele>1230.8</ele>
        <time>2013-06-16T04:55:08Z</time>
      </trkpt>
      <trkpt lat="-20.95572" lon="55.40351">
        <ele>1231.9</ele>
        <time>2013-06-16T04:55:18Z</time>
      </trkpt>
      <trkpt lat="-20.95568" lon="55.40357">
        <ele>1231.8</ele>
        <time>2013-06-16T04:55:23Z</time>
      </trkpt>
      <trkpt lat="-20.95564" lon="55.40366">
        <ele>1232.4</ele>
        <time>2013-06-16T04:55:31Z</time>
      </trkpt>
      <trkpt lat="-20.95562" lon="55.40374">
        <ele>1232.6</ele>
        <time>2013-06-16T04:55:38Z</time>
      </trkpt>
      <trkpt lat="-20.95558" lon="55.40382">
        <ele>1233.2</ele>
        <time>2013-06-16T04:55:46Z</time>
      </trkpt>
      <trkpt lat="-20.95565" lon="55.40387">
        <ele>1233.8</ele>
        <time>2013-06-16T04:55:56Z</time>
      </trkpt>
      <trkpt lat="-20.9557" lon="55.40393">
        <ele>1234.5</ele>
        <time>2013-06-16T04:56:03Z</time>
      </trkpt>
      <trkpt lat="-20.95572" lon="55.40402">
        <ele>1234.6</ele>
        <time>2013-06-16T04:56:12Z</time>
      </trkpt>
      <trkpt lat="-20.95572" lon="55.40403">
        <ele>1234.5</ele>
        <time>2013-06-16T04:56:13Z</time>
      </trkpt>
      <trkpt lat="-20.95584" lon="55.40393">
        <ele>1235.5</ele>
        <time>2013-06-16T04:56:39Z</time>
      </trkpt>
      <trkpt lat="-20.95591" lon="55.40396">
        <ele>1236.5</ele>
        <time>2013-06-16T04:56:45Z</time>
      </trkpt>
      <trkpt lat="-20.956" lon="55.40396">
        <ele>1236.5</ele>
        <time>2013-06-16T04:56:50Z</time>
      </trkpt>
      <trkpt lat="-20.95609" lon="55.40394">
        <ele>1236.9</ele>
        <time>2013-06-16T04:56:56Z</time>
      </trkpt>
      <trkpt lat="-20.95617" lon="55.40395">
        <ele>1237</ele>
        <time>2013-06-16T04:57:02Z</time>
      </trkpt>
      <trkpt lat="-20.95619" lon="55.40404">
        <ele>1236.9</ele>
        <time>2013-06-16T04:57:09Z</time>
      </trkpt>
      <trkpt lat="-20.95626" lon="55.40401">
        <ele>1237.7</ele>
        <time>2013-06-16T04:57:25Z</time>
      </trkpt>
      <trkpt lat="-20.95628" lon="55.404">
        <ele>1237.7</ele>
        <time>2013-06-16T04:57:26Z</time>
      </trkpt>
      <trkpt lat="-20.95636" lon="55.40388">
        <ele>1238.6</ele>
        <time>2013-06-16T04:57:40Z</time>
      </trkpt>
      <trkpt lat="-20.95638" lon="55.40378">
        <ele>1239.6</ele>
        <time>2013-06-16T04:57:50Z</time>
      </trkpt>
      <trkpt lat="-20.9564" lon="55.40369">
        <ele>1240.2</ele>
        <time>2013-06-16T04:57:56Z</time>
      </trkpt>
      <trkpt lat="-20.95645" lon="55.40363">
        <ele>1240.5</ele>
        <time>2013-06-16T04:58:00Z</time>
      </trkpt>
      <trkpt lat="-20.95646" lon="55.40354">
        <ele>1240.9</ele>
        <time>2013-06-16T04:58:06Z</time>
      </trkpt>
      <trkpt lat="-20.95644" lon="55.40346">
        <ele>1241.7</ele>
        <time>2013-06-16T04:58:11Z</time>
      </trkpt>
      <trkpt lat="-20.95646" lon="55.40337">
        <ele>1241.4</ele>
        <time>2013-06-16T04:58:16Z</time>
      </trkpt>
      <trkpt lat="-20.95643" lon="55.40329">
        <ele>1241.6</ele>
        <time>2013-06-16T04:58:20Z</time>
      </trkpt>
      <trkpt lat="-20.95644" lon="55.40321">
        <ele>1242</ele>
        <time>2013-06-16T04:58:24Z</time>
      </trkpt>
      <trkpt lat="-20.95648" lon="55.40313">
        <ele>1242.6</ele>
        <time>2013-06-16T04:58:30Z</time>
      </trkpt>
      <trkpt lat="-20.95649" lon="55.40312">
        <ele>1242.7</ele>
        <time>2013-06-16T04:58:31Z</time>
      </trkpt>
      <trkpt lat="-20.95659" lon="55.40299">
        <ele>1244.3</ele>
        <time>2013-06-16T04:58:43Z</time>
      </trkpt>
      <trkpt lat="-20.95662" lon="55.40292">
        <ele>1244.6</ele>
        <time>2013-06-16T04:58:48Z</time>
      </trkpt>
      <trkpt lat="-20.95668" lon="55.40286">
        <ele>1244.9</ele>
        <time>2013-06-16T04:58:54Z</time>
      </trkpt>
      <trkpt lat="-20.95677" lon="55.40289">
        <ele>1245.2</ele>
        <time>2013-06-16T04:58:59Z</time>
      </trkpt>
      <trkpt lat="-20.95685" lon="55.40291">
        <ele>1246.1</ele>
        <time>2013-06-16T04:59:04Z</time>
      </trkpt>
      <trkpt lat="-20.95692" lon="55.40295">
        <ele>1246.3</ele>
        <time>2013-06-16T04:59:12Z</time>
      </trkpt>
      <trkpt lat="-20.95699" lon="55.40301">
        <ele>1245.9</ele>
        <time>2013-06-16T04:59:19Z</time>
      </trkpt>
      <trkpt lat="-20.95708" lon="55.403">
        <ele>1247.9</ele>
        <time>2013-06-16T04:59:41Z</time>
      </trkpt>
      <trkpt lat="-20.95708" lon="55.40299">
        <ele>1248.2</ele>
        <time>2013-06-16T04:59:42Z</time>
      </trkpt>
      <trkpt lat="-20.95723" lon="55.40293">
        <ele>1248.3</ele>
        <time>2013-06-16T04:59:54Z</time>
      </trkpt>
      <trkpt lat="-20.95731" lon="55.40294">
        <ele>1249.1</ele>
        <time>2013-06-16T05:00:00Z</time>
      </trkpt>
      <trkpt lat="-20.95735" lon="55.40302">
        <ele>1250.2</ele>
        <time>2013-06-16T05:00:07Z</time>
      </trkpt>
      <trkpt lat="-20.95739" lon="55.40309">
        <ele>1251.6</ele>
        <time>2013-06-16T05:00:19Z</time>
      </trkpt>
      <trkpt lat="-20.95746" lon="55.40315">
        <ele>1251.4</ele>
        <time>2013-06-16T05:00:26Z</time>
      </trkpt>
      <trkpt lat="-20.95754" lon="55.40312">
        <ele>1252.5</ele>
        <time>2013-06-16T05:00:36Z</time>
      </trkpt>
      <trkpt lat="-20.95761" lon="55.40316">
        <ele>1252.8</ele>
        <time>2013-06-16T05:00:42Z</time>
      </trkpt>
      <trkpt lat="-20.95762" lon="55.40316">
        <ele>1253.1</ele>
        <time>2013-06-16T05:00:43Z</time>
      </trkpt>
      <trkpt lat="-20.95777" lon="55.40321">
        <ele>1254</ele>
        <time>2013-06-16T05:00:51Z</time>
      </trkpt>
      <trkpt lat="-20.95783" lon="55.40328">
        <ele>1254.3</ele>
        <time>2013-06-16T05:00:56Z</time>
      </trkpt>
      <trkpt lat="-20.95788" lon="55.40335">
        <ele>1254.8</ele>
        <time>2013-06-16T05:01:01Z</time>
      </trkpt>
      <trkpt lat="-20.95794" lon="55.40341">
        <ele>1254.9</ele>
        <time>2013-06-16T05:01:06Z</time>
      </trkpt>
      <trkpt lat="-20.95799" lon="55.40349">
        <ele>1255.9</ele>
        <time>2013-06-16T05:01:12Z</time>
      </trkpt>
      <trkpt lat="-20.95807" lon="55.40351">
        <ele>1256.6</ele>
        <time>2013-06-16T05:01:23Z</time>
      </trkpt>
      <trkpt lat="-20.95815" lon="55.40346">
        <ele>1257.6</ele>
        <time>2013-06-16T05:01:31Z</time>
      </trkpt>
      <trkpt lat="-20.95823" lon="55.40347">
        <ele>1257.9</ele>
        <time>2013-06-16T05:01:40Z</time>
      </trkpt>
      <trkpt lat="-20.95829" lon="55.40354">
        <ele>1258.8</ele>
        <time>2013-06-16T05:01:49Z</time>
      </trkpt>
      <trkpt lat="-20.9583" lon="55.40355">
        <ele>1258.7</ele>
        <time>2013-06-16T05:01:50Z</time>
      </trkpt>
      <trkpt lat="-20.95842" lon="55.40362">
        <ele>1261</ele>
        <time>2013-06-16T05:02:06Z</time>
      </trkpt>
      <trkpt lat="-20.9585" lon="55.40363">
        <ele>1261</ele>
        <time>2013-06-16T05:02:11Z</time>
      </trkpt>
      <trkpt lat="-20.95853" lon="55.40371">
        <ele>1262.1</ele>
        <time>2013-06-16T05:02:16Z</time>
      </trkpt>
      <trkpt lat="-20.95861" lon="55.40376">
        <ele>1263.1</ele>
        <time>2013-06-16T05:02:33Z</time>
      </trkpt>
      <trkpt lat="-20.95869" lon="55.40373">
        <ele>1264.6</ele>
        <time>2013-06-16T05:02:41Z</time>
      </trkpt>
      <trkpt lat="-20.95874" lon="55.40379">
        <ele>1265.2</ele>
        <time>2013-06-16T05:02:47Z</time>
      </trkpt>
      <trkpt lat="-20.95877" lon="55.40387">
        <ele>1265.7</ele>
        <time>2013-06-16T05:02:54Z</time>
      </trkpt>
      <trkpt lat="-20.95878" lon="55.40388">
        <ele>1266.2</ele>
        <time>2013-06-16T05:02:55Z</time>
      </trkpt>
      <trkpt lat="-20.95885" lon="55.40404">
        <ele>1267.7</ele>
        <time>2013-06-16T05:03:16Z</time>
      </trkpt>
      <trkpt lat="-20.95893" lon="55.40402">
        <ele>1269.2</ele>
        <time>2013-06-16T05:03:34Z</time>
      </trkpt>
      <trkpt lat="-20.95899" lon="55.40396">
        <ele>1269.8</ele>
        <time>2013-06-16T05:03:43Z</time>
      </trkpt>
      <trkpt lat="-20.95902" lon="55.40388">
        <ele>1270.8</ele>
        <time>2013-06-16T05:03:49Z</time>
      </trkpt>
      <trkpt lat="-20.95909" lon="55.40384">
        <ele>1271.5</ele>
        <time>2013-06-16T05:03:55Z</time>
      </trkpt>
      <trkpt lat="-20.95911" lon="55.40384">
        <ele>1271.5</ele>
        <time>2013-06-16T05:03:56Z</time>
      </trkpt>
      <trkpt lat="-20.95926" lon="55.40383">
        <ele>1272.2</ele>
        <time>2013-06-16T05:04:08Z</time>
      </trkpt>
      <trkpt lat="-20.95933" lon="55.40388">
        <ele>1273.9</ele>
        <time>2013-06-16T05:04:19Z</time>
      </trkpt>
      <trkpt lat="-20.95936" lon="55.40396">
        <ele>1274.6</ele>
        <time>2013-06-16T05:04:26Z</time>
      </trkpt>
      <trkpt lat="-20.95942" lon="55.40402">
        <ele>1275.1</ele>
        <time>2013-06-16T05:04:33Z</time>
      </trkpt>
      <trkpt lat="-20.95947" lon="55.40408">
        <ele>1276.2</ele>
        <time>2013-06-16T05:04:38Z</time>
      </trkpt>
      <trkpt lat="-20.95955" lon="55.40413">
        <ele>1277.3</ele>
        <time>2013-06-16T05:04:45Z</time>
      </trkpt>
      <trkpt lat="-20.95964" lon="55.40414">
        <ele>1277.8</ele>
        <time>2013-06-16T05:04:51Z</time>
      </trkpt>
      <trkpt lat="-20.95972" lon="55.40417">
        <ele>1278.5</ele>
        <time>2013-06-16T05:04:57Z</time>
      </trkpt>
      <trkpt lat="-20.95973" lon="55.40418">
        <ele>1278.6</ele>
        <time>2013-06-16T05:04:58Z</time>
      </trkpt>
      <trkpt lat="-20.95981" lon="55.40431">
        <ele>1279.6</ele>
        <time>2013-06-16T05:05:08Z</time>
      </trkpt>
      <trkpt lat="-20.95986" lon="55.40438">
        <ele>1280.5</ele>
        <time>2013-06-16T05:05:13Z</time>
      </trkpt>
      <trkpt lat="-20.95994" lon="55.40442">
        <ele>1280.2</ele>
        <time>2013-06-16T05:05:21Z</time>
      </trkpt>
      <trkpt lat="-20.96001" lon="55.40446">
        <ele>1280.9</ele>
        <time>2013-06-16T05:05:27Z</time>
      </trkpt>
      <trkpt lat="-20.96009" lon="55.40442">
        <ele>1282.1</ele>
        <time>2013-06-16T05:05:46Z</time>
      </trkpt>
      <trkpt lat="-20.96007" lon="55.40433">
        <ele>1282.2</ele>
        <time>2013-06-16T05:05:58Z</time>
      </trkpt>
      <trkpt lat="-20.96007" lon="55.40432">
        <ele>1282.4</ele>
        <time>2013-06-16T05:05:59Z</time>
      </trkpt>
      <trkpt lat="-20.96" lon="55.40417">
        <ele>1282.1</ele>
        <time>2013-06-16T05:06:11Z</time>
      </trkpt>
      <trkpt lat="-20.95998" lon="55.40408">
        <ele>1282.9</ele>
        <time>2013-06-16T05:06:19Z</time>
      </trkpt>
      <trkpt lat="-20.95997" lon="55.40399">
        <ele>1283.9</ele>
        <time>2013-06-16T05:06:26Z</time>
      </trkpt>
      <trkpt lat="-20.95996" lon="55.4039">
        <ele>1285.6</ele>
        <time>2013-06-16T05:06:34Z</time>
      </trkpt>
      <trkpt lat="-20.95994" lon="55.40381">
        <ele>1285.9</ele>
        <time>2013-06-16T05:06:41Z</time>
      </trkpt>
      <trkpt lat="-20.95992" lon="55.40372">
        <ele>1287</ele>
        <time>2013-06-16T05:06:54Z</time>
      </trkpt>
      <trkpt lat="-20.95986" lon="55.40365">
        <ele>1287.4</ele>
        <time>2013-06-16T05:06:59Z</time>
      </trkpt>
      <trkpt lat="-20.95985" lon="55.40364">
        <ele>1287.5</ele>
        <time>2013-06-16T05:07:00Z</time>
      </trkpt>
      <trkpt lat="-20.95974" lon="55.40353">
        <ele>1289.1</ele>
        <time>2013-06-16T05:07:11Z</time>
      </trkpt>
      <trkpt lat="-20.9597" lon="55.40345">
        <ele>1289.2</ele>
        <time>2013-06-16T05:07:17Z</time>
      </trkpt>
      <trkpt lat="-20.95965" lon="55.40339">
        <ele>1289.6</ele>
        <time>2013-06-16T05:07:23Z</time>
      </trkpt>
      <trkpt lat="-20.95964" lon="55.40331">
        <ele>1290.7</ele>
        <time>2013-06-16T05:07:29Z</time>
      </trkpt>
      <trkpt lat="-20.9596" lon="55.40322">
        <ele>1290.6</ele>
        <time>2013-06-16T05:07:36Z</time>
      </trkpt>
      <trkpt lat="-20.95953" lon="55.40317">
        <ele>1291.9</ele>
        <time>2013-06-16T05:07:42Z</time>
      </trkpt>
      <trkpt lat="-20.95946" lon="55.40314">
        <ele>1292</ele>
        <time>2013-06-16T05:07:49Z</time>
      </trkpt>
      <trkpt lat="-20.95941" lon="55.40307">
        <ele>1292.1</ele>
        <time>2013-06-16T05:07:55Z</time>
      </trkpt>
      <trkpt lat="-20.95943" lon="55.40299">
        <ele>1292.8</ele>
        <time>2013-06-16T05:08:00Z</time>
      </trkpt>
      <trkpt lat="-20.95943" lon="55.40297">
        <ele>1292.8</ele>
        <time>2013-06-16T05:08:01Z</time>
      </trkpt>
      <trkpt lat="-20.95942" lon="55.40283">
        <ele>1293.9</ele>
        <time>2013-06-16T05:08:09Z</time>
      </trkpt>
      <trkpt lat="-20.9595" lon="55.40288">
        <ele>1293.5</ele>
        <time>2013-06-16T05:08:25Z</time>
      </trkpt>
      <trkpt lat="-20.95957" lon="55.40292">
        <ele>1294</ele>
        <time>2013-06-16T05:08:33Z</time>
      </trkpt>
      <trkpt lat="-20.95963" lon="55.40285">
        <ele>1295.7</ele>
        <time>2013-06-16T05:08:42Z</time>
      </trkpt>
      <trkpt lat="-20.95969" lon="55.40291">
        <ele>1296.2</ele>
        <time>2013-06-16T05:08:49Z</time>
      </trkpt>
      <trkpt lat="-20.95977" lon="55.40296">
        <ele>1297.5</ele>
        <time>2013-06-16T05:08:55Z</time>
      </trkpt>
      <trkpt lat="-20.95983" lon="55.40302">
        <ele>1297.9</ele>
        <time>2013-06-16T05:09:04Z</time>
      </trkpt>
      <trkpt lat="-20.95984" lon="55.40302">
        <ele>1297.9</ele>
        <time>2013-06-16T05:09:05Z</time>
      </trkpt>
      <trkpt lat="-20.95998" lon="55.40297">
        <ele>1298.5</ele>
        <time>2013-06-16T05:09:16Z</time>
      </trkpt>
      <trkpt lat="-20.96003" lon="55.40289">
        <ele>1299.4</ele>
        <time>2013-06-16T05:09:22Z</time>
      </trkpt>
      <trkpt lat="-20.96004" lon="55.4028">
        <ele>1300.8</ele>
        <time>2013-06-16T05:09:30Z</time>
      </trkpt>
      <trkpt lat="-20.96013" lon="55.40282">
        <ele>1301</ele>
        <time>2013-06-16T05:09:36Z</time>
      </trkpt>
      <trkpt lat="-20.9602" lon="55.40287">
        <ele>1300.3</ele>
        <time>2013-06-16T05:09:42Z</time>
      </trkpt>
      <trkpt lat="-20.96023" lon="55.40294">
        <ele>1300.9</ele>
        <time>2013-06-16T05:09:47Z</time>
      </trkpt>
      <trkpt lat="-20.96025" lon="55.40303">
        <ele>1301.7</ele>
        <time>2013-06-16T05:09:51Z</time>
      </trkpt>
      <trkpt lat="-20.96029" lon="55.40311">
        <ele>1302.3</ele>
        <time>2013-06-16T05:09:57Z</time>
      </trkpt>
      <trkpt lat="-20.96036" lon="55.40317">
        <ele>1301.8</ele>
        <time>2013-06-16T05:10:06Z</time>
      </trkpt>
      <trkpt lat="-20.96036" lon="55.40317">
        <ele>1302.1</ele>
        <time>2013-06-16T05:10:07Z</time>
      </trkpt>
      <trkpt lat="-20.96053" lon="55.40317">
        <ele>1304</ele>
        <time>2013-06-16T05:10:24Z</time>
      </trkpt>
      <trkpt lat="-20.96059" lon="55.40312">
        <ele>1304.5</ele>
        <time>2013-06-16T05:10:31Z</time>
      </trkpt>
      <trkpt lat="-20.96065" lon="55.40306">
        <ele>1305.3</ele>
        <time>2013-06-16T05:10:36Z</time>
      </trkpt>
      <trkpt lat="-20.96071" lon="55.40299">
        <ele>1305.2</ele>
        <time>2013-06-16T05:10:44Z</time>
      </trkpt>
      <trkpt lat="-20.96079" lon="55.40295">
        <ele>1305.7</ele>
        <time>2013-06-16T05:10:50Z</time>
      </trkpt>
      <trkpt lat="-20.96085" lon="55.40301">
        <ele>1306.6</ele>
        <time>2013-06-16T05:10:56Z</time>
      </trkpt>
      <trkpt lat="-20.96094" lon="55.403">
        <ele>1307.1</ele>
        <time>2013-06-16T05:11:02Z</time>
      </trkpt>
      <trkpt lat="-20.96102" lon="55.40301">
        <ele>1307.7</ele>
        <time>2013-06-16T05:11:09Z</time>
      </trkpt>
      <trkpt lat="-20.96103" lon="55.40301">
        <ele>1307.8</ele>
        <time>2013-06-16T05:11:10Z</time>
      </trkpt>
      <trkpt lat="-20.96101" lon="55.403">
        <ele>1307.7</ele>
        <time>2013-06-16T05:11:39Z</time>
      </trkpt>
      <trkpt lat="-20.96093" lon="55.40297">
        <ele>1308.9</ele>
        <time>2013-06-16T05:11:47Z</time>
      </trkpt>
      <trkpt lat="-20.96091" lon="55.40288">
        <ele>1310.2</ele>
        <time>2013-06-16T05:11:58Z</time>
      </trkpt>
      <trkpt lat="-20.96098" lon="55.40282">
        <ele>1311.1</ele>
        <time>2013-06-16T05:12:05Z</time>
      </trkpt>
      <trkpt lat="-20.96098" lon="55.40272">
        <ele>1310.7</ele>
        <time>2013-06-16T05:12:13Z</time>
      </trkpt>
      <trkpt lat="-20.96098" lon="55.40271">
        <ele>1310.9</ele>
        <time>2013-06-16T05:12:14Z</time>
      </trkpt>
      <trkpt lat="-20.96086" lon="55.40259">
        <ele>1312.9</ele>
        <time>2013-06-16T05:12:27Z</time>
      </trkpt>
      <trkpt lat="-20.9608" lon="55.40255">
        <ele>1313.7</ele>
        <time>2013-06-16T05:12:32Z</time>
      </trkpt>
      <trkpt lat="-20.9608" lon="55.40246">
        <ele>1313.4</ele>
        <time>2013-06-16T05:12:39Z</time>
      </trkpt>
      <trkpt lat="-20.96085" lon="55.40239">
        <ele>1314</ele>
        <time>2013-06-16T05:12:44Z</time>
      </trkpt>
      <trkpt lat="-20.96089" lon="55.40233">
        <ele>1314.7</ele>
        <time>2013-06-16T05:12:49Z</time>
      </trkpt>
      <trkpt lat="-20.96091" lon="55.40224">
        <ele>1315.3</ele>
        <time>2013-06-16T05:12:55Z</time>
      </trkpt>
      <trkpt lat="-20.96098" lon="55.40219">
        <ele>1315.7</ele>
        <time>2013-06-16T05:13:04Z</time>
      </trkpt>
      <trkpt lat="-20.96103" lon="55.40226">
        <ele>1316.7</ele>
        <time>2013-06-16T05:13:17Z</time>
      </trkpt>
      <trkpt lat="-20.96105" lon="55.40226">
        <ele>1316.9</ele>
        <time>2013-06-16T05:13:18Z</time>
      </trkpt>
      <trkpt lat="-20.96119" lon="55.40228">
        <ele>1317.8</ele>
        <time>2013-06-16T05:13:31Z</time>
      </trkpt>
      <trkpt lat="-20.96127" lon="55.40225">
        <ele>1318.8</ele>
        <time>2013-06-16T05:13:37Z</time>
      </trkpt>
      <trkpt lat="-20.96132" lon="55.40231">
        <ele>1320.1</ele>
        <time>2013-06-16T05:13:42Z</time>
      </trkpt>
      <trkpt lat="-20.96136" lon="55.40238">
        <ele>1319</ele>
        <time>2013-06-16T05:13:47Z</time>
      </trkpt>
      <trkpt lat="-20.9614" lon="55.40247">
        <ele>1319.3</ele>
        <time>2013-06-16T05:13:54Z</time>
      </trkpt>
      <trkpt lat="-20.96145" lon="55.40254">
        <ele>1320.9</ele>
        <time>2013-06-16T05:13:59Z</time>
      </trkpt>
      <trkpt lat="-20.96153" lon="55.40258">
        <ele>1320.5</ele>
        <time>2013-06-16T05:14:05Z</time>
      </trkpt>
      <trkpt lat="-20.96161" lon="55.40255">
        <ele>1321.5</ele>
        <time>2013-06-16T05:14:10Z</time>
      </trkpt>
      <trkpt lat="-20.96166" lon="55.4025">
        <ele>1321.4</ele>
        <time>2013-06-16T05:14:15Z</time>
      </trkpt>
      <trkpt lat="-20.96174" lon="55.40249">
        <ele>1321.7</ele>
        <time>2013-06-16T05:14:21Z</time>
      </trkpt>
      <trkpt lat="-20.96175" lon="55.4025">
        <ele>1321.5</ele>
        <time>2013-06-16T05:14:22Z</time>
      </trkpt>
      <trkpt lat="-20.9619" lon="55.40241">
        <ele>1322.8</ele>
        <time>2013-06-16T05:14:35Z</time>
      </trkpt>
      <trkpt lat="-20.96196" lon="55.40248">
        <ele>1322.6</ele>
        <time>2013-06-16T05:14:41Z</time>
      </trkpt>
      <trkpt lat="-20.96199" lon="55.40256">
        <ele>1322.2</ele>
        <time>2013-06-16T05:14:48Z</time>
      </trkpt>
      <trkpt lat="-20.96207" lon="55.40255">
        <ele>1321.2</ele>
        <time>2013-06-16T05:14:59Z</time>
      </trkpt>
      <trkpt lat="-20.96214" lon="55.40252">
        <ele>1320.5</ele>
        <time>2013-06-16T05:15:05Z</time>
      </trkpt>
      <trkpt lat="-20.9622" lon="55.40247">
        <ele>1320.7</ele>
        <time>2013-06-16T05:15:10Z</time>
      </trkpt>
      <trkpt lat="-20.96228" lon="55.40251">
        <ele>1319.8</ele>
        <time>2013-06-16T05:15:19Z</time>
      </trkpt>
      <trkpt lat="-20.9623" lon="55.4026">
        <ele>1318.2</ele>
        <time>2013-06-16T05:15:28Z</time>
      </trkpt>
      <trkpt lat="-20.9623" lon="55.40261">
        <ele>1318</ele>
        <time>2013-06-16T05:15:29Z</time>
      </trkpt>
      <trkpt lat="-20.9624" lon="55.40273">
        <ele>1316.4</ele>
        <time>2013-06-16T05:15:46Z</time>
      </trkpt>
      <trkpt lat="-20.96248" lon="55.40277">
        <ele>1316.9</ele>
        <time>2013-06-16T05:15:52Z</time>
      </trkpt>
      <trkpt lat="-20.96255" lon="55.40283">
        <ele>1316.6</ele>
        <time>2013-06-16T05:15:58Z</time>
      </trkpt>
      <trkpt lat="-20.96263" lon="55.40286">
        <ele>1316.3</ele>
        <time>2013-06-16T05:16:05Z</time>
      </trkpt>
      <trkpt lat="-20.96271" lon="55.40289">
        <ele>1316.4</ele>
        <time>2013-06-16T05:16:13Z</time>
      </trkpt>
      <trkpt lat="-20.96276" lon="55.40295">
        <ele>1316.6</ele>
        <time>2013-06-16T05:16:20Z</time>
      </trkpt>
      <trkpt lat="-20.96282" lon="55.403">
        <ele>1315.9</ele>
        <time>2013-06-16T05:16:27Z</time>
      </trkpt>
      <trkpt lat="-20.96291" lon="55.40302">
        <ele>1315.1</ele>
        <time>2013-06-16T05:16:44Z</time>
      </trkpt>
      <trkpt lat="-20.96292" lon="55.40302">
        <ele>1315.1</ele>
        <time>2013-06-16T05:16:45Z</time>
      </trkpt>
      <trkpt lat="-20.96278" lon="55.40305">
        <ele>1315.8</ele>
        <time>2013-06-16T05:17:06Z</time>
      </trkpt>
      <trkpt lat="-20.96277" lon="55.40297">
        <ele>1316.6</ele>
        <time>2013-06-16T05:17:10Z</time>
      </trkpt>
      <trkpt lat="-20.9628" lon="55.40288">
        <ele>1316.3</ele>
        <time>2013-06-16T05:17:15Z</time>
      </trkpt>
      <trkpt lat="-20.96282" lon="55.4028">
        <ele>1315.6</ele>
        <time>2013-06-16T05:17:21Z</time>
      </trkpt>
      <trkpt lat="-20.96284" lon="55.40271">
        <ele>1315.6</ele>
        <time>2013-06-16T05:17:27Z</time>
      </trkpt>
      <trkpt lat="-20.96284" lon="55.40262">
        <ele>1315.6</ele>
        <time>2013-06-16T05:17:35Z</time>
      </trkpt>
      <trkpt lat="-20.96284" lon="55.40252">
        <ele>1315.6</ele>
        <time>2013-06-16T05:17:41Z</time>
      </trkpt>
      <trkpt lat="-20.96283" lon="55.40243">
        <ele>1315.5</ele>
        <time>2013-06-16T05:17:47Z</time>
      </trkpt>
      <trkpt lat="-20.96283" lon="55.40242">
        <ele>1315.4</ele>
        <time>2013-06-16T05:17:48Z</time>
      </trkpt>
      <trkpt lat="-20.96293" lon="55.40231">
        <ele>1315.7</ele>
        <time>2013-06-16T05:18:02Z</time>
      </trkpt>
      <trkpt lat="-20.963" lon="55.40229">
        <ele>1315</ele>
        <time>2013-06-16T05:18:10Z</time>
      </trkpt>
      <trkpt lat="-20.96307" lon="55.40224">
        <ele>1314.6</ele>
        <time>2013-06-16T05:18:18Z</time>
      </trkpt>
      <trkpt lat="-20.96315" lon="55.40221">
        <ele>1313.5</ele>
        <time>2013-06-16T05:18:32Z</time>
      </trkpt>
      <trkpt lat="-20.96323" lon="55.40219">
        <ele>1314.1</ele>
        <time>2013-06-16T05:18:38Z</time>
      </trkpt>
      <trkpt lat="-20.96331" lon="55.40219">
        <ele>1312.6</ele>
        <time>2013-06-16T05:18:44Z</time>
      </trkpt>
      <trkpt lat="-20.96339" lon="55.4022">
        <ele>1312.5</ele>
        <time>2013-06-16T05:18:50Z</time>
      </trkpt>
      <trkpt lat="-20.9634" lon="55.4022">
        <ele>1312.4</ele>
        <time>2013-06-16T05:18:51Z</time>
      </trkpt>
      <trkpt lat="-20.96341" lon="55.40206">
        <ele>1311.8</ele>
        <time>2013-06-16T05:19:14Z</time>
      </trkpt>
      <trkpt lat="-20.96335" lon="55.402">
        <ele>1311.2</ele>
        <time>2013-06-16T05:19:20Z</time>
      </trkpt>
      <trkpt lat="-20.96328" lon="55.402">
        <ele>1311.3</ele>
        <time>2013-06-16T05:19:28Z</time>
      </trkpt>
      <trkpt lat="-20.9632" lon="55.40197">
        <ele>1310.6</ele>
        <time>2013-06-16T05:19:33Z</time>
      </trkpt>
      <trkpt lat="-20.96315" lon="55.40192">
        <ele>1311.4</ele>
        <time>2013-06-16T05:19:37Z</time>
      </trkpt>
      <trkpt lat="-20.96309" lon="55.40187">
        <ele>1311.7</ele>
        <time>2013-06-16T05:19:42Z</time>
      </trkpt>
      <trkpt lat="-20.96301" lon="55.40184">
        <ele>1311.3</ele>
        <time>2013-06-16T05:19:47Z</time>
      </trkpt>
      <trkpt lat="-20.96294" lon="55.4018">
        <ele>1311.8</ele>
        <time>2013-06-16T05:19:52Z</time>
      </trkpt>
      <trkpt lat="-20.96292" lon="55.40179">
        <ele>1311.7</ele>
        <time>2013-06-16T05:19:53Z</time>
      </trkpt>
      <trkpt lat="-20.96283" lon="55.4017">
        <ele>1310.9</ele>
        <time>2013-06-16T05:20:02Z</time>
      </trkpt>
      <trkpt lat="-20.96274" lon="55.40168">
        <ele>1311.1</ele>
        <time>2013-06-16T05:20:09Z</time>
      </trkpt>
      <trkpt lat="-20.9627" lon="55.40161">
        <ele>1309.4</ele>
        <time>2013-06-16T05:20:16Z</time>
      </trkpt>
      <trkpt lat="-20.96264" lon="55.40156">
        <ele>1309</ele>
        <time>2013-06-16T05:20:20Z</time>
      </trkpt>
      <trkpt lat="-20.96256" lon="55.40154">
        <ele>1308.6</ele>
        <time>2013-06-16T05:20:24Z</time>
      </trkpt>
      <trkpt lat="-20.96247" lon="55.40152">
        <ele>1308</ele>
        <time>2013-06-16T05:20:29Z</time>
      </trkpt>
      <trkpt lat="-20.9624" lon="55.40152">
        <ele>1307.4</ele>
        <time>2013-06-16T05:20:33Z</time>
      </trkpt>
      <trkpt lat="-20.96231" lon="55.40151">
        <ele>1306</ele>
        <time>2013-06-16T05:20:38Z</time>
      </trkpt>
      <trkpt lat="-20.96227" lon="55.40142">
        <ele>1305.6</ele>
        <time>2013-06-16T05:20:48Z</time>
      </trkpt>
      <trkpt lat="-20.96219" lon="55.4014">
        <ele>1305.6</ele>
        <time>2013-06-16T05:21:00Z</time>
      </trkpt>
      <trkpt lat="-20.96218" lon="55.40141">
        <ele>1305.5</ele>
        <time>2013-06-16T05:21:01Z</time>
      </trkpt>
      <trkpt lat="-20.96209" lon="55.40138">
        <ele>1305</ele>
        <time>2013-06-16T05:21:14Z</time>
      </trkpt>
      <trkpt lat="-20.962" lon="55.40136">
        <ele>1305.9</ele>
        <time>2013-06-16T05:21:20Z</time>
      </trkpt>
      <trkpt lat="-20.96192" lon="55.40139">
        <ele>1305.7</ele>
        <time>2013-06-16T05:21:25Z</time>
      </trkpt>
      <trkpt lat="-20.96185" lon="55.40134">
        <ele>1305.5</ele>
        <time>2013-06-16T05:21:30Z</time>
      </trkpt>
      <trkpt lat="-20.96183" lon="55.40127">
        <ele>1306.2</ele>
        <time>2013-06-16T05:21:34Z</time>
      </trkpt>
      <trkpt lat="-20.96179" lon="55.40119">
        <ele>1306.1</ele>
        <time>2013-06-16T05:21:38Z</time>
      </trkpt>
      <trkpt lat="-20.96179" lon="55.4011">
        <ele>1305.4</ele>
        <time>2013-06-16T05:21:48Z</time>
      </trkpt>
      <trkpt lat="-20.96186" lon="55.40106">
        <ele>1305.1</ele>
        <time>2013-06-16T05:21:54Z</time>
      </trkpt>
      <trkpt lat="-20.9618" lon="55.40102">
        <ele>1305</ele>
        <time>2013-06-16T05:22:08Z</time>
      </trkpt>
      <trkpt lat="-20.96179" lon="55.401">
        <ele>1304.7</ele>
        <time>2013-06-16T05:22:09Z</time>
      </trkpt>
      <trkpt lat="-20.96168" lon="55.40091">
        <ele>1303.7</ele>
        <time>2013-06-16T05:22:17Z</time>
      </trkpt>
      <trkpt lat="-20.96161" lon="55.40087">
        <ele>1303.2</ele>
        <time>2013-06-16T05:22:21Z</time>
      </trkpt>
      <trkpt lat="-20.96164" lon="55.40078">
        <ele>1302.7</ele>
        <time>2013-06-16T05:22:27Z</time>
      </trkpt>
      <trkpt lat="-20.9617" lon="55.40074">
        <ele>1303.5</ele>
        <time>2013-06-16T05:22:33Z</time>
      </trkpt>
      <trkpt lat="-20.96165" lon="55.40065">
        <ele>1302.7</ele>
        <time>2013-06-16T05:22:45Z</time>
      </trkpt>
      <trkpt lat="-20.96159" lon="55.40062">
        <ele>1303.3</ele>
        <time>2013-06-16T05:22:49Z</time>
      </trkpt>
      <trkpt lat="-20.96155" lon="55.40053">
        <ele>1303.4</ele>
        <time>2013-06-16T05:22:53Z</time>
      </trkpt>
      <trkpt lat="-20.96155" lon="55.40044">
        <ele>1303.8</ele>
        <time>2013-06-16T05:22:58Z</time>
      </trkpt>
      <trkpt lat="-20.96161" lon="55.40039">
        <ele>1303.4</ele>
        <time>2013-06-16T05:23:02Z</time>
      </trkpt>
      <trkpt lat="-20.96165" lon="55.40031">
        <ele>1303.6</ele>
        <time>2013-06-16T05:23:09Z</time>
      </trkpt>
      <trkpt lat="-20.96166" lon="55.4003">
        <ele>1303.4</ele>
        <time>2013-06-16T05:23:10Z</time>
      </trkpt>
      <trkpt lat="-20.96158" lon="55.40018">
        <ele>1304.4</ele>
        <time>2013-06-16T05:23:20Z</time>
      </trkpt>
      <trkpt lat="-20.96153" lon="55.40012">
        <ele>1305.3</ele>
        <time>2013-06-16T05:23:25Z</time>
      </trkpt>
      <trkpt lat="-20.96149" lon="55.40005">
        <ele>1305.1</ele>
        <time>2013-06-16T05:23:29Z</time>
      </trkpt>
      <trkpt lat="-20.96143" lon="55.4">
        <ele>1305.2</ele>
        <time>2013-06-16T05:23:34Z</time>
      </trkpt>
      <trkpt lat="-20.96137" lon="55.39995">
        <ele>1305.5</ele>
        <time>2013-06-16T05:23:38Z</time>
      </trkpt>
      <trkpt lat="-20.96135" lon="55.39986">
        <ele>1304.7</ele>
        <time>2013-06-16T05:23:43Z</time>
      </trkpt>
      <trkpt lat="-20.96142" lon="55.39981">
        <ele>1303.9</ele>
        <time>2013-06-16T05:23:52Z</time>
      </trkpt>
      <trkpt lat="-20.96145" lon="55.39973">
        <ele>1306</ele>
        <time>2013-06-16T05:23:59Z</time>
      </trkpt>
      <trkpt lat="-20.96142" lon="55.39965">
        <ele>1305.8</ele>
        <time>2013-06-16T05:24:05Z</time>
      </trkpt>
      <trkpt lat="-20.96138" lon="55.39957">
        <ele>1305.3</ele>
        <time>2013-06-16T05:24:11Z</time>
      </trkpt>
      <trkpt lat="-20.96137" lon="55.39955">
        <ele>1305.4</ele>
        <time>2013-06-16T05:24:12Z</time>
      </trkpt>
      <trkpt lat="-20.9614" lon="55.39953">
        <ele>1307.1</ele>
        <time>2013-06-16T05:24:25Z</time>
      </trkpt>
      <trkpt lat="-20.96146" lon="55.3996">
        <ele>1308.2</ele>
        <time>2013-06-16T05:24:35Z</time>
      </trkpt>
      <trkpt lat="-20.96154" lon="55.39961">
        <ele>1308.7</ele>
        <time>2013-06-16T05:24:42Z</time>
      </trkpt>
      <trkpt lat="-20.9616" lon="55.39954">
        <ele>1309.2</ele>
        <time>2013-06-16T05:24:49Z</time>
      </trkpt>
      <trkpt lat="-20.96166" lon="55.39959">
        <ele>1310.8</ele>
        <time>2013-06-16T05:24:56Z</time>
      </trkpt>
      <trkpt lat="-20.96166" lon="55.39968">
        <ele>1311</ele>
        <time>2013-06-16T05:25:02Z</time>
      </trkpt>
      <trkpt lat="-20.96171" lon="55.39976">
        <ele>1311.3</ele>
        <time>2013-06-16T05:25:07Z</time>
      </trkpt>
      <trkpt lat="-20.96178" lon="55.39978">
        <ele>1312.3</ele>
        <time>2013-06-16T05:25:13Z</time>
      </trkpt>
      <trkpt lat="-20.9618" lon="55.39978">
        <ele>1312.3</ele>
        <time>2013-06-16T05:25:14Z</time>
      </trkpt>
      <trkpt lat="-20.96189" lon="55.39991">
        <ele>1316.5</ele>
        <time>2013-06-16T05:25:35Z</time>
      </trkpt>
      <trkpt lat="-20.96198" lon="55.39992">
        <ele>1317.1</ele>
        <time>2013-06-16T05:25:40Z</time>
      </trkpt>
      <trkpt lat="-20.96205" lon="55.39997">
        <ele>1316.4</ele>
        <time>2013-06-16T05:25:45Z</time>
      </trkpt>
      <trkpt lat="-20.9621" lon="55.3999">
        <ele>1317.4</ele>
        <time>2013-06-16T05:25:50Z</time>
      </trkpt>
      <trkpt lat="-20.96215" lon="55.39983">
        <ele>1319.4</ele>
        <time>2013-06-16T05:25:56Z</time>
      </trkpt>
      <trkpt lat="-20.96216" lon="55.39975">
        <ele>1320</ele>
        <time>2013-06-16T05:26:00Z</time>
      </trkpt>
      <trkpt lat="-20.96222" lon="55.39969">
        <ele>1319.7</ele>
        <time>2013-06-16T05:26:05Z</time>
      </trkpt>
      <trkpt lat="-20.9623" lon="55.39965">
        <ele>1319.9</ele>
        <time>2013-06-16T05:26:12Z</time>
      </trkpt>
      <trkpt lat="-20.96237" lon="55.39961">
        <ele>1321.8</ele>
        <time>2013-06-16T05:26:17Z</time>
      </trkpt>
      <trkpt lat="-20.96239" lon="55.39961">
        <ele>1321.8</ele>
        <time>2013-06-16T05:26:18Z</time>
      </trkpt>
      <trkpt lat="-20.96245" lon="55.39977">
        <ele>1323.6</ele>
        <time>2013-06-16T05:26:36Z</time>
      </trkpt>
      <trkpt lat="-20.96241" lon="55.39984">
        <ele>1325.5</ele>
        <time>2013-06-16T05:26:43Z</time>
      </trkpt>
      <trkpt lat="-20.96247" lon="55.39991">
        <ele>1326.4</ele>
        <time>2013-06-16T05:26:54Z</time>
      </trkpt>
      <trkpt lat="-20.96251" lon="55.39999">
        <ele>1326.4</ele>
        <time>2013-06-16T05:27:06Z</time>
      </trkpt>
      <trkpt lat="-20.96257" lon="55.40006">
        <ele>1328.5</ele>
        <time>2013-06-16T05:27:13Z</time>
      </trkpt>
      <trkpt lat="-20.96265" lon="55.40006">
        <ele>1328.4</ele>
        <time>2013-06-16T05:27:19Z</time>
      </trkpt>
      <trkpt lat="-20.96266" lon="55.40006">
        <ele>1328.2</ele>
        <time>2013-06-16T05:27:20Z</time>
      </trkpt>
      <trkpt lat="-20.96277" lon="55.39994">
        <ele>1328.3</ele>
        <time>2013-06-16T05:27:36Z</time>
      </trkpt>
      <trkpt lat="-20.96286" lon="55.39995">
        <ele>1328.7</ele>
        <time>2013-06-16T05:27:43Z</time>
      </trkpt>
      <trkpt lat="-20.96293" lon="55.4">
        <ele>1329.8</ele>
        <time>2013-06-16T05:27:51Z</time>
      </trkpt>
      <trkpt lat="-20.96298" lon="55.40006">
        <ele>1331.9</ele>
        <time>2013-06-16T05:27:58Z</time>
      </trkpt>
      <trkpt lat="-20.96301" lon="55.40014">
        <ele>1332.4</ele>
        <time>2013-06-16T05:28:05Z</time>
      </trkpt>
      <trkpt lat="-20.96301" lon="55.40023">
        <ele>1333.7</ele>
        <time>2013-06-16T05:28:12Z</time>
      </trkpt>
      <trkpt lat="-20.96308" lon="55.40029">
        <ele>1332</ele>
        <time>2013-06-16T05:28:23Z</time>
      </trkpt>
      <trkpt lat="-20.9631" lon="55.40029">
        <ele>1332.3</ele>
        <time>2013-06-16T05:28:25Z</time>
      </trkpt>
      <trkpt lat="-20.96315" lon="55.40039">
        <ele>1336.8</ele>
        <time>2013-06-16T05:28:44Z</time>
      </trkpt>
      <trkpt lat="-20.96312" lon="55.40048">
        <ele>1339.7</ele>
        <time>2013-06-16T05:29:04Z</time>
      </trkpt>
      <trkpt lat="-20.96313" lon="55.40056">
        <ele>1340.5</ele>
        <time>2013-06-16T05:29:11Z</time>
      </trkpt>
      <trkpt lat="-20.96315" lon="55.40064">
        <ele>1340.1</ele>
        <time>2013-06-16T05:29:15Z</time>
      </trkpt>
      <trkpt lat="-20.9632" lon="55.40072">
        <ele>1341</ele>
        <time>2013-06-16T05:29:21Z</time>
      </trkpt>
      <trkpt lat="-20.96327" lon="55.40069">
        <ele>1341.9</ele>
        <time>2013-06-16T05:29:39Z</time>
      </trkpt>
      <trkpt lat="-20.96328" lon="55.40067">
        <ele>1342</ele>
        <time>2013-06-16T05:29:40Z</time>
      </trkpt>
      <trkpt lat="-20.96335" lon="55.40057">
        <ele>1341.5</ele>
        <time>2013-06-16T05:29:45Z</time>
      </trkpt>
      <trkpt lat="-20.9634" lon="55.40049">
        <ele>1341.6</ele>
        <time>2013-06-16T05:29:52Z</time>
      </trkpt>
      <trkpt lat="-20.96348" lon="55.40048">
        <ele>1341.9</ele>
        <time>2013-06-16T05:29:57Z</time>
      </trkpt>
      <trkpt lat="-20.96353" lon="55.40054">
        <ele>1342</ele>
        <time>2013-06-16T05:30:04Z</time>
      </trkpt>
      <trkpt lat="-20.96357" lon="55.40063">
        <ele>1343</ele>
        <time>2013-06-16T05:30:14Z</time>
      </trkpt>
      <trkpt lat="-20.96363" lon="55.4007">
        <ele>1343.5</ele>
        <time>2013-06-16T05:30:22Z</time>
      </trkpt>
      <trkpt lat="-20.96367" lon="55.40076">
        <ele>1343.9</ele>
        <time>2013-06-16T05:30:29Z</time>
      </trkpt>
      <trkpt lat="-20.96373" lon="55.40083">
        <ele>1345.8</ele>
        <time>2013-06-16T05:30:43Z</time>
      </trkpt>
      <trkpt lat="-20.96373" lon="55.40084">
        <ele>1345.6</ele>
        <time>2013-06-16T05:30:44Z</time>
      </trkpt>
      <trkpt lat="-20.96383" lon="55.40097">
        <ele>1348.5</ele>
        <time>2013-06-16T05:31:20Z</time>
      </trkpt>
      <trkpt lat="-20.96385" lon="55.40105">
        <ele>1348.9</ele>
        <time>2013-06-16T05:31:26Z</time>
      </trkpt>
      <trkpt lat="-20.96392" lon="55.40107">
        <ele>1350.3</ele>
        <time>2013-06-16T05:31:34Z</time>
      </trkpt>
      <trkpt lat="-20.964" lon="55.40106">
        <ele>1350.4</ele>
        <time>2013-06-16T05:31:39Z</time>
      </trkpt>
      <trkpt lat="-20.96408" lon="55.40105">
        <ele>1350.3</ele>
        <time>2013-06-16T05:31:45Z</time>
      </trkpt>
      <trkpt lat="-20.9641" lon="55.40105">
        <ele>1350.5</ele>
        <time>2013-06-16T05:31:46Z</time>
      </trkpt>
      <trkpt lat="-20.96424" lon="55.40105">
        <ele>1352.1</ele>
        <time>2013-06-16T05:32:02Z</time>
      </trkpt>
      <trkpt lat="-20.96422" lon="55.40114">
        <ele>1352.6</ele>
        <time>2013-06-16T05:32:07Z</time>
      </trkpt>
      <trkpt lat="-20.96423" lon="55.40123">
        <ele>1352.3</ele>
        <time>2013-06-16T05:32:13Z</time>
      </trkpt>
      <trkpt lat="-20.96431" lon="55.40127">
        <ele>1353.2</ele>
        <time>2013-06-16T05:32:22Z</time>
      </trkpt>
      <trkpt lat="-20.96439" lon="55.40123">
        <ele>1354.7</ele>
        <time>2013-06-16T05:32:28Z</time>
      </trkpt>
      <trkpt lat="-20.96445" lon="55.40118">
        <ele>1354.1</ele>
        <time>2013-06-16T05:32:33Z</time>
      </trkpt>
      <trkpt lat="-20.96451" lon="55.40112">
        <ele>1354.5</ele>
        <time>2013-06-16T05:32:37Z</time>
      </trkpt>
      <trkpt lat="-20.9646" lon="55.40114">
        <ele>1355.5</ele>
        <time>2013-06-16T05:32:46Z</time>
      </trkpt>
      <trkpt lat="-20.96464" lon="55.40122">
        <ele>1355.9</ele>
        <time>2013-06-16T05:32:54Z</time>
      </trkpt>
      <trkpt lat="-20.96464" lon="55.40123">
        <ele>1356.1</ele>
        <time>2013-06-16T05:32:55Z</time>
      </trkpt>
      <trkpt lat="-20.9647" lon="55.4014">
        <ele>1355</ele>
        <time>2013-06-16T05:33:26Z</time>
      </trkpt>
      <trkpt lat="-20.96475" lon="55.40146">
        <ele>1355.4</ele>
        <time>2013-06-16T05:33:37Z</time>
      </trkpt>
      <trkpt lat="-20.96483" lon="55.40146">
        <ele>1353.8</ele>
        <time>2013-06-16T05:33:49Z</time>
      </trkpt>
      <trkpt lat="-20.9649" lon="55.40151">
        <ele>1353.3</ele>
        <time>2013-06-16T05:33:57Z</time>
      </trkpt>
      <trkpt lat="-20.96491" lon="55.40152">
        <ele>1353</ele>
        <time>2013-06-16T05:33:58Z</time>
      </trkpt>
      <trkpt lat="-20.96486" lon="55.40167">
        <ele>1351.9</ele>
        <time>2013-06-16T05:34:09Z</time>
      </trkpt>
      <trkpt lat="-20.96486" lon="55.40176">
        <ele>1351.6</ele>
        <time>2013-06-16T05:34:16Z</time>
      </trkpt>
      <trkpt lat="-20.96492" lon="55.40184">
        <ele>1350.5</ele>
        <time>2013-06-16T05:34:23Z</time>
      </trkpt>
      <trkpt lat="-20.965" lon="55.40188">
        <ele>1350.6</ele>
        <time>2013-06-16T05:34:39Z</time>
      </trkpt>
      <trkpt lat="-20.96505" lon="55.40195">
        <ele>1349.9</ele>
        <time>2013-06-16T05:34:47Z</time>
      </trkpt>
      <trkpt lat="-20.96505" lon="55.40205">
        <ele>1349.3</ele>
        <time>2013-06-16T05:34:51Z</time>
      </trkpt>
      <trkpt lat="-20.96511" lon="55.40212">
        <ele>1348.7</ele>
        <time>2013-06-16T05:34:59Z</time>
      </trkpt>
      <trkpt lat="-20.96511" lon="55.40213">
        <ele>1348.7</ele>
        <time>2013-06-16T05:35:00Z</time>
      </trkpt>
      <trkpt lat="-20.96513" lon="55.40197">
        <ele>1352.4</ele>
        <time>2013-06-16T05:35:32Z</time>
      </trkpt>
      <trkpt lat="-20.9652" lon="55.40191">
        <ele>1355.5</ele>
        <time>2013-06-16T05:35:50Z</time>
      </trkpt>
      <trkpt lat="-20.96527" lon="55.40196">
        <ele>1356.1</ele>
        <time>2013-06-16T05:36:03Z</time>
      </trkpt>
      <trkpt lat="-20.96528" lon="55.40196">
        <ele>1356</ele>
        <time>2013-06-16T05:36:04Z</time>
      </trkpt>
      <trkpt lat="-20.96533" lon="55.4018">
        <ele>1358.3</ele>
        <time>2013-06-16T05:36:34Z</time>
      </trkpt>
      <trkpt lat="-20.96537" lon="55.40171">
        <ele>1358.8</ele>
        <time>2013-06-16T05:36:40Z</time>
      </trkpt>
      <trkpt lat="-20.96539" lon="55.40164">
        <ele>1359.4</ele>
        <time>2013-06-16T05:36:45Z</time>
      </trkpt>
      <trkpt lat="-20.96545" lon="55.40157">
        <ele>1359.7</ele>
        <time>2013-06-16T05:36:50Z</time>
      </trkpt>
      <trkpt lat="-20.96554" lon="55.40159">
        <ele>1359.4</ele>
        <time>2013-06-16T05:36:56Z</time>
      </trkpt>
      <trkpt lat="-20.96563" lon="55.40161">
        <ele>1361</ele>
        <time>2013-06-16T05:37:04Z</time>
      </trkpt>
      <trkpt lat="-20.9657" lon="55.4016">
        <ele>1360.8</ele>
        <time>2013-06-16T05:37:09Z</time>
      </trkpt>
      <trkpt lat="-20.96572" lon="55.40159">
        <ele>1361.3</ele>
        <time>2013-06-16T05:37:10Z</time>
      </trkpt>
      <trkpt lat="-20.96585" lon="55.40152">
        <ele>1361.5</ele>
        <time>2013-06-16T05:37:26Z</time>
      </trkpt>
      <trkpt lat="-20.96593" lon="55.4015">
        <ele>1360.7</ele>
        <time>2013-06-16T05:37:34Z</time>
      </trkpt>
      <trkpt lat="-20.96601" lon="55.40148">
        <ele>1358.8</ele>
        <time>2013-06-16T05:37:44Z</time>
      </trkpt>
      <trkpt lat="-20.96607" lon="55.40154">
        <ele>1359.1</ele>
        <time>2013-06-16T05:37:55Z</time>
      </trkpt>
      <trkpt lat="-20.96615" lon="55.40154">
        <ele>1358.5</ele>
        <time>2013-06-16T05:38:06Z</time>
      </trkpt>
      <trkpt lat="-20.96623" lon="55.4015">
        <ele>1357.9</ele>
        <time>2013-06-16T05:38:10Z</time>
      </trkpt>
      <trkpt lat="-20.96622" lon="55.40141">
        <ele>1360.1</ele>
        <time>2013-06-16T05:38:35Z</time>
      </trkpt>
      <trkpt lat="-20.96622" lon="55.40139">
        <ele>1360.2</ele>
        <time>2013-06-16T05:38:36Z</time>
      </trkpt>
      <trkpt lat="-20.96609" lon="55.4013">
        <ele>1362.6</ele>
        <time>2013-06-16T05:38:53Z</time>
      </trkpt>
      <trkpt lat="-20.96601" lon="55.40128">
        <ele>1363.7</ele>
        <time>2013-06-16T05:38:59Z</time>
      </trkpt>
      <trkpt lat="-20.96593" lon="55.40128">
        <ele>1363.7</ele>
        <time>2013-06-16T05:39:06Z</time>
      </trkpt>
      <trkpt lat="-20.96589" lon="55.40121">
        <ele>1366.1</ele>
        <time>2013-06-16T05:39:12Z</time>
      </trkpt>
      <trkpt lat="-20.96584" lon="55.40114">
        <ele>1366.5</ele>
        <time>2013-06-16T05:39:18Z</time>
      </trkpt>
      <trkpt lat="-20.96581" lon="55.40104">
        <ele>1370.2</ele>
        <time>2013-06-16T05:39:33Z</time>
      </trkpt>
      <trkpt lat="-20.96586" lon="55.40096">
        <ele>1370.4</ele>
        <time>2013-06-16T05:39:38Z</time>
      </trkpt>
      <trkpt lat="-20.96587" lon="55.40095">
        <ele>1370.4</ele>
        <time>2013-06-16T05:39:39Z</time>
      </trkpt>
      <trkpt lat="-20.96582" lon="55.4009">
        <ele>1373.1</ele>
        <time>2013-06-16T05:40:06Z</time>
      </trkpt>
      <trkpt lat="-20.96575" lon="55.40087">
        <ele>1373.6</ele>
        <time>2013-06-16T05:40:13Z</time>
      </trkpt>
      <trkpt lat="-20.96568" lon="55.40082">
        <ele>1374.5</ele>
        <time>2013-06-16T05:40:18Z</time>
      </trkpt>
      <trkpt lat="-20.96568" lon="55.40073">
        <ele>1374.9</ele>
        <time>2013-06-16T05:40:23Z</time>
      </trkpt>
      <trkpt lat="-20.96568" lon="55.40065">
        <ele>1375.8</ele>
        <time>2013-06-16T05:40:27Z</time>
      </trkpt>
      <trkpt lat="-20.96565" lon="55.40057">
        <ele>1376.4</ele>
        <time>2013-06-16T05:40:32Z</time>
      </trkpt>
      <trkpt lat="-20.96569" lon="55.40048">
        <ele>1378.1</ele>
        <time>2013-06-16T05:40:42Z</time>
      </trkpt>
      <trkpt lat="-20.9657" lon="55.40047">
        <ele>1378.2</ele>
        <time>2013-06-16T05:40:43Z</time>
      </trkpt>
      <trkpt lat="-20.96583" lon="55.40038">
        <ele>1379.9</ele>
        <time>2013-06-16T05:40:57Z</time>
      </trkpt>
      <trkpt lat="-20.96589" lon="55.40032">
        <ele>1380.5</ele>
        <time>2013-06-16T05:41:04Z</time>
      </trkpt>
      <trkpt lat="-20.9659" lon="55.40023">
        <ele>1380.5</ele>
        <time>2013-06-16T05:41:18Z</time>
      </trkpt>
      <trkpt lat="-20.96585" lon="55.40016">
        <ele>1381.3</ele>
        <time>2013-06-16T05:41:25Z</time>
      </trkpt>
      <trkpt lat="-20.96583" lon="55.40007">
        <ele>1382.8</ele>
        <time>2013-06-16T05:41:31Z</time>
      </trkpt>
      <trkpt lat="-20.96589" lon="55.40002">
        <ele>1382.7</ele>
        <time>2013-06-16T05:41:38Z</time>
      </trkpt>
      <trkpt lat="-20.96597" lon="55.39998">
        <ele>1382.4</ele>
        <time>2013-06-16T05:41:45Z</time>
      </trkpt>
      <trkpt lat="-20.96598" lon="55.39998">
        <ele>1382.7</ele>
        <time>2013-06-16T05:41:46Z</time>
      </trkpt>
      <trkpt lat="-20.96607" lon="55.40011">
        <ele>1384.6</ele>
        <time>2013-06-16T05:42:02Z</time>
      </trkpt>
      <trkpt lat="-20.96614" lon="55.40016">
        <ele>1385.2</ele>
        <time>2013-06-16T05:42:08Z</time>
      </trkpt>
      <trkpt lat="-20.96618" lon="55.40024">
        <ele>1385.7</ele>
        <time>2013-06-16T05:42:16Z</time>
      </trkpt>
      <trkpt lat="-20.96624" lon="55.4003">
        <ele>1386.5</ele>
        <time>2013-06-16T05:42:24Z</time>
      </trkpt>
      <trkpt lat="-20.96629" lon="55.40038">
        <ele>1387.3</ele>
        <time>2013-06-16T05:42:31Z</time>
      </trkpt>
      <trkpt lat="-20.96633" lon="55.40045">
        <ele>1388</ele>
        <time>2013-06-16T05:42:36Z</time>
      </trkpt>
      <trkpt lat="-20.96637" lon="55.40053">
        <ele>1388.8</ele>
        <time>2013-06-16T05:42:43Z</time>
      </trkpt>
      <trkpt lat="-20.96641" lon="55.40062">
        <ele>1389.4</ele>
        <time>2013-06-16T05:42:51Z</time>
      </trkpt>
      <trkpt lat="-20.96641" lon="55.40063">
        <ele>1389.4</ele>
        <time>2013-06-16T05:42:52Z</time>
      </trkpt>
      <trkpt lat="-20.96649" lon="55.40076">
        <ele>1390.9</ele>
        <time>2013-06-16T05:43:10Z</time>
      </trkpt>
      <trkpt lat="-20.96653" lon="55.40085">
        <ele>1391.7</ele>
        <time>2013-06-16T05:43:18Z</time>
      </trkpt>
      <trkpt lat="-20.96659" lon="55.40091">
        <ele>1391.5</ele>
        <time>2013-06-16T05:43:26Z</time>
      </trkpt>
      <trkpt lat="-20.96668" lon="55.40093">
        <ele>1392.3</ele>
        <time>2013-06-16T05:43:32Z</time>
      </trkpt>
      <trkpt lat="-20.96676" lon="55.40092">
        <ele>1392.2</ele>
        <time>2013-06-16T05:43:39Z</time>
      </trkpt>
      <trkpt lat="-20.96683" lon="55.40096">
        <ele>1392.6</ele>
        <time>2013-06-16T05:43:45Z</time>
      </trkpt>
      <trkpt lat="-20.96687" lon="55.40104">
        <ele>1392.7</ele>
        <time>2013-06-16T05:43:52Z</time>
      </trkpt>
      <trkpt lat="-20.96693" lon="55.40111">
        <ele>1393.9</ele>
        <time>2013-06-16T05:43:58Z</time>
      </trkpt>
      <trkpt lat="-20.96695" lon="55.40112">
        <ele>1394.4</ele>
        <time>2013-06-16T05:43:59Z</time>
      </trkpt>
      <trkpt lat="-20.9671" lon="55.40111">
        <ele>1394.3</ele>
        <time>2013-06-16T05:44:13Z</time>
      </trkpt>
      <trkpt lat="-20.96718" lon="55.40114">
        <ele>1394.5</ele>
        <time>2013-06-16T05:44:21Z</time>
      </trkpt>
      <trkpt lat="-20.96726" lon="55.40112">
        <ele>1395</ele>
        <time>2013-06-16T05:44:29Z</time>
      </trkpt>
      <trkpt lat="-20.96734" lon="55.40115">
        <ele>1396.3</ele>
        <time>2013-06-16T05:44:37Z</time>
      </trkpt>
      <trkpt lat="-20.96738" lon="55.40123">
        <ele>1396.7</ele>
        <time>2013-06-16T05:44:46Z</time>
      </trkpt>
      <trkpt lat="-20.96742" lon="55.40131">
        <ele>1397.1</ele>
        <time>2013-06-16T05:44:53Z</time>
      </trkpt>
      <trkpt lat="-20.96743" lon="55.40141">
        <ele>1397.6</ele>
        <time>2013-06-16T05:45:05Z</time>
      </trkpt>
      <trkpt lat="-20.96743" lon="55.40142">
        <ele>1397.4</ele>
        <time>2013-06-16T05:45:06Z</time>
      </trkpt>
      <trkpt lat="-20.9676" lon="55.40142">
        <ele>1396.6</ele>
        <time>2013-06-16T05:45:22Z</time>
      </trkpt>
      <trkpt lat="-20.96765" lon="55.40149">
        <ele>1396.1</ele>
        <time>2013-06-16T05:45:28Z</time>
      </trkpt>
      <trkpt lat="-20.96771" lon="55.40156">
        <ele>1399</ele>
        <time>2013-06-16T05:45:44Z</time>
      </trkpt>
      <trkpt lat="-20.96778" lon="55.40162">
        <ele>1398.3</ele>
        <time>2013-06-16T05:45:55Z</time>
      </trkpt>
      <trkpt lat="-20.96785" lon="55.40167">
        <ele>1398.1</ele>
        <time>2013-06-16T05:46:04Z</time>
      </trkpt>
      <trkpt lat="-20.96793" lon="55.40169">
        <ele>1396.7</ele>
        <time>2013-06-16T05:46:13Z</time>
      </trkpt>
      <trkpt lat="-20.96794" lon="55.40169">
        <ele>1397.4</ele>
        <time>2013-06-16T05:46:14Z</time>
      </trkpt>
      <trkpt lat="-20.96809" lon="55.40173">
        <ele>1397.8</ele>
        <time>2013-06-16T05:46:27Z</time>
      </trkpt>
      <trkpt lat="-20.96816" lon="55.40177">
        <ele>1397.6</ele>
        <time>2013-06-16T05:46:35Z</time>
      </trkpt>
      <trkpt lat="-20.96823" lon="55.40175">
        <ele>1397.2</ele>
        <time>2013-06-16T05:46:40Z</time>
      </trkpt>
      <trkpt lat="-20.96832" lon="55.40175">
        <ele>1396.6</ele>
        <time>2013-06-16T05:46:46Z</time>
      </trkpt>
      <trkpt lat="-20.9684" lon="55.40177">
        <ele>1396.8</ele>
        <time>2013-06-16T05:46:55Z</time>
      </trkpt>
      <trkpt lat="-20.96848" lon="55.40174">
        <ele>1395.8</ele>
        <time>2013-06-16T05:47:39Z</time>
      </trkpt>
      <trkpt lat="-20.96848" lon="55.40173">
        <ele>1395.8</ele>
        <time>2013-06-16T05:47:40Z</time>
      </trkpt>
      <trkpt lat="-20.96845" lon="55.40158">
        <ele>1398.4</ele>
        <time>2013-06-16T05:47:58Z</time>
      </trkpt>
      <trkpt lat="-20.96842" lon="55.40149">
        <ele>1399.4</ele>
        <time>2013-06-16T05:48:07Z</time>
      </trkpt>
      <trkpt lat="-20.9684" lon="55.4014">
        <ele>1401.4</ele>
        <time>2013-06-16T05:48:17Z</time>
      </trkpt>
      <trkpt lat="-20.96836" lon="55.40132">
        <ele>1402.4</ele>
        <time>2013-06-16T05:48:23Z</time>
      </trkpt>
      <trkpt lat="-20.96835" lon="55.40122">
        <ele>1403.4</ele>
        <time>2013-06-16T05:48:34Z</time>
      </trkpt>
      <trkpt lat="-20.96826" lon="55.40119">
        <ele>1405.1</ele>
        <time>2013-06-16T05:48:41Z</time>
      </trkpt>
      <trkpt lat="-20.96826" lon="55.40118">
        <ele>1405.5</ele>
        <time>2013-06-16T05:48:42Z</time>
      </trkpt>
      <trkpt lat="-20.96818" lon="55.40104">
        <ele>1406.9</ele>
        <time>2013-06-16T05:48:59Z</time>
      </trkpt>
      <trkpt lat="-20.96822" lon="55.40095">
        <ele>1407.8</ele>
        <time>2013-06-16T05:49:07Z</time>
      </trkpt>
      <trkpt lat="-20.96829" lon="55.40088">
        <ele>1410.1</ele>
        <time>2013-06-16T05:49:16Z</time>
      </trkpt>
      <trkpt lat="-20.96837" lon="55.40088">
        <ele>1410</ele>
        <time>2013-06-16T05:49:26Z</time>
      </trkpt>
      <trkpt lat="-20.96844" lon="55.40094">
        <ele>1405.4</ele>
        <time>2013-06-16T05:49:43Z</time>
      </trkpt>
      <trkpt lat="-20.96845" lon="55.40094">
        <ele>1405.3</ele>
        <time>2013-06-16T05:49:44Z</time>
      </trkpt>
      <trkpt lat="-20.96858" lon="55.40097">
        <ele>1406.9</ele>
        <time>2013-06-16T05:49:58Z</time>
      </trkpt>
      <trkpt lat="-20.96866" lon="55.40093">
        <ele>1406.5</ele>
        <time>2013-06-16T05:50:06Z</time>
      </trkpt>
      <trkpt lat="-20.96873" lon="55.40098">
        <ele>1406.2</ele>
        <time>2013-06-16T05:50:16Z</time>
      </trkpt>
      <trkpt lat="-20.96876" lon="55.40106">
        <ele>1406.2</ele>
        <time>2013-06-16T05:50:27Z</time>
      </trkpt>
      <trkpt lat="-20.96881" lon="55.40114">
        <ele>1407.2</ele>
        <time>2013-06-16T05:50:40Z</time>
      </trkpt>
      <trkpt lat="-20.9689" lon="55.40118">
        <ele>1406</ele>
        <time>2013-06-16T05:50:49Z</time>
      </trkpt>
      <trkpt lat="-20.96892" lon="55.40118">
        <ele>1406.5</ele>
        <time>2013-06-16T05:50:51Z</time>
      </trkpt>
      <trkpt lat="-20.96905" lon="55.40108">
        <ele>1405</ele>
        <time>2013-06-16T05:51:06Z</time>
      </trkpt>
      <trkpt lat="-20.96913" lon="55.40108">
        <ele>1403.9</ele>
        <time>2013-06-16T05:51:14Z</time>
      </trkpt>
      <trkpt lat="-20.96921" lon="55.40108">
        <ele>1403.6</ele>
        <time>2013-06-16T05:51:21Z</time>
      </trkpt>
      <trkpt lat="-20.96929" lon="55.40104">
        <ele>1403.9</ele>
        <time>2013-06-16T05:51:28Z</time>
      </trkpt>
      <trkpt lat="-20.96938" lon="55.40097">
        <ele>1405</ele>
        <time>2013-06-16T05:51:43Z</time>
      </trkpt>
      <trkpt lat="-20.96945" lon="55.40092">
        <ele>1405.9</ele>
        <time>2013-06-16T05:51:55Z</time>
      </trkpt>
      <trkpt lat="-20.96945" lon="55.4009">
        <ele>1406</ele>
        <time>2013-06-16T05:51:56Z</time>
      </trkpt>
      <trkpt lat="-20.96961" lon="55.40087">
        <ele>1406.7</ele>
        <time>2013-06-16T05:52:18Z</time>
      </trkpt>
      <trkpt lat="-20.96967" lon="55.4009">
        <ele>1407.3</ele>
        <time>2013-06-16T05:52:22Z</time>
      </trkpt>
      <trkpt lat="-20.96975" lon="55.40095">
        <ele>1410.7</ele>
        <time>2013-06-16T05:52:37Z</time>
      </trkpt>
      <trkpt lat="-20.96968" lon="55.40089">
        <ele>1414.2</ele>
        <time>2013-06-16T05:53:04Z</time>
      </trkpt>
      <trkpt lat="-20.96968" lon="55.40088">
        <ele>1414.3</ele>
        <time>2013-06-16T05:53:05Z</time>
      </trkpt>
      <trkpt lat="-20.96959" lon="55.40075">
        <ele>1415.7</ele>
        <time>2013-06-16T05:53:17Z</time>
      </trkpt>
      <trkpt lat="-20.96956" lon="55.40068">
        <ele>1415.9</ele>
        <time>2013-06-16T05:53:20Z</time>
      </trkpt>
      <trkpt lat="-20.96948" lon="55.40064">
        <ele>1416.6</ele>
        <time>2013-06-16T05:53:26Z</time>
      </trkpt>
      <trkpt lat="-20.96943" lon="55.40057">
        <ele>1417.4</ele>
        <time>2013-06-16T05:53:34Z</time>
      </trkpt>
      <trkpt lat="-20.96945" lon="55.40048">
        <ele>1417.8</ele>
        <time>2013-06-16T05:53:44Z</time>
      </trkpt>
      <trkpt lat="-20.96942" lon="55.40039">
        <ele>1418.8</ele>
        <time>2013-06-16T05:53:55Z</time>
      </trkpt>
      <trkpt lat="-20.96942" lon="55.4003">
        <ele>1420.3</ele>
        <time>2013-06-16T05:54:03Z</time>
      </trkpt>
      <trkpt lat="-20.9695" lon="55.40027">
        <ele>1420</ele>
        <time>2013-06-16T05:54:10Z</time>
      </trkpt>
      <trkpt lat="-20.96952" lon="55.40026">
        <ele>1419.9</ele>
        <time>2013-06-16T05:54:11Z</time>
      </trkpt>
      <trkpt lat="-20.96963" lon="55.40015">
        <ele>1421</ele>
        <time>2013-06-16T05:54:23Z</time>
      </trkpt>
      <trkpt lat="-20.9697" lon="55.4001">
        <ele>1422</ele>
        <time>2013-06-16T05:54:34Z</time>
      </trkpt>
      <trkpt lat="-20.96975" lon="55.40003">
        <ele>1421.7</ele>
        <time>2013-06-16T05:54:48Z</time>
      </trkpt>
      <trkpt lat="-20.96982" lon="55.39999">
        <ele>1423.1</ele>
        <time>2013-06-16T05:54:58Z</time>
      </trkpt>
      <trkpt lat="-20.96988" lon="55.39992">
        <ele>1423.1</ele>
        <time>2013-06-16T05:55:05Z</time>
      </trkpt>
      <trkpt lat="-20.96988" lon="55.39983">
        <ele>1422.8</ele>
        <time>2013-06-16T05:55:11Z</time>
      </trkpt>
      <trkpt lat="-20.96986" lon="55.39974">
        <ele>1422.9</ele>
        <time>2013-06-16T05:55:18Z</time>
      </trkpt>
      <trkpt lat="-20.96986" lon="55.39974">
        <ele>1422.8</ele>
        <time>2013-06-16T05:55:19Z</time>
      </trkpt>
      <trkpt lat="-20.96973" lon="55.39969">
        <ele>1424</ele>
        <time>2013-06-16T05:55:43Z</time>
      </trkpt>
      <trkpt lat="-20.96964" lon="55.39973">
        <ele>1425.1</ele>
        <time>2013-06-16T05:55:51Z</time>
      </trkpt>
      <trkpt lat="-20.96957" lon="55.39973">
        <ele>1425.9</ele>
        <time>2013-06-16T05:55:56Z</time>
      </trkpt>
      <trkpt lat="-20.96949" lon="55.39973">
        <ele>1426.5</ele>
        <time>2013-06-16T05:56:02Z</time>
      </trkpt>
      <trkpt lat="-20.96948" lon="55.39964">
        <ele>1427.1</ele>
        <time>2013-06-16T05:56:12Z</time>
      </trkpt>
      <trkpt lat="-20.96952" lon="55.39955">
        <ele>1428.1</ele>
        <time>2013-06-16T05:56:22Z</time>
      </trkpt>
      <trkpt lat="-20.96952" lon="55.39955">
        <ele>1428.2</ele>
        <time>2013-06-16T05:56:23Z</time>
      </trkpt>
      <trkpt lat="-20.9695" lon="55.39937">
        <ele>1428.6</ele>
        <time>2013-06-16T05:56:44Z</time>
      </trkpt>
      <trkpt lat="-20.96949" lon="55.39928">
        <ele>1428.6</ele>
        <time>2013-06-16T05:56:52Z</time>
      </trkpt>
      <trkpt lat="-20.96949" lon="55.39919">
        <ele>1429.2</ele>
        <time>2013-06-16T05:57:01Z</time>
      </trkpt>
      <trkpt lat="-20.96942" lon="55.39913">
        <ele>1429.6</ele>
        <time>2013-06-16T05:57:10Z</time>
      </trkpt>
      <trkpt lat="-20.96933" lon="55.39916">
        <ele>1431.3</ele>
        <time>2013-06-16T05:57:22Z</time>
      </trkpt>
      <trkpt lat="-20.96926" lon="55.39912">
        <ele>1432.7</ele>
        <time>2013-06-16T05:57:30Z</time>
      </trkpt>
      <trkpt lat="-20.96925" lon="55.39911">
        <ele>1432.8</ele>
        <time>2013-06-16T05:57:31Z</time>
      </trkpt>
      <trkpt lat="-20.96912" lon="55.39905">
        <ele>1433.2</ele>
        <time>2013-06-16T05:57:45Z</time>
      </trkpt>
      <trkpt lat="-20.96904" lon="55.399">
        <ele>1433</ele>
        <time>2013-06-16T05:57:57Z</time>
      </trkpt>
      <trkpt lat="-20.96908" lon="55.39892">
        <ele>1434.2</ele>
        <time>2013-06-16T05:58:10Z</time>
      </trkpt>
      <trkpt lat="-20.96916" lon="55.3989">
        <ele>1434.4</ele>
        <time>2013-06-16T05:58:23Z</time>
      </trkpt>
      <trkpt lat="-20.96924" lon="55.39886">
        <ele>1433.9</ele>
        <time>2013-06-16T05:58:34Z</time>
      </trkpt>
      <trkpt lat="-20.96925" lon="55.39886">
        <ele>1434</ele>
        <time>2013-06-16T05:58:35Z</time>
      </trkpt>
      <trkpt lat="-20.9694" lon="55.39881">
        <ele>1434.7</ele>
        <time>2013-06-16T05:58:55Z</time>
      </trkpt>
      <trkpt lat="-20.96942" lon="55.39872">
        <ele>1434.9</ele>
        <time>2013-06-16T05:59:05Z</time>
      </trkpt>
      <trkpt lat="-20.96946" lon="55.39863">
        <ele>1434.4</ele>
        <time>2013-06-16T05:59:12Z</time>
      </trkpt>
      <trkpt lat="-20.96949" lon="55.39855">
        <ele>1434.4</ele>
        <time>2013-06-16T05:59:21Z</time>
      </trkpt>
      <trkpt lat="-20.96955" lon="55.39849">
        <ele>1434.2</ele>
        <time>2013-06-16T05:59:29Z</time>
      </trkpt>
      <trkpt lat="-20.96957" lon="55.39841">
        <ele>1432.9</ele>
        <time>2013-06-16T05:59:38Z</time>
      </trkpt>
      <trkpt lat="-20.96956" lon="55.39839">
        <ele>1432.8</ele>
        <time>2013-06-16T05:59:39Z</time>
      </trkpt>
      <trkpt lat="-20.96945" lon="55.39833">
        <ele>1424.9</ele>
        <time>2013-06-16T06:00:10Z</time>
      </trkpt>
      <trkpt lat="-20.96937" lon="55.3983">
        <ele>1424.2</ele>
        <time>2013-06-16T06:00:18Z</time>
      </trkpt>
      <trkpt lat="-20.9693" lon="55.39832">
        <ele>1423.6</ele>
        <time>2013-06-16T06:00:23Z</time>
      </trkpt>
      <trkpt lat="-20.96923" lon="55.39837">
        <ele>1421.5</ele>
        <time>2013-06-16T06:00:31Z</time>
      </trkpt>
      <trkpt lat="-20.96915" lon="55.39834">
        <ele>1421.7</ele>
        <time>2013-06-16T06:00:39Z</time>
      </trkpt>
      <trkpt lat="-20.96914" lon="55.39833">
        <ele>1421.4</ele>
        <time>2013-06-16T06:00:40Z</time>
      </trkpt>
      <trkpt lat="-20.96899" lon="55.39827">
        <ele>1418.7</ele>
        <time>2013-06-16T06:00:52Z</time>
      </trkpt>
      <trkpt lat="-20.96891" lon="55.39828">
        <ele>1417.7</ele>
        <time>2013-06-16T06:00:58Z</time>
      </trkpt>
      <trkpt lat="-20.96883" lon="55.39828">
        <ele>1417.9</ele>
        <time>2013-06-16T06:01:03Z</time>
      </trkpt>
      <trkpt lat="-20.96875" lon="55.39828">
        <ele>1416.7</ele>
        <time>2013-06-16T06:01:09Z</time>
      </trkpt>
      <trkpt lat="-20.96869" lon="55.39822">
        <ele>1416.2</ele>
        <time>2013-06-16T06:01:13Z</time>
      </trkpt>
      <trkpt lat="-20.9686" lon="55.3982">
        <ele>1415.8</ele>
        <time>2013-06-16T06:01:19Z</time>
      </trkpt>
      <trkpt lat="-20.96852" lon="55.39824">
        <ele>1414.8</ele>
        <time>2013-06-16T06:01:24Z</time>
      </trkpt>
      <trkpt lat="-20.96844" lon="55.39822">
        <ele>1415.3</ele>
        <time>2013-06-16T06:01:29Z</time>
      </trkpt>
      <trkpt lat="-20.96844" lon="55.39813">
        <ele>1414.1</ele>
        <time>2013-06-16T06:01:36Z</time>
      </trkpt>
      <trkpt lat="-20.96842" lon="55.39804">
        <ele>1412.5</ele>
        <time>2013-06-16T06:01:44Z</time>
      </trkpt>
      <trkpt lat="-20.96841" lon="55.39802">
        <ele>1412.5</ele>
        <time>2013-06-16T06:01:45Z</time>
      </trkpt>
      <trkpt lat="-20.9685" lon="55.39789">
        <ele>1412</ele>
        <time>2013-06-16T06:01:59Z</time>
      </trkpt>
      <trkpt lat="-20.9685" lon="55.3978">
        <ele>1410.9</ele>
        <time>2013-06-16T06:02:07Z</time>
      </trkpt>
      <trkpt lat="-20.96858" lon="55.39778">
        <ele>1410.1</ele>
        <time>2013-06-16T06:02:19Z</time>
      </trkpt>
      <trkpt lat="-20.9687" lon="55.39773">
        <ele>1408</ele>
        <time>2013-06-16T06:02:37Z</time>
      </trkpt>
      <trkpt lat="-20.96878" lon="55.39765">
        <ele>1408</ele>
        <time>2013-06-16T06:02:45Z</time>
      </trkpt>
      <trkpt lat="-20.96879" lon="55.39765">
        <ele>1408.4</ele>
        <time>2013-06-16T06:02:47Z</time>
      </trkpt>
      <trkpt lat="-20.96893" lon="55.39757">
        <ele>1408.6</ele>
        <time>2013-06-16T06:02:56Z</time>
      </trkpt>
      <trkpt lat="-20.969" lon="55.39751">
        <ele>1410.3</ele>
        <time>2013-06-16T06:03:03Z</time>
      </trkpt>
      <trkpt lat="-20.96893" lon="55.39746">
        <ele>1408.6</ele>
        <time>2013-06-16T06:03:11Z</time>
      </trkpt>
      <trkpt lat="-20.96891" lon="55.39738">
        <ele>1407.7</ele>
        <time>2013-06-16T06:03:25Z</time>
      </trkpt>
      <trkpt lat="-20.96886" lon="55.39731">
        <ele>1409.1</ele>
        <time>2013-06-16T06:03:39Z</time>
      </trkpt>
      <trkpt lat="-20.96878" lon="55.39726">
        <ele>1407.7</ele>
        <time>2013-06-16T06:03:44Z</time>
      </trkpt>
      <trkpt lat="-20.96878" lon="55.39717">
        <ele>1406.4</ele>
        <time>2013-06-16T06:03:49Z</time>
      </trkpt>
      <trkpt lat="-20.96878" lon="55.39716">
        <ele>1406.3</ele>
        <time>2013-06-16T06:03:50Z</time>
      </trkpt>
      <trkpt lat="-20.96867" lon="55.39704">
        <ele>1404.9</ele>
        <time>2013-06-16T06:03:59Z</time>
      </trkpt>
      <trkpt lat="-20.9686" lon="55.39704">
        <ele>1404.5</ele>
        <time>2013-06-16T06:04:03Z</time>
      </trkpt>
      <trkpt lat="-20.96851" lon="55.39702">
        <ele>1403.7</ele>
        <time>2013-06-16T06:04:08Z</time>
      </trkpt>
      <trkpt lat="-20.96843" lon="55.39699">
        <ele>1403.7</ele>
        <time>2013-06-16T06:04:14Z</time>
      </trkpt>
      <trkpt lat="-20.96836" lon="55.39699">
        <ele>1401.5</ele>
        <time>2013-06-16T06:04:20Z</time>
      </trkpt>
      <trkpt lat="-20.96827" lon="55.39699">
        <ele>1402.3</ele>
        <time>2013-06-16T06:04:25Z</time>
      </trkpt>
      <trkpt lat="-20.96819" lon="55.39701">
        <ele>1401</ele>
        <time>2013-06-16T06:04:29Z</time>
      </trkpt>
      <trkpt lat="-20.96812" lon="55.39706">
        <ele>1400.5</ele>
        <time>2013-06-16T06:04:34Z</time>
      </trkpt>
      <trkpt lat="-20.96804" lon="55.3971">
        <ele>1398.8</ele>
        <time>2013-06-16T06:04:39Z</time>
      </trkpt>
      <trkpt lat="-20.96796" lon="55.39712">
        <ele>1395.9</ele>
        <time>2013-06-16T06:04:45Z</time>
      </trkpt>
      <trkpt lat="-20.96789" lon="55.39716">
        <ele>1394.5</ele>
        <time>2013-06-16T06:04:49Z</time>
      </trkpt>
      <trkpt lat="-20.96783" lon="55.39709">
        <ele>1392.2</ele>
        <time>2013-06-16T06:04:59Z</time>
      </trkpt>
      <trkpt lat="-20.96783" lon="55.39708">
        <ele>1392.2</ele>
        <time>2013-06-16T06:05:00Z</time>
      </trkpt>
      <trkpt lat="-20.96779" lon="55.39694">
        <ele>1388.7</ele>
        <time>2013-06-16T06:05:25Z</time>
      </trkpt>
      <trkpt lat="-20.96772" lon="55.39698">
        <ele>1387.7</ele>
        <time>2013-06-16T06:05:29Z</time>
      </trkpt>
      <trkpt lat="-20.96764" lon="55.397">
        <ele>1386.5</ele>
        <time>2013-06-16T06:05:33Z</time>
      </trkpt>
      <trkpt lat="-20.96756" lon="55.39698">
        <ele>1384.9</ele>
        <time>2013-06-16T06:05:38Z</time>
      </trkpt>
      <trkpt lat="-20.96751" lon="55.39692">
        <ele>1384.1</ele>
        <time>2013-06-16T06:05:43Z</time>
      </trkpt>
      <trkpt lat="-20.96749" lon="55.39683">
        <ele>1383.2</ele>
        <time>2013-06-16T06:05:48Z</time>
      </trkpt>
      <trkpt lat="-20.96743" lon="55.39676">
        <ele>1381.9</ele>
        <time>2013-06-16T06:05:52Z</time>
      </trkpt>
      <trkpt lat="-20.96737" lon="55.3967">
        <ele>1380.2</ele>
        <time>2013-06-16T06:05:57Z</time>
      </trkpt>
      <trkpt lat="-20.9674" lon="55.39661">
        <ele>1380.1</ele>
        <time>2013-06-16T06:06:03Z</time>
      </trkpt>
      <trkpt lat="-20.9674" lon="55.3966">
        <ele>1380</ele>
        <time>2013-06-16T06:06:04Z</time>
      </trkpt>
      <trkpt lat="-20.96742" lon="55.39645">
        <ele>1376.6</ele>
        <time>2013-06-16T06:06:11Z</time>
      </trkpt>
      <trkpt lat="-20.96734" lon="55.39641">
        <ele>1376.4</ele>
        <time>2013-06-16T06:06:15Z</time>
      </trkpt>
      <trkpt lat="-20.96726" lon="55.39641">
        <ele>1375.8</ele>
        <time>2013-06-16T06:06:18Z</time>
      </trkpt>
      <trkpt lat="-20.96721" lon="55.39635">
        <ele>1375.2</ele>
        <time>2013-06-16T06:06:23Z</time>
      </trkpt>
      <trkpt lat="-20.9672" lon="55.39627">
        <ele>1374.5</ele>
        <time>2013-06-16T06:06:28Z</time>
      </trkpt>
      <trkpt lat="-20.96716" lon="55.39619">
        <ele>1372.9</ele>
        <time>2013-06-16T06:06:32Z</time>
      </trkpt>
      <trkpt lat="-20.9671" lon="55.39615">
        <ele>1371.7</ele>
        <time>2013-06-16T06:06:36Z</time>
      </trkpt>
      <trkpt lat="-20.96702" lon="55.39611">
        <ele>1370.1</ele>
        <time>2013-06-16T06:06:40Z</time>
      </trkpt>
      <trkpt lat="-20.96697" lon="55.39605">
        <ele>1369.8</ele>
        <time>2013-06-16T06:06:46Z</time>
      </trkpt>
      <trkpt lat="-20.96692" lon="55.39597">
        <ele>1368</ele>
        <time>2013-06-16T06:06:51Z</time>
      </trkpt>
      <trkpt lat="-20.96686" lon="55.3959">
        <ele>1366.1</ele>
        <time>2013-06-16T06:06:56Z</time>
      </trkpt>
      <trkpt lat="-20.96686" lon="55.39581">
        <ele>1363.7</ele>
        <time>2013-06-16T06:07:05Z</time>
      </trkpt>
      <trkpt lat="-20.96685" lon="55.3958">
        <ele>1363.6</ele>
        <time>2013-06-16T06:07:06Z</time>
      </trkpt>
      <trkpt lat="-20.96674" lon="55.39571">
        <ele>1361.4</ele>
        <time>2013-06-16T06:07:15Z</time>
      </trkpt>
      <trkpt lat="-20.96669" lon="55.39563">
        <ele>1359.7</ele>
        <time>2013-06-16T06:07:19Z</time>
      </trkpt>
      <trkpt lat="-20.96663" lon="55.39556">
        <ele>1356.8</ele>
        <time>2013-06-16T06:07:23Z</time>
      </trkpt>
      <trkpt lat="-20.9667" lon="55.39551">
        <ele>1356.3</ele>
        <time>2013-06-16T06:07:32Z</time>
      </trkpt>
      <trkpt lat="-20.96672" lon="55.39542">
        <ele>1352.3</ele>
        <time>2013-06-16T06:07:48Z</time>
      </trkpt>
      <trkpt lat="-20.96675" lon="55.39534">
        <ele>1350.8</ele>
        <time>2013-06-16T06:07:53Z</time>
      </trkpt>
      <trkpt lat="-20.96678" lon="55.39527">
        <ele>1350.6</ele>
        <time>2013-06-16T06:07:56Z</time>
      </trkpt>
      <trkpt lat="-20.96679" lon="55.39519">
        <ele>1350.4</ele>
        <time>2013-06-16T06:07:59Z</time>
      </trkpt>
      <trkpt lat="-20.96681" lon="55.3951">
        <ele>1350.2</ele>
        <time>2013-06-16T06:08:03Z</time>
      </trkpt>
      <trkpt lat="-20.96684" lon="55.39502">
        <ele>1348.7</ele>
        <time>2013-06-16T06:08:16Z</time>
      </trkpt>
      <trkpt lat="-20.96684" lon="55.39501">
        <ele>1348.8</ele>
        <time>2013-06-16T06:08:17Z</time>
      </trkpt>
      <trkpt lat="-20.967" lon="55.395">
        <ele>1348</ele>
        <time>2013-06-16T06:09:01Z</time>
      </trkpt>
      <trkpt lat="-20.96708" lon="55.39499">
        <ele>1349.4</ele>
        <time>2013-06-16T06:09:08Z</time>
      </trkpt>
      <trkpt lat="-20.96714" lon="55.39504">
        <ele>1349.5</ele>
        <time>2013-06-16T06:09:13Z</time>
      </trkpt>
      <trkpt lat="-20.96719" lon="55.39511">
        <ele>1349.1</ele>
        <time>2013-06-16T06:09:21Z</time>
      </trkpt>
      <trkpt lat="-20.9672" lon="55.39512">
        <ele>1349.3</ele>
        <time>2013-06-16T06:09:22Z</time>
      </trkpt>
      <trkpt lat="-20.96734" lon="55.39518">
        <ele>1351.4</ele>
        <time>2013-06-16T06:09:38Z</time>
      </trkpt>
      <trkpt lat="-20.96737" lon="55.39528">
        <ele>1352.7</ele>
        <time>2013-06-16T06:09:48Z</time>
      </trkpt>
      <trkpt lat="-20.96726" lon="55.39535">
        <ele>1353</ele>
        <time>2013-06-16T06:09:57Z</time>
      </trkpt>
      <trkpt lat="-20.96732" lon="55.39541">
        <ele>1354.9</ele>
        <time>2013-06-16T06:10:12Z</time>
      </trkpt>
      <trkpt lat="-20.96735" lon="55.3955">
        <ele>1355.2</ele>
        <time>2013-06-16T06:10:22Z</time>
      </trkpt>
      <trkpt lat="-20.96735" lon="55.39552">
        <ele>1355.1</ele>
        <time>2013-06-16T06:10:23Z</time>
      </trkpt>
      <trkpt lat="-20.96748" lon="55.39563">
        <ele>1357.2</ele>
        <time>2013-06-16T06:10:46Z</time>
      </trkpt>
      <trkpt lat="-20.96753" lon="55.39569">
        <ele>1357.9</ele>
        <time>2013-06-16T06:10:52Z</time>
      </trkpt>
      <trkpt lat="-20.96761" lon="55.39571">
        <ele>1358.3</ele>
        <time>2013-06-16T06:10:56Z</time>
      </trkpt>
      <trkpt lat="-20.96768" lon="55.39575">
        <ele>1358.3</ele>
        <time>2013-06-16T06:11:01Z</time>
      </trkpt>
      <trkpt lat="-20.96771" lon="55.39583">
        <ele>1358.8</ele>
        <time>2013-06-16T06:11:06Z</time>
      </trkpt>
      <trkpt lat="-20.96779" lon="55.39587">
        <ele>1358.7</ele>
        <time>2013-06-16T06:11:10Z</time>
      </trkpt>
      <trkpt lat="-20.96786" lon="55.39591">
        <ele>1359.6</ele>
        <time>2013-06-16T06:11:17Z</time>
      </trkpt>
      <trkpt lat="-20.96791" lon="55.39598">
        <ele>1360.5</ele>
        <time>2013-06-16T06:11:38Z</time>
      </trkpt>
      <trkpt lat="-20.96791" lon="55.39599">
        <ele>1360.7</ele>
        <time>2013-06-16T06:11:39Z</time>
      </trkpt>
      <trkpt lat="-20.96817" lon="55.3959">
        <ele>1361</ele>
        <time>2013-06-16T06:12:01Z</time>
      </trkpt>
      <trkpt lat="-20.96821" lon="55.39578">
        <ele>1361</ele>
        <time>2013-06-16T06:12:09Z</time>
      </trkpt>
      <trkpt lat="-20.96817" lon="55.39567">
        <ele>1361</ele>
        <time>2013-06-16T06:12:21Z</time>
      </trkpt>
      <trkpt lat="-20.96826" lon="55.39568">
        <ele>1362</ele>
        <time>2013-06-16T06:12:40Z</time>
      </trkpt>
      <trkpt lat="-20.96826" lon="55.39568">
        <ele>1362.3</ele>
        <time>2013-06-16T06:12:41Z</time>
      </trkpt>
      <trkpt lat="-20.96841" lon="55.39571">
        <ele>1362.7</ele>
        <time>2013-06-16T06:13:01Z</time>
      </trkpt>
      <trkpt lat="-20.96848" lon="55.39567">
        <ele>1362</ele>
        <time>2013-06-16T06:13:07Z</time>
      </trkpt>
      <trkpt lat="-20.96855" lon="55.39562">
        <ele>1362.3</ele>
        <time>2013-06-16T06:13:12Z</time>
      </trkpt>
      <trkpt lat="-20.9686" lon="55.3957">
        <ele>1361</ele>
        <time>2013-06-16T06:13:32Z</time>
      </trkpt>
      <trkpt lat="-20.96866" lon="55.39577">
        <ele>1360.2</ele>
        <time>2013-06-16T06:13:41Z</time>
      </trkpt>
      <trkpt lat="-20.96865" lon="55.39579">
        <ele>1360.4</ele>
        <time>2013-06-16T06:13:42Z</time>
      </trkpt>
      <trkpt lat="-20.96886" lon="55.39563">
        <ele>1361</ele>
        <time>2013-06-16T06:14:43Z</time>
      </trkpt>
      <trkpt lat="-20.9689" lon="55.3956">
        <ele>1361.5</ele>
        <time>2013-06-16T06:14:47Z</time>
      </trkpt>
      <trkpt lat="-20.96902" lon="55.39555">
        <ele>1359.2</ele>
        <time>2013-06-16T06:14:59Z</time>
      </trkpt>
      <trkpt lat="-20.96911" lon="55.39553">
        <ele>1358.2</ele>
        <time>2013-06-16T06:15:05Z</time>
      </trkpt>
      <trkpt lat="-20.96919" lon="55.39554">
        <ele>1357.3</ele>
        <time>2013-06-16T06:15:15Z</time>
      </trkpt>
      <trkpt lat="-20.96915" lon="55.39564">
        <ele>1354</ele>
        <time>2013-06-16T06:15:50Z</time>
      </trkpt>
      <trkpt lat="-20.96915" lon="55.39564">
        <ele>1354.3</ele>
        <time>2013-06-16T06:15:52Z</time>
      </trkpt>
      <trkpt lat="-20.96896" lon="55.39569">
        <ele>1358</ele>
        <time>2013-06-16T06:16:15Z</time>
      </trkpt>
      <trkpt lat="-20.96917" lon="55.3956">
        <ele>1360</ele>
        <time>2013-06-16T06:16:22Z</time>
      </trkpt>
      <trkpt lat="-20.96936" lon="55.39554">
        <ele>1360</ele>
        <time>2013-06-16T06:16:28Z</time>
      </trkpt>
      <trkpt lat="-20.96947" lon="55.3955">
        <ele>1359</ele>
        <time>2013-06-16T06:16:40Z</time>
      </trkpt>
      <trkpt lat="-20.96933" lon="55.39555">
        <ele>1359</ele>
        <time>2013-06-16T06:16:48Z</time>
      </trkpt>
      <trkpt lat="-20.96956" lon="55.39545">
        <ele>1360</ele>
        <time>2013-06-16T06:16:55Z</time>
      </trkpt>
      <trkpt lat="-20.96964" lon="55.3954">
        <ele>1360.1</ele>
        <time>2013-06-16T06:16:59Z</time>
      </trkpt>
      <trkpt lat="-20.96986" lon="55.39528">
        <ele>1357</ele>
        <time>2013-06-16T06:17:11Z</time>
      </trkpt>
      <trkpt lat="-20.97009" lon="55.39518">
        <ele>1355</ele>
        <time>2013-06-16T06:17:25Z</time>
      </trkpt>
      <trkpt lat="-20.9703" lon="55.39508">
        <ele>1354</ele>
        <time>2013-06-16T06:17:29Z</time>
      </trkpt>
      <trkpt lat="-20.97055" lon="55.39495">
        <ele>1353</ele>
        <time>2013-06-16T06:17:34Z</time>
      </trkpt>
      <trkpt lat="-20.97034" lon="55.39499">
        <ele>1353</ele>
        <time>2013-06-16T06:17:42Z</time>
      </trkpt>
      <trkpt lat="-20.96998" lon="55.3951">
        <ele>1354.4</ele>
        <time>2013-06-16T06:17:49Z</time>
      </trkpt>
      <trkpt lat="-20.96991" lon="55.39512">
        <ele>1355.3</ele>
        <time>2013-06-16T06:17:54Z</time>
      </trkpt>
      <trkpt lat="-20.96984" lon="55.39511">
        <ele>1355.5</ele>
        <time>2013-06-16T06:17:58Z</time>
      </trkpt>
      <trkpt lat="-20.96975" lon="55.39512">
        <ele>1356.3</ele>
        <time>2013-06-16T06:18:02Z</time>
      </trkpt>
      <trkpt lat="-20.96974" lon="55.39512">
        <ele>1356.4</ele>
        <time>2013-06-16T06:18:03Z</time>
      </trkpt>
      <trkpt lat="-20.9696" lon="55.3951">
        <ele>1356.2</ele>
        <time>2013-06-16T06:18:13Z</time>
      </trkpt>
      <trkpt lat="-20.96953" lon="55.39505">
        <ele>1356.5</ele>
        <time>2013-06-16T06:18:18Z</time>
      </trkpt>
      <trkpt lat="-20.96954" lon="55.39497">
        <ele>1355</ele>
        <time>2013-06-16T06:18:23Z</time>
      </trkpt>
      <trkpt lat="-20.96957" lon="55.39489">
        <ele>1353.9</ele>
        <time>2013-06-16T06:18:30Z</time>
      </trkpt>
      <trkpt lat="-20.96955" lon="55.39481">
        <ele>1353.4</ele>
        <time>2013-06-16T06:18:38Z</time>
      </trkpt>
      <trkpt lat="-20.96952" lon="55.39471">
        <ele>1353</ele>
        <time>2013-06-16T06:18:46Z</time>
      </trkpt>
      <trkpt lat="-20.96953" lon="55.39461">
        <ele>1351</ele>
        <time>2013-06-16T06:18:54Z</time>
      </trkpt>
      <trkpt lat="-20.96972" lon="55.3945">
        <ele>1351</ele>
        <time>2013-06-16T06:19:00Z</time>
      </trkpt>
      <trkpt lat="-20.96984" lon="55.39445">
        <ele>1352.1</ele>
        <time>2013-06-16T06:19:04Z</time>
      </trkpt>
      <trkpt lat="-20.97005" lon="55.39431">
        <ele>1350</ele>
        <time>2013-06-16T06:19:16Z</time>
      </trkpt>
      <trkpt lat="-20.97009" lon="55.39419">
        <ele>1349.7</ele>
        <time>2013-06-16T06:19:24Z</time>
      </trkpt>
      <trkpt lat="-20.97001" lon="55.39418">
        <ele>1350.2</ele>
        <time>2013-06-16T06:19:28Z</time>
      </trkpt>
      <trkpt lat="-20.96994" lon="55.39416">
        <ele>1349.5</ele>
        <time>2013-06-16T06:19:32Z</time>
      </trkpt>
      <trkpt lat="-20.96985" lon="55.39415">
        <ele>1350.1</ele>
        <time>2013-06-16T06:19:36Z</time>
      </trkpt>
      <trkpt lat="-20.96977" lon="55.39411">
        <ele>1350.2</ele>
        <time>2013-06-16T06:19:40Z</time>
      </trkpt>
      <trkpt lat="-20.9697" lon="55.39406">
        <ele>1349.1</ele>
        <time>2013-06-16T06:19:43Z</time>
      </trkpt>
      <trkpt lat="-20.96963" lon="55.39401">
        <ele>1349.4</ele>
        <time>2013-06-16T06:19:47Z</time>
      </trkpt>
      <trkpt lat="-20.96961" lon="55.39393">
        <ele>1348.8</ele>
        <time>2013-06-16T06:19:52Z</time>
      </trkpt>
      <trkpt lat="-20.96959" lon="55.39384">
        <ele>1348.8</ele>
        <time>2013-06-16T06:19:57Z</time>
      </trkpt>
      <trkpt lat="-20.96957" lon="55.39376">
        <ele>1348</ele>
        <time>2013-06-16T06:20:01Z</time>
      </trkpt>
      <trkpt lat="-20.9695" lon="55.3937">
        <ele>1347.6</ele>
        <time>2013-06-16T06:20:05Z</time>
      </trkpt>
      <trkpt lat="-20.96949" lon="55.39369">
        <ele>1347.3</ele>
        <time>2013-06-16T06:20:06Z</time>
      </trkpt>
      <trkpt lat="-20.96943" lon="55.39356">
        <ele>1347.2</ele>
        <time>2013-06-16T06:20:13Z</time>
      </trkpt>
      <trkpt lat="-20.96938" lon="55.39349">
        <ele>1346.6</ele>
        <time>2013-06-16T06:20:17Z</time>
      </trkpt>
      <trkpt lat="-20.96934" lon="55.39341">
        <ele>1345.5</ele>
        <time>2013-06-16T06:20:21Z</time>
      </trkpt>
      <trkpt lat="-20.96941" lon="55.39336">
        <ele>1345.8</ele>
        <time>2013-06-16T06:20:29Z</time>
      </trkpt>
      <trkpt lat="-20.96949" lon="55.39334">
        <ele>1344.8</ele>
        <time>2013-06-16T06:20:33Z</time>
      </trkpt>
      <trkpt lat="-20.9696" lon="55.39339">
        <ele>1343</ele>
        <time>2013-06-16T06:20:42Z</time>
      </trkpt>
      <trkpt lat="-20.96969" lon="55.39338">
        <ele>1343.3</ele>
        <time>2013-06-16T06:20:47Z</time>
      </trkpt>
      <trkpt lat="-20.96976" lon="55.39343">
        <ele>1343.1</ele>
        <time>2013-06-16T06:20:52Z</time>
      </trkpt>
      <trkpt lat="-20.96983" lon="55.39347">
        <ele>1342</ele>
        <time>2013-06-16T06:20:58Z</time>
      </trkpt>
      <trkpt lat="-20.96981" lon="55.39354">
        <ele>1342.6</ele>
        <time>2013-06-16T06:21:03Z</time>
      </trkpt>
      <trkpt lat="-20.96977" lon="55.39362">
        <ele>1342.4</ele>
        <time>2013-06-16T06:21:07Z</time>
      </trkpt>
      <trkpt lat="-20.96976" lon="55.39363">
        <ele>1342.3</ele>
        <time>2013-06-16T06:21:08Z</time>
      </trkpt>
      <trkpt lat="-20.96977" lon="55.39369">
        <ele>1343.1</ele>
        <time>2013-06-16T06:21:32Z</time>
      </trkpt>
      <trkpt lat="-20.96986" lon="55.3937">
        <ele>1344.1</ele>
        <time>2013-06-16T06:21:36Z</time>
      </trkpt>
      <trkpt lat="-20.96993" lon="55.39372">
        <ele>1344.4</ele>
        <time>2013-06-16T06:21:42Z</time>
      </trkpt>
      <trkpt lat="-20.97" lon="55.39376">
        <ele>1344.1</ele>
        <time>2013-06-16T06:21:48Z</time>
      </trkpt>
      <trkpt lat="-20.97007" lon="55.39382">
        <ele>1344.5</ele>
        <time>2013-06-16T06:21:55Z</time>
      </trkpt>
      <trkpt lat="-20.97013" lon="55.39388">
        <ele>1344.5</ele>
        <time>2013-06-16T06:22:01Z</time>
      </trkpt>
      <trkpt lat="-20.97018" lon="55.39396">
        <ele>1343</ele>
        <time>2013-06-16T06:22:11Z</time>
      </trkpt>
      <trkpt lat="-20.97018" lon="55.39398">
        <ele>1344.2</ele>
        <time>2013-06-16T06:22:13Z</time>
      </trkpt>
      <trkpt lat="-20.97016" lon="55.3939">
        <ele>1347</ele>
        <time>2013-06-16T06:22:41Z</time>
      </trkpt>
      <trkpt lat="-20.9703" lon="55.3938">
        <ele>1347</ele>
        <time>2013-06-16T06:22:45Z</time>
      </trkpt>
      <trkpt lat="-20.97034" lon="55.39372">
        <ele>1347.4</ele>
        <time>2013-06-16T06:22:50Z</time>
      </trkpt>
      <trkpt lat="-20.97017" lon="55.39376">
        <ele>1349</ele>
        <time>2013-06-16T06:23:09Z</time>
      </trkpt>
      <trkpt lat="-20.9702" lon="55.39369">
        <ele>1348.7</ele>
        <time>2013-06-16T06:23:16Z</time>
      </trkpt>
      <trkpt lat="-20.97022" lon="55.39367">
        <ele>1348.6</ele>
        <time>2013-06-16T06:23:17Z</time>
      </trkpt>
      <trkpt lat="-20.97031" lon="55.39356">
        <ele>1349.2</ele>
        <time>2013-06-16T06:23:23Z</time>
      </trkpt>
      <trkpt lat="-20.97034" lon="55.39348">
        <ele>1349.2</ele>
        <time>2013-06-16T06:23:28Z</time>
      </trkpt>
      <trkpt lat="-20.97034" lon="55.39339">
        <ele>1349.7</ele>
        <time>2013-06-16T06:23:35Z</time>
      </trkpt>
      <trkpt lat="-20.97035" lon="55.3933">
        <ele>1350.5</ele>
        <time>2013-06-16T06:23:40Z</time>
      </trkpt>
      <trkpt lat="-20.97036" lon="55.39321">
        <ele>1350.2</ele>
        <time>2013-06-16T06:23:47Z</time>
      </trkpt>
      <trkpt lat="-20.97044" lon="55.39318">
        <ele>1349.2</ele>
        <time>2013-06-16T06:23:54Z</time>
      </trkpt>
      <trkpt lat="-20.97052" lon="55.39317">
        <ele>1349</ele>
        <time>2013-06-16T06:24:03Z</time>
      </trkpt>
      <trkpt lat="-20.9706" lon="55.39313">
        <ele>1349.4</ele>
        <time>2013-06-16T06:24:09Z</time>
      </trkpt>
      <trkpt lat="-20.97069" lon="55.39311">
        <ele>1349.3</ele>
        <time>2013-06-16T06:24:15Z</time>
      </trkpt>
      <trkpt lat="-20.97069" lon="55.39321">
        <ele>1349</ele>
        <time>2013-06-16T06:24:24Z</time>
      </trkpt>
      <trkpt lat="-20.97069" lon="55.39322">
        <ele>1348.8</ele>
        <time>2013-06-16T06:24:25Z</time>
      </trkpt>
      <trkpt lat="-20.97078" lon="55.39337">
        <ele>1350.3</ele>
        <time>2013-06-16T06:24:44Z</time>
      </trkpt>
      <trkpt lat="-20.97082" lon="55.39346">
        <ele>1352.1</ele>
        <time>2013-06-16T06:24:54Z</time>
      </trkpt>
      <trkpt lat="-20.97088" lon="55.39351">
        <ele>1351.6</ele>
        <time>2013-06-16T06:25:03Z</time>
      </trkpt>
      <trkpt lat="-20.97087" lon="55.39359">
        <ele>1352.5</ele>
        <time>2013-06-16T06:25:10Z</time>
      </trkpt>
      <trkpt lat="-20.97083" lon="55.39368">
        <ele>1351.9</ele>
        <time>2013-06-16T06:25:16Z</time>
      </trkpt>
      <trkpt lat="-20.97079" lon="55.39373">
        <ele>1351.7</ele>
        <time>2013-06-16T06:25:18Z</time>
      </trkpt>
      <trkpt lat="-20.97074" lon="55.39378">
        <ele>1352</ele>
        <time>2013-06-16T06:25:20Z</time>
      </trkpt>
      <trkpt lat="-20.97068" lon="55.39386">
        <ele>1352.9</ele>
        <time>2013-06-16T06:25:25Z</time>
      </trkpt>
      <trkpt lat="-20.97069" lon="55.39387">
        <ele>1352.9</ele>
        <time>2013-06-16T06:25:26Z</time>
      </trkpt>
      <trkpt lat="-20.97084" lon="55.39388">
        <ele>1353</ele>
        <time>2013-06-16T06:25:36Z</time>
      </trkpt>
      <trkpt lat="-20.97096" lon="55.39389">
        <ele>1352</ele>
        <time>2013-06-16T06:25:45Z</time>
      </trkpt>
      <trkpt lat="-20.97106" lon="55.39393">
        <ele>1353.8</ele>
        <time>2013-06-16T06:25:57Z</time>
      </trkpt>
      <trkpt lat="-20.97114" lon="55.39391">
        <ele>1353.1</ele>
        <time>2013-06-16T06:25:59Z</time>
      </trkpt>
      <trkpt lat="-20.97122" lon="55.3939">
        <ele>1352.5</ele>
        <time>2013-06-16T06:26:01Z</time>
      </trkpt>
      <trkpt lat="-20.97129" lon="55.39387">
        <ele>1352</ele>
        <time>2013-06-16T06:26:03Z</time>
      </trkpt>
      <trkpt lat="-20.97136" lon="55.39387">
        <ele>1353</ele>
        <time>2013-06-16T06:26:05Z</time>
      </trkpt>
      <trkpt lat="-20.97144" lon="55.39389">
        <ele>1351.5</ele>
        <time>2013-06-16T06:26:13Z</time>
      </trkpt>
      <trkpt lat="-20.97153" lon="55.39389">
        <ele>1352</ele>
        <time>2013-06-16T06:26:22Z</time>
      </trkpt>
      <trkpt lat="-20.97146" lon="55.39392">
        <ele>1351.9</ele>
        <time>2013-06-16T06:26:30Z</time>
      </trkpt>
      <trkpt lat="-20.97144" lon="55.39392">
        <ele>1351.9</ele>
        <time>2013-06-16T06:26:31Z</time>
      </trkpt>
      <trkpt lat="-20.97137" lon="55.39377">
        <ele>1352.8</ele>
        <time>2013-06-16T06:26:53Z</time>
      </trkpt>
      <trkpt lat="-20.97131" lon="55.39371">
        <ele>1353.6</ele>
        <time>2013-06-16T06:27:14Z</time>
      </trkpt>
      <trkpt lat="-20.97135" lon="55.39364">
        <ele>1353.7</ele>
        <time>2013-06-16T06:27:17Z</time>
      </trkpt>
      <trkpt lat="-20.97138" lon="55.39356">
        <ele>1353.4</ele>
        <time>2013-06-16T06:27:21Z</time>
      </trkpt>
      <trkpt lat="-20.97145" lon="55.39351">
        <ele>1352.9</ele>
        <time>2013-06-16T06:27:23Z</time>
      </trkpt>
      <trkpt lat="-20.97149" lon="55.39343">
        <ele>1352.3</ele>
        <time>2013-06-16T06:27:26Z</time>
      </trkpt>
      <trkpt lat="-20.97155" lon="55.39336">
        <ele>1352.2</ele>
        <time>2013-06-16T06:27:30Z</time>
      </trkpt>
      <trkpt lat="-20.97157" lon="55.39329">
        <ele>1352.5</ele>
        <time>2013-06-16T06:27:35Z</time>
      </trkpt>
      <trkpt lat="-20.97158" lon="55.39327">
        <ele>1352.4</ele>
        <time>2013-06-16T06:27:36Z</time>
      </trkpt>
      <trkpt lat="-20.9716" lon="55.39311">
        <ele>1353.2</ele>
        <time>2013-06-16T06:27:44Z</time>
      </trkpt>
      <trkpt lat="-20.97154" lon="55.39305">
        <ele>1352.9</ele>
        <time>2013-06-16T06:27:49Z</time>
      </trkpt>
      <trkpt lat="-20.9715" lon="55.39297">
        <ele>1352.5</ele>
        <time>2013-06-16T06:27:55Z</time>
      </trkpt>
      <trkpt lat="-20.97156" lon="55.3929">
        <ele>1351.9</ele>
        <time>2013-06-16T06:28:04Z</time>
      </trkpt>
      <trkpt lat="-20.97153" lon="55.39281">
        <ele>1352.1</ele>
        <time>2013-06-16T06:28:33Z</time>
      </trkpt>
      <trkpt lat="-20.9716" lon="55.39276">
        <ele>1351.4</ele>
        <time>2013-06-16T06:28:37Z</time>
      </trkpt>
      <trkpt lat="-20.97162" lon="55.39275">
        <ele>1351.5</ele>
        <time>2013-06-16T06:28:38Z</time>
      </trkpt>
      <trkpt lat="-20.9717" lon="55.39262">
        <ele>1351.6</ele>
        <time>2013-06-16T06:28:46Z</time>
      </trkpt>
      <trkpt lat="-20.97174" lon="55.39254">
        <ele>1350.7</ele>
        <time>2013-06-16T06:28:50Z</time>
      </trkpt>
      <trkpt lat="-20.97176" lon="55.39245">
        <ele>1351</ele>
        <time>2013-06-16T06:28:56Z</time>
      </trkpt>
      <trkpt lat="-20.97175" lon="55.39235">
        <ele>1350.6</ele>
        <time>2013-06-16T06:29:05Z</time>
      </trkpt>
      <trkpt lat="-20.97177" lon="55.39226">
        <ele>1350.3</ele>
        <time>2013-06-16T06:29:13Z</time>
      </trkpt>
      <trkpt lat="-20.97184" lon="55.39221">
        <ele>1350.6</ele>
        <time>2013-06-16T06:29:17Z</time>
      </trkpt>
      <trkpt lat="-20.97186" lon="55.39213">
        <ele>1349.4</ele>
        <time>2013-06-16T06:29:23Z</time>
      </trkpt>
      <trkpt lat="-20.97179" lon="55.39208">
        <ele>1350</ele>
        <time>2013-06-16T06:29:28Z</time>
      </trkpt>
      <trkpt lat="-20.97172" lon="55.39203">
        <ele>1349.4</ele>
        <time>2013-06-16T06:29:35Z</time>
      </trkpt>
      <trkpt lat="-20.97166" lon="55.39196">
        <ele>1348</ele>
        <time>2013-06-16T06:29:42Z</time>
      </trkpt>
      <trkpt lat="-20.97166" lon="55.39195">
        <ele>1347.9</ele>
        <time>2013-06-16T06:29:43Z</time>
      </trkpt>
      <trkpt lat="-20.97156" lon="55.39182">
        <ele>1347.1</ele>
        <time>2013-06-16T06:29:55Z</time>
      </trkpt>
      <trkpt lat="-20.97149" lon="55.39176">
        <ele>1346.1</ele>
        <time>2013-06-16T06:30:00Z</time>
      </trkpt>
      <trkpt lat="-20.97142" lon="55.39172">
        <ele>1347.3</ele>
        <time>2013-06-16T06:30:05Z</time>
      </trkpt>
      <trkpt lat="-20.97134" lon="55.39169">
        <ele>1347</ele>
        <time>2013-06-16T06:30:10Z</time>
      </trkpt>
      <trkpt lat="-20.97126" lon="55.39165">
        <ele>1346.8</ele>
        <time>2013-06-16T06:30:17Z</time>
      </trkpt>
      <trkpt lat="-20.97118" lon="55.39162">
        <ele>1346.3</ele>
        <time>2013-06-16T06:30:23Z</time>
      </trkpt>
      <trkpt lat="-20.97127" lon="55.39164">
        <ele>1344.9</ele>
        <time>2013-06-16T06:30:46Z</time>
      </trkpt>
      <trkpt lat="-20.97131" lon="55.39162">
        <ele>1345</ele>
        <time>2013-06-16T06:30:47Z</time>
      </trkpt>
      <trkpt lat="-20.97143" lon="55.3916">
        <ele>1345.1</ele>
        <time>2013-06-16T06:30:52Z</time>
      </trkpt>
      <trkpt lat="-20.9715" lon="55.39159">
        <ele>1345.6</ele>
        <time>2013-06-16T06:30:57Z</time>
      </trkpt>
      <trkpt lat="-20.97159" lon="55.3916">
        <ele>1346.1</ele>
        <time>2013-06-16T06:31:05Z</time>
      </trkpt>
      <trkpt lat="-20.9715" lon="55.39174">
        <ele>1345</ele>
        <time>2013-06-16T06:31:14Z</time>
      </trkpt>
      <trkpt lat="-20.97132" lon="55.3919">
        <ele>1346</ele>
        <time>2013-06-16T06:31:21Z</time>
      </trkpt>
      <trkpt lat="-20.97139" lon="55.39186">
        <ele>1345.6</ele>
        <time>2013-06-16T06:31:28Z</time>
      </trkpt>
      <trkpt lat="-20.97145" lon="55.39184">
        <ele>1346.5</ele>
        <time>2013-06-16T06:31:30Z</time>
      </trkpt>
      <trkpt lat="-20.97153" lon="55.3918">
        <ele>1346.6</ele>
        <time>2013-06-16T06:31:32Z</time>
      </trkpt>
      <trkpt lat="-20.97157" lon="55.39178">
        <ele>1346.6</ele>
        <time>2013-06-16T06:31:33Z</time>
      </trkpt>
      <trkpt lat="-20.97164" lon="55.39174">
        <ele>1346.9</ele>
        <time>2013-06-16T06:31:35Z</time>
      </trkpt>
      <trkpt lat="-20.97172" lon="55.3917">
        <ele>1347.4</ele>
        <time>2013-06-16T06:31:38Z</time>
      </trkpt>
      <trkpt lat="-20.97178" lon="55.39169">
        <ele>1347.2</ele>
        <time>2013-06-16T06:31:40Z</time>
      </trkpt>
      <trkpt lat="-20.97186" lon="55.39168">
        <ele>1347.8</ele>
        <time>2013-06-16T06:31:43Z</time>
      </trkpt>
      <trkpt lat="-20.97197" lon="55.39173">
        <ele>1347</ele>
        <time>2013-06-16T06:31:52Z</time>
      </trkpt>
      <trkpt lat="-20.97198" lon="55.39173">
        <ele>1347.6</ele>
        <time>2013-06-16T06:31:54Z</time>
      </trkpt>
      <trkpt lat="-20.97214" lon="55.39175">
        <ele>1348.7</ele>
        <time>2013-06-16T06:32:05Z</time>
      </trkpt>
      <trkpt lat="-20.97221" lon="55.39175">
        <ele>1349</ele>
        <time>2013-06-16T06:32:08Z</time>
      </trkpt>
      <trkpt lat="-20.97229" lon="55.39177">
        <ele>1348.9</ele>
        <time>2013-06-16T06:32:14Z</time>
      </trkpt>
      <trkpt lat="-20.97233" lon="55.3917">
        <ele>1349.5</ele>
        <time>2013-06-16T06:32:19Z</time>
      </trkpt>
      <trkpt lat="-20.9725" lon="55.39159">
        <ele>1348</ele>
        <time>2013-06-16T06:32:38Z</time>
      </trkpt>
      <trkpt lat="-20.9729" lon="55.39132">
        <ele>1350.5</ele>
        <time>2013-06-16T06:33:13Z</time>
      </trkpt>
      <trkpt lat="-20.97269" lon="55.3914">
        <ele>1351.3</ele>
        <time>2013-06-16T06:33:15Z</time>
      </trkpt>
      <trkpt lat="-20.97275" lon="55.39135">
        <ele>1352.2</ele>
        <time>2013-06-16T06:33:20Z</time>
      </trkpt>
      <trkpt lat="-20.97282" lon="55.39121">
        <ele>1351</ele>
        <time>2013-06-16T06:33:36Z</time>
      </trkpt>
      <trkpt lat="-20.97285" lon="55.39112">
        <ele>1352</ele>
        <time>2013-06-16T06:33:45Z</time>
      </trkpt>
      <trkpt lat="-20.97291" lon="55.39084">
        <ele>1353</ele>
        <time>2013-06-16T06:34:01Z</time>
      </trkpt>
      <trkpt lat="-20.973" lon="55.39073">
        <ele>1354</ele>
        <time>2013-06-16T06:34:09Z</time>
      </trkpt>
      <trkpt lat="-20.97308" lon="55.39075">
        <ele>1354.5</ele>
        <time>2013-06-16T06:34:18Z</time>
      </trkpt>
      <trkpt lat="-20.97309" lon="55.39075">
        <ele>1354.3</ele>
        <time>2013-06-16T06:34:19Z</time>
      </trkpt>
      <trkpt lat="-20.97324" lon="55.39073">
        <ele>1354.5</ele>
        <time>2013-06-16T06:34:27Z</time>
      </trkpt>
      <trkpt lat="-20.97331" lon="55.39067">
        <ele>1354</ele>
        <time>2013-06-16T06:34:39Z</time>
      </trkpt>
      <trkpt lat="-20.97355" lon="55.39053">
        <ele>1354</ele>
        <time>2013-06-16T06:34:50Z</time>
      </trkpt>
      <trkpt lat="-20.97365" lon="55.39052">
        <ele>1356</ele>
        <time>2013-06-16T06:34:58Z</time>
      </trkpt>
      <trkpt lat="-20.9735" lon="55.39065">
        <ele>1356</ele>
        <time>2013-06-16T06:35:06Z</time>
      </trkpt>
      <trkpt lat="-20.97356" lon="55.39058">
        <ele>1355.9</ele>
        <time>2013-06-16T06:35:18Z</time>
      </trkpt>
      <trkpt lat="-20.97362" lon="55.39052">
        <ele>1355.6</ele>
        <time>2013-06-16T06:35:23Z</time>
      </trkpt>
      <trkpt lat="-20.97363" lon="55.39051">
        <ele>1356</ele>
        <time>2013-06-16T06:35:24Z</time>
      </trkpt>
      <trkpt lat="-20.97367" lon="55.39035">
        <ele>1358.7</ele>
        <time>2013-06-16T06:35:39Z</time>
      </trkpt>
      <trkpt lat="-20.97364" lon="55.39027">
        <ele>1360.1</ele>
        <time>2013-06-16T06:35:51Z</time>
      </trkpt>
      <trkpt lat="-20.97363" lon="55.39017">
        <ele>1361.7</ele>
        <time>2013-06-16T06:36:02Z</time>
      </trkpt>
      <trkpt lat="-20.97361" lon="55.39008">
        <ele>1361.6</ele>
        <time>2013-06-16T06:36:10Z</time>
      </trkpt>
      <trkpt lat="-20.97358" lon="55.39">
        <ele>1360</ele>
        <time>2013-06-16T06:36:17Z</time>
      </trkpt>
      <trkpt lat="-20.97352" lon="55.38994">
        <ele>1358.6</ele>
        <time>2013-06-16T06:36:22Z</time>
      </trkpt>
      <trkpt lat="-20.97346" lon="55.3899">
        <ele>1357.4</ele>
        <time>2013-06-16T06:36:27Z</time>
      </trkpt>
      <trkpt lat="-20.97344" lon="55.38988">
        <ele>1357.4</ele>
        <time>2013-06-16T06:36:28Z</time>
      </trkpt>
      <trkpt lat="-20.97346" lon="55.38975">
        <ele>1356.5</ele>
        <time>2013-06-16T06:36:38Z</time>
      </trkpt>
      <trkpt lat="-20.97355" lon="55.38975">
        <ele>1359.3</ele>
        <time>2013-06-16T06:36:49Z</time>
      </trkpt>
      <trkpt lat="-20.97364" lon="55.38971">
        <ele>1359</ele>
        <time>2013-06-16T06:36:54Z</time>
      </trkpt>
      <trkpt lat="-20.9737" lon="55.38966">
        <ele>1361.1</ele>
        <time>2013-06-16T06:36:58Z</time>
      </trkpt>
      <trkpt lat="-20.97376" lon="55.38961">
        <ele>1360.4</ele>
        <time>2013-06-16T06:37:00Z</time>
      </trkpt>
      <trkpt lat="-20.97382" lon="55.38956">
        <ele>1360.7</ele>
        <time>2013-06-16T06:37:02Z</time>
      </trkpt>
      <trkpt lat="-20.97392" lon="55.38948">
        <ele>1361</ele>
        <time>2013-06-16T06:37:06Z</time>
      </trkpt>
      <trkpt lat="-20.97412" lon="55.3894">
        <ele>1362</ele>
        <time>2013-06-16T06:37:13Z</time>
      </trkpt>
      <trkpt lat="-20.9744" lon="55.38931">
        <ele>1361</ele>
        <time>2013-06-16T06:37:26Z</time>
      </trkpt>
      <trkpt lat="-20.97447" lon="55.38933">
        <ele>1361.9</ele>
        <time>2013-06-16T06:37:33Z</time>
      </trkpt>
      <trkpt lat="-20.97441" lon="55.38943">
        <ele>1361.9</ele>
        <time>2013-06-16T06:37:40Z</time>
      </trkpt>
      <trkpt lat="-20.97436" lon="55.38951">
        <ele>1361</ele>
        <time>2013-06-16T06:37:44Z</time>
      </trkpt>
      <trkpt lat="-20.97433" lon="55.38959">
        <ele>1358.4</ele>
        <time>2013-06-16T06:37:51Z</time>
      </trkpt>
      <trkpt lat="-20.97425" lon="55.38963">
        <ele>1343.2</ele>
        <time>2013-06-16T06:38:45Z</time>
      </trkpt>
      <trkpt lat="-20.97425" lon="55.38964">
        <ele>1343</ele>
        <time>2013-06-16T06:38:46Z</time>
      </trkpt>
      <trkpt lat="-20.97438" lon="55.38958">
        <ele>1337.2</ele>
        <time>2013-06-16T06:38:58Z</time>
      </trkpt>
      <trkpt lat="-20.97444" lon="55.38956">
        <ele>1337.1</ele>
        <time>2013-06-16T06:38:59Z</time>
      </trkpt>
      <trkpt lat="-20.9745" lon="55.38953">
        <ele>1336.8</ele>
        <time>2013-06-16T06:39:00Z</time>
      </trkpt>
      <trkpt lat="-20.97455" lon="55.38951">
        <ele>1336.6</ele>
        <time>2013-06-16T06:39:01Z</time>
      </trkpt>
      <trkpt lat="-20.97462" lon="55.38949">
        <ele>1336.2</ele>
        <time>2013-06-16T06:39:03Z</time>
      </trkpt>
      <trkpt lat="-20.9747" lon="55.38951">
        <ele>1333.1</ele>
        <time>2013-06-16T06:39:10Z</time>
      </trkpt>
      <trkpt lat="-20.97476" lon="55.38944">
        <ele>1319.7</ele>
        <time>2013-06-16T06:39:52Z</time>
      </trkpt>
      <trkpt lat="-20.97476" lon="55.38943">
        <ele>1319.5</ele>
        <time>2013-06-16T06:39:53Z</time>
      </trkpt>
      <trkpt lat="-20.97489" lon="55.38953">
        <ele>1313.3</ele>
        <time>2013-06-16T06:40:17Z</time>
      </trkpt>
      <trkpt lat="-20.9749" lon="55.38961">
        <ele>1310.2</ele>
        <time>2013-06-16T06:40:26Z</time>
      </trkpt>
      <trkpt lat="-20.97486" lon="55.38968">
        <ele>1308.9</ele>
        <time>2013-06-16T06:40:32Z</time>
      </trkpt>
      <trkpt lat="-20.97494" lon="55.3897">
        <ele>1300.5</ele>
        <time>2013-06-16T06:40:56Z</time>
      </trkpt>
      <trkpt lat="-20.97495" lon="55.38969">
        <ele>1300.1</ele>
        <time>2013-06-16T06:40:57Z</time>
      </trkpt>
      <trkpt lat="-20.97508" lon="55.38974">
        <ele>1291.3</ele>
        <time>2013-06-16T06:41:25Z</time>
      </trkpt>
      <trkpt lat="-20.97512" lon="55.38966">
        <ele>1289.1</ele>
        <time>2013-06-16T06:41:40Z</time>
      </trkpt>
      <trkpt lat="-20.97515" lon="55.38975">
        <ele>1278.8</ele>
        <time>2013-06-16T06:42:24Z</time>
      </trkpt>
      <trkpt lat="-20.97515" lon="55.38975">
        <ele>1278.7</ele>
        <time>2013-06-16T06:42:25Z</time>
      </trkpt>
      <trkpt lat="-20.97524" lon="55.38991">
        <ele>1272.6</ele>
        <time>2013-06-16T06:42:55Z</time>
      </trkpt>
      <trkpt lat="-20.97533" lon="55.3899">
        <ele>1267.9</ele>
        <time>2013-06-16T06:43:18Z</time>
      </trkpt>
      <trkpt lat="-20.97536" lon="55.38983">
        <ele>1264.8</ele>
        <time>2013-06-16T06:43:25Z</time>
      </trkpt>
      <trkpt lat="-20.97537" lon="55.38981">
        <ele>1264.1</ele>
        <time>2013-06-16T06:43:26Z</time>
      </trkpt>
      <trkpt lat="-20.97551" lon="55.38974">
        <ele>1251.5</ele>
        <time>2013-06-16T06:44:27Z</time>
      </trkpt>
      <trkpt lat="-20.97551" lon="55.38973">
        <ele>1251.3</ele>
        <time>2013-06-16T06:44:28Z</time>
      </trkpt>
      <trkpt lat="-20.97558" lon="55.38966">
        <ele>1236.5</ele>
        <time>2013-06-16T06:45:34Z</time>
      </trkpt>
      <trkpt lat="-20.97573" lon="55.38962">
        <ele>1232.6</ele>
        <time>2013-06-16T06:45:50Z</time>
      </trkpt>
      <trkpt lat="-20.97575" lon="55.38953">
        <ele>1226</ele>
        <time>2013-06-16T06:46:13Z</time>
      </trkpt>
      <trkpt lat="-20.97569" lon="55.38957">
        <ele>1224.6</ele>
        <time>2013-06-16T06:46:19Z</time>
      </trkpt>
      <trkpt lat="-20.97562" lon="55.38963">
        <ele>1223.6</ele>
        <time>2013-06-16T06:46:21Z</time>
      </trkpt>
      <trkpt lat="-20.97554" lon="55.3897">
        <ele>1222</ele>
        <time>2013-06-16T06:46:24Z</time>
      </trkpt>
      <trkpt lat="-20.97549" lon="55.38978">
        <ele>1220</ele>
        <time>2013-06-16T06:46:28Z</time>
      </trkpt>
      <trkpt lat="-20.97558" lon="55.38975">
        <ele>1217.6</ele>
        <time>2013-06-16T06:46:40Z</time>
      </trkpt>
      <trkpt lat="-20.97562" lon="55.38973">
        <ele>1217</ele>
        <time>2013-06-16T06:46:41Z</time>
      </trkpt>
      <trkpt lat="-20.97571" lon="55.38969">
        <ele>1216</ele>
        <time>2013-06-16T06:46:44Z</time>
      </trkpt>
      <trkpt lat="-20.97579" lon="55.38965">
        <ele>1214.6</ele>
        <time>2013-06-16T06:46:47Z</time>
      </trkpt>
      <trkpt lat="-20.97584" lon="55.3896">
        <ele>1213.6</ele>
        <time>2013-06-16T06:46:51Z</time>
      </trkpt>
      <trkpt lat="-20.97591" lon="55.38954">
        <ele>1211.6</ele>
        <time>2013-06-16T06:46:56Z</time>
      </trkpt>
      <trkpt lat="-20.97598" lon="55.38948">
        <ele>1210.3</ele>
        <time>2013-06-16T06:47:05Z</time>
      </trkpt>
      <trkpt lat="-20.97604" lon="55.38942">
        <ele>1204.4</ele>
        <time>2013-06-16T06:47:23Z</time>
      </trkpt>
      <trkpt lat="-20.97605" lon="55.38933">
        <ele>1201.5</ele>
        <time>2013-06-16T06:47:32Z</time>
      </trkpt>
      <trkpt lat="-20.97609" lon="55.38927">
        <ele>1199.6</ele>
        <time>2013-06-16T06:47:37Z</time>
      </trkpt>
      <trkpt lat="-20.97616" lon="55.38922">
        <ele>1197.7</ele>
        <time>2013-06-16T06:47:43Z</time>
      </trkpt>
      <trkpt lat="-20.97619" lon="55.3892">
        <ele>1197</ele>
        <time>2013-06-16T06:47:44Z</time>
      </trkpt>
      <trkpt lat="-20.97623" lon="55.38933">
        <ele>1192.7</ele>
        <time>2013-06-16T06:47:56Z</time>
      </trkpt>
      <trkpt lat="-20.97616" lon="55.38942">
        <ele>1190.4</ele>
        <time>2013-06-16T06:48:02Z</time>
      </trkpt>
      <trkpt lat="-20.97611" lon="55.3895">
        <ele>1189.1</ele>
        <time>2013-06-16T06:48:08Z</time>
      </trkpt>
      <trkpt lat="-20.97603" lon="55.38955">
        <ele>1189</ele>
        <time>2013-06-16T06:48:15Z</time>
      </trkpt>
      <trkpt lat="-20.97599" lon="55.38966">
        <ele>1186</ele>
        <time>2013-06-16T06:48:27Z</time>
      </trkpt>
      <trkpt lat="-20.97601" lon="55.38977">
        <ele>1185</ele>
        <time>2013-06-16T06:48:31Z</time>
      </trkpt>
      <trkpt lat="-20.97606" lon="55.38986">
        <ele>1185.8</ele>
        <time>2013-06-16T06:48:38Z</time>
      </trkpt>
      <trkpt lat="-20.97611" lon="55.38992">
        <ele>1184.2</ele>
        <time>2013-06-16T06:48:47Z</time>
      </trkpt>
      <trkpt lat="-20.97611" lon="55.38993">
        <ele>1183.9</ele>
        <time>2013-06-16T06:48:48Z</time>
      </trkpt>
      <trkpt lat="-20.97615" lon="55.39018">
        <ele>1180</ele>
        <time>2013-06-16T06:49:00Z</time>
      </trkpt>
      <trkpt lat="-20.97612" lon="55.39028">
        <ele>1180</ele>
        <time>2013-06-16T06:49:06Z</time>
      </trkpt>
      <trkpt lat="-20.97604" lon="55.39029">
        <ele>1180.6</ele>
        <time>2013-06-16T06:49:10Z</time>
      </trkpt>
      <trkpt lat="-20.97592" lon="55.39034">
        <ele>1176</ele>
        <time>2013-06-16T06:49:19Z</time>
      </trkpt>
      <trkpt lat="-20.97586" lon="55.39048">
        <ele>1174</ele>
        <time>2013-06-16T06:49:27Z</time>
      </trkpt>
      <trkpt lat="-20.97582" lon="55.39057">
        <ele>1174</ele>
        <time>2013-06-16T06:49:31Z</time>
      </trkpt>
      <trkpt lat="-20.97576" lon="55.39064">
        <ele>1174.1</ele>
        <time>2013-06-16T06:49:38Z</time>
      </trkpt>
      <trkpt lat="-20.97576" lon="55.39073">
        <ele>1172.6</ele>
        <time>2013-06-16T06:49:44Z</time>
      </trkpt>
      <trkpt lat="-20.97579" lon="55.39084">
        <ele>1172</ele>
        <time>2013-06-16T06:49:48Z</time>
      </trkpt>
      <trkpt lat="-20.9758" lon="55.39086">
        <ele>1172.3</ele>
        <time>2013-06-16T06:49:50Z</time>
      </trkpt>
      <trkpt lat="-20.97572" lon="55.39093">
        <ele>1174</ele>
        <time>2013-06-16T06:50:04Z</time>
      </trkpt>
      <trkpt lat="-20.97562" lon="55.39092">
        <ele>1175.9</ele>
        <time>2013-06-16T06:50:10Z</time>
      </trkpt>
      <trkpt lat="-20.97555" lon="55.39092">
        <ele>1176.4</ele>
        <time>2013-06-16T06:50:14Z</time>
      </trkpt>
      <trkpt lat="-20.97547" lon="55.3909">
        <ele>1177.5</ele>
        <time>2013-06-16T06:50:18Z</time>
      </trkpt>
      <trkpt lat="-20.9754" lon="55.3909">
        <ele>1177.2</ele>
        <time>2013-06-16T06:50:24Z</time>
      </trkpt>
      <trkpt lat="-20.97532" lon="55.39092">
        <ele>1176.1</ele>
        <time>2013-06-16T06:50:29Z</time>
      </trkpt>
      <trkpt lat="-20.97524" lon="55.39093">
        <ele>1174.2</ele>
        <time>2013-06-16T06:50:44Z</time>
      </trkpt>
      <trkpt lat="-20.97518" lon="55.39099">
        <ele>1173.4</ele>
        <time>2013-06-16T06:50:53Z</time>
      </trkpt>
      <trkpt lat="-20.97517" lon="55.391">
        <ele>1173.6</ele>
        <time>2013-06-16T06:50:54Z</time>
      </trkpt>
      <trkpt lat="-20.97504" lon="55.3911">
        <ele>1172.7</ele>
        <time>2013-06-16T06:51:12Z</time>
      </trkpt>
      <trkpt lat="-20.97498" lon="55.39116">
        <ele>1173</ele>
        <time>2013-06-16T06:51:19Z</time>
      </trkpt>
      <trkpt lat="-20.97501" lon="55.39124">
        <ele>1173.3</ele>
        <time>2013-06-16T06:51:35Z</time>
      </trkpt>
      <trkpt lat="-20.97509" lon="55.39129">
        <ele>1172.2</ele>
        <time>2013-06-16T06:51:47Z</time>
      </trkpt>
      <trkpt lat="-20.97511" lon="55.39138">
        <ele>1171.4</ele>
        <time>2013-06-16T06:51:56Z</time>
      </trkpt>
      <trkpt lat="-20.9751" lon="55.39139">
        <ele>1171.1</ele>
        <time>2013-06-16T06:51:57Z</time>
      </trkpt>
      <trkpt lat="-20.975" lon="55.39153">
        <ele>1171.9</ele>
        <time>2013-06-16T06:52:06Z</time>
      </trkpt>
      <trkpt lat="-20.97495" lon="55.39159">
        <ele>1171.5</ele>
        <time>2013-06-16T06:52:09Z</time>
      </trkpt>
      <trkpt lat="-20.97488" lon="55.39162">
        <ele>1171.3</ele>
        <time>2013-06-16T06:52:12Z</time>
      </trkpt>
      <trkpt lat="-20.9748" lon="55.39165">
        <ele>1171.2</ele>
        <time>2013-06-16T06:52:16Z</time>
      </trkpt>
      <trkpt lat="-20.97478" lon="55.39174">
        <ele>1171.4</ele>
        <time>2013-06-16T06:52:23Z</time>
      </trkpt>
      <trkpt lat="-20.97477" lon="55.39182">
        <ele>1171.8</ele>
        <time>2013-06-16T06:52:39Z</time>
      </trkpt>
      <trkpt lat="-20.97473" lon="55.3919">
        <ele>1171.1</ele>
        <time>2013-06-16T06:52:43Z</time>
      </trkpt>
      <trkpt lat="-20.97466" lon="55.39194">
        <ele>1171.6</ele>
        <time>2013-06-16T06:52:49Z</time>
      </trkpt>
      <trkpt lat="-20.97462" lon="55.39201">
        <ele>1171.9</ele>
        <time>2013-06-16T06:52:58Z</time>
      </trkpt>
      <trkpt lat="-20.97461" lon="55.39203">
        <ele>1172</ele>
        <time>2013-06-16T06:52:59Z</time>
      </trkpt>
      <trkpt lat="-20.97469" lon="55.39214">
        <ele>1173.6</ele>
        <time>2013-06-16T06:53:09Z</time>
      </trkpt>
      <trkpt lat="-20.97472" lon="55.39221">
        <ele>1174.1</ele>
        <time>2013-06-16T06:53:14Z</time>
      </trkpt>
      <trkpt lat="-20.97469" lon="55.39227">
        <ele>1173.8</ele>
        <time>2013-06-16T06:53:17Z</time>
      </trkpt>
      <trkpt lat="-20.97463" lon="55.39233">
        <ele>1173.2</ele>
        <time>2013-06-16T06:53:20Z</time>
      </trkpt>
      <trkpt lat="-20.97456" lon="55.39237">
        <ele>1173.2</ele>
        <time>2013-06-16T06:53:26Z</time>
      </trkpt>
      <trkpt lat="-20.97448" lon="55.3924">
        <ele>1173.7</ele>
        <time>2013-06-16T06:53:32Z</time>
      </trkpt>
      <trkpt lat="-20.97444" lon="55.39247">
        <ele>1173.2</ele>
        <time>2013-06-16T06:53:37Z</time>
      </trkpt>
      <trkpt lat="-20.97441" lon="55.39256">
        <ele>1172.8</ele>
        <time>2013-06-16T06:53:41Z</time>
      </trkpt>
      <trkpt lat="-20.97448" lon="55.39258">
        <ele>1172.9</ele>
        <time>2013-06-16T06:53:47Z</time>
      </trkpt>
      <trkpt lat="-20.9746" lon="55.39255">
        <ele>1176</ele>
        <time>2013-06-16T06:54:08Z</time>
      </trkpt>
      <trkpt lat="-20.97461" lon="55.39255">
        <ele>1177.1</ele>
        <time>2013-06-16T06:54:10Z</time>
      </trkpt>
      <trkpt lat="-20.97457" lon="55.39273">
        <ele>1177.9</ele>
        <time>2013-06-16T06:54:23Z</time>
      </trkpt>
      <trkpt lat="-20.97452" lon="55.3928">
        <ele>1177.9</ele>
        <time>2013-06-16T06:54:28Z</time>
      </trkpt>
      <trkpt lat="-20.97449" lon="55.39293">
        <ele>1179</ele>
        <time>2013-06-16T06:54:38Z</time>
      </trkpt>
      <trkpt lat="-20.97441" lon="55.393">
        <ele>1178.5</ele>
        <time>2013-06-16T06:54:44Z</time>
      </trkpt>
      <trkpt lat="-20.97438" lon="55.39307">
        <ele>1179.3</ele>
        <time>2013-06-16T06:54:49Z</time>
      </trkpt>
      <trkpt lat="-20.97446" lon="55.39305">
        <ele>1181.3</ele>
        <time>2013-06-16T06:55:05Z</time>
      </trkpt>
      <trkpt lat="-20.9744" lon="55.39311">
        <ele>1182.1</ele>
        <time>2013-06-16T06:55:18Z</time>
      </trkpt>
      <trkpt lat="-20.9744" lon="55.39313">
        <ele>1182.2</ele>
        <time>2013-06-16T06:55:19Z</time>
      </trkpt>
      <trkpt lat="-20.97434" lon="55.39327">
        <ele>1182.2</ele>
        <time>2013-06-16T06:55:27Z</time>
      </trkpt>
      <trkpt lat="-20.97431" lon="55.39334">
        <ele>1182.3</ele>
        <time>2013-06-16T06:55:31Z</time>
      </trkpt>
      <trkpt lat="-20.97431" lon="55.39343">
        <ele>1182.3</ele>
        <time>2013-06-16T06:55:47Z</time>
      </trkpt>
      <trkpt lat="-20.97429" lon="55.39352">
        <ele>1181.8</ele>
        <time>2013-06-16T06:55:54Z</time>
      </trkpt>
      <trkpt lat="-20.97434" lon="55.39359">
        <ele>1181.4</ele>
        <time>2013-06-16T06:56:03Z</time>
      </trkpt>
      <trkpt lat="-20.97438" lon="55.39366">
        <ele>1180.3</ele>
        <time>2013-06-16T06:56:10Z</time>
      </trkpt>
      <trkpt lat="-20.97442" lon="55.39375">
        <ele>1180.1</ele>
        <time>2013-06-16T06:56:17Z</time>
      </trkpt>
      <trkpt lat="-20.97439" lon="55.39384">
        <ele>1179.7</ele>
        <time>2013-06-16T06:56:22Z</time>
      </trkpt>
      <trkpt lat="-20.97438" lon="55.39385">
        <ele>1179.7</ele>
        <time>2013-06-16T06:56:23Z</time>
      </trkpt>
      <trkpt lat="-20.9743" lon="55.39396">
        <ele>1179.4</ele>
        <time>2013-06-16T06:56:35Z</time>
      </trkpt>
      <trkpt lat="-20.97428" lon="55.39405">
        <ele>1180</ele>
        <time>2013-06-16T06:56:40Z</time>
      </trkpt>
      <trkpt lat="-20.97435" lon="55.39408">
        <ele>1180.6</ele>
        <time>2013-06-16T06:56:49Z</time>
      </trkpt>
      <trkpt lat="-20.97442" lon="55.39414">
        <ele>1180.5</ele>
        <time>2013-06-16T06:56:54Z</time>
      </trkpt>
      <trkpt lat="-20.97442" lon="55.39423">
        <ele>1180.1</ele>
        <time>2013-06-16T06:56:58Z</time>
      </trkpt>
      <trkpt lat="-20.97439" lon="55.39432">
        <ele>1179.5</ele>
        <time>2013-06-16T06:57:03Z</time>
      </trkpt>
      <trkpt lat="-20.97436" lon="55.3944">
        <ele>1179.2</ele>
        <time>2013-06-16T06:57:07Z</time>
      </trkpt>
      <trkpt lat="-20.97433" lon="55.39449">
        <ele>1178.5</ele>
        <time>2013-06-16T06:57:11Z</time>
      </trkpt>
      <trkpt lat="-20.97425" lon="55.39458">
        <ele>1177</ele>
        <time>2013-06-16T06:57:15Z</time>
      </trkpt>
      <trkpt lat="-20.97422" lon="55.39466">
        <ele>1177.2</ele>
        <time>2013-06-16T06:57:20Z</time>
      </trkpt>
      <trkpt lat="-20.97422" lon="55.39476">
        <ele>1177</ele>
        <time>2013-06-16T06:57:27Z</time>
      </trkpt>
      <trkpt lat="-20.9742" lon="55.39476">
        <ele>1176.7</ele>
        <time>2013-06-16T06:57:28Z</time>
      </trkpt>
      <trkpt lat="-20.97416" lon="55.39497">
        <ele>1176.7</ele>
        <time>2013-06-16T06:57:44Z</time>
      </trkpt>
      <trkpt lat="-20.97413" lon="55.39505">
        <ele>1176</ele>
        <time>2013-06-16T06:57:47Z</time>
      </trkpt>
      <trkpt lat="-20.97417" lon="55.39513">
        <ele>1175.4</ele>
        <time>2013-06-16T06:57:54Z</time>
      </trkpt>
      <trkpt lat="-20.97421" lon="55.3952">
        <ele>1174.1</ele>
        <time>2013-06-16T06:58:01Z</time>
      </trkpt>
      <trkpt lat="-20.97419" lon="55.39529">
        <ele>1174.4</ele>
        <time>2013-06-16T06:58:06Z</time>
      </trkpt>
      <trkpt lat="-20.97415" lon="55.39537">
        <ele>1173.4</ele>
        <time>2013-06-16T06:58:10Z</time>
      </trkpt>
      <trkpt lat="-20.97423" lon="55.3954">
        <ele>1173.5</ele>
        <time>2013-06-16T06:58:16Z</time>
      </trkpt>
      <trkpt lat="-20.97431" lon="55.3954">
        <ele>1173.4</ele>
        <time>2013-06-16T06:58:19Z</time>
      </trkpt>
      <trkpt lat="-20.97434" lon="55.39549">
        <ele>1173.2</ele>
        <time>2013-06-16T06:58:28Z</time>
      </trkpt>
      <trkpt lat="-20.97433" lon="55.39551">
        <ele>1173.2</ele>
        <time>2013-06-16T06:58:29Z</time>
      </trkpt>
      <trkpt lat="-20.97428" lon="55.39567">
        <ele>1172.6</ele>
        <time>2013-06-16T06:58:40Z</time>
      </trkpt>
      <trkpt lat="-20.97422" lon="55.39573">
        <ele>1172.5</ele>
        <time>2013-06-16T06:58:44Z</time>
      </trkpt>
      <trkpt lat="-20.9742" lon="55.39582">
        <ele>1171.8</ele>
        <time>2013-06-16T06:58:47Z</time>
      </trkpt>
      <trkpt lat="-20.9742" lon="55.39591">
        <ele>1170.6</ele>
        <time>2013-06-16T06:58:50Z</time>
      </trkpt>
      <trkpt lat="-20.97418" lon="55.396">
        <ele>1170.7</ele>
        <time>2013-06-16T06:58:56Z</time>
      </trkpt>
      <trkpt lat="-20.97417" lon="55.39609">
        <ele>1170.4</ele>
        <time>2013-06-16T06:59:01Z</time>
      </trkpt>
      <trkpt lat="-20.97421" lon="55.39616">
        <ele>1170.3</ele>
        <time>2013-06-16T06:59:05Z</time>
      </trkpt>
      <trkpt lat="-20.97421" lon="55.39625">
        <ele>1169.7</ele>
        <time>2013-06-16T06:59:08Z</time>
      </trkpt>
      <trkpt lat="-20.97424" lon="55.39633">
        <ele>1169.2</ele>
        <time>2013-06-16T06:59:15Z</time>
      </trkpt>
      <trkpt lat="-20.97423" lon="55.39643">
        <ele>1169</ele>
        <time>2013-06-16T06:59:20Z</time>
      </trkpt>
      <trkpt lat="-20.97424" lon="55.39652">
        <ele>1169.4</ele>
        <time>2013-06-16T06:59:27Z</time>
      </trkpt>
      <trkpt lat="-20.97426" lon="55.39661">
        <ele>1169.4</ele>
        <time>2013-06-16T06:59:33Z</time>
      </trkpt>
      <trkpt lat="-20.97425" lon="55.39664">
        <ele>1168.8</ele>
        <time>2013-06-16T06:59:34Z</time>
      </trkpt>
      <trkpt lat="-20.9742" lon="55.39676">
        <ele>1167.1</ele>
        <time>2013-06-16T06:59:40Z</time>
      </trkpt>
      <trkpt lat="-20.97417" lon="55.39682">
        <ele>1167.2</ele>
        <time>2013-06-16T06:59:43Z</time>
      </trkpt>
      <trkpt lat="-20.97412" lon="55.3969">
        <ele>1166.9</ele>
        <time>2013-06-16T06:59:46Z</time>
      </trkpt>
      <trkpt lat="-20.97415" lon="55.397">
        <ele>1166</ele>
        <time>2013-06-16T06:59:57Z</time>
      </trkpt>
      <trkpt lat="-20.97423" lon="55.39705">
        <ele>1165.9</ele>
        <time>2013-06-16T07:00:04Z</time>
      </trkpt>
      <trkpt lat="-20.97422" lon="55.39714">
        <ele>1164.7</ele>
        <time>2013-06-16T07:00:13Z</time>
      </trkpt>
      <trkpt lat="-20.97419" lon="55.39726">
        <ele>1166</ele>
        <time>2013-06-16T07:00:25Z</time>
      </trkpt>
      <trkpt lat="-20.97418" lon="55.39737">
        <ele>1166.5</ele>
        <time>2013-06-16T07:00:31Z</time>
      </trkpt>
      <trkpt lat="-20.97418" lon="55.39746">
        <ele>1166.3</ele>
        <time>2013-06-16T07:00:35Z</time>
      </trkpt>
      <trkpt lat="-20.97417" lon="55.39748">
        <ele>1166.6</ele>
        <time>2013-06-16T07:00:36Z</time>
      </trkpt>
      <trkpt lat="-20.9742" lon="55.39764">
        <ele>1164.6</ele>
        <time>2013-06-16T07:00:58Z</time>
      </trkpt>
      <trkpt lat="-20.97425" lon="55.39758">
        <ele>1164.1</ele>
        <time>2013-06-16T07:01:15Z</time>
      </trkpt>
      <trkpt lat="-20.97432" lon="55.39752">
        <ele>1164.2</ele>
        <time>2013-06-16T07:01:17Z</time>
      </trkpt>
      <trkpt lat="-20.97436" lon="55.39749">
        <ele>1164.2</ele>
        <time>2013-06-16T07:01:18Z</time>
      </trkpt>
      <trkpt lat="-20.9744" lon="55.39746">
        <ele>1164.4</ele>
        <time>2013-06-16T07:01:19Z</time>
      </trkpt>
      <trkpt lat="-20.97443" lon="55.39743">
        <ele>1164.5</ele>
        <time>2013-06-16T07:01:20Z</time>
      </trkpt>
      <trkpt lat="-20.97456" lon="55.3973">
        <ele>1164</ele>
        <time>2013-06-16T07:01:23Z</time>
      </trkpt>
      <trkpt lat="-20.97471" lon="55.39716">
        <ele>1164</ele>
        <time>2013-06-16T07:01:27Z</time>
      </trkpt>
      <trkpt lat="-20.97481" lon="55.39711">
        <ele>1163</ele>
        <time>2013-06-16T07:01:31Z</time>
      </trkpt>
      <trkpt lat="-20.97499" lon="55.39707">
        <ele>1164.2</ele>
        <time>2013-06-16T07:01:46Z</time>
      </trkpt>
      <trkpt lat="-20.97496" lon="55.39713">
        <ele>1164</ele>
        <time>2013-06-16T07:01:48Z</time>
      </trkpt>
      <trkpt lat="-20.97492" lon="55.3972">
        <ele>1163.9</ele>
        <time>2013-06-16T07:01:49Z</time>
      </trkpt>
      <trkpt lat="-20.97488" lon="55.39727">
        <ele>1164</ele>
        <time>2013-06-16T07:01:50Z</time>
      </trkpt>
      <trkpt lat="-20.97483" lon="55.39735">
        <ele>1164</ele>
        <time>2013-06-16T07:01:51Z</time>
      </trkpt>
      <trkpt lat="-20.97479" lon="55.39741">
        <ele>1163.8</ele>
        <time>2013-06-16T07:01:52Z</time>
      </trkpt>
      <trkpt lat="-20.97475" lon="55.39747">
        <ele>1163.6</ele>
        <time>2013-06-16T07:01:53Z</time>
      </trkpt>
      <trkpt lat="-20.97472" lon="55.39752">
        <ele>1163.8</ele>
        <time>2013-06-16T07:01:54Z</time>
      </trkpt>
      <trkpt lat="-20.9747" lon="55.39757">
        <ele>1163.9</ele>
        <time>2013-06-16T07:01:55Z</time>
      </trkpt>
      <trkpt lat="-20.97467" lon="55.39761">
        <ele>1164</ele>
        <time>2013-06-16T07:01:56Z</time>
      </trkpt>
      <trkpt lat="-20.97462" lon="55.39768">
        <ele>1164.3</ele>
        <time>2013-06-16T07:01:58Z</time>
      </trkpt>
      <trkpt lat="-20.97459" lon="55.39783">
        <ele>1163</ele>
        <time>2013-06-16T07:02:03Z</time>
      </trkpt>
      <trkpt lat="-20.97475" lon="55.39786">
        <ele>1163</ele>
        <time>2013-06-16T07:02:11Z</time>
      </trkpt>
      <trkpt lat="-20.97494" lon="55.39768">
        <ele>1163</ele>
        <time>2013-06-16T07:02:15Z</time>
      </trkpt>
      <trkpt lat="-20.97503" lon="55.39764">
        <ele>1163</ele>
        <time>2013-06-16T07:02:21Z</time>
      </trkpt>
      <trkpt lat="-20.97449" lon="55.39848">
        <ele>1163.4</ele>
        <time>2013-06-16T07:02:31Z</time>
      </trkpt>
      <trkpt lat="-20.97476" lon="55.3982">
        <ele>1163.3</ele>
        <time>2013-06-16T07:02:33Z</time>
      </trkpt>
      <trkpt lat="-20.97471" lon="55.39824">
        <ele>1163.2</ele>
        <time>2013-06-16T07:02:34Z</time>
      </trkpt>
      <trkpt lat="-20.97467" lon="55.39829">
        <ele>1162.9</ele>
        <time>2013-06-16T07:02:35Z</time>
      </trkpt>
      <trkpt lat="-20.97466" lon="55.39834">
        <ele>1162.6</ele>
        <time>2013-06-16T07:02:37Z</time>
      </trkpt>
      <trkpt lat="-20.97465" lon="55.39843">
        <ele>1162</ele>
        <time>2013-06-16T07:02:41Z</time>
      </trkpt>
      <trkpt lat="-20.97464" lon="55.39852">
        <ele>1161.9</ele>
        <time>2013-06-16T07:02:47Z</time>
      </trkpt>
      <trkpt lat="-20.97467" lon="55.39861">
        <ele>1160.6</ele>
        <time>2013-06-16T07:02:53Z</time>
      </trkpt>
      <trkpt lat="-20.97467" lon="55.39862">
        <ele>1160.8</ele>
        <time>2013-06-16T07:02:54Z</time>
      </trkpt>
      <trkpt lat="-20.97475" lon="55.39876">
        <ele>1161.1</ele>
        <time>2013-06-16T07:03:07Z</time>
      </trkpt>
      <trkpt lat="-20.97481" lon="55.39882">
        <ele>1160.6</ele>
        <time>2013-06-16T07:03:12Z</time>
      </trkpt>
      <trkpt lat="-20.97488" lon="55.39888">
        <ele>1159.9</ele>
        <time>2013-06-16T07:03:19Z</time>
      </trkpt>
      <trkpt lat="-20.97495" lon="55.39892">
        <ele>1158.8</ele>
        <time>2013-06-16T07:03:24Z</time>
      </trkpt>
      <trkpt lat="-20.97503" lon="55.39892">
        <ele>1159.1</ele>
        <time>2013-06-16T07:03:28Z</time>
      </trkpt>
      <trkpt lat="-20.97512" lon="55.39891">
        <ele>1158.6</ele>
        <time>2013-06-16T07:03:33Z</time>
      </trkpt>
      <trkpt lat="-20.97519" lon="55.39896">
        <ele>1158.5</ele>
        <time>2013-06-16T07:03:39Z</time>
      </trkpt>
      <trkpt lat="-20.97528" lon="55.39894">
        <ele>1158.6</ele>
        <time>2013-06-16T07:03:42Z</time>
      </trkpt>
      <trkpt lat="-20.97534" lon="55.39894">
        <ele>1158.3</ele>
        <time>2013-06-16T07:03:45Z</time>
      </trkpt>
      <trkpt lat="-20.97543" lon="55.39893">
        <ele>1158.1</ele>
        <time>2013-06-16T07:03:48Z</time>
      </trkpt>
      <trkpt lat="-20.97547" lon="55.39905">
        <ele>1157</ele>
        <time>2013-06-16T07:03:59Z</time>
      </trkpt>
      <trkpt lat="-20.97547" lon="55.39907">
        <ele>1157.6</ele>
        <time>2013-06-16T07:04:01Z</time>
      </trkpt>
      <trkpt lat="-20.97551" lon="55.39925">
        <ele>1156</ele>
        <time>2013-06-16T07:04:15Z</time>
      </trkpt>
      <trkpt lat="-20.97562" lon="55.3993">
        <ele>1156</ele>
        <time>2013-06-16T07:04:27Z</time>
      </trkpt>
      <trkpt lat="-20.97576" lon="55.39926">
        <ele>1155</ele>
        <time>2013-06-16T07:04:35Z</time>
      </trkpt>
      <trkpt lat="-20.97576" lon="55.3994">
        <ele>1154</ele>
        <time>2013-06-16T07:04:43Z</time>
      </trkpt>
      <trkpt lat="-20.97582" lon="55.39951">
        <ele>1154</ele>
        <time>2013-06-16T07:04:51Z</time>
      </trkpt>
      <trkpt lat="-20.97593" lon="55.39951">
        <ele>1153</ele>
        <time>2013-06-16T07:04:59Z</time>
      </trkpt>
      <trkpt lat="-20.976" lon="55.39959">
        <ele>1152</ele>
        <time>2013-06-16T07:05:07Z</time>
      </trkpt>
      <trkpt lat="-20.97602" lon="55.3996">
        <ele>1152.8</ele>
        <time>2013-06-16T07:05:09Z</time>
      </trkpt>
      <trkpt lat="-20.97619" lon="55.39968">
        <ele>1152</ele>
        <time>2013-06-16T07:05:23Z</time>
      </trkpt>
      <trkpt lat="-20.97626" lon="55.39976">
        <ele>1151</ele>
        <time>2013-06-16T07:05:31Z</time>
      </trkpt>
      <trkpt lat="-20.97632" lon="55.39984">
        <ele>1151</ele>
        <time>2013-06-16T07:05:41Z</time>
      </trkpt>
      <trkpt lat="-20.97645" lon="55.39977">
        <ele>1151</ele>
        <time>2013-06-16T07:05:47Z</time>
      </trkpt>
      <trkpt lat="-20.97658" lon="55.39967">
        <ele>1151</ele>
        <time>2013-06-16T07:05:51Z</time>
      </trkpt>
      <trkpt lat="-20.97668" lon="55.39962">
        <ele>1151</ele>
        <time>2013-06-16T07:05:55Z</time>
      </trkpt>
      <trkpt lat="-20.97674" lon="55.39971">
        <ele>1151</ele>
        <time>2013-06-16T07:06:07Z</time>
      </trkpt>
      <trkpt lat="-20.97672" lon="55.39983">
        <ele>1151</ele>
        <time>2013-06-16T07:06:15Z</time>
      </trkpt>
      <trkpt lat="-20.97674" lon="55.39982">
        <ele>1151.2</ele>
        <time>2013-06-16T07:06:18Z</time>
      </trkpt>
      <trkpt lat="-20.9779" lon="55.3987">
        <ele>1152</ele>
        <time>2013-06-16T07:06:40Z</time>
      </trkpt>
      <trkpt lat="-20.97877" lon="55.39969">
        <ele>1139</ele>
        <time>2013-06-16T07:12:27Z</time>
      </trkpt>
      <trkpt lat="-20.97874" lon="55.39958">
        <ele>1135.2</ele>
        <time>2013-06-16T07:12:34Z</time>
      </trkpt>
      <trkpt lat="-20.97898" lon="55.39929">
        <ele>1127</ele>
        <time>2013-06-16T07:12:59Z</time>
      </trkpt>
      <trkpt lat="-20.97899" lon="55.39902">
        <ele>1122</ele>
        <time>2013-06-16T07:13:16Z</time>
      </trkpt>
      <trkpt lat="-20.97904" lon="55.39881">
        <ele>1117</ele>
        <time>2013-06-16T07:13:32Z</time>
      </trkpt>
      <trkpt lat="-20.97908" lon="55.39876">
        <ele>1116.8</ele>
        <time>2013-06-16T07:13:39Z</time>
      </trkpt>
      <trkpt lat="-20.97938" lon="55.39839">
        <ele>1111</ele>
        <time>2013-06-16T07:14:05Z</time>
      </trkpt>
      <trkpt lat="-20.97936" lon="55.39803">
        <ele>1108</ele>
        <time>2013-06-16T07:14:21Z</time>
      </trkpt>
      <trkpt lat="-20.97931" lon="55.39783">
        <ele>1106</ele>
        <time>2013-06-16T07:14:30Z</time>
      </trkpt>
      <trkpt lat="-20.97929" lon="55.39773">
        <ele>1106</ele>
        <time>2013-06-16T07:14:34Z</time>
      </trkpt>
      <trkpt lat="-20.97924" lon="55.39756">
        <ele>1105</ele>
        <time>2013-06-16T07:14:42Z</time>
      </trkpt>
      <trkpt lat="-20.97924" lon="55.39754">
        <ele>1105.8</ele>
        <time>2013-06-16T07:14:43Z</time>
      </trkpt>
      <trkpt lat="-20.97917" lon="55.39731">
        <ele>1104</ele>
        <time>2013-06-16T07:14:54Z</time>
      </trkpt>
      <trkpt lat="-20.9791" lon="55.39719">
        <ele>1104</ele>
        <time>2013-06-16T07:15:02Z</time>
      </trkpt>
      <trkpt lat="-20.97907" lon="55.39704">
        <ele>1104</ele>
        <time>2013-06-16T07:15:10Z</time>
      </trkpt>
      <trkpt lat="-20.97902" lon="55.39692">
        <ele>1104</ele>
        <time>2013-06-16T07:15:18Z</time>
      </trkpt>
      <trkpt lat="-20.97892" lon="55.39679">
        <ele>1103</ele>
        <time>2013-06-16T07:15:26Z</time>
      </trkpt>
      <trkpt lat="-20.97883" lon="55.39678">
        <ele>1103.5</ele>
        <time>2013-06-16T07:15:31Z</time>
      </trkpt>
      <trkpt lat="-20.97874" lon="55.39677">
        <ele>1103.5</ele>
        <time>2013-06-16T07:15:36Z</time>
      </trkpt>
      <trkpt lat="-20.97867" lon="55.39672">
        <ele>1103.9</ele>
        <time>2013-06-16T07:15:42Z</time>
      </trkpt>
      <trkpt lat="-20.97862" lon="55.39664">
        <ele>1103</ele>
        <time>2013-06-16T07:15:48Z</time>
      </trkpt>
      <trkpt lat="-20.97861" lon="55.39663">
        <ele>1102.8</ele>
        <time>2013-06-16T07:15:49Z</time>
      </trkpt>
      <trkpt lat="-20.97859" lon="55.39647">
        <ele>1102.2</ele>
        <time>2013-06-16T07:16:00Z</time>
      </trkpt>
      <trkpt lat="-20.97861" lon="55.39639">
        <ele>1101.7</ele>
        <time>2013-06-16T07:16:04Z</time>
      </trkpt>
      <trkpt lat="-20.97861" lon="55.3963">
        <ele>1101.4</ele>
        <time>2013-06-16T07:16:09Z</time>
      </trkpt>
      <trkpt lat="-20.97863" lon="55.3962">
        <ele>1101.3</ele>
        <time>2013-06-16T07:16:14Z</time>
      </trkpt>
      <trkpt lat="-20.97865" lon="55.39611">
        <ele>1100</ele>
        <time>2013-06-16T07:16:20Z</time>
      </trkpt>
      <trkpt lat="-20.97863" lon="55.39602">
        <ele>1100.4</ele>
        <time>2013-06-16T07:16:26Z</time>
      </trkpt>
      <trkpt lat="-20.97863" lon="55.39593">
        <ele>1100.3</ele>
        <time>2013-06-16T07:16:33Z</time>
      </trkpt>
      <trkpt lat="-20.97866" lon="55.39585">
        <ele>1098.8</ele>
        <time>2013-06-16T07:16:39Z</time>
      </trkpt>
      <trkpt lat="-20.97873" lon="55.39578">
        <ele>1099.4</ele>
        <time>2013-06-16T07:16:45Z</time>
      </trkpt>
      <trkpt lat="-20.97878" lon="55.39572">
        <ele>1099.7</ele>
        <time>2013-06-16T07:16:50Z</time>
      </trkpt>
      <trkpt lat="-20.97879" lon="55.3957">
        <ele>1100.1</ele>
        <time>2013-06-16T07:16:51Z</time>
      </trkpt>
      <trkpt lat="-20.97891" lon="55.39559">
        <ele>1099.6</ele>
        <time>2013-06-16T07:17:01Z</time>
      </trkpt>
      <trkpt lat="-20.97899" lon="55.39556">
        <ele>1099.4</ele>
        <time>2013-06-16T07:17:05Z</time>
      </trkpt>
      <trkpt lat="-20.97907" lon="55.39556">
        <ele>1099</ele>
        <time>2013-06-16T07:17:11Z</time>
      </trkpt>
      <trkpt lat="-20.97916" lon="55.39555">
        <ele>1098.9</ele>
        <time>2013-06-16T07:17:16Z</time>
      </trkpt>
      <trkpt lat="-20.97924" lon="55.39552">
        <ele>1098.1</ele>
        <time>2013-06-16T07:17:21Z</time>
      </trkpt>
      <trkpt lat="-20.97931" lon="55.39549">
        <ele>1097.5</ele>
        <time>2013-06-16T07:17:26Z</time>
      </trkpt>
      <trkpt lat="-20.97937" lon="55.39545">
        <ele>1096.7</ele>
        <time>2013-06-16T07:17:30Z</time>
      </trkpt>
      <trkpt lat="-20.97944" lon="55.39542">
        <ele>1095.9</ele>
        <time>2013-06-16T07:17:34Z</time>
      </trkpt>
      <trkpt lat="-20.97951" lon="55.39539">
        <ele>1096.2</ele>
        <time>2013-06-16T07:17:38Z</time>
      </trkpt>
      <trkpt lat="-20.97959" lon="55.39538">
        <ele>1094.9</ele>
        <time>2013-06-16T07:17:43Z</time>
      </trkpt>
      <trkpt lat="-20.97967" lon="55.39538">
        <ele>1095.6</ele>
        <time>2013-06-16T07:17:47Z</time>
      </trkpt>
      <trkpt lat="-20.97975" lon="55.39538">
        <ele>1094.5</ele>
        <time>2013-06-16T07:17:52Z</time>
      </trkpt>
      <trkpt lat="-20.97976" lon="55.39537">
        <ele>1094.6</ele>
        <time>2013-06-16T07:17:53Z</time>
      </trkpt>
      <trkpt lat="-20.97987" lon="55.3953">
        <ele>1095.8</ele>
        <time>2013-06-16T07:18:00Z</time>
      </trkpt>
      <trkpt lat="-20.97994" lon="55.39526">
        <ele>1096</ele>
        <time>2013-06-16T07:18:04Z</time>
      </trkpt>
      <trkpt lat="-20.98001" lon="55.39523">
        <ele>1096.2</ele>
        <time>2013-06-16T07:18:09Z</time>
      </trkpt>
      <trkpt lat="-20.98009" lon="55.39519">
        <ele>1097.1</ele>
        <time>2013-06-16T07:18:14Z</time>
      </trkpt>
      <trkpt lat="-20.98017" lon="55.39514">
        <ele>1097.6</ele>
        <time>2013-06-16T07:18:19Z</time>
      </trkpt>
      <trkpt lat="-20.98024" lon="55.39511">
        <ele>1097.9</ele>
        <time>2013-06-16T07:18:24Z</time>
      </trkpt>
      <trkpt lat="-20.98031" lon="55.39508">
        <ele>1099</ele>
        <time>2013-06-16T07:18:29Z</time>
      </trkpt>
      <trkpt lat="-20.98038" lon="55.39503">
        <ele>1099.3</ele>
        <time>2013-06-16T07:18:35Z</time>
      </trkpt>
      <trkpt lat="-20.98046" lon="55.39499">
        <ele>1099.3</ele>
        <time>2013-06-16T07:18:41Z</time>
      </trkpt>
      <trkpt lat="-20.98054" lon="55.39497">
        <ele>1100.6</ele>
        <time>2013-06-16T07:18:47Z</time>
      </trkpt>
      <trkpt lat="-20.98061" lon="55.39492">
        <ele>1100.5</ele>
        <time>2013-06-16T07:18:52Z</time>
      </trkpt>
      <trkpt lat="-20.98068" lon="55.39488">
        <ele>1100.6</ele>
        <time>2013-06-16T07:18:57Z</time>
      </trkpt>
      <trkpt lat="-20.98069" lon="55.39487">
        <ele>1100.7</ele>
        <time>2013-06-16T07:18:58Z</time>
      </trkpt>
      <trkpt lat="-20.98083" lon="55.39477">
        <ele>1099.4</ele>
        <time>2013-06-16T07:19:09Z</time>
      </trkpt>
      <trkpt lat="-20.98089" lon="55.39472">
        <ele>1099.4</ele>
        <time>2013-06-16T07:19:14Z</time>
      </trkpt>
      <trkpt lat="-20.98096" lon="55.39467">
        <ele>1099.6</ele>
        <time>2013-06-16T07:19:19Z</time>
      </trkpt>
      <trkpt lat="-20.98103" lon="55.39463">
        <ele>1098.9</ele>
        <time>2013-06-16T07:19:24Z</time>
      </trkpt>
      <trkpt lat="-20.9811" lon="55.39458">
        <ele>1098.8</ele>
        <time>2013-06-16T07:19:29Z</time>
      </trkpt>
      <trkpt lat="-20.98118" lon="55.39454">
        <ele>1098.8</ele>
        <time>2013-06-16T07:19:34Z</time>
      </trkpt>
      <trkpt lat="-20.98126" lon="55.39451">
        <ele>1098.5</ele>
        <time>2013-06-16T07:19:39Z</time>
      </trkpt>
      <trkpt lat="-20.98135" lon="55.39449">
        <ele>1097.5</ele>
        <time>2013-06-16T07:19:45Z</time>
      </trkpt>
      <trkpt lat="-20.98143" lon="55.39446">
        <ele>1096.8</ele>
        <time>2013-06-16T07:19:50Z</time>
      </trkpt>
      <trkpt lat="-20.98151" lon="55.39446">
        <ele>1096.2</ele>
        <time>2013-06-16T07:19:55Z</time>
      </trkpt>
      <trkpt lat="-20.98159" lon="55.39449">
        <ele>1096.3</ele>
        <time>2013-06-16T07:20:00Z</time>
      </trkpt>
      <trkpt lat="-20.98161" lon="55.3945">
        <ele>1096.2</ele>
        <time>2013-06-16T07:20:01Z</time>
      </trkpt>
      <trkpt lat="-20.98174" lon="55.39453">
        <ele>1096.6</ele>
        <time>2013-06-16T07:20:10Z</time>
      </trkpt>
      <trkpt lat="-20.98183" lon="55.39451">
        <ele>1096.6</ele>
        <time>2013-06-16T07:20:15Z</time>
      </trkpt>
      <trkpt lat="-20.98189" lon="55.39449">
        <ele>1096.8</ele>
        <time>2013-06-16T07:20:20Z</time>
      </trkpt>
      <trkpt lat="-20.98196" lon="55.39447">
        <ele>1097.4</ele>
        <time>2013-06-16T07:20:24Z</time>
      </trkpt>
      <trkpt lat="-20.98204" lon="55.39444">
        <ele>1096.7</ele>
        <time>2013-06-16T07:20:29Z</time>
      </trkpt>
      <trkpt lat="-20.98211" lon="55.3944">
        <ele>1096.9</ele>
        <time>2013-06-16T07:20:35Z</time>
      </trkpt>
      <trkpt lat="-20.98217" lon="55.39436">
        <ele>1096.9</ele>
        <time>2013-06-16T07:20:39Z</time>
      </trkpt>
      <trkpt lat="-20.98223" lon="55.3943">
        <ele>1096.6</ele>
        <time>2013-06-16T07:20:44Z</time>
      </trkpt>
      <trkpt lat="-20.98229" lon="55.39424">
        <ele>1096.7</ele>
        <time>2013-06-16T07:20:48Z</time>
      </trkpt>
      <trkpt lat="-20.98234" lon="55.39418">
        <ele>1096.9</ele>
        <time>2013-06-16T07:20:52Z</time>
      </trkpt>
      <trkpt lat="-20.98239" lon="55.39412">
        <ele>1097.1</ele>
        <time>2013-06-16T07:20:57Z</time>
      </trkpt>
      <trkpt lat="-20.98245" lon="55.39405">
        <ele>1097.4</ele>
        <time>2013-06-16T07:21:02Z</time>
      </trkpt>
      <trkpt lat="-20.98246" lon="55.39403">
        <ele>1097.4</ele>
        <time>2013-06-16T07:21:03Z</time>
      </trkpt>
      <trkpt lat="-20.98257" lon="55.39392">
        <ele>1097.2</ele>
        <time>2013-06-16T07:21:12Z</time>
      </trkpt>
      <trkpt lat="-20.98263" lon="55.39386">
        <ele>1097.6</ele>
        <time>2013-06-16T07:21:17Z</time>
      </trkpt>
      <trkpt lat="-20.98269" lon="55.3938">
        <ele>1097.6</ele>
        <time>2013-06-16T07:21:22Z</time>
      </trkpt>
      <trkpt lat="-20.98275" lon="55.39374">
        <ele>1097.2</ele>
        <time>2013-06-16T07:21:27Z</time>
      </trkpt>
      <trkpt lat="-20.98282" lon="55.39369">
        <ele>1098.2</ele>
        <time>2013-06-16T07:21:33Z</time>
      </trkpt>
      <trkpt lat="-20.98288" lon="55.39364">
        <ele>1097.8</ele>
        <time>2013-06-16T07:21:37Z</time>
      </trkpt>
      <trkpt lat="-20.98294" lon="55.39358">
        <ele>1098.1</ele>
        <time>2013-06-16T07:21:42Z</time>
      </trkpt>
      <trkpt lat="-20.98301" lon="55.39353">
        <ele>1097.9</ele>
        <time>2013-06-16T07:21:47Z</time>
      </trkpt>
      <trkpt lat="-20.98307" lon="55.39347">
        <ele>1098.7</ele>
        <time>2013-06-16T07:21:52Z</time>
      </trkpt>
      <trkpt lat="-20.98314" lon="55.39341">
        <ele>1098.7</ele>
        <time>2013-06-16T07:21:57Z</time>
      </trkpt>
      <trkpt lat="-20.9832" lon="55.39335">
        <ele>1098.7</ele>
        <time>2013-06-16T07:22:02Z</time>
      </trkpt>
      <trkpt lat="-20.98327" lon="55.3933">
        <ele>1099.2</ele>
        <time>2013-06-16T07:22:07Z</time>
      </trkpt>
      <trkpt lat="-20.98328" lon="55.39329">
        <ele>1099.2</ele>
        <time>2013-06-16T07:22:08Z</time>
      </trkpt>
      <trkpt lat="-20.98339" lon="55.3932">
        <ele>1099.9</ele>
        <time>2013-06-16T07:22:17Z</time>
      </trkpt>
      <trkpt lat="-20.98345" lon="55.39315">
        <ele>1099.9</ele>
        <time>2013-06-16T07:22:23Z</time>
      </trkpt>
      <trkpt lat="-20.98352" lon="55.3931">
        <ele>1099.8</ele>
        <time>2013-06-16T07:22:29Z</time>
      </trkpt>
      <trkpt lat="-20.98359" lon="55.39304">
        <ele>1100.6</ele>
        <time>2013-06-16T07:22:35Z</time>
      </trkpt>
      <trkpt lat="-20.98365" lon="55.39298">
        <ele>1100.6</ele>
        <time>2013-06-16T07:22:40Z</time>
      </trkpt>
      <trkpt lat="-20.98372" lon="55.39292">
        <ele>1099.8</ele>
        <time>2013-06-16T07:22:46Z</time>
      </trkpt>
      <trkpt lat="-20.98378" lon="55.39286">
        <ele>1099.5</ele>
        <time>2013-06-16T07:22:52Z</time>
      </trkpt>
      <trkpt lat="-20.98384" lon="55.39279">
        <ele>1099.9</ele>
        <time>2013-06-16T07:22:57Z</time>
      </trkpt>
      <trkpt lat="-20.9839" lon="55.39275">
        <ele>1101.1</ele>
        <time>2013-06-16T07:23:01Z</time>
      </trkpt>
      <trkpt lat="-20.98398" lon="55.39279">
        <ele>1100.6</ele>
        <time>2013-06-16T07:23:08Z</time>
      </trkpt>
      <trkpt lat="-20.98399" lon="55.3928">
        <ele>1100.8</ele>
        <time>2013-06-16T07:23:09Z</time>
      </trkpt>
      <trkpt lat="-20.98408" lon="55.39293">
        <ele>1101</ele>
        <time>2013-06-16T07:23:20Z</time>
      </trkpt>
      <trkpt lat="-20.98411" lon="55.39301">
        <ele>1101.3</ele>
        <time>2013-06-16T07:23:26Z</time>
      </trkpt>
      <trkpt lat="-20.98415" lon="55.3931">
        <ele>1101.8</ele>
        <time>2013-06-16T07:23:32Z</time>
      </trkpt>
      <trkpt lat="-20.98417" lon="55.39319">
        <ele>1102</ele>
        <time>2013-06-16T07:23:38Z</time>
      </trkpt>
      <trkpt lat="-20.98417" lon="55.39328">
        <ele>1102.4</ele>
        <time>2013-06-16T07:23:42Z</time>
      </trkpt>
      <trkpt lat="-20.98418" lon="55.39337">
        <ele>1103.1</ele>
        <time>2013-06-16T07:23:47Z</time>
      </trkpt>
      <trkpt lat="-20.9842" lon="55.39345">
        <ele>1103.4</ele>
        <time>2013-06-16T07:23:52Z</time>
      </trkpt>
      <trkpt lat="-20.98424" lon="55.39354">
        <ele>1103.2</ele>
        <time>2013-06-16T07:23:58Z</time>
      </trkpt>
      <trkpt lat="-20.9843" lon="55.39363">
        <ele>1104</ele>
        <time>2013-06-16T07:24:05Z</time>
      </trkpt>
      <trkpt lat="-20.98437" lon="55.39374">
        <ele>1105</ele>
        <time>2013-06-16T07:24:14Z</time>
      </trkpt>
      <trkpt lat="-20.98437" lon="55.39377">
        <ele>1105.7</ele>
        <time>2013-06-16T07:24:16Z</time>
      </trkpt>
      <trkpt lat="-20.9844" lon="55.39398">
        <ele>1106.6</ele>
        <time>2013-06-16T07:24:28Z</time>
      </trkpt>
      <trkpt lat="-20.98442" lon="55.39407">
        <ele>1105.9</ele>
        <time>2013-06-16T07:24:33Z</time>
      </trkpt>
      <trkpt lat="-20.98444" lon="55.39415">
        <ele>1106.2</ele>
        <time>2013-06-16T07:24:38Z</time>
      </trkpt>
      <trkpt lat="-20.98442" lon="55.39424">
        <ele>1107.9</ele>
        <time>2013-06-16T07:24:44Z</time>
      </trkpt>
      <trkpt lat="-20.98443" lon="55.39434">
        <ele>1107.7</ele>
        <time>2013-06-16T07:24:52Z</time>
      </trkpt>
      <trkpt lat="-20.98444" lon="55.39443">
        <ele>1109</ele>
        <time>2013-06-16T07:24:59Z</time>
      </trkpt>
      <trkpt lat="-20.98446" lon="55.39452">
        <ele>1109.3</ele>
        <time>2013-06-16T07:25:08Z</time>
      </trkpt>
      <trkpt lat="-20.98448" lon="55.39461">
        <ele>1111.3</ele>
        <time>2013-06-16T07:25:16Z</time>
      </trkpt>
      <trkpt lat="-20.98449" lon="55.3947">
        <ele>1112</ele>
        <time>2013-06-16T07:25:24Z</time>
      </trkpt>
      <trkpt lat="-20.9845" lon="55.39471">
        <ele>1112.1</ele>
        <time>2013-06-16T07:25:25Z</time>
      </trkpt>
      <trkpt lat="-20.98454" lon="55.39486">
        <ele>1113.6</ele>
        <time>2013-06-16T07:25:38Z</time>
      </trkpt>
      <trkpt lat="-20.98455" lon="55.39495">
        <ele>1114.9</ele>
        <time>2013-06-16T07:25:45Z</time>
      </trkpt>
      <trkpt lat="-20.98455" lon="55.39504">
        <ele>1116.1</ele>
        <time>2013-06-16T07:25:52Z</time>
      </trkpt>
      <trkpt lat="-20.98455" lon="55.39514">
        <ele>1117.3</ele>
        <time>2013-06-16T07:26:02Z</time>
      </trkpt>
      <trkpt lat="-20.98456" lon="55.39523">
        <ele>1119.5</ele>
        <time>2013-06-16T07:26:11Z</time>
      </trkpt>
      <trkpt lat="-20.98456" lon="55.39533">
        <ele>1121.5</ele>
        <time>2013-06-16T07:26:19Z</time>
      </trkpt>
      <trkpt lat="-20.98456" lon="55.39542">
        <ele>1123.4</ele>
        <time>2013-06-16T07:26:29Z</time>
      </trkpt>
      <trkpt lat="-20.98456" lon="55.39543">
        <ele>1123.8</ele>
        <time>2013-06-16T07:26:30Z</time>
      </trkpt>
      <trkpt lat="-20.98458" lon="55.39561">
        <ele>1127</ele>
        <time>2013-06-16T07:26:48Z</time>
      </trkpt>
      <trkpt lat="-20.98462" lon="55.39569">
        <ele>1129.4</ele>
        <time>2013-06-16T07:26:59Z</time>
      </trkpt>
      <trkpt lat="-20.98469" lon="55.39574">
        <ele>1132</ele>
        <time>2013-06-16T07:27:07Z</time>
      </trkpt>
      <trkpt lat="-20.98477" lon="55.39577">
        <ele>1133.1</ele>
        <time>2013-06-16T07:27:17Z</time>
      </trkpt>
      <trkpt lat="-20.98486" lon="55.39577">
        <ele>1134.5</ele>
        <time>2013-06-16T07:27:24Z</time>
      </trkpt>
      <trkpt lat="-20.98494" lon="55.39577">
        <ele>1135.3</ele>
        <time>2013-06-16T07:27:31Z</time>
      </trkpt>
      <trkpt lat="-20.98495" lon="55.39578">
        <ele>1135.9</ele>
        <time>2013-06-16T07:27:32Z</time>
      </trkpt>
      <trkpt lat="-20.9851" lon="55.39584">
        <ele>1138.9</ele>
        <time>2013-06-16T07:27:50Z</time>
      </trkpt>
      <trkpt lat="-20.98516" lon="55.3959">
        <ele>1142.1</ele>
        <time>2013-06-16T07:28:01Z</time>
      </trkpt>
      <trkpt lat="-20.98524" lon="55.39593">
        <ele>1144.1</ele>
        <time>2013-06-16T07:28:09Z</time>
      </trkpt>
      <trkpt lat="-20.98532" lon="55.39592">
        <ele>1144.8</ele>
        <time>2013-06-16T07:28:17Z</time>
      </trkpt>
      <trkpt lat="-20.9854" lon="55.39592">
        <ele>1145.2</ele>
        <time>2013-06-16T07:28:23Z</time>
      </trkpt>
      <trkpt lat="-20.98548" lon="55.39591">
        <ele>1146.2</ele>
        <time>2013-06-16T07:28:27Z</time>
      </trkpt>
      <trkpt lat="-20.98558" lon="55.39589">
        <ele>1148.3</ele>
        <time>2013-06-16T07:28:32Z</time>
      </trkpt>
      <trkpt lat="-20.9856" lon="55.39587">
        <ele>1148.7</ele>
        <time>2013-06-16T07:28:33Z</time>
      </trkpt>
      <trkpt lat="-20.98578" lon="55.39591">
        <ele>1157</ele>
        <time>2013-06-16T07:29:21Z</time>
      </trkpt>
      <trkpt lat="-20.98575" lon="55.39601">
        <ele>1159</ele>
        <time>2013-06-16T07:29:33Z</time>
      </trkpt>
      <trkpt lat="-20.98575" lon="55.39601">
        <ele>1159.7</ele>
        <time>2013-06-16T07:29:35Z</time>
      </trkpt>
      <trkpt lat="-20.98587" lon="55.3962">
        <ele>1165</ele>
        <time>2013-06-16T07:30:09Z</time>
      </trkpt>
      <trkpt lat="-20.98597" lon="55.39626">
        <ele>1167</ele>
        <time>2013-06-16T07:30:17Z</time>
      </trkpt>
      <trkpt lat="-20.98606" lon="55.39624">
        <ele>1171</ele>
        <time>2013-06-16T07:30:37Z</time>
      </trkpt>
      <trkpt lat="-20.98606" lon="55.39624">
        <ele>1171.6</ele>
        <time>2013-06-16T07:30:39Z</time>
      </trkpt>
      <trkpt lat="-20.98597" lon="55.39663">
        <ele>1175</ele>
        <time>2013-06-16T07:30:57Z</time>
      </trkpt>
      <trkpt lat="-20.98599" lon="55.39684">
        <ele>1177</ele>
        <time>2013-06-16T07:31:07Z</time>
      </trkpt>
      <trkpt lat="-20.98618" lon="55.3964">
        <ele>1181</ele>
        <time>2013-06-16T07:31:27Z</time>
      </trkpt>
      <trkpt lat="-20.98621" lon="55.39658">
        <ele>1185</ele>
        <time>2013-06-16T07:31:43Z</time>
      </trkpt>
      <trkpt lat="-20.98632" lon="55.39646">
        <ele>1186.7</ele>
        <time>2013-06-16T07:31:50Z</time>
      </trkpt>
      <trkpt lat="-20.98628" lon="55.39628">
        <ele>1189</ele>
        <time>2013-06-16T07:32:09Z</time>
      </trkpt>
      <trkpt lat="-20.98633" lon="55.39613">
        <ele>1191</ele>
        <time>2013-06-16T07:32:26Z</time>
      </trkpt>
      <trkpt lat="-20.98621" lon="55.39619">
        <ele>1195</ele>
        <time>2013-06-16T07:32:43Z</time>
      </trkpt>
      <trkpt lat="-20.9866" lon="55.39597">
        <ele>1196</ele>
        <time>2013-06-16T07:32:51Z</time>
      </trkpt>
      <trkpt lat="-20.98661" lon="55.39594">
        <ele>1197.6</ele>
        <time>2013-06-16T07:32:54Z</time>
      </trkpt>
      <trkpt lat="-20.9865" lon="55.39624">
        <ele>1203</ele>
        <time>2013-06-16T07:33:24Z</time>
      </trkpt>
      <trkpt lat="-20.98654" lon="55.39641">
        <ele>1205</ele>
        <time>2013-06-16T07:33:34Z</time>
      </trkpt>
      <trkpt lat="-20.98659" lon="55.39631">
        <ele>1207</ele>
        <time>2013-06-16T07:33:46Z</time>
      </trkpt>
      <trkpt lat="-20.98668" lon="55.39622">
        <ele>1214</ele>
        <time>2013-06-16T07:34:30Z</time>
      </trkpt>
      <trkpt lat="-20.98666" lon="55.39624">
        <ele>1215.2</ele>
        <time>2013-06-16T07:34:32Z</time>
      </trkpt>
      <trkpt lat="-20.9868" lon="55.39638">
        <ele>1224</ele>
        <time>2013-06-16T07:35:23Z</time>
      </trkpt>
      <trkpt lat="-20.98674" lon="55.39664">
        <ele>1226.3</ele>
        <time>2013-06-16T07:35:32Z</time>
      </trkpt>
      <trkpt lat="-20.98689" lon="55.39612">
        <ele>1230</ele>
        <time>2013-06-16T07:35:51Z</time>
      </trkpt>
      <trkpt lat="-20.98693" lon="55.39603">
        <ele>1236</ele>
        <time>2013-06-16T07:36:20Z</time>
      </trkpt>
      <trkpt lat="-20.98701" lon="55.39591">
        <ele>1240</ele>
        <time>2013-06-16T07:36:52Z</time>
      </trkpt>
      <trkpt lat="-20.98702" lon="55.39589">
        <ele>1240.9</ele>
        <time>2013-06-16T07:36:54Z</time>
      </trkpt>
      <trkpt lat="-20.98719" lon="55.39577">
        <ele>1244</ele>
        <time>2013-06-16T07:37:26Z</time>
      </trkpt>
      <trkpt lat="-20.98722" lon="55.39565">
        <ele>1243</ele>
        <time>2013-06-16T07:37:35Z</time>
      </trkpt>
      <trkpt lat="-20.98725" lon="55.39554">
        <ele>1244</ele>
        <time>2013-06-16T07:37:42Z</time>
      </trkpt>
      <trkpt lat="-20.98735" lon="55.3954">
        <ele>1247</ele>
        <time>2013-06-16T07:37:56Z</time>
      </trkpt>
      <trkpt lat="-20.98737" lon="55.39538">
        <ele>1248.1</ele>
        <time>2013-06-16T07:37:58Z</time>
      </trkpt>
      <trkpt lat="-20.9875" lon="55.39528">
        <ele>1252</ele>
        <time>2013-06-16T07:38:27Z</time>
      </trkpt>
      <trkpt lat="-20.98755" lon="55.39515">
        <ele>1252</ele>
        <time>2013-06-16T07:38:34Z</time>
      </trkpt>
      <trkpt lat="-20.98762" lon="55.39509">
        <ele>1253</ele>
        <time>2013-06-16T07:38:38Z</time>
      </trkpt>
      <trkpt lat="-20.9877" lon="55.39494">
        <ele>1254</ele>
        <time>2013-06-16T07:38:45Z</time>
      </trkpt>
      <trkpt lat="-20.98765" lon="55.39528">
        <ele>1259</ele>
        <time>2013-06-16T07:39:07Z</time>
      </trkpt>
      <trkpt lat="-20.98789" lon="55.39492">
        <ele>1262</ele>
        <time>2013-06-16T07:39:34Z</time>
      </trkpt>
      <trkpt lat="-20.98779" lon="55.39499">
        <ele>1269</ele>
        <time>2013-06-16T07:39:59Z</time>
      </trkpt>
      <trkpt lat="-20.98758" lon="55.39509">
        <ele>1270</ele>
        <time>2013-06-16T07:40:07Z</time>
      </trkpt>
      <trkpt lat="-20.98755" lon="55.39518">
        <ele>1269.1</ele>
        <time>2013-06-16T07:40:28Z</time>
      </trkpt>
      <trkpt lat="-20.98746" lon="55.39518">
        <ele>1270</ele>
        <time>2013-06-16T07:40:34Z</time>
      </trkpt>
      <trkpt lat="-20.98738" lon="55.39522">
        <ele>1273.5</ele>
        <time>2013-06-16T07:40:48Z</time>
      </trkpt>
      <trkpt lat="-20.98738" lon="55.39523">
        <ele>1273.6</ele>
        <time>2013-06-16T07:40:49Z</time>
      </trkpt>
      <trkpt lat="-20.98736" lon="55.39547">
        <ele>1278</ele>
        <time>2013-06-16T07:41:12Z</time>
      </trkpt>
      <trkpt lat="-20.98738" lon="55.39555">
        <ele>1280</ele>
        <time>2013-06-16T07:41:20Z</time>
      </trkpt>
      <trkpt lat="-20.98746" lon="55.39556">
        <ele>1281.8</ele>
        <time>2013-06-16T07:41:29Z</time>
      </trkpt>
      <trkpt lat="-20.98742" lon="55.39564">
        <ele>1297.1</ele>
        <time>2013-06-16T07:42:53Z</time>
      </trkpt>
      <trkpt lat="-20.98742" lon="55.39565">
        <ele>1297.1</ele>
        <time>2013-06-16T07:42:54Z</time>
      </trkpt>
      <trkpt lat="-20.98732" lon="55.39579">
        <ele>1298.3</ele>
        <time>2013-06-16T07:43:13Z</time>
      </trkpt>
      <trkpt lat="-20.98728" lon="55.39587">
        <ele>1300.1</ele>
        <time>2013-06-16T07:43:21Z</time>
      </trkpt>
      <trkpt lat="-20.98723" lon="55.39594">
        <ele>1300.4</ele>
        <time>2013-06-16T07:43:27Z</time>
      </trkpt>
      <trkpt lat="-20.9872" lon="55.39602">
        <ele>1299.5</ele>
        <time>2013-06-16T07:43:33Z</time>
      </trkpt>
      <trkpt lat="-20.98716" lon="55.3961">
        <ele>1299.4</ele>
        <time>2013-06-16T07:43:38Z</time>
      </trkpt>
      <trkpt lat="-20.98714" lon="55.39618">
        <ele>1298.9</ele>
        <time>2013-06-16T07:43:43Z</time>
      </trkpt>
      <trkpt lat="-20.98712" lon="55.39626">
        <ele>1299.3</ele>
        <time>2013-06-16T07:43:49Z</time>
      </trkpt>
      <trkpt lat="-20.9871" lon="55.39635">
        <ele>1299.3</ele>
        <time>2013-06-16T07:43:54Z</time>
      </trkpt>
      <trkpt lat="-20.98708" lon="55.39643">
        <ele>1299.7</ele>
        <time>2013-06-16T07:44:01Z</time>
      </trkpt>
      <trkpt lat="-20.98708" lon="55.39644">
        <ele>1299.7</ele>
        <time>2013-06-16T07:44:02Z</time>
      </trkpt>
      <trkpt lat="-20.98704" lon="55.39661">
        <ele>1302.2</ele>
        <time>2013-06-16T07:44:20Z</time>
      </trkpt>
      <trkpt lat="-20.98698" lon="55.39668">
        <ele>1304</ele>
        <time>2013-06-16T07:44:32Z</time>
      </trkpt>
      <trkpt lat="-20.98695" lon="55.39677">
        <ele>1306.3</ele>
        <time>2013-06-16T07:44:48Z</time>
      </trkpt>
      <trkpt lat="-20.98692" lon="55.39685">
        <ele>1310.4</ele>
        <time>2013-06-16T07:45:05Z</time>
      </trkpt>
      <trkpt lat="-20.98691" lon="55.39686">
        <ele>1310.3</ele>
        <time>2013-06-16T07:45:06Z</time>
      </trkpt>
      <trkpt lat="-20.9869" lon="55.39703">
        <ele>1317.7</ele>
        <time>2013-06-16T07:45:49Z</time>
      </trkpt>
      <trkpt lat="-20.98685" lon="55.3971">
        <ele>1320.7</ele>
        <time>2013-06-16T07:46:02Z</time>
      </trkpt>
      <trkpt lat="-20.98678" lon="55.39716">
        <ele>1321.2</ele>
        <time>2013-06-16T07:46:11Z</time>
      </trkpt>
      <trkpt lat="-20.98677" lon="55.39716">
        <ele>1321.2</ele>
        <time>2013-06-16T07:46:12Z</time>
      </trkpt>
      <trkpt lat="-20.98666" lon="55.39729">
        <ele>1325.7</ele>
        <time>2013-06-16T07:46:32Z</time>
      </trkpt>
      <trkpt lat="-20.98664" lon="55.39738">
        <ele>1327.3</ele>
        <time>2013-06-16T07:46:50Z</time>
      </trkpt>
      <trkpt lat="-20.98665" lon="55.39747">
        <ele>1329.4</ele>
        <time>2013-06-16T07:47:05Z</time>
      </trkpt>
      <trkpt lat="-20.98663" lon="55.39755">
        <ele>1330.9</ele>
        <time>2013-06-16T07:47:11Z</time>
      </trkpt>
      <trkpt lat="-20.98661" lon="55.39764">
        <ele>1330.8</ele>
        <time>2013-06-16T07:47:17Z</time>
      </trkpt>
      <trkpt lat="-20.98661" lon="55.39765">
        <ele>1330.9</ele>
        <time>2013-06-16T07:47:18Z</time>
      </trkpt>
      <trkpt lat="-20.98657" lon="55.39781">
        <ele>1333.2</ele>
        <time>2013-06-16T07:47:41Z</time>
      </trkpt>
      <trkpt lat="-20.98652" lon="55.39789">
        <ele>1336.9</ele>
        <time>2013-06-16T07:48:00Z</time>
      </trkpt>
      <trkpt lat="-20.98655" lon="55.39798">
        <ele>1340.9</ele>
        <time>2013-06-16T07:48:23Z</time>
      </trkpt>
      <trkpt lat="-20.98655" lon="55.39798">
        <ele>1341.1</ele>
        <time>2013-06-16T07:48:24Z</time>
      </trkpt>
      <trkpt lat="-20.9865" lon="55.39816">
        <ele>1347.2</ele>
        <time>2013-06-16T07:48:59Z</time>
      </trkpt>
      <trkpt lat="-20.98646" lon="55.39824">
        <ele>1351.8</ele>
        <time>2013-06-16T07:49:23Z</time>
      </trkpt>
      <trkpt lat="-20.98643" lon="55.39833">
        <ele>1353.7</ele>
        <time>2013-06-16T07:49:41Z</time>
      </trkpt>
      <trkpt lat="-20.98643" lon="55.39834">
        <ele>1353.7</ele>
        <time>2013-06-16T07:49:42Z</time>
      </trkpt>
      <trkpt lat="-20.98634" lon="55.39849">
        <ele>1357</ele>
        <time>2013-06-16T07:50:06Z</time>
      </trkpt>
      <trkpt lat="-20.9863" lon="55.39856">
        <ele>1358.2</ele>
        <time>2013-06-16T07:50:16Z</time>
      </trkpt>
      <trkpt lat="-20.98624" lon="55.39863">
        <ele>1360.8</ele>
        <time>2013-06-16T07:50:26Z</time>
      </trkpt>
      <trkpt lat="-20.98618" lon="55.3987">
        <ele>1361.4</ele>
        <time>2013-06-16T07:50:35Z</time>
      </trkpt>
      <trkpt lat="-20.98615" lon="55.39879">
        <ele>1362.2</ele>
        <time>2013-06-16T07:50:45Z</time>
      </trkpt>
      <trkpt lat="-20.98615" lon="55.39879">
        <ele>1362.4</ele>
        <time>2013-06-16T07:50:46Z</time>
      </trkpt>
      <trkpt lat="-20.98607" lon="55.39895">
        <ele>1365.7</ele>
        <time>2013-06-16T07:51:07Z</time>
      </trkpt>
      <trkpt lat="-20.98603" lon="55.39903">
        <ele>1366.2</ele>
        <time>2013-06-16T07:51:16Z</time>
      </trkpt>
      <trkpt lat="-20.986" lon="55.39912">
        <ele>1367.6</ele>
        <time>2013-06-16T07:51:28Z</time>
      </trkpt>
      <trkpt lat="-20.98595" lon="55.3992">
        <ele>1369.7</ele>
        <time>2013-06-16T07:51:40Z</time>
      </trkpt>
      <trkpt lat="-20.9859" lon="55.39928">
        <ele>1371.8</ele>
        <time>2013-06-16T07:51:52Z</time>
      </trkpt>
      <trkpt lat="-20.9859" lon="55.39928">
        <ele>1371.9</ele>
        <time>2013-06-16T07:51:53Z</time>
      </trkpt>
      <trkpt lat="-20.9858" lon="55.39943">
        <ele>1375.2</ele>
        <time>2013-06-16T07:52:14Z</time>
      </trkpt>
      <trkpt lat="-20.98576" lon="55.39951">
        <ele>1377.6</ele>
        <time>2013-06-16T07:52:25Z</time>
      </trkpt>
      <trkpt lat="-20.98573" lon="55.3996">
        <ele>1378.8</ele>
        <time>2013-06-16T07:52:35Z</time>
      </trkpt>
      <trkpt lat="-20.98568" lon="55.39967">
        <ele>1381.2</ele>
        <time>2013-06-16T07:52:50Z</time>
      </trkpt>
      <trkpt lat="-20.98564" lon="55.39975">
        <ele>1383.8</ele>
        <time>2013-06-16T07:53:02Z</time>
      </trkpt>
      <trkpt lat="-20.98564" lon="55.39976">
        <ele>1383.9</ele>
        <time>2013-06-16T07:53:03Z</time>
      </trkpt>
      <trkpt lat="-20.98553" lon="55.3999">
        <ele>1387.8</ele>
        <time>2013-06-16T07:53:26Z</time>
      </trkpt>
      <trkpt lat="-20.98549" lon="55.39998">
        <ele>1389</ele>
        <time>2013-06-16T07:53:36Z</time>
      </trkpt>
      <trkpt lat="-20.98543" lon="55.40005">
        <ele>1390</ele>
        <time>2013-06-16T07:53:49Z</time>
      </trkpt>
      <trkpt lat="-20.98539" lon="55.40013">
        <ele>1391.2</ele>
        <time>2013-06-16T07:53:59Z</time>
      </trkpt>
      <trkpt lat="-20.98534" lon="55.40021">
        <ele>1393.6</ele>
        <time>2013-06-16T07:54:10Z</time>
      </trkpt>
      <trkpt lat="-20.98534" lon="55.40022">
        <ele>1393.8</ele>
        <time>2013-06-16T07:54:11Z</time>
      </trkpt>
      <trkpt lat="-20.98525" lon="55.40035">
        <ele>1394.4</ele>
        <time>2013-06-16T07:54:24Z</time>
      </trkpt>
      <trkpt lat="-20.98519" lon="55.40042">
        <ele>1396.6</ele>
        <time>2013-06-16T07:54:35Z</time>
      </trkpt>
      <trkpt lat="-20.98516" lon="55.40051">
        <ele>1398.6</ele>
        <time>2013-06-16T07:54:46Z</time>
      </trkpt>
      <trkpt lat="-20.98511" lon="55.40058">
        <ele>1399.3</ele>
        <time>2013-06-16T07:54:56Z</time>
      </trkpt>
      <trkpt lat="-20.9851" lon="55.40067">
        <ele>1402.6</ele>
        <time>2013-06-16T07:55:17Z</time>
      </trkpt>
      <trkpt lat="-20.98511" lon="55.40068">
        <ele>1402.9</ele>
        <time>2013-06-16T07:55:18Z</time>
      </trkpt>
      <trkpt lat="-20.98497" lon="55.40079">
        <ele>1412.5</ele>
        <time>2013-06-16T07:56:07Z</time>
      </trkpt>
      <trkpt lat="-20.98494" lon="55.40088">
        <ele>1416.8</ele>
        <time>2013-06-16T07:56:34Z</time>
      </trkpt>
      <trkpt lat="-20.98493" lon="55.40088">
        <ele>1416.9</ele>
        <time>2013-06-16T07:56:35Z</time>
      </trkpt>
      <trkpt lat="-20.98481" lon="55.401">
        <ele>1421.1</ele>
        <time>2013-06-16T07:57:05Z</time>
      </trkpt>
      <trkpt lat="-20.98476" lon="55.40109">
        <ele>1424.8</ele>
        <time>2013-06-16T07:57:23Z</time>
      </trkpt>
      <trkpt lat="-20.98472" lon="55.40117">
        <ele>1428.2</ele>
        <time>2013-06-16T07:57:43Z</time>
      </trkpt>
      <trkpt lat="-20.98471" lon="55.40117">
        <ele>1428.2</ele>
        <time>2013-06-16T07:57:44Z</time>
      </trkpt>
      <trkpt lat="-20.98464" lon="55.40132">
        <ele>1435.3</ele>
        <time>2013-06-16T07:58:28Z</time>
      </trkpt>
      <trkpt lat="-20.98458" lon="55.40139">
        <ele>1437.9</ele>
        <time>2013-06-16T07:58:41Z</time>
      </trkpt>
      <trkpt lat="-20.98456" lon="55.40148">
        <ele>1443.6</ele>
        <time>2013-06-16T07:59:12Z</time>
      </trkpt>
      <trkpt lat="-20.98457" lon="55.40149">
        <ele>1444.1</ele>
        <time>2013-06-16T07:59:13Z</time>
      </trkpt>
      <trkpt lat="-20.98445" lon="55.40159">
        <ele>1447.3</ele>
        <time>2013-06-16T07:59:33Z</time>
      </trkpt>
      <trkpt lat="-20.98443" lon="55.40166">
        <ele>1448.3</ele>
        <time>2013-06-16T07:59:42Z</time>
      </trkpt>
      <trkpt lat="-20.98439" lon="55.40174">
        <ele>1450.7</ele>
        <time>2013-06-16T07:59:50Z</time>
      </trkpt>
      <trkpt lat="-20.98433" lon="55.4018">
        <ele>1450.6</ele>
        <time>2013-06-16T07:59:57Z</time>
      </trkpt>
      <trkpt lat="-20.98425" lon="55.40184">
        <ele>1452.4</ele>
        <time>2013-06-16T08:00:05Z</time>
      </trkpt>
      <trkpt lat="-20.98422" lon="55.40192">
        <ele>1454</ele>
        <time>2013-06-16T08:00:18Z</time>
      </trkpt>
      <trkpt lat="-20.98421" lon="55.40193">
        <ele>1453.9</ele>
        <time>2013-06-16T08:00:19Z</time>
      </trkpt>
      <trkpt lat="-20.98409" lon="55.40204">
        <ele>1456.2</ele>
        <time>2013-06-16T08:00:38Z</time>
      </trkpt>
      <trkpt lat="-20.98405" lon="55.40212">
        <ele>1457.2</ele>
        <time>2013-06-16T08:00:50Z</time>
      </trkpt>
      <trkpt lat="-20.98397" lon="55.40217">
        <ele>1458.8</ele>
        <time>2013-06-16T08:01:01Z</time>
      </trkpt>
      <trkpt lat="-20.98392" lon="55.40223">
        <ele>1459.9</ele>
        <time>2013-06-16T08:01:10Z</time>
      </trkpt>
      <trkpt lat="-20.98387" lon="55.40232">
        <ele>1461.5</ele>
        <time>2013-06-16T08:01:18Z</time>
      </trkpt>
      <trkpt lat="-20.98387" lon="55.4024">
        <ele>1464.2</ele>
        <time>2013-06-16T08:01:29Z</time>
      </trkpt>
      <trkpt lat="-20.98387" lon="55.40242">
        <ele>1464.2</ele>
        <time>2013-06-16T08:01:30Z</time>
      </trkpt>
      <trkpt lat="-20.98376" lon="55.40254">
        <ele>1471.4</ele>
        <time>2013-06-16T08:02:05Z</time>
      </trkpt>
      <trkpt lat="-20.9837" lon="55.40261">
        <ele>1472.9</ele>
        <time>2013-06-16T08:02:17Z</time>
      </trkpt>
      <trkpt lat="-20.98362" lon="55.40264">
        <ele>1473.9</ele>
        <time>2013-06-16T08:02:25Z</time>
      </trkpt>
      <trkpt lat="-20.98357" lon="55.40271">
        <ele>1475.2</ele>
        <time>2013-06-16T08:02:34Z</time>
      </trkpt>
      <trkpt lat="-20.98356" lon="55.40272">
        <ele>1475.4</ele>
        <time>2013-06-16T08:02:35Z</time>
      </trkpt>
      <trkpt lat="-20.98344" lon="55.40285">
        <ele>1478.2</ele>
        <time>2013-06-16T08:02:51Z</time>
      </trkpt>
      <trkpt lat="-20.98338" lon="55.40291">
        <ele>1479.6</ele>
        <time>2013-06-16T08:03:01Z</time>
      </trkpt>
      <trkpt lat="-20.98335" lon="55.40299">
        <ele>1480.6</ele>
        <time>2013-06-16T08:03:12Z</time>
      </trkpt>
      <trkpt lat="-20.9833" lon="55.40307">
        <ele>1481.9</ele>
        <time>2013-06-16T08:03:21Z</time>
      </trkpt>
      <trkpt lat="-20.98324" lon="55.40313">
        <ele>1484.1</ele>
        <time>2013-06-16T08:03:32Z</time>
      </trkpt>
      <trkpt lat="-20.98326" lon="55.40322">
        <ele>1484.2</ele>
        <time>2013-06-16T08:03:40Z</time>
      </trkpt>
      <trkpt lat="-20.98326" lon="55.40323">
        <ele>1484.5</ele>
        <time>2013-06-16T08:03:41Z</time>
      </trkpt>
      <trkpt lat="-20.98319" lon="55.40337">
        <ele>1488.4</ele>
        <time>2013-06-16T08:03:59Z</time>
      </trkpt>
      <trkpt lat="-20.98313" lon="55.40343">
        <ele>1489.3</ele>
        <time>2013-06-16T08:04:08Z</time>
      </trkpt>
      <trkpt lat="-20.98307" lon="55.40349">
        <ele>1489.2</ele>
        <time>2013-06-16T08:04:15Z</time>
      </trkpt>
      <trkpt lat="-20.98302" lon="55.40356">
        <ele>1490.8</ele>
        <time>2013-06-16T08:04:25Z</time>
      </trkpt>
      <trkpt lat="-20.98299" lon="55.40363">
        <ele>1491.5</ele>
        <time>2013-06-16T08:04:32Z</time>
      </trkpt>
      <trkpt lat="-20.98295" lon="55.40372">
        <ele>1491.5</ele>
        <time>2013-06-16T08:04:39Z</time>
      </trkpt>
      <trkpt lat="-20.98294" lon="55.4038">
        <ele>1490.8</ele>
        <time>2013-06-16T08:04:44Z</time>
      </trkpt>
      <trkpt lat="-20.98294" lon="55.40382">
        <ele>1490.9</ele>
        <time>2013-06-16T08:04:45Z</time>
      </trkpt>
      <trkpt lat="-20.98291" lon="55.40397">
        <ele>1492.1</ele>
        <time>2013-06-16T08:04:56Z</time>
      </trkpt>
      <trkpt lat="-20.98293" lon="55.40407">
        <ele>1490.7</ele>
        <time>2013-06-16T08:05:04Z</time>
      </trkpt>
      <trkpt lat="-20.98295" lon="55.40415">
        <ele>1489.5</ele>
        <time>2013-06-16T08:05:10Z</time>
      </trkpt>
      <trkpt lat="-20.98297" lon="55.40423">
        <ele>1488.9</ele>
        <time>2013-06-16T08:05:16Z</time>
      </trkpt>
      <trkpt lat="-20.983" lon="55.4043">
        <ele>1487.7</ele>
        <time>2013-06-16T08:05:20Z</time>
      </trkpt>
      <trkpt lat="-20.98305" lon="55.40438">
        <ele>1487.3</ele>
        <time>2013-06-16T08:05:24Z</time>
      </trkpt>
      <trkpt lat="-20.98309" lon="55.40444">
        <ele>1487</ele>
        <time>2013-06-16T08:05:28Z</time>
      </trkpt>
      <trkpt lat="-20.98312" lon="55.40451">
        <ele>1486.8</ele>
        <time>2013-06-16T08:05:32Z</time>
      </trkpt>
      <trkpt lat="-20.98315" lon="55.40458">
        <ele>1486.6</ele>
        <time>2013-06-16T08:05:36Z</time>
      </trkpt>
      <trkpt lat="-20.9832" lon="55.40465">
        <ele>1486.6</ele>
        <time>2013-06-16T08:05:41Z</time>
      </trkpt>
      <trkpt lat="-20.98321" lon="55.40473">
        <ele>1485.2</ele>
        <time>2013-06-16T08:05:45Z</time>
      </trkpt>
      <trkpt lat="-20.98322" lon="55.40475">
        <ele>1484.9</ele>
        <time>2013-06-16T08:05:46Z</time>
      </trkpt>
      <trkpt lat="-20.98324" lon="55.4049">
        <ele>1483.9</ele>
        <time>2013-06-16T08:05:54Z</time>
      </trkpt>
      <trkpt lat="-20.98326" lon="55.40498">
        <ele>1484</ele>
        <time>2013-06-16T08:05:59Z</time>
      </trkpt>
      <trkpt lat="-20.98329" lon="55.40506">
        <ele>1482.6</ele>
        <time>2013-06-16T08:06:05Z</time>
      </trkpt>
      <trkpt lat="-20.98331" lon="55.40516">
        <ele>1481.4</ele>
        <time>2013-06-16T08:06:10Z</time>
      </trkpt>
      <trkpt lat="-20.98332" lon="55.40524">
        <ele>1480.2</ele>
        <time>2013-06-16T08:06:15Z</time>
      </trkpt>
      <trkpt lat="-20.98332" lon="55.40533">
        <ele>1479.1</ele>
        <time>2013-06-16T08:06:20Z</time>
      </trkpt>
      <trkpt lat="-20.98333" lon="55.40541">
        <ele>1478.7</ele>
        <time>2013-06-16T08:06:25Z</time>
      </trkpt>
      <trkpt lat="-20.98334" lon="55.40549">
        <ele>1478.4</ele>
        <time>2013-06-16T08:06:29Z</time>
      </trkpt>
      <trkpt lat="-20.98335" lon="55.40559">
        <ele>1479</ele>
        <time>2013-06-16T08:06:36Z</time>
      </trkpt>
      <trkpt lat="-20.98334" lon="55.40568">
        <ele>1479.3</ele>
        <time>2013-06-16T08:06:44Z</time>
      </trkpt>
      <trkpt lat="-20.98332" lon="55.40577">
        <ele>1481.9</ele>
        <time>2013-06-16T08:06:56Z</time>
      </trkpt>
      <trkpt lat="-20.98332" lon="55.40579">
        <ele>1481.7</ele>
        <time>2013-06-16T08:06:57Z</time>
      </trkpt>
      <trkpt lat="-20.98333" lon="55.40594">
        <ele>1481</ele>
        <time>2013-06-16T08:07:07Z</time>
      </trkpt>
      <trkpt lat="-20.98333" lon="55.40603">
        <ele>1482.3</ele>
        <time>2013-06-16T08:07:14Z</time>
      </trkpt>
      <trkpt lat="-20.98331" lon="55.40612">
        <ele>1481.1</ele>
        <time>2013-06-16T08:07:20Z</time>
      </trkpt>
      <trkpt lat="-20.98329" lon="55.40621">
        <ele>1479.9</ele>
        <time>2013-06-16T08:07:26Z</time>
      </trkpt>
      <trkpt lat="-20.98324" lon="55.40629">
        <ele>1482.3</ele>
        <time>2013-06-16T08:07:40Z</time>
      </trkpt>
      <trkpt lat="-20.98316" lon="55.40631">
        <ele>1482.5</ele>
        <time>2013-06-16T08:07:48Z</time>
      </trkpt>
      <trkpt lat="-20.98311" lon="55.40642">
        <ele>1485</ele>
        <time>2013-06-16T08:08:00Z</time>
      </trkpt>
      <trkpt lat="-20.98312" lon="55.40644">
        <ele>1486.1</ele>
        <time>2013-06-16T08:08:02Z</time>
      </trkpt>
      <trkpt lat="-20.98307" lon="55.4066">
        <ele>1489.4</ele>
        <time>2013-06-16T08:08:16Z</time>
      </trkpt>
      <trkpt lat="-20.9831" lon="55.40668">
        <ele>1490.2</ele>
        <time>2013-06-16T08:08:23Z</time>
      </trkpt>
      <trkpt lat="-20.98309" lon="55.40677">
        <ele>1491.1</ele>
        <time>2013-06-16T08:08:30Z</time>
      </trkpt>
      <trkpt lat="-20.98307" lon="55.40685">
        <ele>1488.9</ele>
        <time>2013-06-16T08:08:35Z</time>
      </trkpt>
      <trkpt lat="-20.98307" lon="55.40694">
        <ele>1488.2</ele>
        <time>2013-06-16T08:08:40Z</time>
      </trkpt>
      <trkpt lat="-20.98306" lon="55.40703">
        <ele>1489.3</ele>
        <time>2013-06-16T08:08:47Z</time>
      </trkpt>
      <trkpt lat="-20.98307" lon="55.40711">
        <ele>1490.6</ele>
        <time>2013-06-16T08:08:56Z</time>
      </trkpt>
      <trkpt lat="-20.98305" lon="55.40721">
        <ele>1489.9</ele>
        <time>2013-06-16T08:09:03Z</time>
      </trkpt>
      <trkpt lat="-20.98305" lon="55.40723">
        <ele>1490.1</ele>
        <time>2013-06-16T08:09:04Z</time>
      </trkpt>
      <trkpt lat="-20.98308" lon="55.40738">
        <ele>1492.9</ele>
        <time>2013-06-16T08:09:21Z</time>
      </trkpt>
      <trkpt lat="-20.98308" lon="55.40746">
        <ele>1492.3</ele>
        <time>2013-06-16T08:09:27Z</time>
      </trkpt>
      <trkpt lat="-20.98308" lon="55.40755">
        <ele>1492.8</ele>
        <time>2013-06-16T08:09:35Z</time>
      </trkpt>
      <trkpt lat="-20.98312" lon="55.40763">
        <ele>1493.1</ele>
        <time>2013-06-16T08:09:43Z</time>
      </trkpt>
      <trkpt lat="-20.98316" lon="55.40771">
        <ele>1495.5</ele>
        <time>2013-06-16T08:09:55Z</time>
      </trkpt>
      <trkpt lat="-20.9832" lon="55.40778">
        <ele>1497.5</ele>
        <time>2013-06-16T08:10:06Z</time>
      </trkpt>
      <trkpt lat="-20.98321" lon="55.40779">
        <ele>1497.5</ele>
        <time>2013-06-16T08:10:07Z</time>
      </trkpt>
      <trkpt lat="-20.9833" lon="55.40792">
        <ele>1500</ele>
        <time>2013-06-16T08:10:26Z</time>
      </trkpt>
      <trkpt lat="-20.98333" lon="55.40799">
        <ele>1500.6</ele>
        <time>2013-06-16T08:10:31Z</time>
      </trkpt>
      <trkpt lat="-20.98338" lon="55.40805">
        <ele>1502.1</ele>
        <time>2013-06-16T08:10:35Z</time>
      </trkpt>
      <trkpt lat="-20.98343" lon="55.40813">
        <ele>1503.3</ele>
        <time>2013-06-16T08:10:44Z</time>
      </trkpt>
      <trkpt lat="-20.98351" lon="55.40815">
        <ele>1505.1</ele>
        <time>2013-06-16T08:10:50Z</time>
      </trkpt>
      <trkpt lat="-20.98346" lon="55.40823">
        <ele>1506.3</ele>
        <time>2013-06-16T08:10:59Z</time>
      </trkpt>
      <trkpt lat="-20.98339" lon="55.40824">
        <ele>1507.4</ele>
        <time>2013-06-16T08:11:02Z</time>
      </trkpt>
      <trkpt lat="-20.98331" lon="55.40827">
        <ele>1508.3</ele>
        <time>2013-06-16T08:11:08Z</time>
      </trkpt>
      <trkpt lat="-20.98329" lon="55.40827">
        <ele>1508.5</ele>
        <time>2013-06-16T08:11:09Z</time>
      </trkpt>
      <trkpt lat="-20.98322" lon="55.40843">
        <ele>1508.3</ele>
        <time>2013-06-16T08:11:18Z</time>
      </trkpt>
      <trkpt lat="-20.98319" lon="55.40851">
        <ele>1508.3</ele>
        <time>2013-06-16T08:11:24Z</time>
      </trkpt>
      <trkpt lat="-20.98317" lon="55.40859">
        <ele>1507.2</ele>
        <time>2013-06-16T08:11:30Z</time>
      </trkpt>
      <trkpt lat="-20.98314" lon="55.40868">
        <ele>1508.3</ele>
        <time>2013-06-16T08:11:39Z</time>
      </trkpt>
      <trkpt lat="-20.98309" lon="55.40876">
        <ele>1509.4</ele>
        <time>2013-06-16T08:11:47Z</time>
      </trkpt>
      <trkpt lat="-20.98304" lon="55.40883">
        <ele>1511.3</ele>
        <time>2013-06-16T08:11:55Z</time>
      </trkpt>
      <trkpt lat="-20.98302" lon="55.40891">
        <ele>1512.9</ele>
        <time>2013-06-16T08:12:03Z</time>
      </trkpt>
      <trkpt lat="-20.98295" lon="55.40896">
        <ele>1515.7</ele>
        <time>2013-06-16T08:12:12Z</time>
      </trkpt>
      <trkpt lat="-20.98294" lon="55.40897">
        <ele>1515.8</ele>
        <time>2013-06-16T08:12:13Z</time>
      </trkpt>
      <trkpt lat="-20.9828" lon="55.409">
        <ele>1515.4</ele>
        <time>2013-06-16T08:12:27Z</time>
      </trkpt>
      <trkpt lat="-20.98273" lon="55.40905">
        <ele>1515</ele>
        <time>2013-06-16T08:12:32Z</time>
      </trkpt>
      <trkpt lat="-20.98266" lon="55.40907">
        <ele>1514.3</ele>
        <time>2013-06-16T08:12:37Z</time>
      </trkpt>
      <trkpt lat="-20.98258" lon="55.40906">
        <ele>1513.7</ele>
        <time>2013-06-16T08:12:41Z</time>
      </trkpt>
      <trkpt lat="-20.9825" lon="55.40905">
        <ele>1513.5</ele>
        <time>2013-06-16T08:12:45Z</time>
      </trkpt>
      <trkpt lat="-20.98242" lon="55.40904">
        <ele>1513.1</ele>
        <time>2013-06-16T08:12:49Z</time>
      </trkpt>
      <trkpt lat="-20.98234" lon="55.40902">
        <ele>1512.6</ele>
        <time>2013-06-16T08:12:53Z</time>
      </trkpt>
      <trkpt lat="-20.98226" lon="55.40902">
        <ele>1512.5</ele>
        <time>2013-06-16T08:12:58Z</time>
      </trkpt>
      <trkpt lat="-20.98219" lon="55.40898">
        <ele>1512.4</ele>
        <time>2013-06-16T08:13:05Z</time>
      </trkpt>
      <trkpt lat="-20.98214" lon="55.40891">
        <ele>1511.9</ele>
        <time>2013-06-16T08:13:11Z</time>
      </trkpt>
      <trkpt lat="-20.98211" lon="55.40884">
        <ele>1510</ele>
        <time>2013-06-16T08:13:16Z</time>
      </trkpt>
      <trkpt lat="-20.98211" lon="55.40881">
        <ele>1509.8</ele>
        <time>2013-06-16T08:13:17Z</time>
      </trkpt>
      <trkpt lat="-20.98205" lon="55.4087">
        <ele>1508.9</ele>
        <time>2013-06-16T08:13:24Z</time>
      </trkpt>
      <trkpt lat="-20.98202" lon="55.40861">
        <ele>1507.5</ele>
        <time>2013-06-16T08:13:31Z</time>
      </trkpt>
      <trkpt lat="-20.98201" lon="55.40851">
        <ele>1504.8</ele>
        <time>2013-06-16T08:13:38Z</time>
      </trkpt>
      <trkpt lat="-20.982" lon="55.40842">
        <ele>1502</ele>
        <time>2013-06-16T08:13:47Z</time>
      </trkpt>
      <trkpt lat="-20.98199" lon="55.40833">
        <ele>1500.7</ele>
        <time>2013-06-16T08:13:52Z</time>
      </trkpt>
      <trkpt lat="-20.98198" lon="55.40825">
        <ele>1500.7</ele>
        <time>2013-06-16T08:13:56Z</time>
      </trkpt>
      <trkpt lat="-20.98199" lon="55.40817">
        <ele>1500.5</ele>
        <time>2013-06-16T08:14:00Z</time>
      </trkpt>
      <trkpt lat="-20.98199" lon="55.40808">
        <ele>1499.1</ele>
        <time>2013-06-16T08:14:05Z</time>
      </trkpt>
      <trkpt lat="-20.98199" lon="55.40799">
        <ele>1499.1</ele>
        <time>2013-06-16T08:14:10Z</time>
      </trkpt>
      <trkpt lat="-20.98195" lon="55.4079">
        <ele>1499</ele>
        <time>2013-06-16T08:14:15Z</time>
      </trkpt>
      <trkpt lat="-20.98197" lon="55.40782">
        <ele>1498.4</ele>
        <time>2013-06-16T08:14:20Z</time>
      </trkpt>
      <trkpt lat="-20.98197" lon="55.4078">
        <ele>1498.1</ele>
        <time>2013-06-16T08:14:21Z</time>
      </trkpt>
      <trkpt lat="-20.98202" lon="55.40766">
        <ele>1499.4</ele>
        <time>2013-06-16T08:14:29Z</time>
      </trkpt>
      <trkpt lat="-20.98203" lon="55.40757">
        <ele>1499.4</ele>
        <time>2013-06-16T08:14:33Z</time>
      </trkpt>
      <trkpt lat="-20.98201" lon="55.40749">
        <ele>1499.2</ele>
        <time>2013-06-16T08:14:37Z</time>
      </trkpt>
      <trkpt lat="-20.98199" lon="55.4074">
        <ele>1499.2</ele>
        <time>2013-06-16T08:14:42Z</time>
      </trkpt>
      <trkpt lat="-20.982" lon="55.40731">
        <ele>1499.3</ele>
        <time>2013-06-16T08:14:48Z</time>
      </trkpt>
      <trkpt lat="-20.98201" lon="55.40722">
        <ele>1499.3</ele>
        <time>2013-06-16T08:14:53Z</time>
      </trkpt>
      <trkpt lat="-20.98203" lon="55.40712">
        <ele>1498.2</ele>
        <time>2013-06-16T08:14:57Z</time>
      </trkpt>
      <trkpt lat="-20.98204" lon="55.40705">
        <ele>1498.4</ele>
        <time>2013-06-16T08:15:00Z</time>
      </trkpt>
      <trkpt lat="-20.98202" lon="55.40696">
        <ele>1498.3</ele>
        <time>2013-06-16T08:15:04Z</time>
      </trkpt>
      <trkpt lat="-20.98201" lon="55.40687">
        <ele>1498.2</ele>
        <time>2013-06-16T08:15:08Z</time>
      </trkpt>
      <trkpt lat="-20.98198" lon="55.40679">
        <ele>1497.1</ele>
        <time>2013-06-16T08:15:12Z</time>
      </trkpt>
      <trkpt lat="-20.98195" lon="55.40672">
        <ele>1496.3</ele>
        <time>2013-06-16T08:15:15Z</time>
      </trkpt>
      <trkpt lat="-20.98191" lon="55.40665">
        <ele>1495.8</ele>
        <time>2013-06-16T08:15:19Z</time>
      </trkpt>
      <trkpt lat="-20.98183" lon="55.40661">
        <ele>1495.1</ele>
        <time>2013-06-16T08:15:24Z</time>
      </trkpt>
      <trkpt lat="-20.98182" lon="55.40659">
        <ele>1494.9</ele>
        <time>2013-06-16T08:15:25Z</time>
      </trkpt>
      <trkpt lat="-20.98173" lon="55.40649">
        <ele>1495.8</ele>
        <time>2013-06-16T08:15:32Z</time>
      </trkpt>
      <trkpt lat="-20.98166" lon="55.40644">
        <ele>1495</ele>
        <time>2013-06-16T08:15:36Z</time>
      </trkpt>
      <trkpt lat="-20.98161" lon="55.40638">
        <ele>1494.4</ele>
        <time>2013-06-16T08:15:40Z</time>
      </trkpt>
      <trkpt lat="-20.98153" lon="55.40634">
        <ele>1493.5</ele>
        <time>2013-06-16T08:15:45Z</time>
      </trkpt>
      <trkpt lat="-20.98147" lon="55.40627">
        <ele>1492.5</ele>
        <time>2013-06-16T08:15:52Z</time>
      </trkpt>
      <trkpt lat="-20.98142" lon="55.4062">
        <ele>1489.6</ele>
        <time>2013-06-16T08:15:59Z</time>
      </trkpt>
      <trkpt lat="-20.98139" lon="55.40612">
        <ele>1487.2</ele>
        <time>2013-06-16T08:16:07Z</time>
      </trkpt>
      <trkpt lat="-20.98137" lon="55.40603">
        <ele>1484</ele>
        <time>2013-06-16T08:16:15Z</time>
      </trkpt>
      <trkpt lat="-20.98136" lon="55.40593">
        <ele>1482.6</ele>
        <time>2013-06-16T08:16:22Z</time>
      </trkpt>
      <trkpt lat="-20.98133" lon="55.40584">
        <ele>1483.3</ele>
        <time>2013-06-16T08:16:29Z</time>
      </trkpt>
      <trkpt lat="-20.98132" lon="55.40583">
        <ele>1483.2</ele>
        <time>2013-06-16T08:16:30Z</time>
      </trkpt>
      <trkpt lat="-20.98124" lon="55.40569">
        <ele>1484.8</ele>
        <time>2013-06-16T08:16:43Z</time>
      </trkpt>
      <trkpt lat="-20.98118" lon="55.40565">
        <ele>1484.7</ele>
        <time>2013-06-16T08:16:49Z</time>
      </trkpt>
      <trkpt lat="-20.98109" lon="55.40565">
        <ele>1486</ele>
        <time>2013-06-16T08:16:57Z</time>
      </trkpt>
      <trkpt lat="-20.981" lon="55.40566">
        <ele>1482.7</ele>
        <time>2013-06-16T08:17:06Z</time>
      </trkpt>
      <trkpt lat="-20.98093" lon="55.40565">
        <ele>1480.6</ele>
        <time>2013-06-16T08:17:13Z</time>
      </trkpt>
      <trkpt lat="-20.98084" lon="55.40567">
        <ele>1479.6</ele>
        <time>2013-06-16T08:17:25Z</time>
      </trkpt>
      <trkpt lat="-20.98077" lon="55.40571">
        <ele>1482.2</ele>
        <time>2013-06-16T08:17:32Z</time>
      </trkpt>
      <trkpt lat="-20.98076" lon="55.40571">
        <ele>1482.3</ele>
        <time>2013-06-16T08:17:33Z</time>
      </trkpt>
      <trkpt lat="-20.98061" lon="55.40565">
        <ele>1482.9</ele>
        <time>2013-06-16T08:17:43Z</time>
      </trkpt>
      <trkpt lat="-20.98054" lon="55.40563">
        <ele>1483.4</ele>
        <time>2013-06-16T08:17:47Z</time>
      </trkpt>
      <trkpt lat="-20.98045" lon="55.40562">
        <ele>1484</ele>
        <time>2013-06-16T08:17:53Z</time>
      </trkpt>
      <trkpt lat="-20.98037" lon="55.40565">
        <ele>1482.2</ele>
        <time>2013-06-16T08:17:59Z</time>
      </trkpt>
      <trkpt lat="-20.98029" lon="55.40565">
        <ele>1480</ele>
        <time>2013-06-16T08:18:04Z</time>
      </trkpt>
      <trkpt lat="-20.98022" lon="55.40563">
        <ele>1478.3</ele>
        <time>2013-06-16T08:18:09Z</time>
      </trkpt>
      <trkpt lat="-20.98014" lon="55.4056">
        <ele>1475.3</ele>
        <time>2013-06-16T08:18:16Z</time>
      </trkpt>
      <trkpt lat="-20.98007" lon="55.40555">
        <ele>1473.5</ele>
        <time>2013-06-16T08:18:23Z</time>
      </trkpt>
      <trkpt lat="-20.98" lon="55.40549">
        <ele>1470.5</ele>
        <time>2013-06-16T08:18:31Z</time>
      </trkpt>
      <trkpt lat="-20.97995" lon="55.40543">
        <ele>1469.9</ele>
        <time>2013-06-16T08:18:37Z</time>
      </trkpt>
      <trkpt lat="-20.97994" lon="55.40542">
        <ele>1470.1</ele>
        <time>2013-06-16T08:18:38Z</time>
      </trkpt>
      <trkpt lat="-20.97978" lon="55.40537">
        <ele>1470.5</ele>
        <time>2013-06-16T08:18:47Z</time>
      </trkpt>
      <trkpt lat="-20.97971" lon="55.40537">
        <ele>1469.9</ele>
        <time>2013-06-16T08:18:51Z</time>
      </trkpt>
      <trkpt lat="-20.97963" lon="55.40534">
        <ele>1471.1</ele>
        <time>2013-06-16T08:18:56Z</time>
      </trkpt>
      <trkpt lat="-20.97955" lon="55.40531">
        <ele>1471.7</ele>
        <time>2013-06-16T08:19:02Z</time>
      </trkpt>
      <trkpt lat="-20.97947" lon="55.40528">
        <ele>1472.3</ele>
        <time>2013-06-16T08:19:09Z</time>
      </trkpt>
      <trkpt lat="-20.9794" lon="55.40523">
        <ele>1473.2</ele>
        <time>2013-06-16T08:19:17Z</time>
      </trkpt>
      <trkpt lat="-20.97934" lon="55.40517">
        <ele>1471.7</ele>
        <time>2013-06-16T08:19:24Z</time>
      </trkpt>
      <trkpt lat="-20.97927" lon="55.40513">
        <ele>1471.1</ele>
        <time>2013-06-16T08:19:29Z</time>
      </trkpt>
      <trkpt lat="-20.97919" lon="55.40511">
        <ele>1470.3</ele>
        <time>2013-06-16T08:19:33Z</time>
      </trkpt>
      <trkpt lat="-20.97913" lon="55.40509">
        <ele>1469.2</ele>
        <time>2013-06-16T08:19:36Z</time>
      </trkpt>
      <trkpt lat="-20.97906" lon="55.40508">
        <ele>1467.8</ele>
        <time>2013-06-16T08:19:39Z</time>
      </trkpt>
      <trkpt lat="-20.97903" lon="55.40508">
        <ele>1467.8</ele>
        <time>2013-06-16T08:19:40Z</time>
      </trkpt>
      <trkpt lat="-20.97889" lon="55.40511">
        <ele>1467.8</ele>
        <time>2013-06-16T08:19:49Z</time>
      </trkpt>
      <trkpt lat="-20.97881" lon="55.40511">
        <ele>1466.4</ele>
        <time>2013-06-16T08:19:53Z</time>
      </trkpt>
      <trkpt lat="-20.97874" lon="55.40511">
        <ele>1465.4</ele>
        <time>2013-06-16T08:19:57Z</time>
      </trkpt>
      <trkpt lat="-20.97866" lon="55.40512">
        <ele>1464.1</ele>
        <time>2013-06-16T08:20:01Z</time>
      </trkpt>
      <trkpt lat="-20.97859" lon="55.40511">
        <ele>1463.2</ele>
        <time>2013-06-16T08:20:04Z</time>
      </trkpt>
      <trkpt lat="-20.97851" lon="55.4051">
        <ele>1462.1</ele>
        <time>2013-06-16T08:20:08Z</time>
      </trkpt>
      <trkpt lat="-20.97843" lon="55.40509">
        <ele>1460.6</ele>
        <time>2013-06-16T08:20:12Z</time>
      </trkpt>
      <trkpt lat="-20.97836" lon="55.40506">
        <ele>1460.6</ele>
        <time>2013-06-16T08:20:16Z</time>
      </trkpt>
      <trkpt lat="-20.97828" lon="55.40503">
        <ele>1459.6</ele>
        <time>2013-06-16T08:20:21Z</time>
      </trkpt>
      <trkpt lat="-20.97821" lon="55.40498">
        <ele>1457</ele>
        <time>2013-06-16T08:20:27Z</time>
      </trkpt>
      <trkpt lat="-20.97814" lon="55.40494">
        <ele>1455.1</ele>
        <time>2013-06-16T08:20:33Z</time>
      </trkpt>
      <trkpt lat="-20.97806" lon="55.40494">
        <ele>1452.5</ele>
        <time>2013-06-16T08:20:38Z</time>
      </trkpt>
      <trkpt lat="-20.97799" lon="55.40492">
        <ele>1451.5</ele>
        <time>2013-06-16T08:20:42Z</time>
      </trkpt>
      <trkpt lat="-20.97797" lon="55.40492">
        <ele>1451.2</ele>
        <time>2013-06-16T08:20:43Z</time>
      </trkpt>
      <trkpt lat="-20.97784" lon="55.40493">
        <ele>1450.1</ele>
        <time>2013-06-16T08:20:52Z</time>
      </trkpt>
      <trkpt lat="-20.97775" lon="55.40492">
        <ele>1449.6</ele>
        <time>2013-06-16T08:20:57Z</time>
      </trkpt>
      <trkpt lat="-20.97767" lon="55.40494">
        <ele>1450.1</ele>
        <time>2013-06-16T08:21:02Z</time>
      </trkpt>
      <trkpt lat="-20.9776" lon="55.40494">
        <ele>1450.5</ele>
        <time>2013-06-16T08:21:07Z</time>
      </trkpt>
      <trkpt lat="-20.97752" lon="55.40493">
        <ele>1451.3</ele>
        <time>2013-06-16T08:21:11Z</time>
      </trkpt>
      <trkpt lat="-20.97744" lon="55.40492">
        <ele>1451.2</ele>
        <time>2013-06-16T08:21:15Z</time>
      </trkpt>
      <trkpt lat="-20.97737" lon="55.40489">
        <ele>1450.9</ele>
        <time>2013-06-16T08:21:19Z</time>
      </trkpt>
      <trkpt lat="-20.97731" lon="55.40484">
        <ele>1450</ele>
        <time>2013-06-16T08:21:23Z</time>
      </trkpt>
      <trkpt lat="-20.97723" lon="55.40483">
        <ele>1447.9</ele>
        <time>2013-06-16T08:21:30Z</time>
      </trkpt>
      <trkpt lat="-20.97715" lon="55.40482">
        <ele>1444.2</ele>
        <time>2013-06-16T08:21:37Z</time>
      </trkpt>
      <trkpt lat="-20.97707" lon="55.40482">
        <ele>1444.1</ele>
        <time>2013-06-16T08:21:40Z</time>
      </trkpt>
      <trkpt lat="-20.977" lon="55.40485">
        <ele>1443.3</ele>
        <time>2013-06-16T08:21:44Z</time>
      </trkpt>
      <trkpt lat="-20.97698" lon="55.40486">
        <ele>1443.3</ele>
        <time>2013-06-16T08:21:45Z</time>
      </trkpt>
      <trkpt lat="-20.97683" lon="55.40489">
        <ele>1443.8</ele>
        <time>2013-06-16T08:22:01Z</time>
      </trkpt>
      <trkpt lat="-20.97675" lon="55.40491">
        <ele>1445.4</ele>
        <time>2013-06-16T08:22:06Z</time>
      </trkpt>
      <trkpt lat="-20.97667" lon="55.40492">
        <ele>1446.8</ele>
        <time>2013-06-16T08:22:11Z</time>
      </trkpt>
      <trkpt lat="-20.97659" lon="55.40492">
        <ele>1446.8</ele>
        <time>2013-06-16T08:22:17Z</time>
      </trkpt>
      <trkpt lat="-20.97651" lon="55.40495">
        <ele>1446.9</ele>
        <time>2013-06-16T08:22:23Z</time>
      </trkpt>
      <trkpt lat="-20.97644" lon="55.40496">
        <ele>1446.6</ele>
        <time>2013-06-16T08:22:28Z</time>
      </trkpt>
      <trkpt lat="-20.97636" lon="55.405">
        <ele>1445.2</ele>
        <time>2013-06-16T08:22:33Z</time>
      </trkpt>
      <trkpt lat="-20.97628" lon="55.40501">
        <ele>1444.3</ele>
        <time>2013-06-16T08:22:40Z</time>
      </trkpt>
      <trkpt lat="-20.97619" lon="55.405">
        <ele>1442.1</ele>
        <time>2013-06-16T08:22:47Z</time>
      </trkpt>
      <trkpt lat="-20.97618" lon="55.405">
        <ele>1441.7</ele>
        <time>2013-06-16T08:22:48Z</time>
      </trkpt>
      <trkpt lat="-20.97605" lon="55.40504">
        <ele>1441</ele>
        <time>2013-06-16T08:22:57Z</time>
      </trkpt>
      <trkpt lat="-20.97596" lon="55.40506">
        <ele>1443.5</ele>
        <time>2013-06-16T08:23:05Z</time>
      </trkpt>
      <trkpt lat="-20.97587" lon="55.40507">
        <ele>1443.7</ele>
        <time>2013-06-16T08:23:11Z</time>
      </trkpt>
      <trkpt lat="-20.97579" lon="55.40505">
        <ele>1441.6</ele>
        <time>2013-06-16T08:23:18Z</time>
      </trkpt>
      <trkpt lat="-20.97571" lon="55.40502">
        <ele>1439.6</ele>
        <time>2013-06-16T08:23:24Z</time>
      </trkpt>
      <trkpt lat="-20.97563" lon="55.40501">
        <ele>1440.4</ele>
        <time>2013-06-16T08:23:32Z</time>
      </trkpt>
      <trkpt lat="-20.97556" lon="55.40498">
        <ele>1442.9</ele>
        <time>2013-06-16T08:23:39Z</time>
      </trkpt>
      <trkpt lat="-20.97549" lon="55.40494">
        <ele>1442.7</ele>
        <time>2013-06-16T08:23:44Z</time>
      </trkpt>
      <trkpt lat="-20.97542" lon="55.40489">
        <ele>1442.6</ele>
        <time>2013-06-16T08:23:49Z</time>
      </trkpt>
      <trkpt lat="-20.9754" lon="55.40488">
        <ele>1442.3</ele>
        <time>2013-06-16T08:23:50Z</time>
      </trkpt>
      <trkpt lat="-20.97526" lon="55.40479">
        <ele>1441.6</ele>
        <time>2013-06-16T08:24:01Z</time>
      </trkpt>
      <trkpt lat="-20.97518" lon="55.40482">
        <ele>1439.5</ele>
        <time>2013-06-16T08:24:14Z</time>
      </trkpt>
      <trkpt lat="-20.9751" lon="55.4048">
        <ele>1438.4</ele>
        <time>2013-06-16T08:24:24Z</time>
      </trkpt>
      <trkpt lat="-20.97504" lon="55.40479">
        <ele>1439.1</ele>
        <time>2013-06-16T08:24:27Z</time>
      </trkpt>
      <trkpt lat="-20.97495" lon="55.40483">
        <ele>1440</ele>
        <time>2013-06-16T08:24:42Z</time>
      </trkpt>
      <trkpt lat="-20.97488" lon="55.40473">
        <ele>1442</ele>
        <time>2013-06-16T08:24:49Z</time>
      </trkpt>
      <trkpt lat="-20.97479" lon="55.40464">
        <ele>1443</ele>
        <time>2013-06-16T08:24:53Z</time>
      </trkpt>
      <trkpt lat="-20.97468" lon="55.40457">
        <ele>1443.1</ele>
        <time>2013-06-16T08:24:58Z</time>
      </trkpt>
      <trkpt lat="-20.97463" lon="55.40453">
        <ele>1443.8</ele>
        <time>2013-06-16T08:25:00Z</time>
      </trkpt>
      <trkpt lat="-20.97456" lon="55.40448">
        <ele>1444.5</ele>
        <time>2013-06-16T08:25:02Z</time>
      </trkpt>
      <trkpt lat="-20.97439" lon="55.40452">
        <ele>1445</ele>
        <time>2013-06-16T08:25:07Z</time>
      </trkpt>
      <trkpt lat="-20.97459" lon="55.4045">
        <ele>1449</ele>
        <time>2013-06-16T08:25:28Z</time>
      </trkpt>
      <trkpt lat="-20.9745" lon="55.40441">
        <ele>1452</ele>
        <time>2013-06-16T08:25:55Z</time>
      </trkpt>
      <trkpt lat="-20.97434" lon="55.40462">
        <ele>1459</ele>
        <time>2013-06-16T08:26:30Z</time>
      </trkpt>
      <trkpt lat="-20.97443" lon="55.40453">
        <ele>1463.9</ele>
        <time>2013-06-16T08:26:42Z</time>
      </trkpt>
      <trkpt lat="-20.97451" lon="55.40446">
        <ele>1466</ele>
        <time>2013-06-16T08:27:04Z</time>
      </trkpt>
      <trkpt lat="-20.9737" lon="55.40465">
        <ele>1473</ele>
        <time>2013-06-16T08:27:39Z</time>
      </trkpt>
      <trkpt lat="-20.97434" lon="55.40447">
        <ele>1475.3</ele>
        <time>2013-06-16T08:27:47Z</time>
      </trkpt>
      <trkpt lat="-20.97452" lon="55.40439">
        <ele>1479</ele>
        <time>2013-06-16T08:28:11Z</time>
      </trkpt>
      <trkpt lat="-20.9744" lon="55.40438">
        <ele>1482</ele>
        <time>2013-06-16T08:28:30Z</time>
      </trkpt>
      <trkpt lat="-20.97432" lon="55.40439">
        <ele>1487.1</ele>
        <time>2013-06-16T08:28:53Z</time>
      </trkpt>
      <trkpt lat="-20.97431" lon="55.40439">
        <ele>1487.1</ele>
        <time>2013-06-16T08:28:54Z</time>
      </trkpt>
      <trkpt lat="-20.97418" lon="55.40431">
        <ele>1489.5</ele>
        <time>2013-06-16T08:29:08Z</time>
      </trkpt>
      <trkpt lat="-20.97409" lon="55.40431">
        <ele>1490.8</ele>
        <time>2013-06-16T08:29:13Z</time>
      </trkpt>
      <trkpt lat="-20.97417" lon="55.40428">
        <ele>1493</ele>
        <time>2013-06-16T08:29:23Z</time>
      </trkpt>
      <trkpt lat="-20.9741" lon="55.40423">
        <ele>1496.2</ele>
        <time>2013-06-16T08:29:45Z</time>
      </trkpt>
      <trkpt lat="-20.97403" lon="55.40416">
        <ele>1499.7</ele>
        <time>2013-06-16T08:30:01Z</time>
      </trkpt>
      <trkpt lat="-20.97403" lon="55.40416">
        <ele>1499.9</ele>
        <time>2013-06-16T08:30:02Z</time>
      </trkpt>
      <trkpt lat="-20.9739" lon="55.40406">
        <ele>1505.3</ele>
        <time>2013-06-16T08:30:43Z</time>
      </trkpt>
      <trkpt lat="-20.97383" lon="55.40401">
        <ele>1507.9</ele>
        <time>2013-06-16T08:30:58Z</time>
      </trkpt>
      <trkpt lat="-20.97381" lon="55.40392">
        <ele>1510.5</ele>
        <time>2013-06-16T08:31:13Z</time>
      </trkpt>
      <trkpt lat="-20.9738" lon="55.40391">
        <ele>1510.7</ele>
        <time>2013-06-16T08:31:14Z</time>
      </trkpt>
      <trkpt lat="-20.97372" lon="55.40376">
        <ele>1514.5</ele>
        <time>2013-06-16T08:31:37Z</time>
      </trkpt>
      <trkpt lat="-20.97365" lon="55.40372">
        <ele>1517.4</ele>
        <time>2013-06-16T08:31:54Z</time>
      </trkpt>
      <trkpt lat="-20.97358" lon="55.40366">
        <ele>1518.6</ele>
        <time>2013-06-16T08:32:05Z</time>
      </trkpt>
      <trkpt lat="-20.9735" lon="55.40367">
        <ele>1520.2</ele>
        <time>2013-06-16T08:32:20Z</time>
      </trkpt>
      <trkpt lat="-20.97348" lon="55.40367">
        <ele>1520.6</ele>
        <time>2013-06-16T08:32:21Z</time>
      </trkpt>
      <trkpt lat="-20.97336" lon="55.40357">
        <ele>1526.3</ele>
        <time>2013-06-16T08:32:51Z</time>
      </trkpt>
      <trkpt lat="-20.97329" lon="55.40355">
        <ele>1527.4</ele>
        <time>2013-06-16T08:33:01Z</time>
      </trkpt>
      <trkpt lat="-20.97322" lon="55.40357">
        <ele>1527.4</ele>
        <time>2013-06-16T08:33:04Z</time>
      </trkpt>
      <trkpt lat="-20.97315" lon="55.40356">
        <ele>1528</ele>
        <time>2013-06-16T08:33:08Z</time>
      </trkpt>
      <trkpt lat="-20.97309" lon="55.4035">
        <ele>1534.8</ele>
        <time>2013-06-16T08:33:44Z</time>
      </trkpt>
      <trkpt lat="-20.97308" lon="55.40349">
        <ele>1535.1</ele>
        <time>2013-06-16T08:33:45Z</time>
      </trkpt>
      <trkpt lat="-20.97295" lon="55.40338">
        <ele>1538</ele>
        <time>2013-06-16T08:33:59Z</time>
      </trkpt>
      <trkpt lat="-20.97287" lon="55.4034">
        <ele>1536.7</ele>
        <time>2013-06-16T08:34:09Z</time>
      </trkpt>
      <trkpt lat="-20.97282" lon="55.40344">
        <ele>1535.4</ele>
        <time>2013-06-16T08:34:14Z</time>
      </trkpt>
      <trkpt lat="-20.97275" lon="55.40348">
        <ele>1534.6</ele>
        <time>2013-06-16T08:34:18Z</time>
      </trkpt>
      <trkpt lat="-20.97269" lon="55.40353">
        <ele>1534</ele>
        <time>2013-06-16T08:34:24Z</time>
      </trkpt>
      <trkpt lat="-20.97264" lon="55.40361">
        <ele>1533.5</ele>
        <time>2013-06-16T08:34:29Z</time>
      </trkpt>
      <trkpt lat="-20.97258" lon="55.40368">
        <ele>1532.8</ele>
        <time>2013-06-16T08:34:36Z</time>
      </trkpt>
      <trkpt lat="-20.97252" lon="55.40375">
        <ele>1529.4</ele>
        <time>2013-06-16T08:34:44Z</time>
      </trkpt>
      <trkpt lat="-20.97247" lon="55.40383">
        <ele>1525.6</ele>
        <time>2013-06-16T08:34:52Z</time>
      </trkpt>
      <trkpt lat="-20.97246" lon="55.40384">
        <ele>1525.4</ele>
        <time>2013-06-16T08:34:53Z</time>
      </trkpt>
      <trkpt lat="-20.97238" lon="55.40397">
        <ele>1521.9</ele>
        <time>2013-06-16T08:35:03Z</time>
      </trkpt>
      <trkpt lat="-20.97232" lon="55.40405">
        <ele>1520.4</ele>
        <time>2013-06-16T08:35:10Z</time>
      </trkpt>
      <trkpt lat="-20.97227" lon="55.40412">
        <ele>1518.7</ele>
        <time>2013-06-16T08:35:15Z</time>
      </trkpt>
      <trkpt lat="-20.97222" lon="55.40419">
        <ele>1518.8</ele>
        <time>2013-06-16T08:35:20Z</time>
      </trkpt>
      <trkpt lat="-20.97216" lon="55.40424">
        <ele>1518.9</ele>
        <time>2013-06-16T08:35:25Z</time>
      </trkpt>
      <trkpt lat="-20.97207" lon="55.40426">
        <ele>1518.9</ele>
        <time>2013-06-16T08:35:29Z</time>
      </trkpt>
      <trkpt lat="-20.97199" lon="55.40427">
        <ele>1519.4</ele>
        <time>2013-06-16T08:35:34Z</time>
      </trkpt>
      <trkpt lat="-20.9719" lon="55.40425">
        <ele>1518.9</ele>
        <time>2013-06-16T08:35:39Z</time>
      </trkpt>
      <trkpt lat="-20.97182" lon="55.40425">
        <ele>1518.8</ele>
        <time>2013-06-16T08:35:44Z</time>
      </trkpt>
      <trkpt lat="-20.97173" lon="55.40426">
        <ele>1517.8</ele>
        <time>2013-06-16T08:35:49Z</time>
      </trkpt>
      <trkpt lat="-20.97167" lon="55.4043">
        <ele>1518</ele>
        <time>2013-06-16T08:35:53Z</time>
      </trkpt>
      <trkpt lat="-20.97165" lon="55.4043">
        <ele>1518.2</ele>
        <time>2013-06-16T08:35:54Z</time>
      </trkpt>
      <trkpt lat="-20.9715" lon="55.40428">
        <ele>1517.3</ele>
        <time>2013-06-16T08:36:06Z</time>
      </trkpt>
      <trkpt lat="-20.97143" lon="55.40427">
        <ele>1518.6</ele>
        <time>2013-06-16T08:36:13Z</time>
      </trkpt>
      <trkpt lat="-20.97135" lon="55.40424">
        <ele>1520.3</ele>
        <time>2013-06-16T08:36:24Z</time>
      </trkpt>
      <trkpt lat="-20.97128" lon="55.4043">
        <ele>1527.1</ele>
        <time>2013-06-16T08:36:56Z</time>
      </trkpt>
      <trkpt lat="-20.97127" lon="55.4043">
        <ele>1527.4</ele>
        <time>2013-06-16T08:36:57Z</time>
      </trkpt>
      <trkpt lat="-20.97112" lon="55.40435">
        <ele>1526.9</ele>
        <time>2013-06-16T08:37:08Z</time>
      </trkpt>
      <trkpt lat="-20.97105" lon="55.4044">
        <ele>1528.4</ele>
        <time>2013-06-16T08:37:15Z</time>
      </trkpt>
      <trkpt lat="-20.971" lon="55.40447">
        <ele>1528</ele>
        <time>2013-06-16T08:37:20Z</time>
      </trkpt>
      <trkpt lat="-20.97094" lon="55.40454">
        <ele>1527.1</ele>
        <time>2013-06-16T08:37:26Z</time>
      </trkpt>
      <trkpt lat="-20.97086" lon="55.40457">
        <ele>1526.6</ele>
        <time>2013-06-16T08:37:32Z</time>
      </trkpt>
      <trkpt lat="-20.97077" lon="55.4046">
        <ele>1527.4</ele>
        <time>2013-06-16T08:37:39Z</time>
      </trkpt>
      <trkpt lat="-20.97074" lon="55.40467">
        <ele>1526.7</ele>
        <time>2013-06-16T08:37:45Z</time>
      </trkpt>
      <trkpt lat="-20.97068" lon="55.40473">
        <ele>1525.9</ele>
        <time>2013-06-16T08:37:52Z</time>
      </trkpt>
      <trkpt lat="-20.9706" lon="55.40475">
        <ele>1522.3</ele>
        <time>2013-06-16T08:38:00Z</time>
      </trkpt>
      <trkpt lat="-20.97059" lon="55.40475">
        <ele>1522</ele>
        <time>2013-06-16T08:38:01Z</time>
      </trkpt>
      <trkpt lat="-20.97044" lon="55.40479">
        <ele>1516.6</ele>
        <time>2013-06-16T08:38:15Z</time>
      </trkpt>
      <trkpt lat="-20.97035" lon="55.4048">
        <ele>1516.9</ele>
        <time>2013-06-16T08:38:24Z</time>
      </trkpt>
      <trkpt lat="-20.97027" lon="55.4048">
        <ele>1516.7</ele>
        <time>2013-06-16T08:38:29Z</time>
      </trkpt>
      <trkpt lat="-20.9702" lon="55.40485">
        <ele>1515.3</ele>
        <time>2013-06-16T08:38:35Z</time>
      </trkpt>
      <trkpt lat="-20.97015" lon="55.40493">
        <ele>1513.6</ele>
        <time>2013-06-16T08:38:41Z</time>
      </trkpt>
      <trkpt lat="-20.97009" lon="55.40498">
        <ele>1512.5</ele>
        <time>2013-06-16T08:38:46Z</time>
      </trkpt>
      <trkpt lat="-20.97003" lon="55.40505">
        <ele>1511.5</ele>
        <time>2013-06-16T08:38:50Z</time>
      </trkpt>
      <trkpt lat="-20.96996" lon="55.40511">
        <ele>1510.9</ele>
        <time>2013-06-16T08:38:55Z</time>
      </trkpt>
      <trkpt lat="-20.96989" lon="55.40513">
        <ele>1510.4</ele>
        <time>2013-06-16T08:38:59Z</time>
      </trkpt>
      <trkpt lat="-20.96981" lon="55.40514">
        <ele>1510.3</ele>
        <time>2013-06-16T08:39:05Z</time>
      </trkpt>
      <trkpt lat="-20.9698" lon="55.40514">
        <ele>1510.4</ele>
        <time>2013-06-16T08:39:06Z</time>
      </trkpt>
      <trkpt lat="-20.96969" lon="55.40527">
        <ele>1512.2</ele>
        <time>2013-06-16T08:39:19Z</time>
      </trkpt>
      <trkpt lat="-20.96963" lon="55.40533">
        <ele>1512.6</ele>
        <time>2013-06-16T08:39:25Z</time>
      </trkpt>
      <trkpt lat="-20.96955" lon="55.40538">
        <ele>1514.6</ele>
        <time>2013-06-16T08:39:35Z</time>
      </trkpt>
      <trkpt lat="-20.96947" lon="55.40537">
        <ele>1513</ele>
        <time>2013-06-16T08:39:43Z</time>
      </trkpt>
      <trkpt lat="-20.96939" lon="55.40534">
        <ele>1509.2</ele>
        <time>2013-06-16T08:39:51Z</time>
      </trkpt>
      <trkpt lat="-20.96931" lon="55.40531">
        <ele>1507.1</ele>
        <time>2013-06-16T08:39:58Z</time>
      </trkpt>
      <trkpt lat="-20.96923" lon="55.40531">
        <ele>1505</ele>
        <time>2013-06-16T08:40:04Z</time>
      </trkpt>
      <trkpt lat="-20.96916" lon="55.40525">
        <ele>1504.1</ele>
        <time>2013-06-16T08:40:09Z</time>
      </trkpt>
      <trkpt lat="-20.96915" lon="55.40524">
        <ele>1504</ele>
        <time>2013-06-16T08:40:10Z</time>
      </trkpt>
      <trkpt lat="-20.969" lon="55.40523">
        <ele>1509.2</ele>
        <time>2013-06-16T08:40:36Z</time>
      </trkpt>
      <trkpt lat="-20.96892" lon="55.40527">
        <ele>1510.3</ele>
        <time>2013-06-16T08:40:43Z</time>
      </trkpt>
      <trkpt lat="-20.96885" lon="55.4053">
        <ele>1508.9</ele>
        <time>2013-06-16T08:40:49Z</time>
      </trkpt>
      <trkpt lat="-20.96878" lon="55.40529">
        <ele>1507.1</ele>
        <time>2013-06-16T08:40:53Z</time>
      </trkpt>
      <trkpt lat="-20.9687" lon="55.4053">
        <ele>1507.5</ele>
        <time>2013-06-16T08:40:57Z</time>
      </trkpt>
      <trkpt lat="-20.96863" lon="55.40531">
        <ele>1507.8</ele>
        <time>2013-06-16T08:41:02Z</time>
      </trkpt>
      <trkpt lat="-20.96855" lon="55.40533">
        <ele>1506.3</ele>
        <time>2013-06-16T08:41:07Z</time>
      </trkpt>
      <trkpt lat="-20.96847" lon="55.40536">
        <ele>1505.5</ele>
        <time>2013-06-16T08:41:13Z</time>
      </trkpt>
      <trkpt lat="-20.96847" lon="55.40536">
        <ele>1505.7</ele>
        <time>2013-06-16T08:41:14Z</time>
      </trkpt>
      <trkpt lat="-20.96831" lon="55.40541">
        <ele>1507.9</ele>
        <time>2013-06-16T08:41:24Z</time>
      </trkpt>
      <trkpt lat="-20.96825" lon="55.40546">
        <ele>1509.1</ele>
        <time>2013-06-16T08:41:36Z</time>
      </trkpt>
      <trkpt lat="-20.96818" lon="55.40552">
        <ele>1507.2</ele>
        <time>2013-06-16T08:41:42Z</time>
      </trkpt>
      <trkpt lat="-20.96812" lon="55.40557">
        <ele>1506.9</ele>
        <time>2013-06-16T08:41:48Z</time>
      </trkpt>
      <trkpt lat="-20.96805" lon="55.40561">
        <ele>1505.4</ele>
        <time>2013-06-16T08:41:52Z</time>
      </trkpt>
      <trkpt lat="-20.96797" lon="55.40564">
        <ele>1505.4</ele>
        <time>2013-06-16T08:41:57Z</time>
      </trkpt>
      <trkpt lat="-20.96789" lon="55.40567">
        <ele>1504.9</ele>
        <time>2013-06-16T08:42:03Z</time>
      </trkpt>
      <trkpt lat="-20.96784" lon="55.40575">
        <ele>1504</ele>
        <time>2013-06-16T08:42:08Z</time>
      </trkpt>
      <trkpt lat="-20.96777" lon="55.40581">
        <ele>1503.7</ele>
        <time>2013-06-16T08:42:14Z</time>
      </trkpt>
      <trkpt lat="-20.96771" lon="55.40585">
        <ele>1502</ele>
        <time>2013-06-16T08:42:19Z</time>
      </trkpt>
      <trkpt lat="-20.96769" lon="55.40586">
        <ele>1502.1</ele>
        <time>2013-06-16T08:42:20Z</time>
      </trkpt>
      <trkpt lat="-20.96756" lon="55.40594">
        <ele>1502.1</ele>
        <time>2013-06-16T08:42:29Z</time>
      </trkpt>
      <trkpt lat="-20.9675" lon="55.406">
        <ele>1500.2</ele>
        <time>2013-06-16T08:42:35Z</time>
      </trkpt>
      <trkpt lat="-20.96744" lon="55.40605">
        <ele>1499.7</ele>
        <time>2013-06-16T08:42:40Z</time>
      </trkpt>
      <trkpt lat="-20.96736" lon="55.40608">
        <ele>1499.3</ele>
        <time>2013-06-16T08:42:45Z</time>
      </trkpt>
      <trkpt lat="-20.96728" lon="55.4061">
        <ele>1499.4</ele>
        <time>2013-06-16T08:42:49Z</time>
      </trkpt>
      <trkpt lat="-20.9672" lon="55.40614">
        <ele>1498.3</ele>
        <time>2013-06-16T08:42:55Z</time>
      </trkpt>
      <trkpt lat="-20.96711" lon="55.40613">
        <ele>1497.8</ele>
        <time>2013-06-16T08:43:01Z</time>
      </trkpt>
      <trkpt lat="-20.96703" lon="55.4061">
        <ele>1493.8</ele>
        <time>2013-06-16T08:43:08Z</time>
      </trkpt>
      <trkpt lat="-20.96696" lon="55.40609">
        <ele>1493.2</ele>
        <time>2013-06-16T08:43:12Z</time>
      </trkpt>
      <trkpt lat="-20.96687" lon="55.4061">
        <ele>1493.8</ele>
        <time>2013-06-16T08:43:22Z</time>
      </trkpt>
      <trkpt lat="-20.96686" lon="55.4061">
        <ele>1493.8</ele>
        <time>2013-06-16T08:43:23Z</time>
      </trkpt>
      <trkpt lat="-20.96671" lon="55.40611">
        <ele>1495.5</ele>
        <time>2013-06-16T08:43:35Z</time>
      </trkpt>
      <trkpt lat="-20.96662" lon="55.40609">
        <ele>1491.8</ele>
        <time>2013-06-16T08:43:43Z</time>
      </trkpt>
      <trkpt lat="-20.96657" lon="55.40602">
        <ele>1489</ele>
        <time>2013-06-16T08:43:52Z</time>
      </trkpt>
      <trkpt lat="-20.96649" lon="55.40599">
        <ele>1486.1</ele>
        <time>2013-06-16T08:44:00Z</time>
      </trkpt>
      <trkpt lat="-20.96641" lon="55.40599">
        <ele>1484.5</ele>
        <time>2013-06-16T08:44:17Z</time>
      </trkpt>
      <trkpt lat="-20.96638" lon="55.40592">
        <ele>1485.3</ele>
        <time>2013-06-16T08:44:22Z</time>
      </trkpt>
      <trkpt lat="-20.9663" lon="55.4059">
        <ele>1488.4</ele>
        <time>2013-06-16T08:44:34Z</time>
      </trkpt>
      <trkpt lat="-20.96628" lon="55.4059">
        <ele>1488.5</ele>
        <time>2013-06-16T08:44:35Z</time>
      </trkpt>
      <trkpt lat="-20.96614" lon="55.40589">
        <ele>1489.5</ele>
        <time>2013-06-16T08:44:44Z</time>
      </trkpt>
      <trkpt lat="-20.96608" lon="55.40585">
        <ele>1489.4</ele>
        <time>2013-06-16T08:44:48Z</time>
      </trkpt>
      <trkpt lat="-20.966" lon="55.40583">
        <ele>1488.9</ele>
        <time>2013-06-16T08:44:52Z</time>
      </trkpt>
      <trkpt lat="-20.96592" lon="55.40579">
        <ele>1488.1</ele>
        <time>2013-06-16T08:44:57Z</time>
      </trkpt>
      <trkpt lat="-20.96586" lon="55.40578">
        <ele>1488</ele>
        <time>2013-06-16T08:45:01Z</time>
      </trkpt>
      <trkpt lat="-20.96577" lon="55.40574">
        <ele>1487.5</ele>
        <time>2013-06-16T08:45:06Z</time>
      </trkpt>
      <trkpt lat="-20.96569" lon="55.40572">
        <ele>1488.6</ele>
        <time>2013-06-16T08:45:14Z</time>
      </trkpt>
      <trkpt lat="-20.96562" lon="55.40575">
        <ele>1489.6</ele>
        <time>2013-06-16T08:45:21Z</time>
      </trkpt>
      <trkpt lat="-20.96556" lon="55.40581">
        <ele>1491.1</ele>
        <time>2013-06-16T08:45:27Z</time>
      </trkpt>
      <trkpt lat="-20.96547" lon="55.40582">
        <ele>1489</ele>
        <time>2013-06-16T08:45:36Z</time>
      </trkpt>
      <trkpt lat="-20.96546" lon="55.40582">
        <ele>1488.5</ele>
        <time>2013-06-16T08:45:37Z</time>
      </trkpt>
      <trkpt lat="-20.9653" lon="55.4058">
        <ele>1484.1</ele>
        <time>2013-06-16T08:45:50Z</time>
      </trkpt>
      <trkpt lat="-20.96523" lon="55.40576">
        <ele>1480.6</ele>
        <time>2013-06-16T08:46:01Z</time>
      </trkpt>
      <trkpt lat="-20.96514" lon="55.40574">
        <ele>1476.5</ele>
        <time>2013-06-16T08:46:10Z</time>
      </trkpt>
      <trkpt lat="-20.96508" lon="55.40569">
        <ele>1473.4</ele>
        <time>2013-06-16T08:46:19Z</time>
      </trkpt>
      <trkpt lat="-20.96499" lon="55.40567">
        <ele>1472.8</ele>
        <time>2013-06-16T08:46:25Z</time>
      </trkpt>
      <trkpt lat="-20.96492" lon="55.40567">
        <ele>1472.4</ele>
        <time>2013-06-16T08:46:30Z</time>
      </trkpt>
      <trkpt lat="-20.96484" lon="55.40564">
        <ele>1472.1</ele>
        <time>2013-06-16T08:46:34Z</time>
      </trkpt>
      <trkpt lat="-20.96477" lon="55.40559">
        <ele>1471.9</ele>
        <time>2013-06-16T08:46:39Z</time>
      </trkpt>
      <trkpt lat="-20.96475" lon="55.40557">
        <ele>1471.7</ele>
        <time>2013-06-16T08:46:40Z</time>
      </trkpt>
      <trkpt lat="-20.96462" lon="55.40553">
        <ele>1471</ele>
        <time>2013-06-16T08:46:46Z</time>
      </trkpt>
      <trkpt lat="-20.96456" lon="55.40547">
        <ele>1470.9</ele>
        <time>2013-06-16T08:46:51Z</time>
      </trkpt>
      <trkpt lat="-20.9645" lon="55.40543">
        <ele>1470</ele>
        <time>2013-06-16T08:46:57Z</time>
      </trkpt>
      <trkpt lat="-20.96444" lon="55.40536">
        <ele>1468.3</ele>
        <time>2013-06-16T08:47:02Z</time>
      </trkpt>
      <trkpt lat="-20.96438" lon="55.4053">
        <ele>1467.4</ele>
        <time>2013-06-16T08:47:08Z</time>
      </trkpt>
      <trkpt lat="-20.96432" lon="55.40525">
        <ele>1467.6</ele>
        <time>2013-06-16T08:47:12Z</time>
      </trkpt>
      <trkpt lat="-20.96427" lon="55.40521">
        <ele>1466.3</ele>
        <time>2013-06-16T08:47:16Z</time>
      </trkpt>
      <trkpt lat="-20.9642" lon="55.40518">
        <ele>1465.2</ele>
        <time>2013-06-16T08:47:20Z</time>
      </trkpt>
      <trkpt lat="-20.96412" lon="55.40521">
        <ele>1465</ele>
        <time>2013-06-16T08:47:25Z</time>
      </trkpt>
      <trkpt lat="-20.96403" lon="55.40521">
        <ele>1464.3</ele>
        <time>2013-06-16T08:47:30Z</time>
      </trkpt>
      <trkpt lat="-20.96394" lon="55.4052">
        <ele>1463</ele>
        <time>2013-06-16T08:47:36Z</time>
      </trkpt>
      <trkpt lat="-20.9639" lon="55.40512">
        <ele>1460.7</ele>
        <time>2013-06-16T08:47:42Z</time>
      </trkpt>
      <trkpt lat="-20.96388" lon="55.40511">
        <ele>1460.5</ele>
        <time>2013-06-16T08:47:43Z</time>
      </trkpt>
      <trkpt lat="-20.96376" lon="55.40508">
        <ele>1459</ele>
        <time>2013-06-16T08:47:50Z</time>
      </trkpt>
      <trkpt lat="-20.96368" lon="55.40508">
        <ele>1457.5</ele>
        <time>2013-06-16T08:47:54Z</time>
      </trkpt>
      <trkpt lat="-20.96359" lon="55.40509">
        <ele>1456.8</ele>
        <time>2013-06-16T08:48:00Z</time>
      </trkpt>
      <trkpt lat="-20.9635" lon="55.40507">
        <ele>1454.5</ele>
        <time>2013-06-16T08:48:07Z</time>
      </trkpt>
      <trkpt lat="-20.96343" lon="55.40508">
        <ele>1453.6</ele>
        <time>2013-06-16T08:48:11Z</time>
      </trkpt>
      <trkpt lat="-20.96335" lon="55.40509">
        <ele>1453.3</ele>
        <time>2013-06-16T08:48:14Z</time>
      </trkpt>
      <trkpt lat="-20.96327" lon="55.40513">
        <ele>1453.1</ele>
        <time>2013-06-16T08:48:19Z</time>
      </trkpt>
      <trkpt lat="-20.96319" lon="55.40513">
        <ele>1452.2</ele>
        <time>2013-06-16T08:48:24Z</time>
      </trkpt>
      <trkpt lat="-20.9631" lon="55.40514">
        <ele>1451.2</ele>
        <time>2013-06-16T08:48:29Z</time>
      </trkpt>
      <trkpt lat="-20.96302" lon="55.40518">
        <ele>1451.3</ele>
        <time>2013-06-16T08:48:34Z</time>
      </trkpt>
      <trkpt lat="-20.96295" lon="55.40521">
        <ele>1451.8</ele>
        <time>2013-06-16T08:48:38Z</time>
      </trkpt>
      <trkpt lat="-20.96288" lon="55.40523">
        <ele>1450.6</ele>
        <time>2013-06-16T08:48:42Z</time>
      </trkpt>
      <trkpt lat="-20.96282" lon="55.40528">
        <ele>1449.6</ele>
        <time>2013-06-16T08:48:48Z</time>
      </trkpt>
      <trkpt lat="-20.96281" lon="55.4053">
        <ele>1449.5</ele>
        <time>2013-06-16T08:48:49Z</time>
      </trkpt>
      <trkpt lat="-20.96276" lon="55.40545">
        <ele>1447.1</ele>
        <time>2013-06-16T08:48:59Z</time>
      </trkpt>
      <trkpt lat="-20.96273" lon="55.40553">
        <ele>1445.1</ele>
        <time>2013-06-16T08:49:05Z</time>
      </trkpt>
      <trkpt lat="-20.9627" lon="55.4056">
        <ele>1444.9</ele>
        <time>2013-06-16T08:49:09Z</time>
      </trkpt>
      <trkpt lat="-20.96267" lon="55.40569">
        <ele>1443.1</ele>
        <time>2013-06-16T08:49:14Z</time>
      </trkpt>
      <trkpt lat="-20.96264" lon="55.40578">
        <ele>1441</ele>
        <time>2013-06-16T08:49:21Z</time>
      </trkpt>
      <trkpt lat="-20.96257" lon="55.40583">
        <ele>1439.7</ele>
        <time>2013-06-16T08:49:28Z</time>
      </trkpt>
      <trkpt lat="-20.96249" lon="55.40588">
        <ele>1436.5</ele>
        <time>2013-06-16T08:49:34Z</time>
      </trkpt>
      <trkpt lat="-20.96241" lon="55.40592">
        <ele>1434.6</ele>
        <time>2013-06-16T08:49:40Z</time>
      </trkpt>
      <trkpt lat="-20.96234" lon="55.40594">
        <ele>1434.9</ele>
        <time>2013-06-16T08:49:46Z</time>
      </trkpt>
      <trkpt lat="-20.96226" lon="55.40595">
        <ele>1435.4</ele>
        <time>2013-06-16T08:49:51Z</time>
      </trkpt>
      <trkpt lat="-20.96225" lon="55.40595">
        <ele>1435.6</ele>
        <time>2013-06-16T08:49:52Z</time>
      </trkpt>
      <trkpt lat="-20.9621" lon="55.40592">
        <ele>1436.9</ele>
        <time>2013-06-16T08:50:08Z</time>
      </trkpt>
      <trkpt lat="-20.96202" lon="55.40589">
        <ele>1435.7</ele>
        <time>2013-06-16T08:50:16Z</time>
      </trkpt>
      <trkpt lat="-20.96194" lon="55.4059">
        <ele>1433</ele>
        <time>2013-06-16T08:50:27Z</time>
      </trkpt>
      <trkpt lat="-20.96186" lon="55.40592">
        <ele>1431.2</ele>
        <time>2013-06-16T08:50:33Z</time>
      </trkpt>
      <trkpt lat="-20.96179" lon="55.40587">
        <ele>1429.8</ele>
        <time>2013-06-16T08:50:42Z</time>
      </trkpt>
      <trkpt lat="-20.96171" lon="55.40585">
        <ele>1428.1</ele>
        <time>2013-06-16T08:50:50Z</time>
      </trkpt>
      <trkpt lat="-20.96162" lon="55.40585">
        <ele>1427.4</ele>
        <time>2013-06-16T08:50:56Z</time>
      </trkpt>
      <trkpt lat="-20.9616" lon="55.40586">
        <ele>1427.2</ele>
        <time>2013-06-16T08:50:57Z</time>
      </trkpt>
      <trkpt lat="-20.96146" lon="55.40586">
        <ele>1427.7</ele>
        <time>2013-06-16T08:51:06Z</time>
      </trkpt>
      <trkpt lat="-20.9614" lon="55.40593">
        <ele>1428.7</ele>
        <time>2013-06-16T08:51:19Z</time>
      </trkpt>
      <trkpt lat="-20.96132" lon="55.40596">
        <ele>1428.9</ele>
        <time>2013-06-16T08:51:26Z</time>
      </trkpt>
      <trkpt lat="-20.96124" lon="55.40599">
        <ele>1429</ele>
        <time>2013-06-16T08:51:33Z</time>
      </trkpt>
      <trkpt lat="-20.96116" lon="55.406">
        <ele>1428.1</ele>
        <time>2013-06-16T08:51:40Z</time>
      </trkpt>
      <trkpt lat="-20.96108" lon="55.40602">
        <ele>1427.4</ele>
        <time>2013-06-16T08:51:46Z</time>
      </trkpt>
      <trkpt lat="-20.96099" lon="55.40604">
        <ele>1428.3</ele>
        <time>2013-06-16T08:51:53Z</time>
      </trkpt>
      <trkpt lat="-20.9609" lon="55.40605">
        <ele>1425.8</ele>
        <time>2013-06-16T08:52:01Z</time>
      </trkpt>
      <trkpt lat="-20.96089" lon="55.40606">
        <ele>1425.9</ele>
        <time>2013-06-16T08:52:02Z</time>
      </trkpt>
      <trkpt lat="-20.96076" lon="55.40615">
        <ele>1425.1</ele>
        <time>2013-06-16T08:52:14Z</time>
      </trkpt>
      <trkpt lat="-20.96068" lon="55.40617">
        <ele>1425.5</ele>
        <time>2013-06-16T08:52:20Z</time>
      </trkpt>
      <trkpt lat="-20.9606" lon="55.40616">
        <ele>1427</ele>
        <time>2013-06-16T08:52:27Z</time>
      </trkpt>
      <trkpt lat="-20.96053" lon="55.40612">
        <ele>1427.7</ele>
        <time>2013-06-16T08:52:34Z</time>
      </trkpt>
      <trkpt lat="-20.96046" lon="55.40607">
        <ele>1427.6</ele>
        <time>2013-06-16T08:52:39Z</time>
      </trkpt>
      <trkpt lat="-20.96038" lon="55.4061">
        <ele>1425.3</ele>
        <time>2013-06-16T08:52:48Z</time>
      </trkpt>
      <trkpt lat="-20.9603" lon="55.40611">
        <ele>1421.8</ele>
        <time>2013-06-16T08:52:55Z</time>
      </trkpt>
      <trkpt lat="-20.96023" lon="55.40614">
        <ele>1420.6</ele>
        <time>2013-06-16T08:53:00Z</time>
      </trkpt>
      <trkpt lat="-20.96016" lon="55.40618">
        <ele>1418.9</ele>
        <time>2013-06-16T08:53:06Z</time>
      </trkpt>
      <trkpt lat="-20.96015" lon="55.40619">
        <ele>1418.3</ele>
        <time>2013-06-16T08:53:07Z</time>
      </trkpt>
      <trkpt lat="-20.96004" lon="55.40629">
        <ele>1413.8</ele>
        <time>2013-06-16T08:53:23Z</time>
      </trkpt>
      <trkpt lat="-20.9601" lon="55.40635">
        <ele>1411</ele>
        <time>2013-06-16T08:53:33Z</time>
      </trkpt>
      <trkpt lat="-20.96008" lon="55.40644">
        <ele>1406.9</ele>
        <time>2013-06-16T08:53:42Z</time>
      </trkpt>
      <trkpt lat="-20.96002" lon="55.4065">
        <ele>1404.4</ele>
        <time>2013-06-16T08:53:52Z</time>
      </trkpt>
      <trkpt lat="-20.95994" lon="55.40654">
        <ele>1402</ele>
        <time>2013-06-16T08:54:07Z</time>
      </trkpt>
      <trkpt lat="-20.95986" lon="55.40656">
        <ele>1397.1</ele>
        <time>2013-06-16T08:54:19Z</time>
      </trkpt>
      <trkpt lat="-20.95985" lon="55.40656">
        <ele>1397</ele>
        <time>2013-06-16T08:54:20Z</time>
      </trkpt>
      <trkpt lat="-20.9597" lon="55.40661">
        <ele>1395.2</ele>
        <time>2013-06-16T08:54:29Z</time>
      </trkpt>
      <trkpt lat="-20.95963" lon="55.40665">
        <ele>1392.8</ele>
        <time>2013-06-16T08:54:34Z</time>
      </trkpt>
      <trkpt lat="-20.95955" lon="55.40665">
        <ele>1389.7</ele>
        <time>2013-06-16T08:54:41Z</time>
      </trkpt>
      <trkpt lat="-20.95947" lon="55.40665">
        <ele>1385.3</ele>
        <time>2013-06-16T08:54:50Z</time>
      </trkpt>
      <trkpt lat="-20.95939" lon="55.40665">
        <ele>1383.3</ele>
        <time>2013-06-16T08:54:56Z</time>
      </trkpt>
      <trkpt lat="-20.95932" lon="55.40663">
        <ele>1383.4</ele>
        <time>2013-06-16T08:55:01Z</time>
      </trkpt>
      <trkpt lat="-20.95924" lon="55.40667">
        <ele>1384.1</ele>
        <time>2013-06-16T08:55:08Z</time>
      </trkpt>
      <trkpt lat="-20.95917" lon="55.40671">
        <ele>1383.3</ele>
        <time>2013-06-16T08:55:14Z</time>
      </trkpt>
      <trkpt lat="-20.9591" lon="55.40672">
        <ele>1381.4</ele>
        <time>2013-06-16T08:55:18Z</time>
      </trkpt>
      <trkpt lat="-20.95902" lon="55.40676">
        <ele>1380.9</ele>
        <time>2013-06-16T08:55:22Z</time>
      </trkpt>
      <trkpt lat="-20.95901" lon="55.40677">
        <ele>1380.6</ele>
        <time>2013-06-16T08:55:23Z</time>
      </trkpt>
      <trkpt lat="-20.95888" lon="55.40685">
        <ele>1377.2</ele>
        <time>2013-06-16T08:55:35Z</time>
      </trkpt>
      <trkpt lat="-20.9588" lon="55.40687">
        <ele>1375</ele>
        <time>2013-06-16T08:55:42Z</time>
      </trkpt>
      <trkpt lat="-20.95872" lon="55.40686">
        <ele>1372.6</ele>
        <time>2013-06-16T08:55:49Z</time>
      </trkpt>
      <trkpt lat="-20.95865" lon="55.4069">
        <ele>1370.1</ele>
        <time>2013-06-16T08:55:57Z</time>
      </trkpt>
      <trkpt lat="-20.95857" lon="55.40692">
        <ele>1368.9</ele>
        <time>2013-06-16T08:56:03Z</time>
      </trkpt>
      <trkpt lat="-20.95848" lon="55.40691">
        <ele>1365.1</ele>
        <time>2013-06-16T08:56:10Z</time>
      </trkpt>
      <trkpt lat="-20.9584" lon="55.40691">
        <ele>1363.8</ele>
        <time>2013-06-16T08:56:16Z</time>
      </trkpt>
      <trkpt lat="-20.95831" lon="55.40691">
        <ele>1363.9</ele>
        <time>2013-06-16T08:56:21Z</time>
      </trkpt>
      <trkpt lat="-20.95823" lon="55.40691">
        <ele>1364</ele>
        <time>2013-06-16T08:56:32Z</time>
      </trkpt>
      <trkpt lat="-20.95822" lon="55.40691">
        <ele>1364.1</ele>
        <time>2013-06-16T08:56:33Z</time>
      </trkpt>
      <trkpt lat="-20.95807" lon="55.40692">
        <ele>1365.4</ele>
        <time>2013-06-16T08:56:41Z</time>
      </trkpt>
      <trkpt lat="-20.95799" lon="55.4069">
        <ele>1364.2</ele>
        <time>2013-06-16T08:56:46Z</time>
      </trkpt>
      <trkpt lat="-20.95793" lon="55.40685">
        <ele>1363.7</ele>
        <time>2013-06-16T08:56:51Z</time>
      </trkpt>
      <trkpt lat="-20.95786" lon="55.40682">
        <ele>1363.8</ele>
        <time>2013-06-16T08:56:55Z</time>
      </trkpt>
      <trkpt lat="-20.95778" lon="55.40681">
        <ele>1363.9</ele>
        <time>2013-06-16T08:57:00Z</time>
      </trkpt>
      <trkpt lat="-20.95771" lon="55.40681">
        <ele>1363.6</ele>
        <time>2013-06-16T08:57:04Z</time>
      </trkpt>
      <trkpt lat="-20.95763" lon="55.40682">
        <ele>1365.1</ele>
        <time>2013-06-16T08:57:10Z</time>
      </trkpt>
      <trkpt lat="-20.95754" lon="55.4068">
        <ele>1365.3</ele>
        <time>2013-06-16T08:57:18Z</time>
      </trkpt>
      <trkpt lat="-20.95747" lon="55.40682">
        <ele>1366.3</ele>
        <time>2013-06-16T08:57:23Z</time>
      </trkpt>
      <trkpt lat="-20.95738" lon="55.40682">
        <ele>1366.6</ele>
        <time>2013-06-16T08:57:30Z</time>
      </trkpt>
      <trkpt lat="-20.95729" lon="55.4068">
        <ele>1365.6</ele>
        <time>2013-06-16T08:57:40Z</time>
      </trkpt>
      <trkpt lat="-20.95728" lon="55.40681">
        <ele>1365.1</ele>
        <time>2013-06-16T08:57:41Z</time>
      </trkpt>
      <trkpt lat="-20.95719" lon="55.40666">
        <ele>1359.4</ele>
        <time>2013-06-16T08:58:01Z</time>
      </trkpt>
      <trkpt lat="-20.95712" lon="55.40662">
        <ele>1357.2</ele>
        <time>2013-06-16T08:58:09Z</time>
      </trkpt>
      <trkpt lat="-20.95705" lon="55.40657">
        <ele>1353.8</ele>
        <time>2013-06-16T08:58:19Z</time>
      </trkpt>
      <trkpt lat="-20.957" lon="55.40652">
        <ele>1353.1</ele>
        <time>2013-06-16T08:58:24Z</time>
      </trkpt>
      <trkpt lat="-20.95696" lon="55.40643">
        <ele>1351.7</ele>
        <time>2013-06-16T08:58:30Z</time>
      </trkpt>
      <trkpt lat="-20.95692" lon="55.40636">
        <ele>1350.8</ele>
        <time>2013-06-16T08:58:36Z</time>
      </trkpt>
      <trkpt lat="-20.95687" lon="55.40629">
        <ele>1349.6</ele>
        <time>2013-06-16T08:58:40Z</time>
      </trkpt>
      <trkpt lat="-20.95682" lon="55.40622">
        <ele>1348</ele>
        <time>2013-06-16T08:58:46Z</time>
      </trkpt>
      <trkpt lat="-20.95681" lon="55.40621">
        <ele>1347.6</ele>
        <time>2013-06-16T08:58:47Z</time>
      </trkpt>
      <trkpt lat="-20.95674" lon="55.40608">
        <ele>1346.2</ele>
        <time>2013-06-16T08:58:56Z</time>
      </trkpt>
      <trkpt lat="-20.95671" lon="55.40601">
        <ele>1344.1</ele>
        <time>2013-06-16T08:59:00Z</time>
      </trkpt>
      <trkpt lat="-20.95667" lon="55.40592">
        <ele>1344.2</ele>
        <time>2013-06-16T08:59:04Z</time>
      </trkpt>
      <trkpt lat="-20.95665" lon="55.40583">
        <ele>1343.2</ele>
        <time>2013-06-16T08:59:09Z</time>
      </trkpt>
      <trkpt lat="-20.95661" lon="55.40575">
        <ele>1342.4</ele>
        <time>2013-06-16T08:59:14Z</time>
      </trkpt>
      <trkpt lat="-20.95655" lon="55.40568">
        <ele>1340.9</ele>
        <time>2013-06-16T08:59:18Z</time>
      </trkpt>
      <trkpt lat="-20.95647" lon="55.40565">
        <ele>1340.4</ele>
        <time>2013-06-16T08:59:22Z</time>
      </trkpt>
      <trkpt lat="-20.9564" lon="55.40563">
        <ele>1340.2</ele>
        <time>2013-06-16T08:59:25Z</time>
      </trkpt>
      <trkpt lat="-20.95633" lon="55.4056">
        <ele>1339.5</ele>
        <time>2013-06-16T08:59:29Z</time>
      </trkpt>
      <trkpt lat="-20.95626" lon="55.40558">
        <ele>1340</ele>
        <time>2013-06-16T08:59:33Z</time>
      </trkpt>
      <trkpt lat="-20.95618" lon="55.4056">
        <ele>1339.3</ele>
        <time>2013-06-16T08:59:37Z</time>
      </trkpt>
      <trkpt lat="-20.95611" lon="55.4056">
        <ele>1337.4</ele>
        <time>2013-06-16T08:59:42Z</time>
      </trkpt>
      <trkpt lat="-20.95602" lon="55.40562">
        <ele>1336.5</ele>
        <time>2013-06-16T08:59:47Z</time>
      </trkpt>
      <trkpt lat="-20.95595" lon="55.40566">
        <ele>1336</ele>
        <time>2013-06-16T08:59:53Z</time>
      </trkpt>
      <trkpt lat="-20.95594" lon="55.40567">
        <ele>1335.6</ele>
        <time>2013-06-16T08:59:54Z</time>
      </trkpt>
      <trkpt lat="-20.95581" lon="55.40577">
        <ele>1331.6</ele>
        <time>2013-06-16T09:00:06Z</time>
      </trkpt>
      <trkpt lat="-20.95575" lon="55.40583">
        <ele>1330.7</ele>
        <time>2013-06-16T09:00:12Z</time>
      </trkpt>
      <trkpt lat="-20.95571" lon="55.4059">
        <ele>1327.6</ele>
        <time>2013-06-16T09:00:18Z</time>
      </trkpt>
      <trkpt lat="-20.95565" lon="55.40597">
        <ele>1325.9</ele>
        <time>2013-06-16T09:00:26Z</time>
      </trkpt>
      <trkpt lat="-20.95557" lon="55.40599">
        <ele>1323</ele>
        <time>2013-06-16T09:00:35Z</time>
      </trkpt>
      <trkpt lat="-20.95548" lon="55.40601">
        <ele>1320.6</ele>
        <time>2013-06-16T09:00:43Z</time>
      </trkpt>
      <trkpt lat="-20.95541" lon="55.40604">
        <ele>1318.6</ele>
        <time>2013-06-16T09:00:51Z</time>
      </trkpt>
      <trkpt lat="-20.95533" lon="55.40608">
        <ele>1316.1</ele>
        <time>2013-06-16T09:01:00Z</time>
      </trkpt>
      <trkpt lat="-20.95532" lon="55.40608">
        <ele>1315.6</ele>
        <time>2013-06-16T09:01:01Z</time>
      </trkpt>
      <trkpt lat="-20.95516" lon="55.40605">
        <ele>1311.9</ele>
        <time>2013-06-16T09:01:14Z</time>
      </trkpt>
      <trkpt lat="-20.95509" lon="55.40604">
        <ele>1309.3</ele>
        <time>2013-06-16T09:01:20Z</time>
      </trkpt>
      <trkpt lat="-20.95502" lon="55.406">
        <ele>1308.5</ele>
        <time>2013-06-16T09:01:25Z</time>
      </trkpt>
      <trkpt lat="-20.95493" lon="55.40597">
        <ele>1306</ele>
        <time>2013-06-16T09:01:31Z</time>
      </trkpt>
      <trkpt lat="-20.95485" lon="55.40596">
        <ele>1304.1</ele>
        <time>2013-06-16T09:01:36Z</time>
      </trkpt>
      <trkpt lat="-20.95479" lon="55.40592">
        <ele>1301.6</ele>
        <time>2013-06-16T09:01:41Z</time>
      </trkpt>
      <trkpt lat="-20.95471" lon="55.40587">
        <ele>1300.6</ele>
        <time>2013-06-16T09:01:46Z</time>
      </trkpt>
      <trkpt lat="-20.95464" lon="55.40582">
        <ele>1300.2</ele>
        <time>2013-06-16T09:01:50Z</time>
      </trkpt>
      <trkpt lat="-20.95458" lon="55.40577">
        <ele>1299.7</ele>
        <time>2013-06-16T09:01:54Z</time>
      </trkpt>
      <trkpt lat="-20.95452" lon="55.40573">
        <ele>1297.9</ele>
        <time>2013-06-16T09:01:58Z</time>
      </trkpt>
      <trkpt lat="-20.95444" lon="55.40568">
        <ele>1297.4</ele>
        <time>2013-06-16T09:02:03Z</time>
      </trkpt>
      <trkpt lat="-20.95442" lon="55.40567">
        <ele>1296.9</ele>
        <time>2013-06-16T09:02:04Z</time>
      </trkpt>
      <trkpt lat="-20.95431" lon="55.40559">
        <ele>1297.4</ele>
        <time>2013-06-16T09:02:11Z</time>
      </trkpt>
      <trkpt lat="-20.95426" lon="55.40553">
        <ele>1296.7</ele>
        <time>2013-06-16T09:02:15Z</time>
      </trkpt>
      <trkpt lat="-20.9542" lon="55.40546">
        <ele>1295.8</ele>
        <time>2013-06-16T09:02:19Z</time>
      </trkpt>
      <trkpt lat="-20.95413" lon="55.40541">
        <ele>1294.7</ele>
        <time>2013-06-16T09:02:25Z</time>
      </trkpt>
      <trkpt lat="-20.95407" lon="55.40535">
        <ele>1293.6</ele>
        <time>2013-06-16T09:02:31Z</time>
      </trkpt>
      <trkpt lat="-20.95402" lon="55.40529">
        <ele>1293.1</ele>
        <time>2013-06-16T09:02:36Z</time>
      </trkpt>
      <trkpt lat="-20.95397" lon="55.40522">
        <ele>1292.3</ele>
        <time>2013-06-16T09:02:43Z</time>
      </trkpt>
      <trkpt lat="-20.95391" lon="55.40516">
        <ele>1292</ele>
        <time>2013-06-16T09:02:48Z</time>
      </trkpt>
      <trkpt lat="-20.95384" lon="55.40512">
        <ele>1291.6</ele>
        <time>2013-06-16T09:02:54Z</time>
      </trkpt>
      <trkpt lat="-20.95377" lon="55.40507">
        <ele>1290.3</ele>
        <time>2013-06-16T09:03:01Z</time>
      </trkpt>
      <trkpt lat="-20.95371" lon="55.405">
        <ele>1287.9</ele>
        <time>2013-06-16T09:03:07Z</time>
      </trkpt>
      <trkpt lat="-20.9537" lon="55.405">
        <ele>1287.5</ele>
        <time>2013-06-16T09:03:08Z</time>
      </trkpt>
      <trkpt lat="-20.95358" lon="55.40489">
        <ele>1283.2</ele>
        <time>2013-06-16T09:03:22Z</time>
      </trkpt>
      <trkpt lat="-20.95351" lon="55.40484">
        <ele>1281</ele>
        <time>2013-06-16T09:03:32Z</time>
      </trkpt>
      <trkpt lat="-20.95345" lon="55.40478">
        <ele>1282.6</ele>
        <time>2013-06-16T09:03:37Z</time>
      </trkpt>
      <trkpt lat="-20.95338" lon="55.40472">
        <ele>1283.3</ele>
        <time>2013-06-16T09:03:43Z</time>
      </trkpt>
      <trkpt lat="-20.9533" lon="55.40469">
        <ele>1281.1</ele>
        <time>2013-06-16T09:03:52Z</time>
      </trkpt>
      <trkpt lat="-20.95322" lon="55.40465">
        <ele>1278.9</ele>
        <time>2013-06-16T09:03:59Z</time>
      </trkpt>
      <trkpt lat="-20.95313" lon="55.40463">
        <ele>1277.5</ele>
        <time>2013-06-16T09:04:06Z</time>
      </trkpt>
      <trkpt lat="-20.95306" lon="55.40461">
        <ele>1277.3</ele>
        <time>2013-06-16T09:04:10Z</time>
      </trkpt>
      <trkpt lat="-20.95304" lon="55.40461">
        <ele>1277.5</ele>
        <time>2013-06-16T09:04:11Z</time>
      </trkpt>
      <trkpt lat="-20.95291" lon="55.40457">
        <ele>1276.2</ele>
        <time>2013-06-16T09:04:18Z</time>
      </trkpt>
      <trkpt lat="-20.95284" lon="55.40455">
        <ele>1275.3</ele>
        <time>2013-06-16T09:04:22Z</time>
      </trkpt>
      <trkpt lat="-20.95275" lon="55.40456">
        <ele>1275</ele>
        <time>2013-06-16T09:04:28Z</time>
      </trkpt>
      <trkpt lat="-20.95275" lon="55.40465">
        <ele>1272.3</ele>
        <time>2013-06-16T09:04:36Z</time>
      </trkpt>
      <trkpt lat="-20.95267" lon="55.40465">
        <ele>1268.9</ele>
        <time>2013-06-16T09:04:44Z</time>
      </trkpt>
      <trkpt lat="-20.95259" lon="55.40461">
        <ele>1266</ele>
        <time>2013-06-16T09:04:51Z</time>
      </trkpt>
      <trkpt lat="-20.95251" lon="55.40458">
        <ele>1264.4</ele>
        <time>2013-06-16T09:04:56Z</time>
      </trkpt>
      <trkpt lat="-20.95244" lon="55.40455">
        <ele>1262.5</ele>
        <time>2013-06-16T09:05:02Z</time>
      </trkpt>
      <trkpt lat="-20.95236" lon="55.40451">
        <ele>1260.3</ele>
        <time>2013-06-16T09:05:10Z</time>
      </trkpt>
      <trkpt lat="-20.95228" lon="55.4045">
        <ele>1257.3</ele>
        <time>2013-06-16T09:05:18Z</time>
      </trkpt>
      <trkpt lat="-20.95227" lon="55.40449">
        <ele>1256.9</ele>
        <time>2013-06-16T09:05:19Z</time>
      </trkpt>
      <trkpt lat="-20.95212" lon="55.40449">
        <ele>1249.3</ele>
        <time>2013-06-16T09:05:42Z</time>
      </trkpt>
      <trkpt lat="-20.95208" lon="55.40442">
        <ele>1243</ele>
        <time>2013-06-16T09:05:58Z</time>
      </trkpt>
      <trkpt lat="-20.952" lon="55.40441">
        <ele>1240.7</ele>
        <time>2013-06-16T09:06:05Z</time>
      </trkpt>
      <trkpt lat="-20.95197" lon="55.4045">
        <ele>1237.1</ele>
        <time>2013-06-16T09:06:13Z</time>
      </trkpt>
      <trkpt lat="-20.95194" lon="55.40458">
        <ele>1236.5</ele>
        <time>2013-06-16T09:06:19Z</time>
      </trkpt>
      <trkpt lat="-20.95193" lon="55.40459">
        <ele>1236.6</ele>
        <time>2013-06-16T09:06:20Z</time>
      </trkpt>
      <trkpt lat="-20.95182" lon="55.4046">
        <ele>1223.6</ele>
        <time>2013-06-16T09:07:07Z</time>
      </trkpt>
      <trkpt lat="-20.95175" lon="55.40462">
        <ele>1223.1</ele>
        <time>2013-06-16T09:07:10Z</time>
      </trkpt>
      <trkpt lat="-20.95167" lon="55.4046">
        <ele>1222.3</ele>
        <time>2013-06-16T09:07:13Z</time>
      </trkpt>
      <trkpt lat="-20.9516" lon="55.40456">
        <ele>1221.4</ele>
        <time>2013-06-16T09:07:17Z</time>
      </trkpt>
      <trkpt lat="-20.95152" lon="55.40451">
        <ele>1221.9</ele>
        <time>2013-06-16T09:07:21Z</time>
      </trkpt>
      <trkpt lat="-20.9515" lon="55.4045">
        <ele>1221.5</ele>
        <time>2013-06-16T09:07:22Z</time>
      </trkpt>
      <trkpt lat="-20.95138" lon="55.40444">
        <ele>1220.6</ele>
        <time>2013-06-16T09:07:28Z</time>
      </trkpt>
      <trkpt lat="-20.95132" lon="55.40438">
        <ele>1219.3</ele>
        <time>2013-06-16T09:07:33Z</time>
      </trkpt>
      <trkpt lat="-20.95124" lon="55.40433">
        <ele>1218.8</ele>
        <time>2013-06-16T09:07:37Z</time>
      </trkpt>
      <trkpt lat="-20.95119" lon="55.40426">
        <ele>1218.2</ele>
        <time>2013-06-16T09:07:41Z</time>
      </trkpt>
      <trkpt lat="-20.95115" lon="55.40419">
        <ele>1217.6</ele>
        <time>2013-06-16T09:07:45Z</time>
      </trkpt>
      <trkpt lat="-20.9511" lon="55.40412">
        <ele>1216.9</ele>
        <time>2013-06-16T09:07:49Z</time>
      </trkpt>
      <trkpt lat="-20.95104" lon="55.40406">
        <ele>1216.2</ele>
        <time>2013-06-16T09:07:52Z</time>
      </trkpt>
      <trkpt lat="-20.95096" lon="55.40403">
        <ele>1215.6</ele>
        <time>2013-06-16T09:07:56Z</time>
      </trkpt>
      <trkpt lat="-20.95088" lon="55.40402">
        <ele>1215.6</ele>
        <time>2013-06-16T09:07:59Z</time>
      </trkpt>
      <trkpt lat="-20.9508" lon="55.40403">
        <ele>1214.7</ele>
        <time>2013-06-16T09:08:02Z</time>
      </trkpt>
      <trkpt lat="-20.95073" lon="55.40404">
        <ele>1214.5</ele>
        <time>2013-06-16T09:08:05Z</time>
      </trkpt>
      <trkpt lat="-20.95065" lon="55.40408">
        <ele>1214.5</ele>
        <time>2013-06-16T09:08:08Z</time>
      </trkpt>
      <trkpt lat="-20.95059" lon="55.4041">
        <ele>1214.8</ele>
        <time>2013-06-16T09:08:11Z</time>
      </trkpt>
      <trkpt lat="-20.95052" lon="55.40412">
        <ele>1215</ele>
        <time>2013-06-16T09:08:14Z</time>
      </trkpt>
      <trkpt lat="-20.95045" lon="55.40413">
        <ele>1214.5</ele>
        <time>2013-06-16T09:08:17Z</time>
      </trkpt>
      <trkpt lat="-20.95037" lon="55.40412">
        <ele>1213.8</ele>
        <time>2013-06-16T09:08:20Z</time>
      </trkpt>
      <trkpt lat="-20.9503" lon="55.40411">
        <ele>1212.7</ele>
        <time>2013-06-16T09:08:23Z</time>
      </trkpt>
      <trkpt lat="-20.95027" lon="55.40412">
        <ele>1212.5</ele>
        <time>2013-06-16T09:08:24Z</time>
      </trkpt>
      <trkpt lat="-20.95015" lon="55.40415">
        <ele>1211.8</ele>
        <time>2013-06-16T09:08:29Z</time>
      </trkpt>
      <trkpt lat="-20.95008" lon="55.40417">
        <ele>1211.9</ele>
        <time>2013-06-16T09:08:32Z</time>
      </trkpt>
      <trkpt lat="-20.95" lon="55.40419">
        <ele>1211.3</ele>
        <time>2013-06-16T09:08:36Z</time>
      </trkpt>
      <trkpt lat="-20.94991" lon="55.4042">
        <ele>1211</ele>
        <time>2013-06-16T09:08:40Z</time>
      </trkpt>
      <trkpt lat="-20.94983" lon="55.40417">
        <ele>1210.4</ele>
        <time>2013-06-16T09:08:44Z</time>
      </trkpt>
      <trkpt lat="-20.94977" lon="55.40413">
        <ele>1209.8</ele>
        <time>2013-06-16T09:08:48Z</time>
      </trkpt>
      <trkpt lat="-20.94969" lon="55.40408">
        <ele>1209.2</ele>
        <time>2013-06-16T09:08:52Z</time>
      </trkpt>
      <trkpt lat="-20.94963" lon="55.40405">
        <ele>1208.5</ele>
        <time>2013-06-16T09:08:55Z</time>
      </trkpt>
      <trkpt lat="-20.94955" lon="55.40405">
        <ele>1207.7</ele>
        <time>2013-06-16T09:08:59Z</time>
      </trkpt>
      <trkpt lat="-20.94947" lon="55.40406">
        <ele>1207.9</ele>
        <time>2013-06-16T09:09:03Z</time>
      </trkpt>
      <trkpt lat="-20.9494" lon="55.40405">
        <ele>1207.6</ele>
        <time>2013-06-16T09:09:06Z</time>
      </trkpt>
      <trkpt lat="-20.94932" lon="55.40402">
        <ele>1207.1</ele>
        <time>2013-06-16T09:09:09Z</time>
      </trkpt>
      <trkpt lat="-20.94927" lon="55.40397">
        <ele>1206.5</ele>
        <time>2013-06-16T09:09:12Z</time>
      </trkpt>
      <trkpt lat="-20.94924" lon="55.40389">
        <ele>1206.5</ele>
        <time>2013-06-16T09:09:16Z</time>
      </trkpt>
      <trkpt lat="-20.94923" lon="55.4038">
        <ele>1206.2</ele>
        <time>2013-06-16T09:09:20Z</time>
      </trkpt>
      <trkpt lat="-20.94922" lon="55.40373">
        <ele>1205.7</ele>
        <time>2013-06-16T09:09:23Z</time>
      </trkpt>
      <trkpt lat="-20.94921" lon="55.40364">
        <ele>1205</ele>
        <time>2013-06-16T09:09:27Z</time>
      </trkpt>
      <trkpt lat="-20.9492" lon="55.40362">
        <ele>1204.7</ele>
        <time>2013-06-16T09:09:28Z</time>
      </trkpt>
      <trkpt lat="-20.94917" lon="55.40348">
        <ele>1204.6</ele>
        <time>2013-06-16T09:09:34Z</time>
      </trkpt>
      <trkpt lat="-20.94914" lon="55.4034">
        <ele>1203.7</ele>
        <time>2013-06-16T09:09:38Z</time>
      </trkpt>
      <trkpt lat="-20.9491" lon="55.40332">
        <ele>1202.8</ele>
        <time>2013-06-16T09:09:42Z</time>
      </trkpt>
      <trkpt lat="-20.94904" lon="55.40327">
        <ele>1202.9</ele>
        <time>2013-06-16T09:09:46Z</time>
      </trkpt>
      <trkpt lat="-20.94898" lon="55.40322">
        <ele>1202.1</ele>
        <time>2013-06-16T09:09:50Z</time>
      </trkpt>
      <trkpt lat="-20.94892" lon="55.40318">
        <ele>1201.6</ele>
        <time>2013-06-16T09:09:53Z</time>
      </trkpt>
      <trkpt lat="-20.94885" lon="55.40313">
        <ele>1202.2</ele>
        <time>2013-06-16T09:09:57Z</time>
      </trkpt>
      <trkpt lat="-20.9488" lon="55.40305">
        <ele>1201.2</ele>
        <time>2013-06-16T09:10:02Z</time>
      </trkpt>
      <trkpt lat="-20.94875" lon="55.40297">
        <ele>1200.7</ele>
        <time>2013-06-16T09:10:06Z</time>
      </trkpt>
      <trkpt lat="-20.9487" lon="55.4029">
        <ele>1200.6</ele>
        <time>2013-06-16T09:10:10Z</time>
      </trkpt>
      <trkpt lat="-20.94865" lon="55.40284">
        <ele>1200.5</ele>
        <time>2013-06-16T09:10:13Z</time>
      </trkpt>
      <trkpt lat="-20.94856" lon="55.40282">
        <ele>1199.4</ele>
        <time>2013-06-16T09:10:17Z</time>
      </trkpt>
      <trkpt lat="-20.94849" lon="55.40282">
        <ele>1198.5</ele>
        <time>2013-06-16T09:10:20Z</time>
      </trkpt>
      <trkpt lat="-20.94842" lon="55.40285">
        <ele>1197.5</ele>
        <time>2013-06-16T09:10:23Z</time>
      </trkpt>
      <trkpt lat="-20.94835" lon="55.40288">
        <ele>1197.4</ele>
        <time>2013-06-16T09:10:26Z</time>
      </trkpt>
      <trkpt lat="-20.94829" lon="55.4029">
        <ele>1197.6</ele>
        <time>2013-06-16T09:10:29Z</time>
      </trkpt>
      <trkpt lat="-20.94827" lon="55.40291">
        <ele>1197.3</ele>
        <time>2013-06-16T09:10:30Z</time>
      </trkpt>
      <trkpt lat="-20.94814" lon="55.40295">
        <ele>1196</ele>
        <time>2013-06-16T09:10:37Z</time>
      </trkpt>
      <trkpt lat="-20.94806" lon="55.40296">
        <ele>1196</ele>
        <time>2013-06-16T09:10:41Z</time>
      </trkpt>
      <trkpt lat="-20.94797" lon="55.40297">
        <ele>1195.7</ele>
        <time>2013-06-16T09:10:45Z</time>
      </trkpt>
      <trkpt lat="-20.94792" lon="55.40305">
        <ele>1194.7</ele>
        <time>2013-06-16T09:10:50Z</time>
      </trkpt>
      <trkpt lat="-20.94796" lon="55.40313">
        <ele>1194.8</ele>
        <time>2013-06-16T09:10:55Z</time>
      </trkpt>
      <trkpt lat="-20.94804" lon="55.40318">
        <ele>1194.2</ele>
        <time>2013-06-16T09:11:00Z</time>
      </trkpt>
      <trkpt lat="-20.94812" lon="55.40322">
        <ele>1194</ele>
        <time>2013-06-16T09:11:04Z</time>
      </trkpt>
      <trkpt lat="-20.9482" lon="55.40324">
        <ele>1193.3</ele>
        <time>2013-06-16T09:11:08Z</time>
      </trkpt>
      <trkpt lat="-20.94828" lon="55.40328">
        <ele>1192.1</ele>
        <time>2013-06-16T09:11:12Z</time>
      </trkpt>
      <trkpt lat="-20.94834" lon="55.40334">
        <ele>1192.2</ele>
        <time>2013-06-16T09:11:16Z</time>
      </trkpt>
      <trkpt lat="-20.94839" lon="55.40341">
        <ele>1191.2</ele>
        <time>2013-06-16T09:11:20Z</time>
      </trkpt>
      <trkpt lat="-20.94841" lon="55.40348">
        <ele>1190.8</ele>
        <time>2013-06-16T09:11:24Z</time>
      </trkpt>
      <trkpt lat="-20.9484" lon="55.40357">
        <ele>1189.9</ele>
        <time>2013-06-16T09:11:28Z</time>
      </trkpt>
      <trkpt lat="-20.94838" lon="55.40365">
        <ele>1189.6</ele>
        <time>2013-06-16T09:11:32Z</time>
      </trkpt>
      <trkpt lat="-20.94838" lon="55.40367">
        <ele>1189.5</ele>
        <time>2013-06-16T09:11:33Z</time>
      </trkpt>
      <trkpt lat="-20.94838" lon="55.40381">
        <ele>1188.9</ele>
        <time>2013-06-16T09:11:39Z</time>
      </trkpt>
      <trkpt lat="-20.9484" lon="55.4039">
        <ele>1188.9</ele>
        <time>2013-06-16T09:11:43Z</time>
      </trkpt>
      <trkpt lat="-20.94843" lon="55.40399">
        <ele>1188.1</ele>
        <time>2013-06-16T09:11:47Z</time>
      </trkpt>
      <trkpt lat="-20.94845" lon="55.40406">
        <ele>1187.7</ele>
        <time>2013-06-16T09:11:50Z</time>
      </trkpt>
      <trkpt lat="-20.94849" lon="55.40415">
        <ele>1186.6</ele>
        <time>2013-06-16T09:11:54Z</time>
      </trkpt>
      <trkpt lat="-20.94852" lon="55.40423">
        <ele>1185.8</ele>
        <time>2013-06-16T09:11:58Z</time>
      </trkpt>
      <trkpt lat="-20.94856" lon="55.40431">
        <ele>1185.7</ele>
        <time>2013-06-16T09:12:02Z</time>
      </trkpt>
      <trkpt lat="-20.94857" lon="55.40438">
        <ele>1185.1</ele>
        <time>2013-06-16T09:12:06Z</time>
      </trkpt>
      <trkpt lat="-20.94853" lon="55.40446">
        <ele>1184.5</ele>
        <time>2013-06-16T09:12:09Z</time>
      </trkpt>
      <trkpt lat="-20.94848" lon="55.40451">
        <ele>1183.8</ele>
        <time>2013-06-16T09:12:12Z</time>
      </trkpt>
      <trkpt lat="-20.9484" lon="55.40453">
        <ele>1183.1</ele>
        <time>2013-06-16T09:12:16Z</time>
      </trkpt>
      <trkpt lat="-20.94832" lon="55.40448">
        <ele>1182.4</ele>
        <time>2013-06-16T09:12:20Z</time>
      </trkpt>
      <trkpt lat="-20.94826" lon="55.40443">
        <ele>1182.3</ele>
        <time>2013-06-16T09:12:23Z</time>
      </trkpt>
      <trkpt lat="-20.94822" lon="55.40437">
        <ele>1181.8</ele>
        <time>2013-06-16T09:12:26Z</time>
      </trkpt>
      <trkpt lat="-20.94819" lon="55.40428">
        <ele>1181.6</ele>
        <time>2013-06-16T09:12:30Z</time>
      </trkpt>
      <trkpt lat="-20.94818" lon="55.40418">
        <ele>1181.4</ele>
        <time>2013-06-16T09:12:34Z</time>
      </trkpt>
      <trkpt lat="-20.94818" lon="55.40416">
        <ele>1181.3</ele>
        <time>2013-06-16T09:12:35Z</time>
      </trkpt>
      <trkpt lat="-20.94816" lon="55.404">
        <ele>1179.5</ele>
        <time>2013-06-16T09:12:43Z</time>
      </trkpt>
      <trkpt lat="-20.94816" lon="55.40392">
        <ele>1178.5</ele>
        <time>2013-06-16T09:12:47Z</time>
      </trkpt>
      <trkpt lat="-20.94814" lon="55.40384">
        <ele>1178.4</ele>
        <time>2013-06-16T09:12:51Z</time>
      </trkpt>
      <trkpt lat="-20.94811" lon="55.40375">
        <ele>1177.7</ele>
        <time>2013-06-16T09:12:55Z</time>
      </trkpt>
      <trkpt lat="-20.94807" lon="55.40366">
        <ele>1177.1</ele>
        <time>2013-06-16T09:12:59Z</time>
      </trkpt>
      <trkpt lat="-20.94803" lon="55.4036">
        <ele>1177</ele>
        <time>2013-06-16T09:13:02Z</time>
      </trkpt>
      <trkpt lat="-20.94798" lon="55.40353">
        <ele>1175.9</ele>
        <time>2013-06-16T09:13:05Z</time>
      </trkpt>
      <trkpt lat="-20.94792" lon="55.40348">
        <ele>1175.7</ele>
        <time>2013-06-16T09:13:09Z</time>
      </trkpt>
      <trkpt lat="-20.94785" lon="55.40345">
        <ele>1175</ele>
        <time>2013-06-16T09:13:13Z</time>
      </trkpt>
      <trkpt lat="-20.94777" lon="55.4034">
        <ele>1173.9</ele>
        <time>2013-06-16T09:13:17Z</time>
      </trkpt>
      <trkpt lat="-20.94771" lon="55.40337">
        <ele>1174.1</ele>
        <time>2013-06-16T09:13:20Z</time>
      </trkpt>
      <trkpt lat="-20.94763" lon="55.40335">
        <ele>1173.2</ele>
        <time>2013-06-16T09:13:23Z</time>
      </trkpt>
      <trkpt lat="-20.94755" lon="55.40334">
        <ele>1172.6</ele>
        <time>2013-06-16T09:13:27Z</time>
      </trkpt>
      <trkpt lat="-20.94748" lon="55.40334">
        <ele>1173</ele>
        <time>2013-06-16T09:13:30Z</time>
      </trkpt>
      <trkpt lat="-20.9474" lon="55.40333">
        <ele>1172.6</ele>
        <time>2013-06-16T09:13:33Z</time>
      </trkpt>
      <trkpt lat="-20.94733" lon="55.40332">
        <ele>1172.2</ele>
        <time>2013-06-16T09:13:36Z</time>
      </trkpt>
      <trkpt lat="-20.94731" lon="55.40331">
        <ele>1172.2</ele>
        <time>2013-06-16T09:13:37Z</time>
      </trkpt>
      <trkpt lat="-20.94718" lon="55.40322">
        <ele>1171</ele>
        <time>2013-06-16T09:13:44Z</time>
      </trkpt>
      <trkpt lat="-20.94715" lon="55.40315">
        <ele>1170.7</ele>
        <time>2013-06-16T09:13:47Z</time>
      </trkpt>
      <trkpt lat="-20.94711" lon="55.40309">
        <ele>1170</ele>
        <time>2013-06-16T09:13:50Z</time>
      </trkpt>
      <trkpt lat="-20.94707" lon="55.40301">
        <ele>1169.4</ele>
        <time>2013-06-16T09:13:54Z</time>
      </trkpt>
      <trkpt lat="-20.94702" lon="55.40295">
        <ele>1169.2</ele>
        <time>2013-06-16T09:13:57Z</time>
      </trkpt>
      <trkpt lat="-20.94695" lon="55.4029">
        <ele>1169.4</ele>
        <time>2013-06-16T09:14:01Z</time>
      </trkpt>
      <trkpt lat="-20.94687" lon="55.40295">
        <ele>1168.7</ele>
        <time>2013-06-16T09:14:05Z</time>
      </trkpt>
      <trkpt lat="-20.94687" lon="55.40303">
        <ele>1167.6</ele>
        <time>2013-06-16T09:14:09Z</time>
      </trkpt>
      <trkpt lat="-20.9469" lon="55.4031">
        <ele>1167.2</ele>
        <time>2013-06-16T09:14:12Z</time>
      </trkpt>
      <trkpt lat="-20.94694" lon="55.40316">
        <ele>1166.4</ele>
        <time>2013-06-16T09:14:15Z</time>
      </trkpt>
      <trkpt lat="-20.94699" lon="55.40324">
        <ele>1165.6</ele>
        <time>2013-06-16T09:14:19Z</time>
      </trkpt>
      <trkpt lat="-20.94704" lon="55.4033">
        <ele>1165.9</ele>
        <time>2013-06-16T09:14:23Z</time>
      </trkpt>
      <trkpt lat="-20.94707" lon="55.40338">
        <ele>1165.1</ele>
        <time>2013-06-16T09:14:27Z</time>
      </trkpt>
      <trkpt lat="-20.94712" lon="55.40345">
        <ele>1164.5</ele>
        <time>2013-06-16T09:14:31Z</time>
      </trkpt>
      <trkpt lat="-20.94719" lon="55.40352">
        <ele>1163.4</ele>
        <time>2013-06-16T09:14:35Z</time>
      </trkpt>
      <trkpt lat="-20.94726" lon="55.40355">
        <ele>1163.9</ele>
        <time>2013-06-16T09:14:38Z</time>
      </trkpt>
      <trkpt lat="-20.94728" lon="55.40356">
        <ele>1163.7</ele>
        <time>2013-06-16T09:14:39Z</time>
      </trkpt>
      <trkpt lat="-20.94739" lon="55.4036">
        <ele>1162.5</ele>
        <time>2013-06-16T09:14:44Z</time>
      </trkpt>
      <trkpt lat="-20.94746" lon="55.40363">
        <ele>1161.7</ele>
        <time>2013-06-16T09:14:47Z</time>
      </trkpt>
      <trkpt lat="-20.94752" lon="55.4037">
        <ele>1161.1</ele>
        <time>2013-06-16T09:14:51Z</time>
      </trkpt>
      <trkpt lat="-20.94747" lon="55.40378">
        <ele>1160.7</ele>
        <time>2013-06-16T09:14:57Z</time>
      </trkpt>
      <trkpt lat="-20.9474" lon="55.4038">
        <ele>1160.2</ele>
        <time>2013-06-16T09:15:01Z</time>
      </trkpt>
      <trkpt lat="-20.94732" lon="55.40382">
        <ele>1159.9</ele>
        <time>2013-06-16T09:15:05Z</time>
      </trkpt>
      <trkpt lat="-20.94725" lon="55.40385">
        <ele>1159.8</ele>
        <time>2013-06-16T09:15:08Z</time>
      </trkpt>
      <trkpt lat="-20.94717" lon="55.40387">
        <ele>1159.3</ele>
        <time>2013-06-16T09:15:11Z</time>
      </trkpt>
      <trkpt lat="-20.94711" lon="55.40389">
        <ele>1158.3</ele>
        <time>2013-06-16T09:15:14Z</time>
      </trkpt>
      <trkpt lat="-20.94704" lon="55.40391">
        <ele>1158.7</ele>
        <time>2013-06-16T09:15:17Z</time>
      </trkpt>
      <trkpt lat="-20.94696" lon="55.40393">
        <ele>1157.8</ele>
        <time>2013-06-16T09:15:20Z</time>
      </trkpt>
      <trkpt lat="-20.94689" lon="55.40393">
        <ele>1157.3</ele>
        <time>2013-06-16T09:15:23Z</time>
      </trkpt>
      <trkpt lat="-20.94682" lon="55.40391">
        <ele>1156.5</ele>
        <time>2013-06-16T09:15:26Z</time>
      </trkpt>
      <trkpt lat="-20.94675" lon="55.4039">
        <ele>1156</ele>
        <time>2013-06-16T09:15:29Z</time>
      </trkpt>
      <trkpt lat="-20.94668" lon="55.40388">
        <ele>1156.3</ele>
        <time>2013-06-16T09:15:32Z</time>
      </trkpt>
      <trkpt lat="-20.9466" lon="55.40386">
        <ele>1155.7</ele>
        <time>2013-06-16T09:15:36Z</time>
      </trkpt>
      <trkpt lat="-20.94652" lon="55.40388">
        <ele>1154.9</ele>
        <time>2013-06-16T09:15:40Z</time>
      </trkpt>
      <trkpt lat="-20.94651" lon="55.40389">
        <ele>1154.8</ele>
        <time>2013-06-16T09:15:41Z</time>
      </trkpt>
      <trkpt lat="-20.94647" lon="55.40403">
        <ele>1154.3</ele>
        <time>2013-06-16T09:15:48Z</time>
      </trkpt>
      <trkpt lat="-20.94646" lon="55.40412">
        <ele>1152.8</ele>
        <time>2013-06-16T09:15:52Z</time>
      </trkpt>
      <trkpt lat="-20.94647" lon="55.4042">
        <ele>1151.8</ele>
        <time>2013-06-16T09:15:56Z</time>
      </trkpt>
      <trkpt lat="-20.94645" lon="55.40428">
        <ele>1151.5</ele>
        <time>2013-06-16T09:16:00Z</time>
      </trkpt>
      <trkpt lat="-20.94641" lon="55.40435">
        <ele>1150.9</ele>
        <time>2013-06-16T09:16:04Z</time>
      </trkpt>
      <trkpt lat="-20.94637" lon="55.40444">
        <ele>1149.8</ele>
        <time>2013-06-16T09:16:09Z</time>
      </trkpt>
      <trkpt lat="-20.94634" lon="55.40451">
        <ele>1149.3</ele>
        <time>2013-06-16T09:16:13Z</time>
      </trkpt>
      <trkpt lat="-20.9463" lon="55.40459">
        <ele>1149.5</ele>
        <time>2013-06-16T09:16:18Z</time>
      </trkpt>
      <trkpt lat="-20.94625" lon="55.40464">
        <ele>1149.2</ele>
        <time>2013-06-16T09:16:22Z</time>
      </trkpt>
      <trkpt lat="-20.9462" lon="55.40469">
        <ele>1147.9</ele>
        <time>2013-06-16T09:16:25Z</time>
      </trkpt>
      <trkpt lat="-20.94614" lon="55.40474">
        <ele>1146.8</ele>
        <time>2013-06-16T09:16:28Z</time>
      </trkpt>
      <trkpt lat="-20.94608" lon="55.40477">
        <ele>1146</ele>
        <time>2013-06-16T09:16:31Z</time>
      </trkpt>
      <trkpt lat="-20.94599" lon="55.40481">
        <ele>1144.5</ele>
        <time>2013-06-16T09:16:35Z</time>
      </trkpt>
      <trkpt lat="-20.94593" lon="55.40483">
        <ele>1143.7</ele>
        <time>2013-06-16T09:16:38Z</time>
      </trkpt>
      <trkpt lat="-20.94586" lon="55.40485">
        <ele>1142.3</ele>
        <time>2013-06-16T09:16:41Z</time>
      </trkpt>
      <trkpt lat="-20.94584" lon="55.40485">
        <ele>1142.7</ele>
        <time>2013-06-16T09:16:42Z</time>
      </trkpt>
      <trkpt lat="-20.94571" lon="55.40486">
        <ele>1142.4</ele>
        <time>2013-06-16T09:16:49Z</time>
      </trkpt>
      <trkpt lat="-20.94565" lon="55.40481">
        <ele>1141.9</ele>
        <time>2013-06-16T09:16:53Z</time>
      </trkpt>
      <trkpt lat="-20.94562" lon="55.40472">
        <ele>1140.7</ele>
        <time>2013-06-16T09:16:57Z</time>
      </trkpt>
      <trkpt lat="-20.94559" lon="55.40465">
        <ele>1139.7</ele>
        <time>2013-06-16T09:17:00Z</time>
      </trkpt>
      <trkpt lat="-20.94561" lon="55.40457">
        <ele>1139.5</ele>
        <time>2013-06-16T09:17:03Z</time>
      </trkpt>
      <trkpt lat="-20.94561" lon="55.4045">
        <ele>1139.1</ele>
        <time>2013-06-16T09:17:06Z</time>
      </trkpt>
      <trkpt lat="-20.9456" lon="55.4044">
        <ele>1138.8</ele>
        <time>2013-06-16T09:17:10Z</time>
      </trkpt>
      <trkpt lat="-20.94557" lon="55.40433">
        <ele>1138</ele>
        <time>2013-06-16T09:17:14Z</time>
      </trkpt>
      <trkpt lat="-20.9455" lon="55.40432">
        <ele>1137.3</ele>
        <time>2013-06-16T09:17:18Z</time>
      </trkpt>
      <trkpt lat="-20.94544" lon="55.40436">
        <ele>1136.5</ele>
        <time>2013-06-16T09:17:21Z</time>
      </trkpt>
      <trkpt lat="-20.94539" lon="55.40442">
        <ele>1136</ele>
        <time>2013-06-16T09:17:25Z</time>
      </trkpt>
      <trkpt lat="-20.94533" lon="55.40448">
        <ele>1135.3</ele>
        <time>2013-06-16T09:17:29Z</time>
      </trkpt>
      <trkpt lat="-20.94525" lon="55.40451">
        <ele>1134.1</ele>
        <time>2013-06-16T09:17:33Z</time>
      </trkpt>
      <trkpt lat="-20.94518" lon="55.4045">
        <ele>1134.8</ele>
        <time>2013-06-16T09:17:36Z</time>
      </trkpt>
      <trkpt lat="-20.9451" lon="55.40447">
        <ele>1133.7</ele>
        <time>2013-06-16T09:17:40Z</time>
      </trkpt>
      <trkpt lat="-20.94503" lon="55.40442">
        <ele>1133.7</ele>
        <time>2013-06-16T09:17:44Z</time>
      </trkpt>
      <trkpt lat="-20.94501" lon="55.40441">
        <ele>1133.4</ele>
        <time>2013-06-16T09:17:45Z</time>
      </trkpt>
      <trkpt lat="-20.94493" lon="55.4043">
        <ele>1133.4</ele>
        <time>2013-06-16T09:17:51Z</time>
      </trkpt>
      <trkpt lat="-20.94487" lon="55.40425">
        <ele>1133.1</ele>
        <time>2013-06-16T09:17:54Z</time>
      </trkpt>
      <trkpt lat="-20.94483" lon="55.40419">
        <ele>1131.8</ele>
        <time>2013-06-16T09:17:57Z</time>
      </trkpt>
      <trkpt lat="-20.94478" lon="55.40412">
        <ele>1130.4</ele>
        <time>2013-06-16T09:18:00Z</time>
      </trkpt>
      <trkpt lat="-20.94473" lon="55.40406">
        <ele>1130.1</ele>
        <time>2013-06-16T09:18:03Z</time>
      </trkpt>
      <trkpt lat="-20.94468" lon="55.40399">
        <ele>1129.9</ele>
        <time>2013-06-16T09:18:07Z</time>
      </trkpt>
      <trkpt lat="-20.94463" lon="55.40392">
        <ele>1129.1</ele>
        <time>2013-06-16T09:18:11Z</time>
      </trkpt>
      <trkpt lat="-20.94457" lon="55.40386">
        <ele>1129.1</ele>
        <time>2013-06-16T09:18:17Z</time>
      </trkpt>
      <trkpt lat="-20.94449" lon="55.40388">
        <ele>1129</ele>
        <time>2013-06-16T09:19:27Z</time>
      </trkpt>
      <trkpt lat="-20.94448" lon="55.4039">
        <ele>1129.1</ele>
        <time>2013-06-16T09:19:28Z</time>
      </trkpt>
      <trkpt lat="-20.94438" lon="55.40397">
        <ele>1128.1</ele>
        <time>2013-06-16T09:19:33Z</time>
      </trkpt>
      <trkpt lat="-20.94434" lon="55.40402">
        <ele>1127.9</ele>
        <time>2013-06-16T09:19:36Z</time>
      </trkpt>
      <trkpt lat="-20.94429" lon="55.40408">
        <ele>1127.8</ele>
        <time>2013-06-16T09:19:39Z</time>
      </trkpt>
      <trkpt lat="-20.94426" lon="55.40415">
        <ele>1127.6</ele>
        <time>2013-06-16T09:19:42Z</time>
      </trkpt>
      <trkpt lat="-20.94422" lon="55.40422">
        <ele>1127.2</ele>
        <time>2013-06-16T09:19:45Z</time>
      </trkpt>
      <trkpt lat="-20.9442" lon="55.40431">
        <ele>1126.8</ele>
        <time>2013-06-16T09:19:49Z</time>
      </trkpt>
      <trkpt lat="-20.94422" lon="55.40439">
        <ele>1126.9</ele>
        <time>2013-06-16T09:19:52Z</time>
      </trkpt>
      <trkpt lat="-20.94426" lon="55.40446">
        <ele>1126.7</ele>
        <time>2013-06-16T09:19:55Z</time>
      </trkpt>
      <trkpt lat="-20.9443" lon="55.40453">
        <ele>1126.6</ele>
        <time>2013-06-16T09:19:58Z</time>
      </trkpt>
      <trkpt lat="-20.9443" lon="55.40461">
        <ele>1126.7</ele>
        <time>2013-06-16T09:20:02Z</time>
      </trkpt>
      <trkpt lat="-20.94427" lon="55.40468">
        <ele>1126.5</ele>
        <time>2013-06-16T09:20:05Z</time>
      </trkpt>
      <trkpt lat="-20.94424" lon="55.40476">
        <ele>1125.8</ele>
        <time>2013-06-16T09:20:09Z</time>
      </trkpt>
      <trkpt lat="-20.94418" lon="55.40481">
        <ele>1124.9</ele>
        <time>2013-06-16T09:20:15Z</time>
      </trkpt>
      <trkpt lat="-20.9441" lon="55.40484">
        <ele>1125.6</ele>
        <time>2013-06-16T09:20:20Z</time>
      </trkpt>
      <trkpt lat="-20.94401" lon="55.40484">
        <ele>1125.4</ele>
        <time>2013-06-16T09:20:24Z</time>
      </trkpt>
      <trkpt lat="-20.94394" lon="55.40482">
        <ele>1125.8</ele>
        <time>2013-06-16T09:20:28Z</time>
      </trkpt>
      <trkpt lat="-20.94392" lon="55.40482">
        <ele>1125.9</ele>
        <time>2013-06-16T09:20:29Z</time>
      </trkpt>
      <trkpt lat="-20.94379" lon="55.40475">
        <ele>1124.9</ele>
        <time>2013-06-16T09:20:36Z</time>
      </trkpt>
      <trkpt lat="-20.94373" lon="55.40471">
        <ele>1125.9</ele>
        <time>2013-06-16T09:20:40Z</time>
      </trkpt>
      <trkpt lat="-20.94367" lon="55.40466">
        <ele>1125.8</ele>
        <time>2013-06-16T09:20:44Z</time>
      </trkpt>
      <trkpt lat="-20.9436" lon="55.4046">
        <ele>1125.7</ele>
        <time>2013-06-16T09:20:49Z</time>
      </trkpt>
      <trkpt lat="-20.94357" lon="55.40453">
        <ele>1125</ele>
        <time>2013-06-16T09:20:53Z</time>
      </trkpt>
      <trkpt lat="-20.94354" lon="55.40445">
        <ele>1123.8</ele>
        <time>2013-06-16T09:20:57Z</time>
      </trkpt>
      <trkpt lat="-20.94349" lon="55.40438">
        <ele>1123.9</ele>
        <time>2013-06-16T09:21:01Z</time>
      </trkpt>
      <trkpt lat="-20.94342" lon="55.40435">
        <ele>1124.5</ele>
        <time>2013-06-16T09:21:05Z</time>
      </trkpt>
      <trkpt lat="-20.94333" lon="55.40436">
        <ele>1124.1</ele>
        <time>2013-06-16T09:21:09Z</time>
      </trkpt>
      <trkpt lat="-20.94325" lon="55.40436">
        <ele>1123.8</ele>
        <time>2013-06-16T09:21:13Z</time>
      </trkpt>
      <trkpt lat="-20.94317" lon="55.40435">
        <ele>1123.7</ele>
        <time>2013-06-16T09:21:18Z</time>
      </trkpt>
      <trkpt lat="-20.9431" lon="55.40435">
        <ele>1124</ele>
        <time>2013-06-16T09:21:22Z</time>
      </trkpt>
      <trkpt lat="-20.94302" lon="55.40432">
        <ele>1123.9</ele>
        <time>2013-06-16T09:21:27Z</time>
      </trkpt>
      <trkpt lat="-20.94296" lon="55.40427">
        <ele>1123.5</ele>
        <time>2013-06-16T09:21:31Z</time>
      </trkpt>
      <trkpt lat="-20.94294" lon="55.40426">
        <ele>1123.8</ele>
        <time>2013-06-16T09:21:32Z</time>
      </trkpt>
      <trkpt lat="-20.94284" lon="55.40417">
        <ele>1122.9</ele>
        <time>2013-06-16T09:21:39Z</time>
      </trkpt>
      <trkpt lat="-20.94277" lon="55.40412">
        <ele>1122.8</ele>
        <time>2013-06-16T09:21:43Z</time>
      </trkpt>
      <trkpt lat="-20.9427" lon="55.40409">
        <ele>1122.3</ele>
        <time>2013-06-16T09:21:47Z</time>
      </trkpt>
      <trkpt lat="-20.94261" lon="55.40409">
        <ele>1121.9</ele>
        <time>2013-06-16T09:21:52Z</time>
      </trkpt>
      <trkpt lat="-20.94254" lon="55.40412">
        <ele>1123</ele>
        <time>2013-06-16T09:21:57Z</time>
      </trkpt>
      <trkpt lat="-20.94247" lon="55.40417">
        <ele>1122.1</ele>
        <time>2013-06-16T09:22:01Z</time>
      </trkpt>
      <trkpt lat="-20.94243" lon="55.40423">
        <ele>1121.2</ele>
        <time>2013-06-16T09:22:04Z</time>
      </trkpt>
      <trkpt lat="-20.9424" lon="55.4043">
        <ele>1121.3</ele>
        <time>2013-06-16T09:22:07Z</time>
      </trkpt>
      <trkpt lat="-20.94241" lon="55.40439">
        <ele>1121.7</ele>
        <time>2013-06-16T09:22:11Z</time>
      </trkpt>
      <trkpt lat="-20.94246" lon="55.40446">
        <ele>1121.8</ele>
        <time>2013-06-16T09:22:15Z</time>
      </trkpt>
      <trkpt lat="-20.94253" lon="55.4045">
        <ele>1121.8</ele>
        <time>2013-06-16T09:22:19Z</time>
      </trkpt>
      <trkpt lat="-20.9426" lon="55.40454">
        <ele>1121.6</ele>
        <time>2013-06-16T09:22:23Z</time>
      </trkpt>
      <trkpt lat="-20.94267" lon="55.40459">
        <ele>1121.8</ele>
        <time>2013-06-16T09:22:28Z</time>
      </trkpt>
      <trkpt lat="-20.94273" lon="55.40465">
        <ele>1122</ele>
        <time>2013-06-16T09:22:35Z</time>
      </trkpt>
      <trkpt lat="-20.94274" lon="55.40466">
        <ele>1121.9</ele>
        <time>2013-06-16T09:22:36Z</time>
      </trkpt>
      <trkpt lat="-20.94281" lon="55.4048">
        <ele>1121</ele>
        <time>2013-06-16T09:22:49Z</time>
      </trkpt>
      <trkpt lat="-20.94283" lon="55.40488">
        <ele>1121</ele>
        <time>2013-06-16T09:22:54Z</time>
      </trkpt>
      <trkpt lat="-20.94284" lon="55.40497">
        <ele>1121</ele>
        <time>2013-06-16T09:23:00Z</time>
      </trkpt>
      <trkpt lat="-20.94284" lon="55.40506">
        <ele>1121.1</ele>
        <time>2013-06-16T09:23:06Z</time>
      </trkpt>
      <trkpt lat="-20.94282" lon="55.40515">
        <ele>1120.9</ele>
        <time>2013-06-16T09:23:11Z</time>
      </trkpt>
      <trkpt lat="-20.9428" lon="55.40522">
        <ele>1120.5</ele>
        <time>2013-06-16T09:23:16Z</time>
      </trkpt>
      <trkpt lat="-20.94276" lon="55.40531">
        <ele>1119.6</ele>
        <time>2013-06-16T09:23:21Z</time>
      </trkpt>
      <trkpt lat="-20.94269" lon="55.40536">
        <ele>1119.5</ele>
        <time>2013-06-16T09:23:26Z</time>
      </trkpt>
      <trkpt lat="-20.94263" lon="55.4054">
        <ele>1119</ele>
        <time>2013-06-16T09:23:30Z</time>
      </trkpt>
      <trkpt lat="-20.94256" lon="55.40546">
        <ele>1118.7</ele>
        <time>2013-06-16T09:23:35Z</time>
      </trkpt>
      <trkpt lat="-20.94252" lon="55.40554">
        <ele>1119.2</ele>
        <time>2013-06-16T09:23:39Z</time>
      </trkpt>
      <trkpt lat="-20.94251" lon="55.40556">
        <ele>1118.8</ele>
        <time>2013-06-16T09:23:40Z</time>
      </trkpt>
      <trkpt lat="-20.94247" lon="55.40571">
        <ele>1117.9</ele>
        <time>2013-06-16T09:23:47Z</time>
      </trkpt>
      <trkpt lat="-20.94244" lon="55.40579">
        <ele>1117</ele>
        <time>2013-06-16T09:23:51Z</time>
      </trkpt>
      <trkpt lat="-20.94238" lon="55.40586">
        <ele>1116.6</ele>
        <time>2013-06-16T09:23:56Z</time>
      </trkpt>
      <trkpt lat="-20.94229" lon="55.40588">
        <ele>1117.2</ele>
        <time>2013-06-16T09:24:00Z</time>
      </trkpt>
      <trkpt lat="-20.94221" lon="55.40586">
        <ele>1117.1</ele>
        <time>2013-06-16T09:24:05Z</time>
      </trkpt>
      <trkpt lat="-20.94218" lon="55.40577">
        <ele>1116.7</ele>
        <time>2013-06-16T09:24:13Z</time>
      </trkpt>
      <trkpt lat="-20.94213" lon="55.40584">
        <ele>1117.1</ele>
        <time>2013-06-16T09:25:31Z</time>
      </trkpt>
      <trkpt lat="-20.94211" lon="55.40585">
        <ele>1117.1</ele>
        <time>2013-06-16T09:25:32Z</time>
      </trkpt>
      <trkpt lat="-20.94197" lon="55.40588">
        <ele>1115.3</ele>
        <time>2013-06-16T09:25:40Z</time>
      </trkpt>
      <trkpt lat="-20.94188" lon="55.4059">
        <ele>1115.1</ele>
        <time>2013-06-16T09:25:44Z</time>
      </trkpt>
      <trkpt lat="-20.9418" lon="55.40591">
        <ele>1115.2</ele>
        <time>2013-06-16T09:25:48Z</time>
      </trkpt>
      <trkpt lat="-20.94173" lon="55.40592">
        <ele>1114.8</ele>
        <time>2013-06-16T09:25:51Z</time>
      </trkpt>
      <trkpt lat="-20.94166" lon="55.40589">
        <ele>1114.2</ele>
        <time>2013-06-16T09:25:54Z</time>
      </trkpt>
      <trkpt lat="-20.9416" lon="55.40586">
        <ele>1113.6</ele>
        <time>2013-06-16T09:25:57Z</time>
      </trkpt>
      <trkpt lat="-20.94153" lon="55.4058">
        <ele>1114.1</ele>
        <time>2013-06-16T09:26:01Z</time>
      </trkpt>
      <trkpt lat="-20.94147" lon="55.40573">
        <ele>1113.5</ele>
        <time>2013-06-16T09:26:05Z</time>
      </trkpt>
      <trkpt lat="-20.94141" lon="55.40568">
        <ele>1111.1</ele>
        <time>2013-06-16T09:26:09Z</time>
      </trkpt>
      <trkpt lat="-20.94134" lon="55.40563">
        <ele>1111.1</ele>
        <time>2013-06-16T09:26:13Z</time>
      </trkpt>
      <trkpt lat="-20.94128" lon="55.4056">
        <ele>1111.5</ele>
        <time>2013-06-16T09:26:16Z</time>
      </trkpt>
      <trkpt lat="-20.94121" lon="55.4056">
        <ele>1111.2</ele>
        <time>2013-06-16T09:26:19Z</time>
      </trkpt>
      <trkpt lat="-20.94112" lon="55.4056">
        <ele>1110.1</ele>
        <time>2013-06-16T09:26:24Z</time>
      </trkpt>
      <trkpt lat="-20.94105" lon="55.4056">
        <ele>1109.3</ele>
        <time>2013-06-16T09:26:28Z</time>
      </trkpt>
      <trkpt lat="-20.94097" lon="55.40559">
        <ele>1108.6</ele>
        <time>2013-06-16T09:26:32Z</time>
      </trkpt>
      <trkpt lat="-20.94096" lon="55.4056">
        <ele>1108.7</ele>
        <time>2013-06-16T09:26:33Z</time>
      </trkpt>
      <trkpt lat="-20.94083" lon="55.40565">
        <ele>1108.6</ele>
        <time>2013-06-16T09:26:39Z</time>
      </trkpt>
      <trkpt lat="-20.94078" lon="55.4057">
        <ele>1107.9</ele>
        <time>2013-06-16T09:26:42Z</time>
      </trkpt>
      <trkpt lat="-20.94075" lon="55.40579">
        <ele>1107.2</ele>
        <time>2013-06-16T09:26:46Z</time>
      </trkpt>
      <trkpt lat="-20.94074" lon="55.40586">
        <ele>1106.5</ele>
        <time>2013-06-16T09:26:49Z</time>
      </trkpt>
      <trkpt lat="-20.94073" lon="55.40593">
        <ele>1106.3</ele>
        <time>2013-06-16T09:26:52Z</time>
      </trkpt>
      <trkpt lat="-20.94074" lon="55.40601">
        <ele>1106.3</ele>
        <time>2013-06-16T09:26:55Z</time>
      </trkpt>
      <trkpt lat="-20.94076" lon="55.40608">
        <ele>1106.2</ele>
        <time>2013-06-16T09:26:58Z</time>
      </trkpt>
      <trkpt lat="-20.94079" lon="55.40616">
        <ele>1105.3</ele>
        <time>2013-06-16T09:27:01Z</time>
      </trkpt>
      <trkpt lat="-20.94082" lon="55.40622">
        <ele>1105.4</ele>
        <time>2013-06-16T09:27:04Z</time>
      </trkpt>
      <trkpt lat="-20.94086" lon="55.40628">
        <ele>1105.1</ele>
        <time>2013-06-16T09:27:07Z</time>
      </trkpt>
      <trkpt lat="-20.94089" lon="55.40635">
        <ele>1104.7</ele>
        <time>2013-06-16T09:27:10Z</time>
      </trkpt>
      <trkpt lat="-20.94092" lon="55.40641">
        <ele>1104.7</ele>
        <time>2013-06-16T09:27:13Z</time>
      </trkpt>
      <trkpt lat="-20.94096" lon="55.40648">
        <ele>1104.1</ele>
        <time>2013-06-16T09:27:16Z</time>
      </trkpt>
      <trkpt lat="-20.94098" lon="55.40655">
        <ele>1104.1</ele>
        <time>2013-06-16T09:27:19Z</time>
      </trkpt>
      <trkpt lat="-20.94101" lon="55.40662">
        <ele>1103.5</ele>
        <time>2013-06-16T09:27:22Z</time>
      </trkpt>
      <trkpt lat="-20.94103" lon="55.40671">
        <ele>1103</ele>
        <time>2013-06-16T09:27:26Z</time>
      </trkpt>
      <trkpt lat="-20.94104" lon="55.40679">
        <ele>1102.5</ele>
        <time>2013-06-16T09:27:30Z</time>
      </trkpt>
      <trkpt lat="-20.94101" lon="55.40687">
        <ele>1102.1</ele>
        <time>2013-06-16T09:27:35Z</time>
      </trkpt>
      <trkpt lat="-20.941" lon="55.40688">
        <ele>1102.1</ele>
        <time>2013-06-16T09:27:36Z</time>
      </trkpt>
      <trkpt lat="-20.94086" lon="55.40691">
        <ele>1101.3</ele>
        <time>2013-06-16T09:27:43Z</time>
      </trkpt>
      <trkpt lat="-20.94078" lon="55.40693">
        <ele>1100.4</ele>
        <time>2013-06-16T09:27:47Z</time>
      </trkpt>
      <trkpt lat="-20.9407" lon="55.40694">
        <ele>1099.5</ele>
        <time>2013-06-16T09:27:51Z</time>
      </trkpt>
      <trkpt lat="-20.94062" lon="55.40696">
        <ele>1098.3</ele>
        <time>2013-06-16T09:27:55Z</time>
      </trkpt>
      <trkpt lat="-20.94055" lon="55.40696">
        <ele>1097.9</ele>
        <time>2013-06-16T09:27:59Z</time>
      </trkpt>
      <trkpt lat="-20.94048" lon="55.40698">
        <ele>1097.1</ele>
        <time>2013-06-16T09:28:02Z</time>
      </trkpt>
      <trkpt lat="-20.9404" lon="55.407">
        <ele>1096.9</ele>
        <time>2013-06-16T09:28:05Z</time>
      </trkpt>
      <trkpt lat="-20.94032" lon="55.40701">
        <ele>1096.6</ele>
        <time>2013-06-16T09:28:09Z</time>
      </trkpt>
      <trkpt lat="-20.94026" lon="55.40696">
        <ele>1095.2</ele>
        <time>2013-06-16T09:28:13Z</time>
      </trkpt>
      <trkpt lat="-20.94029" lon="55.40687">
        <ele>1094.1</ele>
        <time>2013-06-16T09:28:18Z</time>
      </trkpt>
      <trkpt lat="-20.94035" lon="55.40686">
        <ele>1093.5</ele>
        <time>2013-06-16T09:28:21Z</time>
      </trkpt>
      <trkpt lat="-20.94042" lon="55.40685">
        <ele>1092.4</ele>
        <time>2013-06-16T09:28:24Z</time>
      </trkpt>
      <trkpt lat="-20.9405" lon="55.40682">
        <ele>1091.9</ele>
        <time>2013-06-16T09:28:28Z</time>
      </trkpt>
      <trkpt lat="-20.94053" lon="55.40676">
        <ele>1091.7</ele>
        <time>2013-06-16T09:28:33Z</time>
      </trkpt>
      <trkpt lat="-20.94052" lon="55.40666">
        <ele>1091.1</ele>
        <time>2013-06-16T09:28:37Z</time>
      </trkpt>
      <trkpt lat="-20.94052" lon="55.40664">
        <ele>1090.9</ele>
        <time>2013-06-16T09:28:38Z</time>
      </trkpt>
      <trkpt lat="-20.94046" lon="55.40651">
        <ele>1089.5</ele>
        <time>2013-06-16T09:28:44Z</time>
      </trkpt>
      <trkpt lat="-20.94042" lon="55.40643">
        <ele>1089.3</ele>
        <time>2013-06-16T09:28:48Z</time>
      </trkpt>
      <trkpt lat="-20.94038" lon="55.40635">
        <ele>1088.5</ele>
        <time>2013-06-16T09:28:52Z</time>
      </trkpt>
      <trkpt lat="-20.94035" lon="55.40627">
        <ele>1088.1</ele>
        <time>2013-06-16T09:28:55Z</time>
      </trkpt>
      <trkpt lat="-20.94032" lon="55.40619">
        <ele>1087.4</ele>
        <time>2013-06-16T09:28:58Z</time>
      </trkpt>
      <trkpt lat="-20.9403" lon="55.40612">
        <ele>1086.3</ele>
        <time>2013-06-16T09:29:01Z</time>
      </trkpt>
      <trkpt lat="-20.9403" lon="55.40604">
        <ele>1086.3</ele>
        <time>2013-06-16T09:29:05Z</time>
      </trkpt>
      <trkpt lat="-20.94033" lon="55.40595">
        <ele>1085.8</ele>
        <time>2013-06-16T09:29:09Z</time>
      </trkpt>
      <trkpt lat="-20.94035" lon="55.40588">
        <ele>1085.8</ele>
        <time>2013-06-16T09:29:12Z</time>
      </trkpt>
      <trkpt lat="-20.94036" lon="55.40579">
        <ele>1085.7</ele>
        <time>2013-06-16T09:29:16Z</time>
      </trkpt>
      <trkpt lat="-20.94036" lon="55.4057">
        <ele>1085.7</ele>
        <time>2013-06-16T09:29:20Z</time>
      </trkpt>
      <trkpt lat="-20.94037" lon="55.40561">
        <ele>1085.1</ele>
        <time>2013-06-16T09:29:24Z</time>
      </trkpt>
      <trkpt lat="-20.94036" lon="55.40551">
        <ele>1085.9</ele>
        <time>2013-06-16T09:29:28Z</time>
      </trkpt>
      <trkpt lat="-20.94033" lon="55.40542">
        <ele>1085</ele>
        <time>2013-06-16T09:29:33Z</time>
      </trkpt>
      <trkpt lat="-20.94031" lon="55.40534">
        <ele>1083.4</ele>
        <time>2013-06-16T09:29:37Z</time>
      </trkpt>
      <trkpt lat="-20.9403" lon="55.40525">
        <ele>1082.5</ele>
        <time>2013-06-16T09:29:41Z</time>
      </trkpt>
      <trkpt lat="-20.94029" lon="55.40523">
        <ele>1082.4</ele>
        <time>2013-06-16T09:29:42Z</time>
      </trkpt>
      <trkpt lat="-20.94027" lon="55.40509">
        <ele>1083</ele>
        <time>2013-06-16T09:29:49Z</time>
      </trkpt>
      <trkpt lat="-20.94026" lon="55.40501">
        <ele>1082.1</ele>
        <time>2013-06-16T09:29:53Z</time>
      </trkpt>
      <trkpt lat="-20.94025" lon="55.40493">
        <ele>1081.2</ele>
        <time>2013-06-16T09:29:57Z</time>
      </trkpt>
      <trkpt lat="-20.94025" lon="55.40485">
        <ele>1080.3</ele>
        <time>2013-06-16T09:30:01Z</time>
      </trkpt>
      <trkpt lat="-20.94024" lon="55.40478">
        <ele>1081</ele>
        <time>2013-06-16T09:30:04Z</time>
      </trkpt>
      <trkpt lat="-20.94021" lon="55.40469">
        <ele>1080.8</ele>
        <time>2013-06-16T09:30:08Z</time>
      </trkpt>
      <trkpt lat="-20.94016" lon="55.40462">
        <ele>1080.3</ele>
        <time>2013-06-16T09:30:12Z</time>
      </trkpt>
      <trkpt lat="-20.9401" lon="55.40456">
        <ele>1079.1</ele>
        <time>2013-06-16T09:30:16Z</time>
      </trkpt>
      <trkpt lat="-20.94002" lon="55.40454">
        <ele>1079</ele>
        <time>2013-06-16T09:30:20Z</time>
      </trkpt>
      <trkpt lat="-20.93996" lon="55.40457">
        <ele>1078.5</ele>
        <time>2013-06-16T09:30:23Z</time>
      </trkpt>
      <trkpt lat="-20.93991" lon="55.40462">
        <ele>1078.5</ele>
        <time>2013-06-16T09:30:26Z</time>
      </trkpt>
      <trkpt lat="-20.93987" lon="55.4047">
        <ele>1078.1</ele>
        <time>2013-06-16T09:30:30Z</time>
      </trkpt>
      <trkpt lat="-20.93989" lon="55.40478">
        <ele>1077.5</ele>
        <time>2013-06-16T09:30:34Z</time>
      </trkpt>
      <trkpt lat="-20.93994" lon="55.40486">
        <ele>1077.1</ele>
        <time>2013-06-16T09:30:38Z</time>
      </trkpt>
      <trkpt lat="-20.93999" lon="55.40494">
        <ele>1078.4</ele>
        <time>2013-06-16T09:30:42Z</time>
      </trkpt>
      <trkpt lat="-20.94" lon="55.40496">
        <ele>1077.8</ele>
        <time>2013-06-16T09:30:43Z</time>
      </trkpt>
      <trkpt lat="-20.94001" lon="55.40512">
        <ele>1076.1</ele>
        <time>2013-06-16T09:30:50Z</time>
      </trkpt>
      <trkpt lat="-20.94002" lon="55.40519">
        <ele>1075.8</ele>
        <time>2013-06-16T09:30:53Z</time>
      </trkpt>
      <trkpt lat="-20.94005" lon="55.40528">
        <ele>1075.6</ele>
        <time>2013-06-16T09:30:56Z</time>
      </trkpt>
      <trkpt lat="-20.94006" lon="55.40535">
        <ele>1075</ele>
        <time>2013-06-16T09:30:59Z</time>
      </trkpt>
      <trkpt lat="-20.94008" lon="55.40544">
        <ele>1074</ele>
        <time>2013-06-16T09:31:03Z</time>
      </trkpt>
      <trkpt lat="-20.94008" lon="55.40551">
        <ele>1073.1</ele>
        <time>2013-06-16T09:31:06Z</time>
      </trkpt>
      <trkpt lat="-20.94006" lon="55.40558">
        <ele>1072.8</ele>
        <time>2013-06-16T09:31:09Z</time>
      </trkpt>
      <trkpt lat="-20.94002" lon="55.40566">
        <ele>1072.7</ele>
        <time>2013-06-16T09:31:12Z</time>
      </trkpt>
      <trkpt lat="-20.93998" lon="55.40573">
        <ele>1072.3</ele>
        <time>2013-06-16T09:31:17Z</time>
      </trkpt>
      <trkpt lat="-20.93992" lon="55.4058">
        <ele>1071.8</ele>
        <time>2013-06-16T09:31:22Z</time>
      </trkpt>
      <trkpt lat="-20.93988" lon="55.40588">
        <ele>1070.6</ele>
        <time>2013-06-16T09:31:26Z</time>
      </trkpt>
      <trkpt lat="-20.93982" lon="55.40594">
        <ele>1070</ele>
        <time>2013-06-16T09:31:30Z</time>
      </trkpt>
      <trkpt lat="-20.93975" lon="55.406">
        <ele>1069.5</ele>
        <time>2013-06-16T09:31:34Z</time>
      </trkpt>
      <trkpt lat="-20.9397" lon="55.40607">
        <ele>1069.6</ele>
        <time>2013-06-16T09:31:38Z</time>
      </trkpt>
      <trkpt lat="-20.93967" lon="55.40615">
        <ele>1069.1</ele>
        <time>2013-06-16T09:31:42Z</time>
      </trkpt>
      <trkpt lat="-20.93962" lon="55.40623">
        <ele>1069</ele>
        <time>2013-06-16T09:31:46Z</time>
      </trkpt>
      <trkpt lat="-20.93961" lon="55.40625">
        <ele>1068.8</ele>
        <time>2013-06-16T09:31:47Z</time>
      </trkpt>
      <trkpt lat="-20.93957" lon="55.40639">
        <ele>1068.6</ele>
        <time>2013-06-16T09:31:54Z</time>
      </trkpt>
      <trkpt lat="-20.93953" lon="55.40648">
        <ele>1068.4</ele>
        <time>2013-06-16T09:31:58Z</time>
      </trkpt>
      <trkpt lat="-20.93948" lon="55.40655">
        <ele>1068.1</ele>
        <time>2013-06-16T09:32:02Z</time>
      </trkpt>
      <trkpt lat="-20.93944" lon="55.40663">
        <ele>1067.7</ele>
        <time>2013-06-16T09:32:06Z</time>
      </trkpt>
      <trkpt lat="-20.93941" lon="55.4067">
        <ele>1066.9</ele>
        <time>2013-06-16T09:32:10Z</time>
      </trkpt>
      <trkpt lat="-20.93938" lon="55.40677">
        <ele>1066.8</ele>
        <time>2013-06-16T09:32:13Z</time>
      </trkpt>
      <trkpt lat="-20.93936" lon="55.40685">
        <ele>1066.2</ele>
        <time>2013-06-16T09:32:17Z</time>
      </trkpt>
      <trkpt lat="-20.93932" lon="55.40693">
        <ele>1065.2</ele>
        <time>2013-06-16T09:32:22Z</time>
      </trkpt>
      <trkpt lat="-20.93923" lon="55.40695">
        <ele>1064.2</ele>
        <time>2013-06-16T09:32:27Z</time>
      </trkpt>
      <trkpt lat="-20.93917" lon="55.40691">
        <ele>1062.8</ele>
        <time>2013-06-16T09:32:31Z</time>
      </trkpt>
      <trkpt lat="-20.93911" lon="55.40686">
        <ele>1062.6</ele>
        <time>2013-06-16T09:32:35Z</time>
      </trkpt>
      <trkpt lat="-20.93905" lon="55.40679">
        <ele>1062.1</ele>
        <time>2013-06-16T09:32:39Z</time>
      </trkpt>
      <trkpt lat="-20.93899" lon="55.40672">
        <ele>1061.8</ele>
        <time>2013-06-16T09:32:43Z</time>
      </trkpt>
      <trkpt lat="-20.93894" lon="55.40666">
        <ele>1061.5</ele>
        <time>2013-06-16T09:32:49Z</time>
      </trkpt>
      <trkpt lat="-20.93893" lon="55.40664">
        <ele>1061.2</ele>
        <time>2013-06-16T09:32:50Z</time>
      </trkpt>
      <trkpt lat="-20.93885" lon="55.40654">
        <ele>1061.3</ele>
        <time>2013-06-16T09:32:55Z</time>
      </trkpt>
      <trkpt lat="-20.9388" lon="55.40648">
        <ele>1061</ele>
        <time>2013-06-16T09:32:58Z</time>
      </trkpt>
      <trkpt lat="-20.93875" lon="55.40643">
        <ele>1060.6</ele>
        <time>2013-06-16T09:33:01Z</time>
      </trkpt>
      <trkpt lat="-20.93867" lon="55.40639">
        <ele>1060.4</ele>
        <time>2013-06-16T09:33:05Z</time>
      </trkpt>
      <trkpt lat="-20.93859" lon="55.40638">
        <ele>1060.5</ele>
        <time>2013-06-16T09:33:10Z</time>
      </trkpt>
      <trkpt lat="-20.93851" lon="55.4064">
        <ele>1060.4</ele>
        <time>2013-06-16T09:33:14Z</time>
      </trkpt>
      <trkpt lat="-20.93845" lon="55.40646">
        <ele>1059.5</ele>
        <time>2013-06-16T09:33:17Z</time>
      </trkpt>
      <trkpt lat="-20.93843" lon="55.40653">
        <ele>1058.5</ele>
        <time>2013-06-16T09:33:20Z</time>
      </trkpt>
      <trkpt lat="-20.93844" lon="55.40661">
        <ele>1058.7</ele>
        <time>2013-06-16T09:33:24Z</time>
      </trkpt>
      <trkpt lat="-20.93846" lon="55.4067">
        <ele>1058.6</ele>
        <time>2013-06-16T09:33:28Z</time>
      </trkpt>
      <trkpt lat="-20.9385" lon="55.40679">
        <ele>1057.6</ele>
        <time>2013-06-16T09:33:32Z</time>
      </trkpt>
      <trkpt lat="-20.93853" lon="55.40687">
        <ele>1057.3</ele>
        <time>2013-06-16T09:33:36Z</time>
      </trkpt>
      <trkpt lat="-20.93851" lon="55.40696">
        <ele>1056.7</ele>
        <time>2013-06-16T09:33:42Z</time>
      </trkpt>
      <trkpt lat="-20.93844" lon="55.40699">
        <ele>1055.9</ele>
        <time>2013-06-16T09:33:47Z</time>
      </trkpt>
      <trkpt lat="-20.93837" lon="55.40702">
        <ele>1055.6</ele>
        <time>2013-06-16T09:33:51Z</time>
      </trkpt>
      <trkpt lat="-20.93835" lon="55.40703">
        <ele>1055.5</ele>
        <time>2013-06-16T09:33:52Z</time>
      </trkpt>
      <trkpt lat="-20.93821" lon="55.407">
        <ele>1053.9</ele>
        <time>2013-06-16T09:34:00Z</time>
      </trkpt>
      <trkpt lat="-20.93814" lon="55.40701">
        <ele>1052.4</ele>
        <time>2013-06-16T09:34:04Z</time>
      </trkpt>
      <trkpt lat="-20.93805" lon="55.40701">
        <ele>1051.5</ele>
        <time>2013-06-16T09:34:08Z</time>
      </trkpt>
      <trkpt lat="-20.93798" lon="55.40703">
        <ele>1050</ele>
        <time>2013-06-16T09:34:12Z</time>
      </trkpt>
      <trkpt lat="-20.93789" lon="55.40704">
        <ele>1049</ele>
        <time>2013-06-16T09:34:18Z</time>
      </trkpt>
      <trkpt lat="-20.93783" lon="55.40699">
        <ele>1046.7</ele>
        <time>2013-06-16T09:34:23Z</time>
      </trkpt>
      <trkpt lat="-20.93778" lon="55.40691">
        <ele>1045.4</ele>
        <time>2013-06-16T09:34:27Z</time>
      </trkpt>
      <trkpt lat="-20.93773" lon="55.40686">
        <ele>1043.8</ele>
        <time>2013-06-16T09:34:31Z</time>
      </trkpt>
      <trkpt lat="-20.93767" lon="55.40681">
        <ele>1042.5</ele>
        <time>2013-06-16T09:34:35Z</time>
      </trkpt>
      <trkpt lat="-20.93759" lon="55.40686">
        <ele>1042.2</ele>
        <time>2013-06-16T09:34:41Z</time>
      </trkpt>
      <trkpt lat="-20.93758" lon="55.40694">
        <ele>1041.3</ele>
        <time>2013-06-16T09:34:45Z</time>
      </trkpt>
      <trkpt lat="-20.93757" lon="55.40703">
        <ele>1040.3</ele>
        <time>2013-06-16T09:34:49Z</time>
      </trkpt>
      <trkpt lat="-20.93755" lon="55.40712">
        <ele>1039.2</ele>
        <time>2013-06-16T09:34:54Z</time>
      </trkpt>
      <trkpt lat="-20.93755" lon="55.40715">
        <ele>1039</ele>
        <time>2013-06-16T09:34:55Z</time>
      </trkpt>
      <trkpt lat="-20.93751" lon="55.40728">
        <ele>1039.9</ele>
        <time>2013-06-16T09:35:04Z</time>
      </trkpt>
      <trkpt lat="-20.93753" lon="55.40737">
        <ele>1039.4</ele>
        <time>2013-06-16T09:35:11Z</time>
      </trkpt>
      <trkpt lat="-20.93757" lon="55.40745">
        <ele>1039.7</ele>
        <time>2013-06-16T09:35:21Z</time>
      </trkpt>
      <trkpt lat="-20.93754" lon="55.40754">
        <ele>1038.2</ele>
        <time>2013-06-16T09:35:28Z</time>
      </trkpt>
      <trkpt lat="-20.9375" lon="55.40762">
        <ele>1036.7</ele>
        <time>2013-06-16T09:35:36Z</time>
      </trkpt>
      <trkpt lat="-20.93743" lon="55.40767">
        <ele>1033.8</ele>
        <time>2013-06-16T09:35:42Z</time>
      </trkpt>
      <trkpt lat="-20.93734" lon="55.40767">
        <ele>1032.4</ele>
        <time>2013-06-16T09:35:49Z</time>
      </trkpt>
      <trkpt lat="-20.93727" lon="55.40772">
        <ele>1032.1</ele>
        <time>2013-06-16T09:35:56Z</time>
      </trkpt>
      <trkpt lat="-20.93726" lon="55.40771">
        <ele>1032.2</ele>
        <time>2013-06-16T09:35:57Z</time>
      </trkpt>
      <trkpt lat="-20.93711" lon="55.40772">
        <ele>1032.4</ele>
        <time>2013-06-16T09:36:07Z</time>
      </trkpt>
      <trkpt lat="-20.93707" lon="55.40779">
        <ele>1034.7</ele>
        <time>2013-06-16T09:36:20Z</time>
      </trkpt>
      <trkpt lat="-20.93706" lon="55.40785">
        <ele>1035.5</ele>
        <time>2013-06-16T09:36:23Z</time>
      </trkpt>
      <trkpt lat="-20.93707" lon="55.40795">
        <ele>1035.9</ele>
        <time>2013-06-16T09:36:26Z</time>
      </trkpt>
      <trkpt lat="-20.93707" lon="55.40809">
        <ele>1037</ele>
        <time>2013-06-16T09:36:31Z</time>
      </trkpt>
      <trkpt lat="-20.93697" lon="55.40803">
        <ele>1040</ele>
        <time>2013-06-16T09:36:46Z</time>
      </trkpt>
      <trkpt lat="-20.93686" lon="55.40801">
        <ele>1042</ele>
        <time>2013-06-16T09:36:54Z</time>
      </trkpt>
      <trkpt lat="-20.93675" lon="55.40796">
        <ele>1043</ele>
        <time>2013-06-16T09:36:58Z</time>
      </trkpt>
      <trkpt lat="-20.9367" lon="55.40794">
        <ele>1044.1</ele>
        <time>2013-06-16T09:37:00Z</time>
      </trkpt>
      <trkpt lat="-20.93655" lon="55.40789">
        <ele>1045.4</ele>
        <time>2013-06-16T09:37:07Z</time>
      </trkpt>
      <trkpt lat="-20.93649" lon="55.40783">
        <ele>1049.4</ele>
        <time>2013-06-16T09:37:28Z</time>
      </trkpt>
      <trkpt lat="-20.93641" lon="55.40778">
        <ele>1048.8</ele>
        <time>2013-06-16T09:37:34Z</time>
      </trkpt>
      <trkpt lat="-20.93633" lon="55.40776">
        <ele>1049.5</ele>
        <time>2013-06-16T09:37:43Z</time>
      </trkpt>
      <trkpt lat="-20.93625" lon="55.40773">
        <ele>1051.5</ele>
        <time>2013-06-16T09:37:51Z</time>
      </trkpt>
      <trkpt lat="-20.93619" lon="55.40768">
        <ele>1053.4</ele>
        <time>2013-06-16T09:38:00Z</time>
      </trkpt>
      <trkpt lat="-20.93618" lon="55.40767">
        <ele>1053.6</ele>
        <time>2013-06-16T09:38:01Z</time>
      </trkpt>
      <trkpt lat="-20.93606" lon="55.40768">
        <ele>1056.5</ele>
        <time>2013-06-16T09:38:14Z</time>
      </trkpt>
      <trkpt lat="-20.93603" lon="55.40777">
        <ele>1061.3</ele>
        <time>2013-06-16T09:38:32Z</time>
      </trkpt>
      <trkpt lat="-20.93594" lon="55.4078">
        <ele>1062</ele>
        <time>2013-06-16T09:38:39Z</time>
      </trkpt>
      <trkpt lat="-20.93589" lon="55.40786">
        <ele>1061.2</ele>
        <time>2013-06-16T09:38:46Z</time>
      </trkpt>
      <trkpt lat="-20.9359" lon="55.40795">
        <ele>1062.5</ele>
        <time>2013-06-16T09:38:50Z</time>
      </trkpt>
      <trkpt lat="-20.93582" lon="55.40799">
        <ele>1065</ele>
        <time>2013-06-16T09:39:02Z</time>
      </trkpt>
      <trkpt lat="-20.9358" lon="55.40798">
        <ele>1066</ele>
        <time>2013-06-16T09:39:04Z</time>
      </trkpt>
      <trkpt lat="-20.93565" lon="55.40796">
        <ele>1066.6</ele>
        <time>2013-06-16T09:39:15Z</time>
      </trkpt>
      <trkpt lat="-20.93557" lon="55.408">
        <ele>1063.7</ele>
        <time>2013-06-16T09:39:24Z</time>
      </trkpt>
      <trkpt lat="-20.9355" lon="55.40805">
        <ele>1061.5</ele>
        <time>2013-06-16T09:39:30Z</time>
      </trkpt>
      <trkpt lat="-20.93544" lon="55.4081">
        <ele>1061</ele>
        <time>2013-06-16T09:39:35Z</time>
      </trkpt>
      <trkpt lat="-20.93536" lon="55.40814">
        <ele>1060.5</ele>
        <time>2013-06-16T09:39:40Z</time>
      </trkpt>
      <trkpt lat="-20.9353" lon="55.4082">
        <ele>1059.4</ele>
        <time>2013-06-16T09:39:45Z</time>
      </trkpt>
      <trkpt lat="-20.93523" lon="55.40825">
        <ele>1057.3</ele>
        <time>2013-06-16T09:39:51Z</time>
      </trkpt>
      <trkpt lat="-20.93517" lon="55.4083">
        <ele>1054.6</ele>
        <time>2013-06-16T09:39:57Z</time>
      </trkpt>
      <trkpt lat="-20.9351" lon="55.40832">
        <ele>1053.1</ele>
        <time>2013-06-16T09:40:02Z</time>
      </trkpt>
      <trkpt lat="-20.93501" lon="55.40836">
        <ele>1051.4</ele>
        <time>2013-06-16T09:40:07Z</time>
      </trkpt>
      <trkpt lat="-20.935" lon="55.40836">
        <ele>1051.2</ele>
        <time>2013-06-16T09:40:08Z</time>
      </trkpt>
      <trkpt lat="-20.93485" lon="55.40844">
        <ele>1049.7</ele>
        <time>2013-06-16T09:40:17Z</time>
      </trkpt>
      <trkpt lat="-20.93477" lon="55.40845">
        <ele>1048.4</ele>
        <time>2013-06-16T09:40:24Z</time>
      </trkpt>
      <trkpt lat="-20.93471" lon="55.40851">
        <ele>1046.1</ele>
        <time>2013-06-16T09:40:30Z</time>
      </trkpt>
      <trkpt lat="-20.93465" lon="55.40858">
        <ele>1043.3</ele>
        <time>2013-06-16T09:40:36Z</time>
      </trkpt>
      <trkpt lat="-20.93458" lon="55.40862">
        <ele>1041.9</ele>
        <time>2013-06-16T09:40:41Z</time>
      </trkpt>
      <trkpt lat="-20.9345" lon="55.40865">
        <ele>1039.9</ele>
        <time>2013-06-16T09:40:47Z</time>
      </trkpt>
      <trkpt lat="-20.93443" lon="55.40869">
        <ele>1036.4</ele>
        <time>2013-06-16T09:40:54Z</time>
      </trkpt>
      <trkpt lat="-20.93434" lon="55.40868">
        <ele>1032.6</ele>
        <time>2013-06-16T09:41:00Z</time>
      </trkpt>
      <trkpt lat="-20.93426" lon="55.40871">
        <ele>1030.5</ele>
        <time>2013-06-16T09:41:08Z</time>
      </trkpt>
      <trkpt lat="-20.93425" lon="55.4087">
        <ele>1029.9</ele>
        <time>2013-06-16T09:41:09Z</time>
      </trkpt>
      <trkpt lat="-20.93412" lon="55.40863">
        <ele>1023.9</ele>
        <time>2013-06-16T09:41:24Z</time>
      </trkpt>
      <trkpt lat="-20.93407" lon="55.40871">
        <ele>1021.4</ele>
        <time>2013-06-16T09:41:30Z</time>
      </trkpt>
      <trkpt lat="-20.93405" lon="55.4088">
        <ele>1019.4</ele>
        <time>2013-06-16T09:41:36Z</time>
      </trkpt>
      <trkpt lat="-20.934" lon="55.40886">
        <ele>1016.5</ele>
        <time>2013-06-16T09:41:44Z</time>
      </trkpt>
      <trkpt lat="-20.93391" lon="55.40886">
        <ele>1015</ele>
        <time>2013-06-16T09:41:50Z</time>
      </trkpt>
      <trkpt lat="-20.93384" lon="55.40882">
        <ele>1013.7</ele>
        <time>2013-06-16T09:41:57Z</time>
      </trkpt>
      <trkpt lat="-20.9338" lon="55.40889">
        <ele>1010.1</ele>
        <time>2013-06-16T09:42:04Z</time>
      </trkpt>
      <trkpt lat="-20.93378" lon="55.40898">
        <ele>1008.3</ele>
        <time>2013-06-16T09:42:10Z</time>
      </trkpt>
      <trkpt lat="-20.93377" lon="55.409">
        <ele>1007.5</ele>
        <time>2013-06-16T09:42:11Z</time>
      </trkpt>
      <trkpt lat="-20.93372" lon="55.40914">
        <ele>1003.8</ele>
        <time>2013-06-16T09:42:21Z</time>
      </trkpt>
      <trkpt lat="-20.93366" lon="55.40921">
        <ele>1002.3</ele>
        <time>2013-06-16T09:42:28Z</time>
      </trkpt>
      <trkpt lat="-20.93357" lon="55.40918">
        <ele>998.1</ele>
        <time>2013-06-16T09:42:42Z</time>
      </trkpt>
      <trkpt lat="-20.9335" lon="55.40918">
        <ele>996.5</ele>
        <time>2013-06-16T09:42:48Z</time>
      </trkpt>
      <trkpt lat="-20.93342" lon="55.40921">
        <ele>995</ele>
        <time>2013-06-16T09:42:53Z</time>
      </trkpt>
      <trkpt lat="-20.93335" lon="55.40916">
        <ele>993.2</ele>
        <time>2013-06-16T09:42:59Z</time>
      </trkpt>
      <trkpt lat="-20.93328" lon="55.40912">
        <ele>992.1</ele>
        <time>2013-06-16T09:43:05Z</time>
      </trkpt>
      <trkpt lat="-20.93319" lon="55.40912">
        <ele>987.5</ele>
        <time>2013-06-16T09:43:17Z</time>
      </trkpt>
      <trkpt lat="-20.93318" lon="55.40911">
        <ele>987</ele>
        <time>2013-06-16T09:43:18Z</time>
      </trkpt>
      <trkpt lat="-20.93303" lon="55.40916">
        <ele>984.2</ele>
        <time>2013-06-16T09:43:30Z</time>
      </trkpt>
      <trkpt lat="-20.93295" lon="55.40913">
        <ele>981.7</ele>
        <time>2013-06-16T09:43:42Z</time>
      </trkpt>
      <trkpt lat="-20.93289" lon="55.40907">
        <ele>979.1</ele>
        <time>2013-06-16T09:43:50Z</time>
      </trkpt>
      <trkpt lat="-20.93283" lon="55.40902">
        <ele>975.8</ele>
        <time>2013-06-16T09:43:55Z</time>
      </trkpt>
      <trkpt lat="-20.93276" lon="55.40897">
        <ele>975.5</ele>
        <time>2013-06-16T09:44:00Z</time>
      </trkpt>
      <trkpt lat="-20.93269" lon="55.40894">
        <ele>973.6</ele>
        <time>2013-06-16T09:44:05Z</time>
      </trkpt>
      <trkpt lat="-20.93261" lon="55.40896">
        <ele>972.4</ele>
        <time>2013-06-16T09:44:12Z</time>
      </trkpt>
      <trkpt lat="-20.93257" lon="55.40903">
        <ele>969.8</ele>
        <time>2013-06-16T09:44:19Z</time>
      </trkpt>
      <trkpt lat="-20.93257" lon="55.40904">
        <ele>969.4</ele>
        <time>2013-06-16T09:44:20Z</time>
      </trkpt>
      <trkpt lat="-20.93248" lon="55.40916">
        <ele>966.5</ele>
        <time>2013-06-16T09:44:31Z</time>
      </trkpt>
      <trkpt lat="-20.93245" lon="55.40925">
        <ele>965.5</ele>
        <time>2013-06-16T09:44:36Z</time>
      </trkpt>
      <trkpt lat="-20.93244" lon="55.40933">
        <ele>964.5</ele>
        <time>2013-06-16T09:44:40Z</time>
      </trkpt>
      <trkpt lat="-20.93242" lon="55.40941">
        <ele>964.5</ele>
        <time>2013-06-16T09:44:45Z</time>
      </trkpt>
      <trkpt lat="-20.9324" lon="55.40949">
        <ele>964</ele>
        <time>2013-06-16T09:44:49Z</time>
      </trkpt>
      <trkpt lat="-20.93238" lon="55.40957">
        <ele>964.2</ele>
        <time>2013-06-16T09:44:55Z</time>
      </trkpt>
      <trkpt lat="-20.93236" lon="55.40966">
        <ele>963.8</ele>
        <time>2013-06-16T09:45:00Z</time>
      </trkpt>
      <trkpt lat="-20.93237" lon="55.40975">
        <ele>964.3</ele>
        <time>2013-06-16T09:45:07Z</time>
      </trkpt>
      <trkpt lat="-20.93236" lon="55.40984">
        <ele>964.3</ele>
        <time>2013-06-16T09:45:13Z</time>
      </trkpt>
      <trkpt lat="-20.93233" lon="55.40992">
        <ele>964.5</ele>
        <time>2013-06-16T09:45:18Z</time>
      </trkpt>
      <trkpt lat="-20.93226" lon="55.40997">
        <ele>964.6</ele>
        <time>2013-06-16T09:45:24Z</time>
      </trkpt>
      <trkpt lat="-20.93225" lon="55.40998">
        <ele>964.8</ele>
        <time>2013-06-16T09:45:25Z</time>
      </trkpt>
      <trkpt lat="-20.9321" lon="55.41003">
        <ele>966.9</ele>
        <time>2013-06-16T09:45:39Z</time>
      </trkpt>
      <trkpt lat="-20.93202" lon="55.41005">
        <ele>968.5</ele>
        <time>2013-06-16T09:45:49Z</time>
      </trkpt>
      <trkpt lat="-20.93193" lon="55.41004">
        <ele>970.8</ele>
        <time>2013-06-16T09:46:02Z</time>
      </trkpt>
      <trkpt lat="-20.93185" lon="55.41005">
        <ele>972.2</ele>
        <time>2013-06-16T09:46:08Z</time>
      </trkpt>
      <trkpt lat="-20.93177" lon="55.41007">
        <ele>972.6</ele>
        <time>2013-06-16T09:46:15Z</time>
      </trkpt>
      <trkpt lat="-20.93168" lon="55.41008">
        <ele>972.7</ele>
        <time>2013-06-16T09:46:22Z</time>
      </trkpt>
      <trkpt lat="-20.93161" lon="55.41006">
        <ele>972.6</ele>
        <time>2013-06-16T09:46:28Z</time>
      </trkpt>
      <trkpt lat="-20.93159" lon="55.41006">
        <ele>972.6</ele>
        <time>2013-06-16T09:46:29Z</time>
      </trkpt>
      <trkpt lat="-20.93145" lon="55.41001">
        <ele>969.5</ele>
        <time>2013-06-16T09:46:42Z</time>
      </trkpt>
      <trkpt lat="-20.93137" lon="55.40998">
        <ele>967.9</ele>
        <time>2013-06-16T09:46:48Z</time>
      </trkpt>
      <trkpt lat="-20.9313" lon="55.41003">
        <ele>963.4</ele>
        <time>2013-06-16T09:46:59Z</time>
      </trkpt>
      <trkpt lat="-20.93122" lon="55.41">
        <ele>959.8</ele>
        <time>2013-06-16T09:47:08Z</time>
      </trkpt>
      <trkpt lat="-20.93114" lon="55.41">
        <ele>956.7</ele>
        <time>2013-06-16T09:47:17Z</time>
      </trkpt>
      <trkpt lat="-20.93108" lon="55.41006">
        <ele>954.5</ele>
        <time>2013-06-16T09:47:22Z</time>
      </trkpt>
      <trkpt lat="-20.931" lon="55.41008">
        <ele>952.4</ele>
        <time>2013-06-16T09:47:27Z</time>
      </trkpt>
      <trkpt lat="-20.93091" lon="55.41011">
        <ele>953.2</ele>
        <time>2013-06-16T09:47:35Z</time>
      </trkpt>
      <trkpt lat="-20.93091" lon="55.41012">
        <ele>953.5</ele>
        <time>2013-06-16T09:47:36Z</time>
      </trkpt>
      <trkpt lat="-20.93075" lon="55.41019">
        <ele>959.3</ele>
        <time>2013-06-16T09:47:56Z</time>
      </trkpt>
      <trkpt lat="-20.93067" lon="55.41017">
        <ele>959.7</ele>
        <time>2013-06-16T09:48:03Z</time>
      </trkpt>
      <trkpt lat="-20.93058" lon="55.41018">
        <ele>959.5</ele>
        <time>2013-06-16T09:48:09Z</time>
      </trkpt>
      <trkpt lat="-20.9305" lon="55.41021">
        <ele>958.8</ele>
        <time>2013-06-16T09:48:16Z</time>
      </trkpt>
      <trkpt lat="-20.93043" lon="55.41023">
        <ele>958.3</ele>
        <time>2013-06-16T09:48:22Z</time>
      </trkpt>
      <trkpt lat="-20.93035" lon="55.41025">
        <ele>956.1</ele>
        <time>2013-06-16T09:48:28Z</time>
      </trkpt>
      <trkpt lat="-20.93026" lon="55.41022">
        <ele>954.2</ele>
        <time>2013-06-16T09:48:34Z</time>
      </trkpt>
      <trkpt lat="-20.93019" lon="55.4102">
        <ele>952.5</ele>
        <time>2013-06-16T09:48:39Z</time>
      </trkpt>
      <trkpt lat="-20.93016" lon="55.41019">
        <ele>952.3</ele>
        <time>2013-06-16T09:48:40Z</time>
      </trkpt>
      <trkpt lat="-20.93002" lon="55.41018">
        <ele>949.5</ele>
        <time>2013-06-16T09:48:53Z</time>
      </trkpt>
      <trkpt lat="-20.92995" lon="55.41023">
        <ele>947.9</ele>
        <time>2013-06-16T09:49:02Z</time>
      </trkpt>
      <trkpt lat="-20.92988" lon="55.41029">
        <ele>946.5</ele>
        <time>2013-06-16T09:49:10Z</time>
      </trkpt>
      <trkpt lat="-20.92982" lon="55.41036">
        <ele>943.1</ele>
        <time>2013-06-16T09:49:18Z</time>
      </trkpt>
      <trkpt lat="-20.92977" lon="55.41043">
        <ele>940.4</ele>
        <time>2013-06-16T09:49:24Z</time>
      </trkpt>
      <trkpt lat="-20.9297" lon="55.41048">
        <ele>939.1</ele>
        <time>2013-06-16T09:49:29Z</time>
      </trkpt>
      <trkpt lat="-20.92962" lon="55.4105">
        <ele>937</ele>
        <time>2013-06-16T09:49:34Z</time>
      </trkpt>
      <trkpt lat="-20.92956" lon="55.41054">
        <ele>935.3</ele>
        <time>2013-06-16T09:49:39Z</time>
      </trkpt>
      <trkpt lat="-20.92948" lon="55.41049">
        <ele>938.1</ele>
        <time>2013-06-16T09:49:54Z</time>
      </trkpt>
      <trkpt lat="-20.92947" lon="55.41049">
        <ele>938.3</ele>
        <time>2013-06-16T09:49:55Z</time>
      </trkpt>
      <trkpt lat="-20.92943" lon="55.41066">
        <ele>940.9</ele>
        <time>2013-06-16T09:50:05Z</time>
      </trkpt>
      <trkpt lat="-20.92935" lon="55.41069">
        <ele>943.7</ele>
        <time>2013-06-16T09:50:15Z</time>
      </trkpt>
      <trkpt lat="-20.92929" lon="55.41075">
        <ele>944.9</ele>
        <time>2013-06-16T09:50:21Z</time>
      </trkpt>
      <trkpt lat="-20.92921" lon="55.41068">
        <ele>947</ele>
        <time>2013-06-16T09:50:32Z</time>
      </trkpt>
      <trkpt lat="-20.92915" lon="55.41055">
        <ele>948</ele>
        <time>2013-06-16T09:50:38Z</time>
      </trkpt>
      <trkpt lat="-20.92904" lon="55.4104">
        <ele>949</ele>
        <time>2013-06-16T09:50:44Z</time>
      </trkpt>
      <trkpt lat="-20.929" lon="55.41047">
        <ele>951.5</ele>
        <time>2013-06-16T09:50:50Z</time>
      </trkpt>
      <trkpt lat="-20.92896" lon="55.41055">
        <ele>950.7</ele>
        <time>2013-06-16T09:50:55Z</time>
      </trkpt>
      <trkpt lat="-20.92895" lon="55.41056">
        <ele>950.4</ele>
        <time>2013-06-16T09:50:56Z</time>
      </trkpt>
      <trkpt lat="-20.92881" lon="55.41065">
        <ele>943.9</ele>
        <time>2013-06-16T09:51:13Z</time>
      </trkpt>
      <trkpt lat="-20.92872" lon="55.41063">
        <ele>940.5</ele>
        <time>2013-06-16T09:51:22Z</time>
      </trkpt>
      <trkpt lat="-20.92864" lon="55.41061">
        <ele>937.3</ele>
        <time>2013-06-16T09:51:29Z</time>
      </trkpt>
      <trkpt lat="-20.92856" lon="55.41062">
        <ele>934.2</ele>
        <time>2013-06-16T09:51:36Z</time>
      </trkpt>
      <trkpt lat="-20.92848" lon="55.41064">
        <ele>931.9</ele>
        <time>2013-06-16T09:51:42Z</time>
      </trkpt>
      <trkpt lat="-20.9284" lon="55.41069">
        <ele>927.8</ele>
        <time>2013-06-16T09:51:49Z</time>
      </trkpt>
      <trkpt lat="-20.92833" lon="55.41073">
        <ele>925.2</ele>
        <time>2013-06-16T09:51:54Z</time>
      </trkpt>
      <trkpt lat="-20.92825" lon="55.41075">
        <ele>923.2</ele>
        <time>2013-06-16T09:52:01Z</time>
      </trkpt>
      <trkpt lat="-20.92823" lon="55.41076">
        <ele>922.4</ele>
        <time>2013-06-16T09:52:02Z</time>
      </trkpt>
      <trkpt lat="-20.92808" lon="55.41078">
        <ele>921.5</ele>
        <time>2013-06-16T09:52:13Z</time>
      </trkpt>
      <trkpt lat="-20.928" lon="55.41076">
        <ele>922.5</ele>
        <time>2013-06-16T09:52:19Z</time>
      </trkpt>
      <trkpt lat="-20.92792" lon="55.41078">
        <ele>922.9</ele>
        <time>2013-06-16T09:52:26Z</time>
      </trkpt>
      <trkpt lat="-20.92784" lon="55.41076">
        <ele>923.1</ele>
        <time>2013-06-16T09:52:32Z</time>
      </trkpt>
      <trkpt lat="-20.92777" lon="55.41077">
        <ele>921.2</ele>
        <time>2013-06-16T09:52:38Z</time>
      </trkpt>
      <trkpt lat="-20.92769" lon="55.41077">
        <ele>919.1</ele>
        <time>2013-06-16T09:52:43Z</time>
      </trkpt>
      <trkpt lat="-20.92761" lon="55.41079">
        <ele>917.3</ele>
        <time>2013-06-16T09:52:48Z</time>
      </trkpt>
      <trkpt lat="-20.92755" lon="55.41083">
        <ele>916.6</ele>
        <time>2013-06-16T09:52:53Z</time>
      </trkpt>
      <trkpt lat="-20.92746" lon="55.41085">
        <ele>916.2</ele>
        <time>2013-06-16T09:52:58Z</time>
      </trkpt>
      <trkpt lat="-20.92738" lon="55.41087">
        <ele>915.7</ele>
        <time>2013-06-16T09:53:04Z</time>
      </trkpt>
      <trkpt lat="-20.92737" lon="55.41088">
        <ele>915.5</ele>
        <time>2013-06-16T09:53:05Z</time>
      </trkpt>
      <trkpt lat="-20.92722" lon="55.41093">
        <ele>911.5</ele>
        <time>2013-06-16T09:53:16Z</time>
      </trkpt>
      <trkpt lat="-20.92714" lon="55.41096">
        <ele>908.1</ele>
        <time>2013-06-16T09:53:22Z</time>
      </trkpt>
      <trkpt lat="-20.92706" lon="55.41099">
        <ele>904.5</ele>
        <time>2013-06-16T09:53:31Z</time>
      </trkpt>
      <trkpt lat="-20.92699" lon="55.41102">
        <ele>902.1</ele>
        <time>2013-06-16T09:53:37Z</time>
      </trkpt>
      <trkpt lat="-20.92691" lon="55.41102">
        <ele>901.9</ele>
        <time>2013-06-16T09:53:42Z</time>
      </trkpt>
      <trkpt lat="-20.92683" lon="55.41101">
        <ele>901.4</ele>
        <time>2013-06-16T09:53:47Z</time>
      </trkpt>
      <trkpt lat="-20.92676" lon="55.41098">
        <ele>901.7</ele>
        <time>2013-06-16T09:53:52Z</time>
      </trkpt>
      <trkpt lat="-20.92667" lon="55.41096">
        <ele>903.6</ele>
        <time>2013-06-16T09:53:57Z</time>
      </trkpt>
      <trkpt lat="-20.9266" lon="55.41093">
        <ele>905.5</ele>
        <time>2013-06-16T09:54:10Z</time>
      </trkpt>
      <trkpt lat="-20.92658" lon="55.4109">
        <ele>905.9</ele>
        <time>2013-06-16T09:54:11Z</time>
      </trkpt>
      <trkpt lat="-20.92649" lon="55.41081">
        <ele>907.4</ele>
        <time>2013-06-16T09:54:15Z</time>
      </trkpt>
      <trkpt lat="-20.92644" lon="55.41088">
        <ele>909.7</ele>
        <time>2013-06-16T09:54:26Z</time>
      </trkpt>
      <trkpt lat="-20.92641" lon="55.41096">
        <ele>911</ele>
        <time>2013-06-16T09:54:32Z</time>
      </trkpt>
      <trkpt lat="-20.92635" lon="55.411">
        <ele>911.4</ele>
        <time>2013-06-16T09:54:38Z</time>
      </trkpt>
      <trkpt lat="-20.92629" lon="55.41105">
        <ele>910</ele>
        <time>2013-06-16T09:54:44Z</time>
      </trkpt>
      <trkpt lat="-20.92622" lon="55.4111">
        <ele>906.9</ele>
        <time>2013-06-16T09:54:52Z</time>
      </trkpt>
      <trkpt lat="-20.92613" lon="55.41109">
        <ele>903</ele>
        <time>2013-06-16T09:54:59Z</time>
      </trkpt>
      <trkpt lat="-20.92606" lon="55.41105">
        <ele>901.5</ele>
        <time>2013-06-16T09:55:03Z</time>
      </trkpt>
      <trkpt lat="-20.92599" lon="55.41103">
        <ele>901.9</ele>
        <time>2013-06-16T09:55:07Z</time>
      </trkpt>
      <trkpt lat="-20.92591" lon="55.41103">
        <ele>902</ele>
        <time>2013-06-16T09:55:14Z</time>
      </trkpt>
      <trkpt lat="-20.92589" lon="55.41104">
        <ele>902.3</ele>
        <time>2013-06-16T09:55:15Z</time>
      </trkpt>
      <trkpt lat="-20.92576" lon="55.41103">
        <ele>901.9</ele>
        <time>2013-06-16T09:55:28Z</time>
      </trkpt>
      <trkpt lat="-20.92569" lon="55.41108">
        <ele>901.2</ele>
        <time>2013-06-16T09:55:33Z</time>
      </trkpt>
      <trkpt lat="-20.92562" lon="55.41113">
        <ele>899.5</ele>
        <time>2013-06-16T09:55:39Z</time>
      </trkpt>
      <trkpt lat="-20.92556" lon="55.41119">
        <ele>895.7</ele>
        <time>2013-06-16T09:55:46Z</time>
      </trkpt>
      <trkpt lat="-20.92548" lon="55.41124">
        <ele>890.3</ele>
        <time>2013-06-16T09:55:57Z</time>
      </trkpt>
      <trkpt lat="-20.92541" lon="55.41129">
        <ele>884.1</ele>
        <time>2013-06-16T09:56:08Z</time>
      </trkpt>
      <trkpt lat="-20.92534" lon="55.41133">
        <ele>880.1</ele>
        <time>2013-06-16T09:56:16Z</time>
      </trkpt>
      <trkpt lat="-20.92532" lon="55.41133">
        <ele>879.6</ele>
        <time>2013-06-16T09:56:17Z</time>
      </trkpt>
      <trkpt lat="-20.92517" lon="55.41134">
        <ele>876</ele>
        <time>2013-06-16T09:56:29Z</time>
      </trkpt>
      <trkpt lat="-20.92508" lon="55.41134">
        <ele>874.1</ele>
        <time>2013-06-16T09:56:34Z</time>
      </trkpt>
      <trkpt lat="-20.92501" lon="55.41134">
        <ele>871.4</ele>
        <time>2013-06-16T09:56:39Z</time>
      </trkpt>
      <trkpt lat="-20.92492" lon="55.4113">
        <ele>870</ele>
        <time>2013-06-16T09:56:44Z</time>
      </trkpt>
      <trkpt lat="-20.92484" lon="55.41131">
        <ele>867.1</ele>
        <time>2013-06-16T09:56:50Z</time>
      </trkpt>
      <trkpt lat="-20.92477" lon="55.41137">
        <ele>864.7</ele>
        <time>2013-06-16T09:56:55Z</time>
      </trkpt>
      <trkpt lat="-20.92471" lon="55.41142">
        <ele>862.7</ele>
        <time>2013-06-16T09:57:01Z</time>
      </trkpt>
      <trkpt lat="-20.92464" lon="55.41147">
        <ele>861.2</ele>
        <time>2013-06-16T09:57:07Z</time>
      </trkpt>
      <trkpt lat="-20.92458" lon="55.41154">
        <ele>858.3</ele>
        <time>2013-06-16T09:57:13Z</time>
      </trkpt>
      <trkpt lat="-20.92454" lon="55.4116">
        <ele>857</ele>
        <time>2013-06-16T09:57:18Z</time>
      </trkpt>
      <trkpt lat="-20.92452" lon="55.41162">
        <ele>856.8</ele>
        <time>2013-06-16T09:57:19Z</time>
      </trkpt>
      <trkpt lat="-20.92445" lon="55.41173">
        <ele>853.5</ele>
        <time>2013-06-16T09:57:26Z</time>
      </trkpt>
      <trkpt lat="-20.92439" lon="55.41178">
        <ele>852.4</ele>
        <time>2013-06-16T09:57:30Z</time>
      </trkpt>
      <trkpt lat="-20.92432" lon="55.41183">
        <ele>851.7</ele>
        <time>2013-06-16T09:57:34Z</time>
      </trkpt>
      <trkpt lat="-20.92425" lon="55.41188">
        <ele>850</ele>
        <time>2013-06-16T09:57:40Z</time>
      </trkpt>
      <trkpt lat="-20.9242" lon="55.41194">
        <ele>847.8</ele>
        <time>2013-06-16T09:57:44Z</time>
      </trkpt>
      <trkpt lat="-20.92414" lon="55.41199">
        <ele>846.1</ele>
        <time>2013-06-16T09:57:49Z</time>
      </trkpt>
      <trkpt lat="-20.9241" lon="55.41205">
        <ele>844</ele>
        <time>2013-06-16T09:57:55Z</time>
      </trkpt>
      <trkpt lat="-20.92403" lon="55.41212">
        <ele>842</ele>
        <time>2013-06-16T09:58:03Z</time>
      </trkpt>
      <trkpt lat="-20.92395" lon="55.41216">
        <ele>839.5</ele>
        <time>2013-06-16T09:58:11Z</time>
      </trkpt>
      <trkpt lat="-20.92388" lon="55.41218">
        <ele>835.2</ele>
        <time>2013-06-16T09:58:20Z</time>
      </trkpt>
      <trkpt lat="-20.92387" lon="55.41219">
        <ele>834.4</ele>
        <time>2013-06-16T09:58:21Z</time>
      </trkpt>
      <trkpt lat="-20.92375" lon="55.41231">
        <ele>830.2</ele>
        <time>2013-06-16T09:58:34Z</time>
      </trkpt>
      <trkpt lat="-20.92367" lon="55.41235">
        <ele>827.6</ele>
        <time>2013-06-16T09:58:41Z</time>
      </trkpt>
      <trkpt lat="-20.92359" lon="55.41235">
        <ele>824.9</ele>
        <time>2013-06-16T09:58:49Z</time>
      </trkpt>
      <trkpt lat="-20.92351" lon="55.41234">
        <ele>822.2</ele>
        <time>2013-06-16T09:58:57Z</time>
      </trkpt>
      <trkpt lat="-20.92342" lon="55.41235">
        <ele>822.1</ele>
        <time>2013-06-16T09:59:04Z</time>
      </trkpt>
      <trkpt lat="-20.92334" lon="55.41239">
        <ele>825.1</ele>
        <time>2013-06-16T09:59:14Z</time>
      </trkpt>
      <trkpt lat="-20.92327" lon="55.41242">
        <ele>825.6</ele>
        <time>2013-06-16T09:59:20Z</time>
      </trkpt>
      <trkpt lat="-20.92324" lon="55.41249">
        <ele>825.9</ele>
        <time>2013-06-16T09:59:23Z</time>
      </trkpt>
      <trkpt lat="-20.92323" lon="55.41251">
        <ele>826.2</ele>
        <time>2013-06-16T09:59:24Z</time>
      </trkpt>
      <trkpt lat="-20.92309" lon="55.4126">
        <ele>828.1</ele>
        <time>2013-06-16T09:59:43Z</time>
      </trkpt>
      <trkpt lat="-20.92307" lon="55.41273">
        <ele>828</ele>
        <time>2013-06-16T09:59:48Z</time>
      </trkpt>
      <trkpt lat="-20.92314" lon="55.41302">
        <ele>830</ele>
        <time>2013-06-16T09:59:55Z</time>
      </trkpt>
      <trkpt lat="-20.92323" lon="55.41319">
        <ele>831</ele>
        <time>2013-06-16T10:00:03Z</time>
      </trkpt>
      <trkpt lat="-20.92317" lon="55.41337">
        <ele>831</ele>
        <time>2013-06-16T10:00:10Z</time>
      </trkpt>
      <trkpt lat="-20.92301" lon="55.41347">
        <ele>834</ele>
        <time>2013-06-16T10:00:17Z</time>
      </trkpt>
      <trkpt lat="-20.9229" lon="55.41349">
        <ele>835</ele>
        <time>2013-06-16T10:00:23Z</time>
      </trkpt>
      <trkpt lat="-20.92289" lon="55.41348">
        <ele>835.8</ele>
        <time>2013-06-16T10:00:25Z</time>
      </trkpt>
      <trkpt lat="-20.92262" lon="55.41305">
        <ele>839</ele>
        <time>2013-06-16T10:00:46Z</time>
      </trkpt>
      <trkpt lat="-20.92254" lon="55.41313">
        <ele>841.9</ele>
        <time>2013-06-16T10:00:55Z</time>
      </trkpt>
      <trkpt lat="-20.92255" lon="55.41323">
        <ele>845</ele>
        <time>2013-06-16T10:01:05Z</time>
      </trkpt>
      <trkpt lat="-20.92264" lon="55.41327">
        <ele>847</ele>
        <time>2013-06-16T10:01:21Z</time>
      </trkpt>
      <trkpt lat="-20.92258" lon="55.41336">
        <ele>851</ele>
        <time>2013-06-16T10:01:41Z</time>
      </trkpt>
      <trkpt lat="-20.92252" lon="55.41338">
        <ele>852.4</ele>
        <time>2013-06-16T10:01:44Z</time>
      </trkpt>
      <trkpt lat="-20.92242" lon="55.41341">
        <ele>856.9</ele>
        <time>2013-06-16T10:02:11Z</time>
      </trkpt>
      <trkpt lat="-20.92234" lon="55.41342">
        <ele>857.7</ele>
        <time>2013-06-16T10:02:16Z</time>
      </trkpt>
      <trkpt lat="-20.92226" lon="55.41341">
        <ele>858.7</ele>
        <time>2013-06-16T10:02:22Z</time>
      </trkpt>
      <trkpt lat="-20.92218" lon="55.41343">
        <ele>859.3</ele>
        <time>2013-06-16T10:02:29Z</time>
      </trkpt>
      <trkpt lat="-20.9221" lon="55.41343">
        <ele>858.1</ele>
        <time>2013-06-16T10:02:35Z</time>
      </trkpt>
      <trkpt lat="-20.92202" lon="55.41344">
        <ele>857</ele>
        <time>2013-06-16T10:02:41Z</time>
      </trkpt>
      <trkpt lat="-20.92193" lon="55.41347">
        <ele>855</ele>
        <time>2013-06-16T10:02:47Z</time>
      </trkpt>
      <trkpt lat="-20.92192" lon="55.41348">
        <ele>854.9</ele>
        <time>2013-06-16T10:02:48Z</time>
      </trkpt>
      <trkpt lat="-20.92181" lon="55.41359">
        <ele>856.5</ele>
        <time>2013-06-16T10:02:57Z</time>
      </trkpt>
      <trkpt lat="-20.92175" lon="55.41376">
        <ele>856</ele>
        <time>2013-06-16T10:03:01Z</time>
      </trkpt>
      <trkpt lat="-20.92167" lon="55.41379">
        <ele>860.2</ele>
        <time>2013-06-16T10:03:13Z</time>
      </trkpt>
      <trkpt lat="-20.92164" lon="55.41369">
        <ele>860</ele>
        <time>2013-06-16T10:03:17Z</time>
      </trkpt>
      <trkpt lat="-20.9216" lon="55.41361">
        <ele>861.8</ele>
        <time>2013-06-16T10:03:23Z</time>
      </trkpt>
      <trkpt lat="-20.92152" lon="55.41364">
        <ele>862.4</ele>
        <time>2013-06-16T10:03:27Z</time>
      </trkpt>
      <trkpt lat="-20.92144" lon="55.41364">
        <ele>862.8</ele>
        <time>2013-06-16T10:03:33Z</time>
      </trkpt>
      <trkpt lat="-20.92139" lon="55.41371">
        <ele>860.6</ele>
        <time>2013-06-16T10:03:49Z</time>
      </trkpt>
      <trkpt lat="-20.92138" lon="55.41371">
        <ele>860.5</ele>
        <time>2013-06-16T10:03:50Z</time>
      </trkpt>
      <trkpt lat="-20.92123" lon="55.41372">
        <ele>851.5</ele>
        <time>2013-06-16T10:04:10Z</time>
      </trkpt>
      <trkpt lat="-20.92118" lon="55.41378">
        <ele>849.9</ele>
        <time>2013-06-16T10:04:16Z</time>
      </trkpt>
      <trkpt lat="-20.92112" lon="55.41384">
        <ele>851.2</ele>
        <time>2013-06-16T10:04:22Z</time>
      </trkpt>
      <trkpt lat="-20.92105" lon="55.41388">
        <ele>851.4</ele>
        <time>2013-06-16T10:04:28Z</time>
      </trkpt>
      <trkpt lat="-20.92098" lon="55.41393">
        <ele>854.1</ele>
        <time>2013-06-16T10:04:42Z</time>
      </trkpt>
      <trkpt lat="-20.92092" lon="55.414">
        <ele>854.9</ele>
        <time>2013-06-16T10:04:50Z</time>
      </trkpt>
      <trkpt lat="-20.92091" lon="55.41401">
        <ele>855.1</ele>
        <time>2013-06-16T10:04:51Z</time>
      </trkpt>
      <trkpt lat="-20.92076" lon="55.414">
        <ele>855.3</ele>
        <time>2013-06-16T10:05:05Z</time>
      </trkpt>
      <trkpt lat="-20.92068" lon="55.414">
        <ele>855.8</ele>
        <time>2013-06-16T10:05:10Z</time>
      </trkpt>
      <trkpt lat="-20.92062" lon="55.41405">
        <ele>854.4</ele>
        <time>2013-06-16T10:05:16Z</time>
      </trkpt>
      <trkpt lat="-20.92055" lon="55.41411">
        <ele>853.4</ele>
        <time>2013-06-16T10:05:22Z</time>
      </trkpt>
      <trkpt lat="-20.92051" lon="55.41418">
        <ele>852.2</ele>
        <time>2013-06-16T10:05:32Z</time>
      </trkpt>
      <trkpt lat="-20.92048" lon="55.41426">
        <ele>850.3</ele>
        <time>2013-06-16T10:05:40Z</time>
      </trkpt>
      <trkpt lat="-20.92043" lon="55.41432">
        <ele>849.3</ele>
        <time>2013-06-16T10:05:45Z</time>
      </trkpt>
      <trkpt lat="-20.92035" lon="55.41433">
        <ele>848.8</ele>
        <time>2013-06-16T10:05:49Z</time>
      </trkpt>
      <trkpt lat="-20.92027" lon="55.41437">
        <ele>848.4</ele>
        <time>2013-06-16T10:05:54Z</time>
      </trkpt>
      <trkpt lat="-20.92026" lon="55.41438">
        <ele>847.5</ele>
        <time>2013-06-16T10:05:55Z</time>
      </trkpt>
      <trkpt lat="-20.92012" lon="55.41435">
        <ele>843.2</ele>
        <time>2013-06-16T10:06:06Z</time>
      </trkpt>
      <trkpt lat="-20.92004" lon="55.41436">
        <ele>841.7</ele>
        <time>2013-06-16T10:06:11Z</time>
      </trkpt>
      <trkpt lat="-20.91995" lon="55.41438">
        <ele>838.4</ele>
        <time>2013-06-16T10:06:18Z</time>
      </trkpt>
      <trkpt lat="-20.91987" lon="55.41442">
        <ele>835.5</ele>
        <time>2013-06-16T10:06:26Z</time>
      </trkpt>
      <trkpt lat="-20.91979" lon="55.41442">
        <ele>832.9</ele>
        <time>2013-06-16T10:06:33Z</time>
      </trkpt>
      <trkpt lat="-20.91972" lon="55.41441">
        <ele>831.1</ele>
        <time>2013-06-16T10:06:39Z</time>
      </trkpt>
      <trkpt lat="-20.91964" lon="55.41442">
        <ele>829.4</ele>
        <time>2013-06-16T10:06:46Z</time>
      </trkpt>
      <trkpt lat="-20.91956" lon="55.4144">
        <ele>830.3</ele>
        <time>2013-06-16T10:06:53Z</time>
      </trkpt>
      <trkpt lat="-20.91948" lon="55.41439">
        <ele>829.1</ele>
        <time>2013-06-16T10:06:59Z</time>
      </trkpt>
      <trkpt lat="-20.91946" lon="55.41439">
        <ele>828.5</ele>
        <time>2013-06-16T10:07:00Z</time>
      </trkpt>
      <trkpt lat="-20.91931" lon="55.41437">
        <ele>831.2</ele>
        <time>2013-06-16T10:07:15Z</time>
      </trkpt>
      <trkpt lat="-20.91923" lon="55.41435">
        <ele>833</ele>
        <time>2013-06-16T10:07:23Z</time>
      </trkpt>
      <trkpt lat="-20.91916" lon="55.4143">
        <ele>835.8</ele>
        <time>2013-06-16T10:07:30Z</time>
      </trkpt>
      <trkpt lat="-20.91909" lon="55.41426">
        <ele>837.6</ele>
        <time>2013-06-16T10:07:36Z</time>
      </trkpt>
      <trkpt lat="-20.91901" lon="55.41425">
        <ele>838</ele>
        <time>2013-06-16T10:07:42Z</time>
      </trkpt>
      <trkpt lat="-20.91894" lon="55.41422">
        <ele>837.9</ele>
        <time>2013-06-16T10:07:45Z</time>
      </trkpt>
      <trkpt lat="-20.91886" lon="55.41422">
        <ele>839.7</ele>
        <time>2013-06-16T10:07:52Z</time>
      </trkpt>
      <trkpt lat="-20.9188" lon="55.41417">
        <ele>840.3</ele>
        <time>2013-06-16T10:07:57Z</time>
      </trkpt>
      <trkpt lat="-20.91864" lon="55.41459">
        <ele>843</ele>
        <time>2013-06-16T10:08:15Z</time>
      </trkpt>
      <trkpt lat="-20.91862" lon="55.4145">
        <ele>844.1</ele>
        <time>2013-06-16T10:08:20Z</time>
      </trkpt>
      <trkpt lat="-20.91854" lon="55.41446">
        <ele>845.3</ele>
        <time>2013-06-16T10:08:30Z</time>
      </trkpt>
      <trkpt lat="-20.91847" lon="55.41449">
        <ele>843.1</ele>
        <time>2013-06-16T10:08:39Z</time>
      </trkpt>
      <trkpt lat="-20.91841" lon="55.41456">
        <ele>840.1</ele>
        <time>2013-06-16T10:08:49Z</time>
      </trkpt>
      <trkpt lat="-20.91834" lon="55.41462">
        <ele>834.5</ele>
        <time>2013-06-16T10:08:59Z</time>
      </trkpt>
      <trkpt lat="-20.91828" lon="55.41468">
        <ele>829.1</ele>
        <time>2013-06-16T10:09:08Z</time>
      </trkpt>
      <trkpt lat="-20.91821" lon="55.41472">
        <ele>826.7</ele>
        <time>2013-06-16T10:09:15Z</time>
      </trkpt>
      <trkpt lat="-20.91814" lon="55.41479">
        <ele>824.5</ele>
        <time>2013-06-16T10:09:21Z</time>
      </trkpt>
      <trkpt lat="-20.91813" lon="55.41479">
        <ele>824.2</ele>
        <time>2013-06-16T10:09:22Z</time>
      </trkpt>
      <trkpt lat="-20.918" lon="55.41485">
        <ele>821.8</ele>
        <time>2013-06-16T10:09:31Z</time>
      </trkpt>
      <trkpt lat="-20.91791" lon="55.41486">
        <ele>819.9</ele>
        <time>2013-06-16T10:09:36Z</time>
      </trkpt>
      <trkpt lat="-20.91785" lon="55.41491">
        <ele>816.8</ele>
        <time>2013-06-16T10:09:42Z</time>
      </trkpt>
      <trkpt lat="-20.91779" lon="55.41496">
        <ele>815.4</ele>
        <time>2013-06-16T10:09:47Z</time>
      </trkpt>
      <trkpt lat="-20.91773" lon="55.41502">
        <ele>814.4</ele>
        <time>2013-06-16T10:09:51Z</time>
      </trkpt>
      <trkpt lat="-20.91769" lon="55.41509">
        <ele>813.7</ele>
        <time>2013-06-16T10:09:55Z</time>
      </trkpt>
      <trkpt lat="-20.91765" lon="55.41517">
        <ele>812.1</ele>
        <time>2013-06-16T10:10:00Z</time>
      </trkpt>
      <trkpt lat="-20.91762" lon="55.41526">
        <ele>808.7</ele>
        <time>2013-06-16T10:10:05Z</time>
      </trkpt>
      <trkpt lat="-20.91759" lon="55.41534">
        <ele>807.2</ele>
        <time>2013-06-16T10:10:10Z</time>
      </trkpt>
      <trkpt lat="-20.91757" lon="55.41542">
        <ele>804.1</ele>
        <time>2013-06-16T10:10:16Z</time>
      </trkpt>
      <trkpt lat="-20.91754" lon="55.41551">
        <ele>800.8</ele>
        <time>2013-06-16T10:10:23Z</time>
      </trkpt>
      <trkpt lat="-20.91754" lon="55.41552">
        <ele>800.6</ele>
        <time>2013-06-16T10:10:24Z</time>
      </trkpt>
      <trkpt lat="-20.91747" lon="55.41567">
        <ele>792.3</ele>
        <time>2013-06-16T10:10:40Z</time>
      </trkpt>
      <trkpt lat="-20.91743" lon="55.41574">
        <ele>789.8</ele>
        <time>2013-06-16T10:10:45Z</time>
      </trkpt>
      <trkpt lat="-20.91736" lon="55.41578">
        <ele>786.2</ele>
        <time>2013-06-16T10:10:53Z</time>
      </trkpt>
      <trkpt lat="-20.91727" lon="55.4158">
        <ele>782.8</ele>
        <time>2013-06-16T10:11:01Z</time>
      </trkpt>
      <trkpt lat="-20.9172" lon="55.41583">
        <ele>780.3</ele>
        <time>2013-06-16T10:11:07Z</time>
      </trkpt>
      <trkpt lat="-20.91714" lon="55.41588">
        <ele>779.1</ele>
        <time>2013-06-16T10:11:11Z</time>
      </trkpt>
      <trkpt lat="-20.91706" lon="55.4159">
        <ele>778.6</ele>
        <time>2013-06-16T10:11:16Z</time>
      </trkpt>
      <trkpt lat="-20.91699" lon="55.41593">
        <ele>779.4</ele>
        <time>2013-06-16T10:11:24Z</time>
      </trkpt>
      <trkpt lat="-20.91697" lon="55.41595">
        <ele>779.6</ele>
        <time>2013-06-16T10:11:25Z</time>
      </trkpt>
      <trkpt lat="-20.9169" lon="55.41604">
        <ele>780.4</ele>
        <time>2013-06-16T10:11:28Z</time>
      </trkpt>
      <trkpt lat="-20.91685" lon="55.41622">
        <ele>780</ele>
        <time>2013-06-16T10:11:32Z</time>
      </trkpt>
      <trkpt lat="-20.91679" lon="55.41629">
        <ele>781.1</ele>
        <time>2013-06-16T10:11:37Z</time>
      </trkpt>
      <trkpt lat="-20.9167" lon="55.41627">
        <ele>781.7</ele>
        <time>2013-06-16T10:11:42Z</time>
      </trkpt>
      <trkpt lat="-20.91663" lon="55.41631">
        <ele>780.6</ele>
        <time>2013-06-16T10:11:48Z</time>
      </trkpt>
      <trkpt lat="-20.91655" lon="55.41635">
        <ele>779.5</ele>
        <time>2013-06-16T10:11:54Z</time>
      </trkpt>
      <trkpt lat="-20.91649" lon="55.4164">
        <ele>778.3</ele>
        <time>2013-06-16T10:11:58Z</time>
      </trkpt>
      <trkpt lat="-20.91643" lon="55.41645">
        <ele>776.8</ele>
        <time>2013-06-16T10:12:02Z</time>
      </trkpt>
      <trkpt lat="-20.91636" lon="55.41649">
        <ele>775.4</ele>
        <time>2013-06-16T10:12:06Z</time>
      </trkpt>
      <trkpt lat="-20.91628" lon="55.41651">
        <ele>774.5</ele>
        <time>2013-06-16T10:12:10Z</time>
      </trkpt>
      <trkpt lat="-20.91621" lon="55.41653">
        <ele>774.2</ele>
        <time>2013-06-16T10:12:13Z</time>
      </trkpt>
      <trkpt lat="-20.91614" lon="55.41656">
        <ele>773.1</ele>
        <time>2013-06-16T10:12:17Z</time>
      </trkpt>
      <trkpt lat="-20.91606" lon="55.41659">
        <ele>773.3</ele>
        <time>2013-06-16T10:12:23Z</time>
      </trkpt>
      <trkpt lat="-20.916" lon="55.41665">
        <ele>773</ele>
        <time>2013-06-16T10:12:28Z</time>
      </trkpt>
      <trkpt lat="-20.91598" lon="55.41665">
        <ele>773.1</ele>
        <time>2013-06-16T10:12:29Z</time>
      </trkpt>
      <trkpt lat="-20.9159" lon="55.41677">
        <ele>774.7</ele>
        <time>2013-06-16T10:12:35Z</time>
      </trkpt>
      <trkpt lat="-20.91581" lon="55.41679">
        <ele>776.5</ele>
        <time>2013-06-16T10:12:41Z</time>
      </trkpt>
      <trkpt lat="-20.91573" lon="55.41684">
        <ele>776.7</ele>
        <time>2013-06-16T10:12:50Z</time>
      </trkpt>
      <trkpt lat="-20.91567" lon="55.4169">
        <ele>775.8</ele>
        <time>2013-06-16T10:12:56Z</time>
      </trkpt>
      <trkpt lat="-20.91562" lon="55.41695">
        <ele>774.8</ele>
        <time>2013-06-16T10:13:02Z</time>
      </trkpt>
      <trkpt lat="-20.91553" lon="55.41699">
        <ele>773</ele>
        <time>2013-06-16T10:13:08Z</time>
      </trkpt>
      <trkpt lat="-20.91546" lon="55.41702">
        <ele>772.1</ele>
        <time>2013-06-16T10:13:13Z</time>
      </trkpt>
      <trkpt lat="-20.91539" lon="55.41705">
        <ele>770.8</ele>
        <time>2013-06-16T10:13:19Z</time>
      </trkpt>
      <trkpt lat="-20.91531" lon="55.41707">
        <ele>768.5</ele>
        <time>2013-06-16T10:13:25Z</time>
      </trkpt>
      <trkpt lat="-20.91523" lon="55.41709">
        <ele>765.7</ele>
        <time>2013-06-16T10:13:31Z</time>
      </trkpt>
      <trkpt lat="-20.91521" lon="55.41709">
        <ele>765.5</ele>
        <time>2013-06-16T10:13:32Z</time>
      </trkpt>
      <trkpt lat="-20.91508" lon="55.41716">
        <ele>760.8</ele>
        <time>2013-06-16T10:13:43Z</time>
      </trkpt>
      <trkpt lat="-20.91501" lon="55.4172">
        <ele>757.6</ele>
        <time>2013-06-16T10:13:50Z</time>
      </trkpt>
      <trkpt lat="-20.91495" lon="55.41726">
        <ele>754</ele>
        <time>2013-06-16T10:13:59Z</time>
      </trkpt>
      <trkpt lat="-20.91487" lon="55.4173">
        <ele>750.8</ele>
        <time>2013-06-16T10:14:07Z</time>
      </trkpt>
      <trkpt lat="-20.91483" lon="55.41738">
        <ele>749.5</ele>
        <time>2013-06-16T10:14:13Z</time>
      </trkpt>
      <trkpt lat="-20.9148" lon="55.41747">
        <ele>749.2</ele>
        <time>2013-06-16T10:14:19Z</time>
      </trkpt>
      <trkpt lat="-20.91473" lon="55.41752">
        <ele>749.4</ele>
        <time>2013-06-16T10:14:24Z</time>
      </trkpt>
      <trkpt lat="-20.91466" lon="55.41747">
        <ele>750.7</ele>
        <time>2013-06-16T10:14:29Z</time>
      </trkpt>
      <trkpt lat="-20.91458" lon="55.41734">
        <ele>751</ele>
        <time>2013-06-16T10:14:36Z</time>
      </trkpt>
      <trkpt lat="-20.91457" lon="55.41736">
        <ele>751.8</ele>
        <time>2013-06-16T10:14:38Z</time>
      </trkpt>
      <trkpt lat="-20.91457" lon="55.41764">
        <ele>754.1</ele>
        <time>2013-06-16T10:14:52Z</time>
      </trkpt>
      <trkpt lat="-20.9145" lon="55.41771">
        <ele>755</ele>
        <time>2013-06-16T10:14:57Z</time>
      </trkpt>
      <trkpt lat="-20.9144" lon="55.41775">
        <ele>757.6</ele>
        <time>2013-06-16T10:15:03Z</time>
      </trkpt>
      <trkpt lat="-20.91433" lon="55.41776">
        <ele>757.4</ele>
        <time>2013-06-16T10:15:06Z</time>
      </trkpt>
      <trkpt lat="-20.91425" lon="55.4178">
        <ele>757.8</ele>
        <time>2013-06-16T10:15:10Z</time>
      </trkpt>
      <trkpt lat="-20.91419" lon="55.41785">
        <ele>757.3</ele>
        <time>2013-06-16T10:15:13Z</time>
      </trkpt>
      <trkpt lat="-20.91416" lon="55.41793">
        <ele>756.7</ele>
        <time>2013-06-16T10:15:17Z</time>
      </trkpt>
      <trkpt lat="-20.91416" lon="55.41801">
        <ele>756.4</ele>
        <time>2013-06-16T10:15:20Z</time>
      </trkpt>
      <trkpt lat="-20.91413" lon="55.41808">
        <ele>756.5</ele>
        <time>2013-06-16T10:15:23Z</time>
      </trkpt>
      <trkpt lat="-20.91412" lon="55.41817">
        <ele>756.8</ele>
        <time>2013-06-16T10:15:27Z</time>
      </trkpt>
      <trkpt lat="-20.91411" lon="55.41825">
        <ele>756.1</ele>
        <time>2013-06-16T10:15:30Z</time>
      </trkpt>
      <trkpt lat="-20.91409" lon="55.41833">
        <ele>755.2</ele>
        <time>2013-06-16T10:15:33Z</time>
      </trkpt>
      <trkpt lat="-20.91408" lon="55.41841">
        <ele>754.4</ele>
        <time>2013-06-16T10:15:36Z</time>
      </trkpt>
      <trkpt lat="-20.91406" lon="55.41849">
        <ele>753.3</ele>
        <time>2013-06-16T10:15:39Z</time>
      </trkpt>
      <trkpt lat="-20.91405" lon="55.41851">
        <ele>753</ele>
        <time>2013-06-16T10:15:40Z</time>
      </trkpt>
      <trkpt lat="-20.91398" lon="55.41864">
        <ele>752</ele>
        <time>2013-06-16T10:15:47Z</time>
      </trkpt>
      <trkpt lat="-20.91391" lon="55.4187">
        <ele>750.8</ele>
        <time>2013-06-16T10:15:51Z</time>
      </trkpt>
      <trkpt lat="-20.91387" lon="55.41877">
        <ele>750.6</ele>
        <time>2013-06-16T10:15:55Z</time>
      </trkpt>
      <trkpt lat="-20.91382" lon="55.41885">
        <ele>749.7</ele>
        <time>2013-06-16T10:15:59Z</time>
      </trkpt>
      <trkpt lat="-20.91379" lon="55.41894">
        <ele>748.8</ele>
        <time>2013-06-16T10:16:02Z</time>
      </trkpt>
      <trkpt lat="-20.91378" lon="55.41901">
        <ele>748.9</ele>
        <time>2013-06-16T10:16:05Z</time>
      </trkpt>
      <trkpt lat="-20.91378" lon="55.41909">
        <ele>749.5</ele>
        <time>2013-06-16T10:16:08Z</time>
      </trkpt>
      <trkpt lat="-20.91377" lon="55.41917">
        <ele>749.2</ele>
        <time>2013-06-16T10:16:11Z</time>
      </trkpt>
      <trkpt lat="-20.91377" lon="55.41926">
        <ele>748.9</ele>
        <time>2013-06-16T10:16:15Z</time>
      </trkpt>
      <trkpt lat="-20.91375" lon="55.41935">
        <ele>749.3</ele>
        <time>2013-06-16T10:16:19Z</time>
      </trkpt>
      <trkpt lat="-20.91371" lon="55.41943">
        <ele>749.4</ele>
        <time>2013-06-16T10:16:24Z</time>
      </trkpt>
      <trkpt lat="-20.91367" lon="55.41951">
        <ele>749.9</ele>
        <time>2013-06-16T10:16:33Z</time>
      </trkpt>
      <trkpt lat="-20.91359" lon="55.41952">
        <ele>751</ele>
        <time>2013-06-16T10:16:44Z</time>
      </trkpt>
      <trkpt lat="-20.91358" lon="55.41952">
        <ele>751.3</ele>
        <time>2013-06-16T10:16:45Z</time>
      </trkpt>
      <trkpt lat="-20.91349" lon="55.41965">
        <ele>755.4</ele>
        <time>2013-06-16T10:17:01Z</time>
      </trkpt>
      <trkpt lat="-20.91344" lon="55.41979">
        <ele>756</ele>
        <time>2013-06-16T10:17:08Z</time>
      </trkpt>
      <trkpt lat="-20.91344" lon="55.41999">
        <ele>757</ele>
        <time>2013-06-16T10:17:12Z</time>
      </trkpt>
      <trkpt lat="-20.91341" lon="55.42011">
        <ele>758</ele>
        <time>2013-06-16T10:17:16Z</time>
      </trkpt>
      <trkpt lat="-20.91333" lon="55.42007">
        <ele>758.6</ele>
        <time>2013-06-16T10:17:22Z</time>
      </trkpt>
      <trkpt lat="-20.91325" lon="55.42006">
        <ele>757.6</ele>
        <time>2013-06-16T10:17:30Z</time>
      </trkpt>
      <trkpt lat="-20.91318" lon="55.4201">
        <ele>757.5</ele>
        <time>2013-06-16T10:17:36Z</time>
      </trkpt>
      <trkpt lat="-20.91312" lon="55.42015">
        <ele>756.3</ele>
        <time>2013-06-16T10:17:41Z</time>
      </trkpt>
      <trkpt lat="-20.91305" lon="55.4202">
        <ele>757.2</ele>
        <time>2013-06-16T10:17:47Z</time>
      </trkpt>
      <trkpt lat="-20.91304" lon="55.4202">
        <ele>757.4</ele>
        <time>2013-06-16T10:17:48Z</time>
      </trkpt>
      <trkpt lat="-20.91289" lon="55.42025">
        <ele>757.6</ele>
        <time>2013-06-16T10:18:00Z</time>
      </trkpt>
      <trkpt lat="-20.91281" lon="55.42027">
        <ele>758.6</ele>
        <time>2013-06-16T10:18:06Z</time>
      </trkpt>
      <trkpt lat="-20.91274" lon="55.42027">
        <ele>759.4</ele>
        <time>2013-06-16T10:18:11Z</time>
      </trkpt>
      <trkpt lat="-20.91266" lon="55.4203">
        <ele>758.9</ele>
        <time>2013-06-16T10:18:15Z</time>
      </trkpt>
      <trkpt lat="-20.91261" lon="55.42037">
        <ele>758.2</ele>
        <time>2013-06-16T10:18:19Z</time>
      </trkpt>
      <trkpt lat="-20.91257" lon="55.42045">
        <ele>757.3</ele>
        <time>2013-06-16T10:18:23Z</time>
      </trkpt>
      <trkpt lat="-20.91255" lon="55.42053">
        <ele>756.3</ele>
        <time>2013-06-16T10:18:27Z</time>
      </trkpt>
      <trkpt lat="-20.91251" lon="55.42062">
        <ele>756.3</ele>
        <time>2013-06-16T10:18:31Z</time>
      </trkpt>
      <trkpt lat="-20.91249" lon="55.4207">
        <ele>756.2</ele>
        <time>2013-06-16T10:18:35Z</time>
      </trkpt>
      <trkpt lat="-20.91248" lon="55.42078">
        <ele>756.8</ele>
        <time>2013-06-16T10:18:41Z</time>
      </trkpt>
      <trkpt lat="-20.91244" lon="55.42085">
        <ele>756.4</ele>
        <time>2013-06-16T10:18:47Z</time>
      </trkpt>
      <trkpt lat="-20.91239" lon="55.42092">
        <ele>757.3</ele>
        <time>2013-06-16T10:18:54Z</time>
      </trkpt>
      <trkpt lat="-20.91238" lon="55.42093">
        <ele>757.7</ele>
        <time>2013-06-16T10:18:55Z</time>
      </trkpt>
      <trkpt lat="-20.91227" lon="55.42104">
        <ele>759</ele>
        <time>2013-06-16T10:19:06Z</time>
      </trkpt>
      <trkpt lat="-20.91223" lon="55.4211">
        <ele>759.4</ele>
        <time>2013-06-16T10:19:10Z</time>
      </trkpt>
      <trkpt lat="-20.91216" lon="55.42115">
        <ele>760</ele>
        <time>2013-06-16T10:19:15Z</time>
      </trkpt>
      <trkpt lat="-20.9121" lon="55.4212">
        <ele>760.3</ele>
        <time>2013-06-16T10:19:20Z</time>
      </trkpt>
      <trkpt lat="-20.91202" lon="55.4212">
        <ele>760.5</ele>
        <time>2013-06-16T10:19:26Z</time>
      </trkpt>
      <trkpt lat="-20.91194" lon="55.42119">
        <ele>760.5</ele>
        <time>2013-06-16T10:19:31Z</time>
      </trkpt>
      <trkpt lat="-20.91186" lon="55.4212">
        <ele>761.4</ele>
        <time>2013-06-16T10:19:36Z</time>
      </trkpt>
      <trkpt lat="-20.91177" lon="55.42122">
        <ele>760.7</ele>
        <time>2013-06-16T10:19:41Z</time>
      </trkpt>
      <trkpt lat="-20.9117" lon="55.42126">
        <ele>760.8</ele>
        <time>2013-06-16T10:19:46Z</time>
      </trkpt>
      <trkpt lat="-20.91163" lon="55.42131">
        <ele>760</ele>
        <time>2013-06-16T10:19:51Z</time>
      </trkpt>
      <trkpt lat="-20.91156" lon="55.42137">
        <ele>759.2</ele>
        <time>2013-06-16T10:19:55Z</time>
      </trkpt>
      <trkpt lat="-20.91153" lon="55.42138">
        <ele>759.2</ele>
        <time>2013-06-16T10:19:56Z</time>
      </trkpt>
      <trkpt lat="-20.91141" lon="55.42142">
        <ele>758.7</ele>
        <time>2013-06-16T10:20:01Z</time>
      </trkpt>
      <trkpt lat="-20.91135" lon="55.42145">
        <ele>759.1</ele>
        <time>2013-06-16T10:20:04Z</time>
      </trkpt>
      <trkpt lat="-20.91128" lon="55.42147">
        <ele>758.3</ele>
        <time>2013-06-16T10:20:07Z</time>
      </trkpt>
      <trkpt lat="-20.91121" lon="55.42147">
        <ele>757.5</ele>
        <time>2013-06-16T10:20:10Z</time>
      </trkpt>
      <trkpt lat="-20.91114" lon="55.42147">
        <ele>757.2</ele>
        <time>2013-06-16T10:20:13Z</time>
      </trkpt>
      <trkpt lat="-20.91106" lon="55.42147">
        <ele>756.6</ele>
        <time>2013-06-16T10:20:16Z</time>
      </trkpt>
      <trkpt lat="-20.91098" lon="55.42147">
        <ele>756.2</ele>
        <time>2013-06-16T10:20:20Z</time>
      </trkpt>
      <trkpt lat="-20.9109" lon="55.42143">
        <ele>755</ele>
        <time>2013-06-16T10:20:24Z</time>
      </trkpt>
      <trkpt lat="-20.91084" lon="55.42137">
        <ele>752.7</ele>
        <time>2013-06-16T10:20:28Z</time>
      </trkpt>
      <trkpt lat="-20.9108" lon="55.42129">
        <ele>749.9</ele>
        <time>2013-06-16T10:20:32Z</time>
      </trkpt>
      <trkpt lat="-20.91076" lon="55.42122">
        <ele>747.2</ele>
        <time>2013-06-16T10:20:36Z</time>
      </trkpt>
      <trkpt lat="-20.9107" lon="55.42117">
        <ele>744.4</ele>
        <time>2013-06-16T10:20:40Z</time>
      </trkpt>
      <trkpt lat="-20.91064" lon="55.42113">
        <ele>743.4</ele>
        <time>2013-06-16T10:20:43Z</time>
      </trkpt>
      <trkpt lat="-20.91056" lon="55.42111">
        <ele>742.5</ele>
        <time>2013-06-16T10:20:46Z</time>
      </trkpt>
      <trkpt lat="-20.91048" lon="55.42112">
        <ele>741.6</ele>
        <time>2013-06-16T10:20:49Z</time>
      </trkpt>
      <trkpt lat="-20.9104" lon="55.42116">
        <ele>740.8</ele>
        <time>2013-06-16T10:20:52Z</time>
      </trkpt>
      <trkpt lat="-20.91036" lon="55.42124">
        <ele>739.5</ele>
        <time>2013-06-16T10:20:55Z</time>
      </trkpt>
      <trkpt lat="-20.91036" lon="55.42131">
        <ele>738.3</ele>
        <time>2013-06-16T10:20:58Z</time>
      </trkpt>
      <trkpt lat="-20.91037" lon="55.42134">
        <ele>737.9</ele>
        <time>2013-06-16T10:20:59Z</time>
      </trkpt>
      <trkpt lat="-20.91041" lon="55.42147">
        <ele>737.7</ele>
        <time>2013-06-16T10:21:05Z</time>
      </trkpt>
      <trkpt lat="-20.91045" lon="55.42153">
        <ele>737.2</ele>
        <time>2013-06-16T10:21:08Z</time>
      </trkpt>
      <trkpt lat="-20.91049" lon="55.42161">
        <ele>736.3</ele>
        <time>2013-06-16T10:21:11Z</time>
      </trkpt>
      <trkpt lat="-20.91053" lon="55.42168">
        <ele>737.4</ele>
        <time>2013-06-16T10:21:14Z</time>
      </trkpt>
      <trkpt lat="-20.91055" lon="55.42175">
        <ele>737.6</ele>
        <time>2013-06-16T10:21:17Z</time>
      </trkpt>
      <trkpt lat="-20.91054" lon="55.42183">
        <ele>737.8</ele>
        <time>2013-06-16T10:21:20Z</time>
      </trkpt>
      <trkpt lat="-20.91053" lon="55.4219">
        <ele>737.3</ele>
        <time>2013-06-16T10:21:23Z</time>
      </trkpt>
      <trkpt lat="-20.9105" lon="55.42197">
        <ele>737.7</ele>
        <time>2013-06-16T10:21:26Z</time>
      </trkpt>
      <trkpt lat="-20.91046" lon="55.42203">
        <ele>737.3</ele>
        <time>2013-06-16T10:21:29Z</time>
      </trkpt>
      <trkpt lat="-20.91041" lon="55.42209">
        <ele>737</ele>
        <time>2013-06-16T10:21:32Z</time>
      </trkpt>
      <trkpt lat="-20.91035" lon="55.42213">
        <ele>736.4</ele>
        <time>2013-06-16T10:21:35Z</time>
      </trkpt>
      <trkpt lat="-20.91028" lon="55.42217">
        <ele>735.6</ele>
        <time>2013-06-16T10:21:39Z</time>
      </trkpt>
      <trkpt lat="-20.9102" lon="55.42216">
        <ele>735.4</ele>
        <time>2013-06-16T10:21:43Z</time>
      </trkpt>
      <trkpt lat="-20.91012" lon="55.42216">
        <ele>734.9</ele>
        <time>2013-06-16T10:21:47Z</time>
      </trkpt>
      <trkpt lat="-20.91004" lon="55.42215">
        <ele>735</ele>
        <time>2013-06-16T10:21:51Z</time>
      </trkpt>
      <trkpt lat="-20.90996" lon="55.42215">
        <ele>735</ele>
        <time>2013-06-16T10:21:55Z</time>
      </trkpt>
      <trkpt lat="-20.90988" lon="55.42214">
        <ele>735.2</ele>
        <time>2013-06-16T10:21:58Z</time>
      </trkpt>
      <trkpt lat="-20.90981" lon="55.42212">
        <ele>734.2</ele>
        <time>2013-06-16T10:22:01Z</time>
      </trkpt>
      <trkpt lat="-20.90978" lon="55.42211">
        <ele>733.9</ele>
        <time>2013-06-16T10:22:02Z</time>
      </trkpt>
      <trkpt lat="-20.90967" lon="55.42207">
        <ele>732.5</ele>
        <time>2013-06-16T10:22:07Z</time>
      </trkpt>
      <trkpt lat="-20.90959" lon="55.42205">
        <ele>731.9</ele>
        <time>2013-06-16T10:22:11Z</time>
      </trkpt>
      <trkpt lat="-20.90951" lon="55.42202">
        <ele>731.3</ele>
        <time>2013-06-16T10:22:15Z</time>
      </trkpt>
      <trkpt lat="-20.90942" lon="55.422">
        <ele>730.9</ele>
        <time>2013-06-16T10:22:19Z</time>
      </trkpt>
      <trkpt lat="-20.90934" lon="55.42199">
        <ele>730.3</ele>
        <time>2013-06-16T10:22:23Z</time>
      </trkpt>
      <trkpt lat="-20.90927" lon="55.42196">
        <ele>728.9</ele>
        <time>2013-06-16T10:22:28Z</time>
      </trkpt>
      <trkpt lat="-20.90921" lon="55.42188">
        <ele>725.7</ele>
        <time>2013-06-16T10:22:34Z</time>
      </trkpt>
      <trkpt lat="-20.90918" lon="55.42182">
        <ele>724</ele>
        <time>2013-06-16T10:22:37Z</time>
      </trkpt>
      <trkpt lat="-20.90913" lon="55.42174">
        <ele>722.2</ele>
        <time>2013-06-16T10:22:41Z</time>
      </trkpt>
      <trkpt lat="-20.90905" lon="55.42172">
        <ele>721.3</ele>
        <time>2013-06-16T10:22:44Z</time>
      </trkpt>
      <trkpt lat="-20.90899" lon="55.42178">
        <ele>719.8</ele>
        <time>2013-06-16T10:22:47Z</time>
      </trkpt>
      <trkpt lat="-20.90896" lon="55.42185">
        <ele>719.6</ele>
        <time>2013-06-16T10:22:50Z</time>
      </trkpt>
      <trkpt lat="-20.90893" lon="55.42193">
        <ele>719</ele>
        <time>2013-06-16T10:22:53Z</time>
      </trkpt>
      <trkpt lat="-20.90888" lon="55.422">
        <ele>718.7</ele>
        <time>2013-06-16T10:22:56Z</time>
      </trkpt>
      <trkpt lat="-20.90881" lon="55.42205">
        <ele>717.9</ele>
        <time>2013-06-16T10:22:59Z</time>
      </trkpt>
      <trkpt lat="-20.90874" lon="55.42207">
        <ele>717.6</ele>
        <time>2013-06-16T10:23:02Z</time>
      </trkpt>
      <trkpt lat="-20.90871" lon="55.42207">
        <ele>717.4</ele>
        <time>2013-06-16T10:23:03Z</time>
      </trkpt>
      <trkpt lat="-20.90857" lon="55.42208">
        <ele>714.7</ele>
        <time>2013-06-16T10:23:08Z</time>
      </trkpt>
      <trkpt lat="-20.90851" lon="55.42212">
        <ele>713.8</ele>
        <time>2013-06-16T10:23:11Z</time>
      </trkpt>
      <trkpt lat="-20.90845" lon="55.42219">
        <ele>713.1</ele>
        <time>2013-06-16T10:23:14Z</time>
      </trkpt>
      <trkpt lat="-20.90843" lon="55.42227">
        <ele>712.3</ele>
        <time>2013-06-16T10:23:17Z</time>
      </trkpt>
      <trkpt lat="-20.90841" lon="55.42234">
        <ele>712.4</ele>
        <time>2013-06-16T10:23:20Z</time>
      </trkpt>
      <trkpt lat="-20.90839" lon="55.42243">
        <ele>711.9</ele>
        <time>2013-06-16T10:23:23Z</time>
      </trkpt>
      <trkpt lat="-20.90837" lon="55.42251">
        <ele>711.7</ele>
        <time>2013-06-16T10:23:26Z</time>
      </trkpt>
      <trkpt lat="-20.90834" lon="55.42259">
        <ele>711.7</ele>
        <time>2013-06-16T10:23:29Z</time>
      </trkpt>
      <trkpt lat="-20.90833" lon="55.42267">
        <ele>711.7</ele>
        <time>2013-06-16T10:23:32Z</time>
      </trkpt>
      <trkpt lat="-20.90829" lon="55.42273">
        <ele>711.4</ele>
        <time>2013-06-16T10:23:35Z</time>
      </trkpt>
      <trkpt lat="-20.90827" lon="55.4228">
        <ele>712.2</ele>
        <time>2013-06-16T10:23:38Z</time>
      </trkpt>
      <trkpt lat="-20.90826" lon="55.42287">
        <ele>713.1</ele>
        <time>2013-06-16T10:23:41Z</time>
      </trkpt>
      <trkpt lat="-20.90826" lon="55.42296">
        <ele>713.6</ele>
        <time>2013-06-16T10:23:45Z</time>
      </trkpt>
      <trkpt lat="-20.90826" lon="55.42304">
        <ele>714.1</ele>
        <time>2013-06-16T10:23:48Z</time>
      </trkpt>
      <trkpt lat="-20.90825" lon="55.42311">
        <ele>715.4</ele>
        <time>2013-06-16T10:23:51Z</time>
      </trkpt>
      <trkpt lat="-20.90826" lon="55.4232">
        <ele>714.6</ele>
        <time>2013-06-16T10:23:56Z</time>
      </trkpt>
      <trkpt lat="-20.90832" lon="55.42327">
        <ele>713.6</ele>
        <time>2013-06-16T10:24:21Z</time>
      </trkpt>
      <trkpt lat="-20.90833" lon="55.42328">
        <ele>714</ele>
        <time>2013-06-16T10:24:22Z</time>
      </trkpt>
      <trkpt lat="-20.90828" lon="55.42346">
        <ele>713.9</ele>
        <time>2013-06-16T10:25:21Z</time>
      </trkpt>
      <trkpt lat="-20.90827" lon="55.42343">
        <ele>713.3</ele>
        <time>2013-06-16T10:26:16Z</time>
      </trkpt>
      <trkpt lat="-20.90827" lon="55.42343">
        <ele>713.3</ele>
        <time>2013-06-16T10:26:16Z</time>
      </trkpt>
      <trkpt lat="-20.90827" lon="55.42343">
        <ele>713.3</ele>
        <time>2013-06-16T10:26:16Z</time>
      </trkpt>
      <trkpt lat="-20.90827" lon="55.42344">
        <ele>713</ele>
        <time>2013-06-16T10:26:23Z</time>
      </trkpt>
    </trkseg>
  </trk>
</gpx>